<?xml version='1.0' encoding='UTF-8'?><gpx version="1.1" creator="JPX - https://github.com/jenetics/jpx" xmlns="http://www.topografix.com/GPX/1/1"><trk><trkseg><trkpt lat="43.4568252" lon="11.8047179"><ele>266.0</ele><time>2026-03-22T14:15:28.772Z</time></trkpt><trkpt lat="43.4568177" lon="11.8046189"><ele>266.0</ele><time>2026-03-22T14:15:32.771Z</time></trkpt><trkpt lat="43.4567516" lon="11.8045532"><ele>266.0</ele><time>2026-03-22T14:15:35.772Z</time></trkpt><trkpt lat="43.4566751" lon="11.8045274"><ele>266.0</ele><time>2026-03-22T14:15:37.771Z</time></trkpt><trkpt lat="43.4566112" lon="11.8045059"><ele>266.0</ele><time>2026-03-22T14:15:38.771Z</time></trkpt><trkpt lat="43.4564936" lon="11.8044731"><ele>266.0</ele><time>2026-03-22T14:15:40.771Z</time></trkpt><trkpt lat="43.4564271" lon="11.8044513"><ele>266.0</ele><time>2026-03-22T14:15:41.772Z</time></trkpt><trkpt lat="43.4563598" lon="11.8044321"><ele>266.0</ele><time>2026-03-22T14:15:42.771Z</time></trkpt><trkpt lat="43.4562468" lon="11.8044078"><ele>266.0</ele><time>2026-03-22T14:15:44.772Z</time></trkpt><trkpt lat="43.4561194" lon="11.8043827"><ele>266.0</ele><time>2026-03-22T14:15:46.77Z</time></trkpt><trkpt lat="43.4560478" lon="11.8043778"><ele>266.0</ele><time>2026-03-22T14:15:47.771Z</time></trkpt><trkpt lat="43.4559716" lon="11.8043833"><ele>264.83333333333337</ele><time>2026-03-22T14:15:48.772Z</time></trkpt><trkpt lat="43.4558887" lon="11.8043939"><ele>263.6666666666667</ele><time>2026-03-22T14:15:49.772Z</time></trkpt><trkpt lat="43.4557996" lon="11.8043986"><ele>262.5</ele><time>2026-03-22T14:15:50.772Z</time></trkpt><trkpt lat="43.4557107" lon="11.8044082"><ele>261.3333333333333</ele><time>2026-03-22T14:15:51.772Z</time></trkpt><trkpt lat="43.4556229" lon="11.8044224"><ele>260.16666666666663</ele><time>2026-03-22T14:15:52.771Z</time></trkpt><trkpt lat="43.4555391" lon="11.8044297"><ele>259.0</ele><time>2026-03-22T14:15:53.771Z</time></trkpt><trkpt lat="43.4554602" lon="11.8044405"><ele>258.66666666666663</ele><time>2026-03-22T14:15:54.771Z</time></trkpt><trkpt lat="43.4553821" lon="11.8044518"><ele>258.3333333333333</ele><time>2026-03-22T14:15:55.772Z</time></trkpt><trkpt lat="43.4553028" lon="11.8044576"><ele>258.0</ele><time>2026-03-22T14:15:56.772Z</time></trkpt><trkpt lat="43.455226" lon="11.8044618"><ele>257.6666666666667</ele><time>2026-03-22T14:15:57.771Z</time></trkpt><trkpt lat="43.4551606" lon="11.8044656"><ele>257.33333333333337</ele><time>2026-03-22T14:15:58.771Z</time></trkpt><trkpt lat="43.4550618" lon="11.8044755"><ele>257.0</ele><time>2026-03-22T14:16:00.771Z</time></trkpt><trkpt lat="43.4549988" lon="11.8044848"><ele>257.0</ele><time>2026-03-22T14:16:02.772Z</time></trkpt><trkpt lat="43.4549366" lon="11.8045152"><ele>257.0</ele><time>2026-03-22T14:16:04.772Z</time></trkpt><trkpt lat="43.4548544" lon="11.8045962"><ele>257.0</ele><time>2026-03-22T14:16:06.771Z</time></trkpt><trkpt lat="43.454793" lon="11.804732"><ele>257.0</ele><time>2026-03-22T14:16:08.772Z</time></trkpt><trkpt lat="43.4547598" lon="11.8048105"><ele>257.0</ele><time>2026-03-22T14:16:09.772Z</time></trkpt><trkpt lat="43.4547197" lon="11.8049057"><ele>257.0</ele><time>2026-03-22T14:16:10.77Z</time></trkpt><trkpt lat="43.4546818" lon="11.8050073"><ele>257.0</ele><time>2026-03-22T14:16:11.771Z</time></trkpt><trkpt lat="43.4546456" lon="11.8051079"><ele>257.0</ele><time>2026-03-22T14:16:12.772Z</time></trkpt><trkpt lat="43.4546101" lon="11.8052113"><ele>257.0</ele><time>2026-03-22T14:16:13.772Z</time></trkpt><trkpt lat="43.4545709" lon="11.8053119"><ele>257.0</ele><time>2026-03-22T14:16:14.772Z</time></trkpt><trkpt lat="43.4545345" lon="11.8054148"><ele>257.0</ele><time>2026-03-22T14:16:15.771Z</time></trkpt><trkpt lat="43.4545018" lon="11.8055124"><ele>257.0</ele><time>2026-03-22T14:16:16.772Z</time></trkpt><trkpt lat="43.4544589" lon="11.8056079"><ele>256.0</ele><time>2026-03-22T14:16:17.771Z</time></trkpt><trkpt lat="43.4544214" lon="11.8057025"><ele>255.0</ele><time>2026-03-22T14:16:18.771Z</time></trkpt><trkpt lat="43.4543987" lon="11.805799"><ele>254.0</ele><time>2026-03-22T14:16:19.771Z</time></trkpt><trkpt lat="43.4543753" lon="11.8058896"><ele>253.0</ele><time>2026-03-22T14:16:20.771Z</time></trkpt><trkpt lat="43.4543354" lon="11.8060112"><ele>252.00000000000003</ele><time>2026-03-22T14:16:22.772Z</time></trkpt><trkpt lat="43.4542946" lon="11.806094"><ele>251.0</ele><time>2026-03-22T14:16:24.771Z</time></trkpt><trkpt lat="43.4541942" lon="11.8061409"><ele>250.20000000000002</ele><time>2026-03-22T14:16:37.771Z</time></trkpt><trkpt lat="43.4541188" lon="11.8061359"><ele>249.40000000000003</ele><time>2026-03-22T14:16:38.77Z</time></trkpt><trkpt lat="43.4540188" lon="11.8061203"><ele>248.6</ele><time>2026-03-22T14:16:39.771Z</time></trkpt><trkpt lat="43.4539194" lon="11.806093"><ele>247.8</ele><time>2026-03-22T14:16:40.771Z</time></trkpt><trkpt lat="43.4538211" lon="11.8060595"><ele>247.0</ele><time>2026-03-22T14:16:41.77Z</time></trkpt><trkpt lat="43.4537181" lon="11.8060213"><ele>247.75</ele><time>2026-03-22T14:16:42.771Z</time></trkpt><trkpt lat="43.4536073" lon="11.8059941"><ele>248.5</ele><time>2026-03-22T14:16:43.77Z</time></trkpt><trkpt lat="43.4534897" lon="11.8059723"><ele>249.25</ele><time>2026-03-22T14:16:44.77Z</time></trkpt><trkpt lat="43.4533693" lon="11.8059582"><ele>250.0</ele><time>2026-03-22T14:16:45.77Z</time></trkpt><trkpt lat="43.4532462" lon="11.8059413"><ele>250.0</ele><time>2026-03-22T14:16:46.77Z</time></trkpt><trkpt lat="43.4531159" lon="11.8059297"><ele>250.0</ele><time>2026-03-22T14:16:47.771Z</time></trkpt><trkpt lat="43.4529869" lon="11.8059174"><ele>250.0</ele><time>2026-03-22T14:16:48.77Z</time></trkpt><trkpt lat="43.4528682" lon="11.8058969"><ele>250.0</ele><time>2026-03-22T14:16:49.77Z</time></trkpt><trkpt lat="43.452753" lon="11.8058599"><ele>249.75</ele><time>2026-03-22T14:16:50.77Z</time></trkpt><trkpt lat="43.4526416" lon="11.8058101"><ele>249.5</ele><time>2026-03-22T14:16:51.77Z</time></trkpt><trkpt lat="43.4525354" lon="11.8057415"><ele>249.25</ele><time>2026-03-22T14:16:52.77Z</time></trkpt><trkpt lat="43.4524359" lon="11.8056498"><ele>249.0</ele><time>2026-03-22T14:16:53.771Z</time></trkpt><trkpt lat="43.4523442" lon="11.8055353"><ele>249.0</ele><time>2026-03-22T14:16:54.77Z</time></trkpt><trkpt lat="43.4522582" lon="11.8054101"><ele>249.0</ele><time>2026-03-22T14:16:55.771Z</time></trkpt><trkpt lat="43.4521708" lon="11.8052813"><ele>249.0</ele><time>2026-03-22T14:16:56.771Z</time></trkpt><trkpt lat="43.4520782" lon="11.8051508"><ele>249.0</ele><time>2026-03-22T14:16:57.771Z</time></trkpt><trkpt lat="43.4519835" lon="11.8050174"><ele>248.75</ele><time>2026-03-22T14:16:58.771Z</time></trkpt><trkpt lat="43.4518909" lon="11.8048721"><ele>248.5</ele><time>2026-03-22T14:16:59.771Z</time></trkpt><trkpt lat="43.4518073" lon="11.804717"><ele>248.25</ele><time>2026-03-22T14:17:00.771Z</time></trkpt><trkpt lat="43.4517267" lon="11.8045566"><ele>248.0</ele><time>2026-03-22T14:17:01.77Z</time></trkpt><trkpt lat="43.4516481" lon="11.8044082"><ele>248.25</ele><time>2026-03-22T14:17:02.77Z</time></trkpt><trkpt lat="43.45157" lon="11.8042723"><ele>248.5</ele><time>2026-03-22T14:17:03.771Z</time></trkpt><trkpt lat="43.451489" lon="11.8041307"><ele>248.75</ele><time>2026-03-22T14:17:04.771Z</time></trkpt><trkpt lat="43.451415" lon="11.8039776"><ele>249.0</ele><time>2026-03-22T14:17:05.771Z</time></trkpt><trkpt lat="43.4513537" lon="11.8038116"><ele>249.0</ele><time>2026-03-22T14:17:06.77Z</time></trkpt><trkpt lat="43.4513058" lon="11.8036378"><ele>249.0</ele><time>2026-03-22T14:17:07.77Z</time></trkpt><trkpt lat="43.4512745" lon="11.8034516"><ele>249.0</ele><time>2026-03-22T14:17:08.77Z</time></trkpt><trkpt lat="43.4512482" lon="11.803264"><ele>249.0</ele><time>2026-03-22T14:17:09.771Z</time></trkpt><trkpt lat="43.4512201" lon="11.803078"><ele>249.0</ele><time>2026-03-22T14:17:10.771Z</time></trkpt><trkpt lat="43.4511997" lon="11.8028945"><ele>249.0</ele><time>2026-03-22T14:17:11.771Z</time></trkpt><trkpt lat="43.4511756" lon="11.802719"><ele>249.0</ele><time>2026-03-22T14:17:12.771Z</time></trkpt><trkpt lat="43.4511456" lon="11.8025494"><ele>249.0</ele><time>2026-03-22T14:17:13.77Z</time></trkpt><trkpt lat="43.4511037" lon="11.8023855"><ele>249.25</ele><time>2026-03-22T14:17:14.771Z</time></trkpt><trkpt lat="43.4510499" lon="11.8022258"><ele>249.5</ele><time>2026-03-22T14:17:15.77Z</time></trkpt><trkpt lat="43.4509873" lon="11.8020684"><ele>249.75</ele><time>2026-03-22T14:17:16.77Z</time></trkpt><trkpt lat="43.4509213" lon="11.8019081"><ele>250.0</ele><time>2026-03-22T14:17:17.771Z</time></trkpt><trkpt lat="43.4508601" lon="11.8017489"><ele>250.0</ele><time>2026-03-22T14:17:18.77Z</time></trkpt><trkpt lat="43.4507948" lon="11.8015921"><ele>250.0</ele><time>2026-03-22T14:17:19.771Z</time></trkpt><trkpt lat="43.450728" lon="11.8014334"><ele>250.0</ele><time>2026-03-22T14:17:20.77Z</time></trkpt><trkpt lat="43.4506665" lon="11.8012785"><ele>250.0</ele><time>2026-03-22T14:17:21.771Z</time></trkpt><trkpt lat="43.4506089" lon="11.8011212"><ele>250.0</ele><time>2026-03-22T14:17:22.771Z</time></trkpt><trkpt lat="43.4505497" lon="11.8009618"><ele>250.0</ele><time>2026-03-22T14:17:23.771Z</time></trkpt><trkpt lat="43.4504867" lon="11.8008043"><ele>250.0</ele><time>2026-03-22T14:17:24.77Z</time></trkpt><trkpt lat="43.4504167" lon="11.800646"><ele>250.0</ele><time>2026-03-22T14:17:25.771Z</time></trkpt><trkpt lat="43.4503401" lon="11.8004813"><ele>250.0</ele><time>2026-03-22T14:17:26.77Z</time></trkpt><trkpt lat="43.4502641" lon="11.8003083"><ele>250.0</ele><time>2026-03-22T14:17:27.77Z</time></trkpt><trkpt lat="43.4501845" lon="11.8001362"><ele>250.0</ele><time>2026-03-22T14:17:28.77Z</time></trkpt><trkpt lat="43.4501009" lon="11.7999734"><ele>250.0</ele><time>2026-03-22T14:17:29.77Z</time></trkpt><trkpt lat="43.4500094" lon="11.7998272"><ele>250.0</ele><time>2026-03-22T14:17:30.77Z</time></trkpt><trkpt lat="43.4499069" lon="11.7996909"><ele>250.0</ele><time>2026-03-22T14:17:31.77Z</time></trkpt><trkpt lat="43.4497952" lon="11.7995676"><ele>250.0</ele><time>2026-03-22T14:17:32.771Z</time></trkpt><trkpt lat="43.4496799" lon="11.799449"><ele>250.0</ele><time>2026-03-22T14:17:33.77Z</time></trkpt><trkpt lat="43.4495668" lon="11.7993254"><ele>249.5</ele><time>2026-03-22T14:17:34.77Z</time></trkpt><trkpt lat="43.4494575" lon="11.7991944"><ele>249.0</ele><time>2026-03-22T14:17:35.771Z</time></trkpt><trkpt lat="43.4493557" lon="11.7990499"><ele>248.5</ele><time>2026-03-22T14:17:36.769Z</time></trkpt><trkpt lat="43.4492704" lon="11.7988958"><ele>248.0</ele><time>2026-03-22T14:17:37.771Z</time></trkpt><trkpt lat="43.4491921" lon="11.7987361"><ele>248.0</ele><time>2026-03-22T14:17:38.77Z</time></trkpt><trkpt lat="43.4491197" lon="11.7985716"><ele>248.0</ele><time>2026-03-22T14:17:39.769Z</time></trkpt><trkpt lat="43.4490539" lon="11.7983989"><ele>248.0</ele><time>2026-03-22T14:17:40.77Z</time></trkpt><trkpt lat="43.4489913" lon="11.7982288"><ele>248.0</ele><time>2026-03-22T14:17:41.771Z</time></trkpt><trkpt lat="43.4489261" lon="11.7980599"><ele>248.0</ele><time>2026-03-22T14:17:42.77Z</time></trkpt><trkpt lat="43.4488607" lon="11.7978901"><ele>248.0</ele><time>2026-03-22T14:17:43.771Z</time></trkpt><trkpt lat="43.4487838" lon="11.797735"><ele>248.0</ele><time>2026-03-22T14:17:44.769Z</time></trkpt><trkpt lat="43.4486938" lon="11.7976057"><ele>248.0</ele><time>2026-03-22T14:17:45.77Z</time></trkpt><trkpt lat="43.448593" lon="11.7975036"><ele>248.2</ele><time>2026-03-22T14:17:46.77Z</time></trkpt><trkpt lat="43.4484919" lon="11.797423"><ele>248.4</ele><time>2026-03-22T14:17:47.771Z</time></trkpt><trkpt lat="43.4483993" lon="11.7973482"><ele>248.59999999999997</ele><time>2026-03-22T14:17:48.77Z</time></trkpt><trkpt lat="43.4483125" lon="11.797276"><ele>248.79999999999998</ele><time>2026-03-22T14:17:49.771Z</time></trkpt><trkpt lat="43.4482299" lon="11.7972045"><ele>249.0</ele><time>2026-03-22T14:17:50.77Z</time></trkpt><trkpt lat="43.4481628" lon="11.7971255"><ele>249.0</ele><time>2026-03-22T14:17:51.771Z</time></trkpt><trkpt lat="43.4481139" lon="11.7970353"><ele>249.0</ele><time>2026-03-22T14:17:52.77Z</time></trkpt><trkpt lat="43.4480945" lon="11.7969402"><ele>249.0</ele><time>2026-03-22T14:17:53.771Z</time></trkpt><trkpt lat="43.4481052" lon="11.7968479"><ele>249.0</ele><time>2026-03-22T14:17:54.77Z</time></trkpt><trkpt lat="43.4481471" lon="11.7967695"><ele>249.0</ele><time>2026-03-22T14:17:55.77Z</time></trkpt><trkpt lat="43.4482053" lon="11.796693"><ele>249.0</ele><time>2026-03-22T14:17:56.771Z</time></trkpt><trkpt lat="43.4482698" lon="11.7965965"><ele>249.0</ele><time>2026-03-22T14:17:57.77Z</time></trkpt><trkpt lat="43.4483477" lon="11.796486"><ele>249.0</ele><time>2026-03-22T14:17:58.77Z</time></trkpt><trkpt lat="43.4484395" lon="11.7963686"><ele>249.0</ele><time>2026-03-22T14:17:59.771Z</time></trkpt><trkpt lat="43.4485389" lon="11.7962407"><ele>249.0</ele><time>2026-03-22T14:18:00.77Z</time></trkpt><trkpt lat="43.4486319" lon="11.7961228"><ele>249.0</ele><time>2026-03-22T14:18:01.77Z</time></trkpt><trkpt lat="43.4487187" lon="11.7960129"><ele>249.0</ele><time>2026-03-22T14:18:02.77Z</time></trkpt><trkpt lat="43.4488047" lon="11.7959021"><ele>249.0</ele><time>2026-03-22T14:18:03.771Z</time></trkpt><trkpt lat="43.4488927" lon="11.7957871"><ele>249.0</ele><time>2026-03-22T14:18:04.77Z</time></trkpt><trkpt lat="43.4489801" lon="11.7956718"><ele>249.5</ele><time>2026-03-22T14:18:05.771Z</time></trkpt><trkpt lat="43.4490678" lon="11.7955525"><ele>250.0</ele><time>2026-03-22T14:18:06.771Z</time></trkpt><trkpt lat="43.4491533" lon="11.7954311"><ele>250.5</ele><time>2026-03-22T14:18:07.771Z</time></trkpt><trkpt lat="43.449233" lon="11.7952963"><ele>251.0</ele><time>2026-03-22T14:18:08.77Z</time></trkpt><trkpt lat="43.449312" lon="11.7951578"><ele>252.5</ele><time>2026-03-22T14:18:09.771Z</time></trkpt><trkpt lat="43.4493924" lon="11.7950119"><ele>254.0</ele><time>2026-03-22T14:18:10.77Z</time></trkpt><trkpt lat="43.4494743" lon="11.7948596"><ele>255.5</ele><time>2026-03-22T14:18:11.77Z</time></trkpt><trkpt lat="43.4495566" lon="11.7947081"><ele>257.0</ele><time>2026-03-22T14:18:12.771Z</time></trkpt><trkpt lat="43.4496359" lon="11.7945619"><ele>257.0</ele><time>2026-03-22T14:18:13.771Z</time></trkpt><trkpt lat="43.4497144" lon="11.7944181"><ele>257.0</ele><time>2026-03-22T14:18:14.77Z</time></trkpt><trkpt lat="43.4497813" lon="11.7942879"><ele>257.0</ele><time>2026-03-22T14:18:15.769Z</time></trkpt><trkpt lat="43.4498345" lon="11.794157"><ele>257.0</ele><time>2026-03-22T14:18:16.771Z</time></trkpt><trkpt lat="43.4498757" lon="11.7940082"><ele>257.0</ele><time>2026-03-22T14:18:17.77Z</time></trkpt><trkpt lat="43.4499174" lon="11.7938532"><ele>257.0</ele><time>2026-03-22T14:18:18.771Z</time></trkpt><trkpt lat="43.4499629" lon="11.7936898"><ele>257.0</ele><time>2026-03-22T14:18:19.771Z</time></trkpt><trkpt lat="43.4500085" lon="11.7935258"><ele>257.0</ele><time>2026-03-22T14:18:20.771Z</time></trkpt><trkpt lat="43.450049" lon="11.7933665"><ele>257.0</ele><time>2026-03-22T14:18:21.77Z</time></trkpt><trkpt lat="43.4500913" lon="11.7932181"><ele>257.0</ele><time>2026-03-22T14:18:22.77Z</time></trkpt><trkpt lat="43.4501307" lon="11.7930775"><ele>257.0</ele><time>2026-03-22T14:18:23.771Z</time></trkpt><trkpt lat="43.4501657" lon="11.7929411"><ele>257.0</ele><time>2026-03-22T14:18:24.77Z</time></trkpt><trkpt lat="43.450203" lon="11.7927917"><ele>257.0</ele><time>2026-03-22T14:18:25.771Z</time></trkpt><trkpt lat="43.450243" lon="11.7926405"><ele>256.5</ele><time>2026-03-22T14:18:26.77Z</time></trkpt><trkpt lat="43.450287" lon="11.7924903"><ele>256.0</ele><time>2026-03-22T14:18:27.771Z</time></trkpt><trkpt lat="43.4503394" lon="11.7923494"><ele>255.5</ele><time>2026-03-22T14:18:28.77Z</time></trkpt><trkpt lat="43.4504008" lon="11.7922135"><ele>255.0</ele><time>2026-03-22T14:18:29.77Z</time></trkpt><trkpt lat="43.4504696" lon="11.7920923"><ele>255.0</ele><time>2026-03-22T14:18:30.77Z</time></trkpt><trkpt lat="43.4505434" lon="11.791982"><ele>255.0</ele><time>2026-03-22T14:18:31.771Z</time></trkpt><trkpt lat="43.4506252" lon="11.7918762"><ele>255.0</ele><time>2026-03-22T14:18:32.77Z</time></trkpt><trkpt lat="43.4507115" lon="11.7917746"><ele>255.0</ele><time>2026-03-22T14:18:33.771Z</time></trkpt><trkpt lat="43.4508008" lon="11.7916699"><ele>255.0</ele><time>2026-03-22T14:18:34.77Z</time></trkpt><trkpt lat="43.450892" lon="11.79156"><ele>255.0</ele><time>2026-03-22T14:18:35.77Z</time></trkpt><trkpt lat="43.4509769" lon="11.7914512"><ele>255.0</ele><time>2026-03-22T14:18:36.77Z</time></trkpt><trkpt lat="43.4510586" lon="11.7913465"><ele>255.0</ele><time>2026-03-22T14:18:37.771Z</time></trkpt><trkpt lat="43.4511387" lon="11.7912465"><ele>255.0</ele><time>2026-03-22T14:18:38.771Z</time></trkpt><trkpt lat="43.4512137" lon="11.7911539"><ele>255.0</ele><time>2026-03-22T14:18:39.77Z</time></trkpt><trkpt lat="43.4512895" lon="11.791063"><ele>255.0</ele><time>2026-03-22T14:18:40.77Z</time></trkpt><trkpt lat="43.4513668" lon="11.7909675"><ele>255.0</ele><time>2026-03-22T14:18:41.77Z</time></trkpt><trkpt lat="43.4514465" lon="11.7908681"><ele>255.0</ele><time>2026-03-22T14:18:42.771Z</time></trkpt><trkpt lat="43.4515339" lon="11.7907613"><ele>255.0</ele><time>2026-03-22T14:18:43.77Z</time></trkpt><trkpt lat="43.4516276" lon="11.7906521"><ele>255.0</ele><time>2026-03-22T14:18:44.77Z</time></trkpt><trkpt lat="43.4517179" lon="11.7905401"><ele>255.0</ele><time>2026-03-22T14:18:45.771Z</time></trkpt><trkpt lat="43.4518131" lon="11.7904365"><ele>255.0</ele><time>2026-03-22T14:18:46.77Z</time></trkpt><trkpt lat="43.4519159" lon="11.7903437"><ele>255.0</ele><time>2026-03-22T14:18:47.77Z</time></trkpt><trkpt lat="43.4520242" lon="11.7902545"><ele>255.0</ele><time>2026-03-22T14:18:48.771Z</time></trkpt><trkpt lat="43.4521313" lon="11.7901534"><ele>255.0</ele><time>2026-03-22T14:18:49.771Z</time></trkpt><trkpt lat="43.4522422" lon="11.7900725"><ele>255.0</ele><time>2026-03-22T14:18:50.77Z</time></trkpt><trkpt lat="43.4523473" lon="11.7899866"><ele>256.5</ele><time>2026-03-22T14:18:51.77Z</time></trkpt><trkpt lat="43.4524539" lon="11.7898991"><ele>258.0</ele><time>2026-03-22T14:18:52.771Z</time></trkpt><trkpt lat="43.4525584" lon="11.7898191"><ele>259.5</ele><time>2026-03-22T14:18:53.77Z</time></trkpt><trkpt lat="43.4526629" lon="11.7897405"><ele>261.0</ele><time>2026-03-22T14:18:54.77Z</time></trkpt><trkpt lat="43.4527763" lon="11.7896548"><ele>261.0</ele><time>2026-03-22T14:18:55.77Z</time></trkpt><trkpt lat="43.4528969" lon="11.7895657"><ele>261.0</ele><time>2026-03-22T14:18:56.771Z</time></trkpt><trkpt lat="43.4529976" lon="11.7894952"><ele>261.0</ele><time>2026-03-22T14:18:57.77Z</time></trkpt><trkpt lat="43.4530961" lon="11.7894417"><ele>261.0</ele><time>2026-03-22T14:18:58.77Z</time></trkpt><trkpt lat="43.4531965" lon="11.7894012"><ele>262.8</ele><time>2026-03-22T14:18:59.77Z</time></trkpt><trkpt lat="43.4532896" lon="11.789367"><ele>264.6</ele><time>2026-03-22T14:19:00.771Z</time></trkpt><trkpt lat="43.4533795" lon="11.7893115"><ele>266.4</ele><time>2026-03-22T14:19:01.77Z</time></trkpt><trkpt lat="43.4534725" lon="11.7892414"><ele>268.2</ele><time>2026-03-22T14:19:02.77Z</time></trkpt><trkpt lat="43.4535688" lon="11.7891769"><ele>270.0</ele><time>2026-03-22T14:19:03.771Z</time></trkpt><trkpt lat="43.4536692" lon="11.7891124"><ele>270.0</ele><time>2026-03-22T14:19:04.77Z</time></trkpt><trkpt lat="43.4537725" lon="11.789058"><ele>270.0</ele><time>2026-03-22T14:19:05.77Z</time></trkpt><trkpt lat="43.4538789" lon="11.7890157"><ele>270.0</ele><time>2026-03-22T14:19:06.771Z</time></trkpt><trkpt lat="43.4539917" lon="11.7889582"><ele>270.0</ele><time>2026-03-22T14:19:07.77Z</time></trkpt><trkpt lat="43.4541066" lon="11.7888923"><ele>272.2</ele><time>2026-03-22T14:19:08.77Z</time></trkpt><trkpt lat="43.4542062" lon="11.7888319"><ele>274.4</ele><time>2026-03-22T14:19:09.771Z</time></trkpt><trkpt lat="43.4542978" lon="11.7887766"><ele>276.6</ele><time>2026-03-22T14:19:10.771Z</time></trkpt><trkpt lat="43.4543743" lon="11.7887243"><ele>278.8</ele><time>2026-03-22T14:19:11.771Z</time></trkpt><trkpt lat="43.4544913" lon="11.7886777"><ele>281.0</ele><time>2026-03-22T14:19:13.771Z</time></trkpt><trkpt lat="43.4545693" lon="11.7886511"><ele>282.25</ele><time>2026-03-22T14:19:14.771Z</time></trkpt><trkpt lat="43.4546447" lon="11.7885834"><ele>283.5</ele><time>2026-03-22T14:19:15.77Z</time></trkpt><trkpt lat="43.4547385" lon="11.7884941"><ele>284.75</ele><time>2026-03-22T14:19:16.771Z</time></trkpt><trkpt lat="43.4548429" lon="11.7884002"><ele>286.0</ele><time>2026-03-22T14:19:17.77Z</time></trkpt><trkpt lat="43.4549656" lon="11.7882964"><ele>287.25</ele><time>2026-03-22T14:19:18.771Z</time></trkpt><trkpt lat="43.4550725" lon="11.7882191"><ele>288.5</ele><time>2026-03-22T14:19:19.77Z</time></trkpt><trkpt lat="43.4551844" lon="11.7881545"><ele>289.75</ele><time>2026-03-22T14:19:20.77Z</time></trkpt><trkpt lat="43.4552975" lon="11.7880998"><ele>291.0</ele><time>2026-03-22T14:19:21.77Z</time></trkpt><trkpt lat="43.4554181" lon="11.7880537"><ele>291.25</ele><time>2026-03-22T14:19:22.771Z</time></trkpt><trkpt lat="43.4555482" lon="11.7880066"><ele>291.5</ele><time>2026-03-22T14:19:23.771Z</time></trkpt><trkpt lat="43.4556621" lon="11.7879709"><ele>291.75</ele><time>2026-03-22T14:19:24.771Z</time></trkpt><trkpt lat="43.4557698" lon="11.7879361"><ele>292.0</ele><time>2026-03-22T14:19:25.771Z</time></trkpt><trkpt lat="43.4558623" lon="11.7878989"><ele>292.0</ele><time>2026-03-22T14:19:26.77Z</time></trkpt><trkpt lat="43.4559357" lon="11.7878417"><ele>292.0</ele><time>2026-03-22T14:19:27.771Z</time></trkpt><trkpt lat="43.4560054" lon="11.7877517"><ele>292.0</ele><time>2026-03-22T14:19:28.771Z</time></trkpt><trkpt lat="43.4560761" lon="11.7876355"><ele>292.0</ele><time>2026-03-22T14:19:29.77Z</time></trkpt><trkpt lat="43.456148" lon="11.7875096"><ele>292.0</ele><time>2026-03-22T14:19:30.771Z</time></trkpt><trkpt lat="43.4562194" lon="11.787378"><ele>292.75</ele><time>2026-03-22T14:19:31.77Z</time></trkpt><trkpt lat="43.456287" lon="11.7872473"><ele>293.5</ele><time>2026-03-22T14:19:32.77Z</time></trkpt><trkpt lat="43.4563521" lon="11.7871108"><ele>294.25</ele><time>2026-03-22T14:19:33.771Z</time></trkpt><trkpt lat="43.4564193" lon="11.7869697"><ele>295.0</ele><time>2026-03-22T14:19:34.77Z</time></trkpt><trkpt lat="43.4564884" lon="11.7868355"><ele>296.5</ele><time>2026-03-22T14:19:35.77Z</time></trkpt><trkpt lat="43.456564" lon="11.7867068"><ele>298.0</ele><time>2026-03-22T14:19:36.77Z</time></trkpt><trkpt lat="43.4566457" lon="11.7865877"><ele>299.5</ele><time>2026-03-22T14:19:37.771Z</time></trkpt><trkpt lat="43.4567318" lon="11.7864832"><ele>301.0</ele><time>2026-03-22T14:19:38.77Z</time></trkpt><trkpt lat="43.4568203" lon="11.7863834"><ele>301.0</ele><time>2026-03-22T14:19:39.77Z</time></trkpt><trkpt lat="43.4569044" lon="11.7862784"><ele>301.0</ele><time>2026-03-22T14:19:40.77Z</time></trkpt><trkpt lat="43.456975" lon="11.7861602"><ele>301.0</ele><time>2026-03-22T14:19:41.771Z</time></trkpt><trkpt lat="43.4570464" lon="11.7860366"><ele>301.0</ele><time>2026-03-22T14:19:42.77Z</time></trkpt><trkpt lat="43.4570837" lon="11.7858851"><ele>300.0</ele><time>2026-03-22T14:19:43.771Z</time></trkpt><trkpt lat="43.4571337" lon="11.7857357"><ele>299.0</ele><time>2026-03-22T14:19:44.771Z</time></trkpt><trkpt lat="43.4571792" lon="11.7855788"><ele>298.0</ele><time>2026-03-22T14:19:45.77Z</time></trkpt><trkpt lat="43.4572167" lon="11.7854155"><ele>297.0</ele><time>2026-03-22T14:19:46.771Z</time></trkpt><trkpt lat="43.4572494" lon="11.7852523"><ele>297.2</ele><time>2026-03-22T14:19:47.77Z</time></trkpt><trkpt lat="43.4572763" lon="11.7850952"><ele>297.4</ele><time>2026-03-22T14:19:48.77Z</time></trkpt><trkpt lat="43.4572985" lon="11.7849421"><ele>297.6</ele><time>2026-03-22T14:19:49.771Z</time></trkpt><trkpt lat="43.4573139" lon="11.7847967"><ele>297.8</ele><time>2026-03-22T14:19:50.77Z</time></trkpt><trkpt lat="43.4573188" lon="11.7846533"><ele>298.0</ele><time>2026-03-22T14:19:51.771Z</time></trkpt><trkpt lat="43.4573254" lon="11.7845114"><ele>298.0</ele><time>2026-03-22T14:19:52.771Z</time></trkpt><trkpt lat="43.457347" lon="11.7843752"><ele>298.0</ele><time>2026-03-22T14:19:53.77Z</time></trkpt><trkpt lat="43.4573864" lon="11.7842485"><ele>298.0</ele><time>2026-03-22T14:19:54.77Z</time></trkpt><trkpt lat="43.45744" lon="11.7841333"><ele>298.0</ele><time>2026-03-22T14:19:55.77Z</time></trkpt><trkpt lat="43.45751" lon="11.7840351"><ele>298.0</ele><time>2026-03-22T14:19:56.771Z</time></trkpt><trkpt lat="43.4575947" lon="11.7839527"><ele>299.8</ele><time>2026-03-22T14:19:57.77Z</time></trkpt><trkpt lat="43.4576904" lon="11.7838568"><ele>301.6</ele><time>2026-03-22T14:19:58.771Z</time></trkpt><trkpt lat="43.4577818" lon="11.7837534"><ele>303.4</ele><time>2026-03-22T14:19:59.771Z</time></trkpt><trkpt lat="43.4578601" lon="11.7836498"><ele>305.2</ele><time>2026-03-22T14:20:00.77Z</time></trkpt><trkpt lat="43.4579265" lon="11.7835397"><ele>307.0</ele><time>2026-03-22T14:20:01.771Z</time></trkpt><trkpt lat="43.4579856" lon="11.7834107"><ele>308.0</ele><time>2026-03-22T14:20:02.771Z</time></trkpt><trkpt lat="43.4580452" lon="11.7832659"><ele>309.0</ele><time>2026-03-22T14:20:03.77Z</time></trkpt><trkpt lat="43.4581055" lon="11.7831168"><ele>310.0</ele><time>2026-03-22T14:20:04.771Z</time></trkpt><trkpt lat="43.4581623" lon="11.7829653"><ele>311.0</ele><time>2026-03-22T14:20:05.771Z</time></trkpt><trkpt lat="43.4582142" lon="11.7828072"><ele>313.5</ele><time>2026-03-22T14:20:06.771Z</time></trkpt><trkpt lat="43.4582638" lon="11.7826456"><ele>316.0</ele><time>2026-03-22T14:20:07.771Z</time></trkpt><trkpt lat="43.4583099" lon="11.7824844"><ele>318.5</ele><time>2026-03-22T14:20:08.771Z</time></trkpt><trkpt lat="43.4583527" lon="11.7823286"><ele>321.0</ele><time>2026-03-22T14:20:09.771Z</time></trkpt><trkpt lat="43.4583908" lon="11.7821794"><ele>321.0</ele><time>2026-03-22T14:20:10.771Z</time></trkpt><trkpt lat="43.4584232" lon="11.7820273"><ele>321.0</ele><time>2026-03-22T14:20:11.771Z</time></trkpt><trkpt lat="43.4584535" lon="11.7818711"><ele>321.0</ele><time>2026-03-22T14:20:12.771Z</time></trkpt><trkpt lat="43.4584855" lon="11.7817118"><ele>321.0</ele><time>2026-03-22T14:20:13.771Z</time></trkpt><trkpt lat="43.4585228" lon="11.7815524"><ele>322.75</ele><time>2026-03-22T14:20:14.771Z</time></trkpt><trkpt lat="43.4585486" lon="11.781394"><ele>324.5</ele><time>2026-03-22T14:20:15.771Z</time></trkpt><trkpt lat="43.458573" lon="11.781227"><ele>326.25</ele><time>2026-03-22T14:20:16.77Z</time></trkpt><trkpt lat="43.4585417" lon="11.7810584"><ele>328.0</ele><time>2026-03-22T14:20:17.771Z</time></trkpt><trkpt lat="43.4585432" lon="11.7809225"><ele>328.3333333333333</ele><time>2026-03-22T14:20:18.771Z</time></trkpt><trkpt lat="43.4585577" lon="11.7808001"><ele>328.66666666666663</ele><time>2026-03-22T14:20:19.771Z</time></trkpt><trkpt lat="43.4586003" lon="11.7807013"><ele>329.0</ele><time>2026-03-22T14:20:20.771Z</time></trkpt><trkpt lat="43.4586636" lon="11.7806294"><ele>329.3333333333333</ele><time>2026-03-22T14:20:21.77Z</time></trkpt><trkpt lat="43.4587433" lon="11.7805924"><ele>329.6666666666667</ele><time>2026-03-22T14:20:22.77Z</time></trkpt><trkpt lat="43.4588406" lon="11.7805843"><ele>330.0</ele><time>2026-03-22T14:20:23.771Z</time></trkpt><trkpt lat="43.4589414" lon="11.7805786"><ele>330.0</ele><time>2026-03-22T14:20:24.771Z</time></trkpt><trkpt lat="43.4590372" lon="11.7805496"><ele>330.0</ele><time>2026-03-22T14:20:25.77Z</time></trkpt><trkpt lat="43.4591233" lon="11.7804856"><ele>330.0</ele><time>2026-03-22T14:20:26.771Z</time></trkpt><trkpt lat="43.4592135" lon="11.7803931"><ele>330.0</ele><time>2026-03-22T14:20:27.771Z</time></trkpt><trkpt lat="43.4592944" lon="11.7802898"><ele>330.0</ele><time>2026-03-22T14:20:28.77Z</time></trkpt><trkpt lat="43.4593573" lon="11.7802003"><ele>331.1666666666667</ele><time>2026-03-22T14:20:29.77Z</time></trkpt><trkpt lat="43.4594151" lon="11.7801222"><ele>332.3333333333333</ele><time>2026-03-22T14:20:30.771Z</time></trkpt><trkpt lat="43.4594605" lon="11.7800566"><ele>333.5</ele><time>2026-03-22T14:20:31.77Z</time></trkpt><trkpt lat="43.4595197" lon="11.7799681"><ele>334.66666666666663</ele><time>2026-03-22T14:20:33.771Z</time></trkpt><trkpt lat="43.4595943" lon="11.7798726"><ele>335.8333333333333</ele><time>2026-03-22T14:20:48.77Z</time></trkpt><trkpt lat="43.4596266" lon="11.7797959"><ele>337.0</ele><time>2026-03-22T14:20:49.77Z</time></trkpt><trkpt lat="43.459666" lon="11.779728"><ele>337.0</ele><time>2026-03-22T14:20:50.77Z</time></trkpt><trkpt lat="43.4597232" lon="11.7796469"><ele>337.0</ele><time>2026-03-22T14:20:51.769Z</time></trkpt><trkpt lat="43.4597814" lon="11.7795746"><ele>337.0</ele><time>2026-03-22T14:20:52.771Z</time></trkpt><trkpt lat="43.4598514" lon="11.7794977"><ele>337.0</ele><time>2026-03-22T14:20:53.771Z</time></trkpt><trkpt lat="43.4599218" lon="11.7794181"><ele>337.0</ele><time>2026-03-22T14:20:54.771Z</time></trkpt><trkpt lat="43.4599863" lon="11.779335"><ele>337.0</ele><time>2026-03-22T14:20:55.77Z</time></trkpt><trkpt lat="43.4600593" lon="11.7792537"><ele>339.0</ele><time>2026-03-22T14:20:56.771Z</time></trkpt><trkpt lat="43.4601378" lon="11.7791775"><ele>341.0</ele><time>2026-03-22T14:20:57.771Z</time></trkpt><trkpt lat="43.4602076" lon="11.7791016"><ele>343.0</ele><time>2026-03-22T14:20:58.771Z</time></trkpt><trkpt lat="43.4602769" lon="11.7790304"><ele>345.0</ele><time>2026-03-22T14:20:59.77Z</time></trkpt><trkpt lat="43.4603512" lon="11.7789471"><ele>347.0</ele><time>2026-03-22T14:21:00.77Z</time></trkpt><trkpt lat="43.4604225" lon="11.7788494"><ele>347.6</ele><time>2026-03-22T14:21:01.771Z</time></trkpt><trkpt lat="43.4604921" lon="11.7787484"><ele>348.20000000000005</ele><time>2026-03-22T14:21:02.77Z</time></trkpt><trkpt lat="43.4605622" lon="11.7786473"><ele>348.8</ele><time>2026-03-22T14:21:03.771Z</time></trkpt><trkpt lat="43.4606366" lon="11.7785467"><ele>349.4</ele><time>2026-03-22T14:21:04.771Z</time></trkpt><trkpt lat="43.4607125" lon="11.7784427"><ele>350.0</ele><time>2026-03-22T14:21:05.77Z</time></trkpt><trkpt lat="43.4607831" lon="11.7783332"><ele>350.0</ele><time>2026-03-22T14:21:06.771Z</time></trkpt><trkpt lat="43.4608537" lon="11.7782198"><ele>350.0</ele><time>2026-03-22T14:21:07.771Z</time></trkpt><trkpt lat="43.4609327" lon="11.778097"><ele>350.0</ele><time>2026-03-22T14:21:08.771Z</time></trkpt><trkpt lat="43.461004" lon="11.777976"><ele>350.0</ele><time>2026-03-22T14:21:09.771Z</time></trkpt><trkpt lat="43.4610588" lon="11.7778595"><ele>350.0</ele><time>2026-03-22T14:21:10.771Z</time></trkpt><trkpt lat="43.4610997" lon="11.7777411"><ele>352.0</ele><time>2026-03-22T14:21:11.77Z</time></trkpt><trkpt lat="43.4611357" lon="11.7776327"><ele>354.0</ele><time>2026-03-22T14:21:12.771Z</time></trkpt><trkpt lat="43.4611375" lon="11.7775093"><ele>356.0</ele><time>2026-03-22T14:21:13.77Z</time></trkpt><trkpt lat="43.46112" lon="11.7773727"><ele>358.0</ele><time>2026-03-22T14:21:14.771Z</time></trkpt><trkpt lat="43.4610906" lon="11.77723"><ele>360.0</ele><time>2026-03-22T14:21:15.77Z</time></trkpt><trkpt lat="43.4610716" lon="11.777094"><ele>360.0</ele><time>2026-03-22T14:21:16.771Z</time></trkpt><trkpt lat="43.4610927" lon="11.7769755"><ele>360.0</ele><time>2026-03-22T14:21:17.771Z</time></trkpt><trkpt lat="43.4611337" lon="11.7768681"><ele>360.0</ele><time>2026-03-22T14:21:18.77Z</time></trkpt><trkpt lat="43.461193" lon="11.7767647"><ele>360.0</ele><time>2026-03-22T14:21:19.771Z</time></trkpt><trkpt lat="43.4612657" lon="11.7766663"><ele>360.0</ele><time>2026-03-22T14:21:20.771Z</time></trkpt><trkpt lat="43.4613442" lon="11.7765777"><ele>359.4</ele><time>2026-03-22T14:21:21.771Z</time></trkpt><trkpt lat="43.4614219" lon="11.7764918"><ele>358.8</ele><time>2026-03-22T14:21:22.77Z</time></trkpt><trkpt lat="43.4614945" lon="11.7764174"><ele>358.20000000000005</ele><time>2026-03-22T14:21:23.77Z</time></trkpt><trkpt lat="43.4615843" lon="11.7763604"><ele>357.6</ele><time>2026-03-22T14:21:24.771Z</time></trkpt><trkpt lat="43.4616856" lon="11.7763253"><ele>357.0</ele><time>2026-03-22T14:21:25.771Z</time></trkpt><trkpt lat="43.4617822" lon="11.7762935"><ele>357.0</ele><time>2026-03-22T14:21:26.771Z</time></trkpt><trkpt lat="43.4618699" lon="11.7762615"><ele>357.0</ele><time>2026-03-22T14:21:27.771Z</time></trkpt><trkpt lat="43.4619715" lon="11.7762222"><ele>357.0</ele><time>2026-03-22T14:21:28.77Z</time></trkpt><trkpt lat="43.4620559" lon="11.7761819"><ele>357.0</ele><time>2026-03-22T14:21:29.77Z</time></trkpt><trkpt lat="43.4621367" lon="11.7761363"><ele>357.0</ele><time>2026-03-22T14:21:30.771Z</time></trkpt><trkpt lat="43.4622069" lon="11.7760886"><ele>358.0</ele><time>2026-03-22T14:21:31.771Z</time></trkpt><trkpt lat="43.4622526" lon="11.7759889"><ele>359.0</ele><time>2026-03-22T14:21:32.77Z</time></trkpt><trkpt lat="43.4622903" lon="11.7758989"><ele>360.0</ele><time>2026-03-22T14:21:33.77Z</time></trkpt><trkpt lat="43.4623008" lon="11.7757798"><ele>361.0</ele><time>2026-03-22T14:21:34.771Z</time></trkpt><trkpt lat="43.4622773" lon="11.7756458"><ele>362.0</ele><time>2026-03-22T14:21:35.77Z</time></trkpt><trkpt lat="43.4622528" lon="11.7755074"><ele>362.0</ele><time>2026-03-22T14:21:36.771Z</time></trkpt><trkpt lat="43.4622302" lon="11.7753609"><ele>362.0</ele><time>2026-03-22T14:21:37.77Z</time></trkpt><trkpt lat="43.4622193" lon="11.7752144"><ele>362.0</ele><time>2026-03-22T14:21:38.77Z</time></trkpt><trkpt lat="43.4622101" lon="11.7750711"><ele>362.0</ele><time>2026-03-22T14:21:39.77Z</time></trkpt><trkpt lat="43.4621897" lon="11.7749344"><ele>362.0</ele><time>2026-03-22T14:21:40.771Z</time></trkpt><trkpt lat="43.4621605" lon="11.7747978"><ele>362.8</ele><time>2026-03-22T14:21:41.77Z</time></trkpt><trkpt lat="43.4621289" lon="11.7746574"><ele>363.6</ele><time>2026-03-22T14:21:42.77Z</time></trkpt><trkpt lat="43.4620995" lon="11.7745045"><ele>364.40000000000003</ele><time>2026-03-22T14:21:43.771Z</time></trkpt><trkpt lat="43.4620848" lon="11.7743436"><ele>365.20000000000005</ele><time>2026-03-22T14:21:44.77Z</time></trkpt><trkpt lat="43.4620671" lon="11.7741954"><ele>366.0</ele><time>2026-03-22T14:21:45.771Z</time></trkpt><trkpt lat="43.4620269" lon="11.7740677"><ele>371.5</ele><time>2026-03-22T14:21:46.771Z</time></trkpt><trkpt lat="43.4619956" lon="11.7739379"><ele>377.0</ele><time>2026-03-22T14:21:47.771Z</time></trkpt><trkpt lat="43.4619404" lon="11.7738075"><ele>382.5</ele><time>2026-03-22T14:21:48.771Z</time></trkpt><trkpt lat="43.4618585" lon="11.773682"><ele>388.0</ele><time>2026-03-22T14:21:49.771Z</time></trkpt><trkpt lat="43.4617759" lon="11.7735455"><ele>385.75</ele><time>2026-03-22T14:21:50.77Z</time></trkpt><trkpt lat="43.4617035" lon="11.7733933"><ele>383.5</ele><time>2026-03-22T14:21:51.771Z</time></trkpt><trkpt lat="43.4616349" lon="11.7732343"><ele>381.25</ele><time>2026-03-22T14:21:52.77Z</time></trkpt><trkpt lat="43.4615683" lon="11.7730905"><ele>379.0</ele><time>2026-03-22T14:21:53.77Z</time></trkpt><trkpt lat="43.461509" lon="11.7729481"><ele>379.0</ele><time>2026-03-22T14:21:54.771Z</time></trkpt><trkpt lat="43.4614499" lon="11.7727993"><ele>379.0</ele><time>2026-03-22T14:21:55.77Z</time></trkpt><trkpt lat="43.4613933" lon="11.7726484"><ele>379.0</ele><time>2026-03-22T14:21:56.771Z</time></trkpt><trkpt lat="43.4613454" lon="11.7724938"><ele>379.0</ele><time>2026-03-22T14:21:57.771Z</time></trkpt><trkpt lat="43.4613062" lon="11.7723422"><ele>381.4</ele><time>2026-03-22T14:21:58.77Z</time></trkpt><trkpt lat="43.4612732" lon="11.7722025"><ele>383.79999999999995</ele><time>2026-03-22T14:21:59.77Z</time></trkpt><trkpt lat="43.4612421" lon="11.7720646"><ele>386.20000000000005</ele><time>2026-03-22T14:22:00.771Z</time></trkpt><trkpt lat="43.4612134" lon="11.7719283"><ele>388.6</ele><time>2026-03-22T14:22:01.771Z</time></trkpt><trkpt lat="43.4611895" lon="11.7717951"><ele>391.0</ele><time>2026-03-22T14:22:02.77Z</time></trkpt><trkpt lat="43.4611721" lon="11.7716599"><ele>391.0</ele><time>2026-03-22T14:22:03.77Z</time></trkpt><trkpt lat="43.4611685" lon="11.7715214"><ele>391.0</ele><time>2026-03-22T14:22:04.771Z</time></trkpt><trkpt lat="43.4611656" lon="11.771381"><ele>391.0</ele><time>2026-03-22T14:22:05.771Z</time></trkpt><trkpt lat="43.4611514" lon="11.771247"><ele>391.0</ele><time>2026-03-22T14:22:06.77Z</time></trkpt><trkpt lat="43.4611407" lon="11.7711157"><ele>391.0</ele><time>2026-03-22T14:22:07.771Z</time></trkpt><trkpt lat="43.4611346" lon="11.7709844"><ele>391.20000000000005</ele><time>2026-03-22T14:22:08.771Z</time></trkpt><trkpt lat="43.4611274" lon="11.7708531"><ele>391.40000000000003</ele><time>2026-03-22T14:22:09.771Z</time></trkpt><trkpt lat="43.4611131" lon="11.770713"><ele>391.6</ele><time>2026-03-22T14:22:10.771Z</time></trkpt><trkpt lat="43.4610974" lon="11.7705586"><ele>391.8</ele><time>2026-03-22T14:22:11.77Z</time></trkpt><trkpt lat="43.461081" lon="11.7704121"><ele>392.0</ele><time>2026-03-22T14:22:12.771Z</time></trkpt><trkpt lat="43.4610593" lon="11.7702833"><ele>392.6</ele><time>2026-03-22T14:22:13.771Z</time></trkpt><trkpt lat="43.4610435" lon="11.7701475"><ele>393.20000000000005</ele><time>2026-03-22T14:22:14.77Z</time></trkpt><trkpt lat="43.4610341" lon="11.7699985"><ele>393.8</ele><time>2026-03-22T14:22:15.77Z</time></trkpt><trkpt lat="43.4610204" lon="11.7698636"><ele>394.4</ele><time>2026-03-22T14:22:16.771Z</time></trkpt><trkpt lat="43.4610002" lon="11.7697337"><ele>395.0</ele><time>2026-03-22T14:22:17.77Z</time></trkpt><trkpt lat="43.4609826" lon="11.7696012"><ele>394.99999999999994</ele><time>2026-03-22T14:22:18.77Z</time></trkpt><trkpt lat="43.4609717" lon="11.769489"><ele>395.0</ele><time>2026-03-22T14:22:19.77Z</time></trkpt><trkpt lat="43.4609455" lon="11.7693979"><ele>395.0</ele><time>2026-03-22T14:22:20.77Z</time></trkpt><trkpt lat="43.4608991" lon="11.7693019"><ele>395.0</ele><time>2026-03-22T14:22:21.771Z</time></trkpt><trkpt lat="43.4608334" lon="11.7692067"><ele>394.99999999999994</ele><time>2026-03-22T14:22:22.769Z</time></trkpt><trkpt lat="43.4607544" lon="11.7691134"><ele>395.0</ele><time>2026-03-22T14:22:23.77Z</time></trkpt><trkpt lat="43.4606786" lon="11.7690148"><ele>394.2</ele><time>2026-03-22T14:22:24.77Z</time></trkpt><trkpt lat="43.460603" lon="11.7689078"><ele>393.4</ele><time>2026-03-22T14:22:25.771Z</time></trkpt><trkpt lat="43.4605244" lon="11.768798"><ele>392.6</ele><time>2026-03-22T14:22:26.771Z</time></trkpt><trkpt lat="43.4604515" lon="11.768689"><ele>391.8</ele><time>2026-03-22T14:22:27.77Z</time></trkpt><trkpt lat="43.4603856" lon="11.7685764"><ele>391.0</ele><time>2026-03-22T14:22:28.771Z</time></trkpt><trkpt lat="43.460325" lon="11.7684559"><ele>391.0</ele><time>2026-03-22T14:22:29.77Z</time></trkpt><trkpt lat="43.4602696" lon="11.768336"><ele>391.0</ele><time>2026-03-22T14:22:30.771Z</time></trkpt><trkpt lat="43.4602291" lon="11.7682213"><ele>391.0</ele><time>2026-03-22T14:22:31.771Z</time></trkpt><trkpt lat="43.4602071" lon="11.7680945"><ele>391.0</ele><time>2026-03-22T14:22:32.77Z</time></trkpt><trkpt lat="43.460204" lon="11.7679564"><ele>391.0</ele><time>2026-03-22T14:22:33.771Z</time></trkpt><trkpt lat="43.4602186" lon="11.7678146"><ele>391.25</ele><time>2026-03-22T14:22:34.771Z</time></trkpt><trkpt lat="43.4602419" lon="11.7676632"><ele>391.5</ele><time>2026-03-22T14:22:35.77Z</time></trkpt><trkpt lat="43.4602595" lon="11.7675038"><ele>391.75</ele><time>2026-03-22T14:22:36.771Z</time></trkpt><trkpt lat="43.460273" lon="11.7673358"><ele>392.0</ele><time>2026-03-22T14:22:37.771Z</time></trkpt><trkpt lat="43.4602867" lon="11.767181"><ele>392.0</ele><time>2026-03-22T14:22:38.771Z</time></trkpt><trkpt lat="43.4602934" lon="11.7670444"><ele>392.0</ele><time>2026-03-22T14:22:39.77Z</time></trkpt><trkpt lat="43.460296" lon="11.7669205"><ele>392.0</ele><time>2026-03-22T14:22:40.77Z</time></trkpt><trkpt lat="43.4603073" lon="11.7667928"><ele>392.0</ele><time>2026-03-22T14:22:41.771Z</time></trkpt><trkpt lat="43.460323" lon="11.7666641"><ele>392.0</ele><time>2026-03-22T14:22:42.771Z</time></trkpt><trkpt lat="43.4603435" lon="11.7665452"><ele>391.0</ele><time>2026-03-22T14:22:43.771Z</time></trkpt><trkpt lat="43.4603728" lon="11.7664401"><ele>390.0</ele><time>2026-03-22T14:22:44.77Z</time></trkpt><trkpt lat="43.4604122" lon="11.7663314"><ele>389.0</ele><time>2026-03-22T14:22:45.77Z</time></trkpt><trkpt lat="43.4604592" lon="11.7662205"><ele>388.0</ele><time>2026-03-22T14:22:46.771Z</time></trkpt><trkpt lat="43.4605122" lon="11.7661143"><ele>387.0</ele><time>2026-03-22T14:22:47.771Z</time></trkpt><trkpt lat="43.4605665" lon="11.7660088"><ele>390.6</ele><time>2026-03-22T14:22:48.77Z</time></trkpt><trkpt lat="43.4606193" lon="11.7659013"><ele>394.20000000000005</ele><time>2026-03-22T14:22:49.769Z</time></trkpt><trkpt lat="43.4606716" lon="11.7657885"><ele>397.8</ele><time>2026-03-22T14:22:50.771Z</time></trkpt><trkpt lat="43.4607214" lon="11.7656766"><ele>401.4</ele><time>2026-03-22T14:22:51.77Z</time></trkpt><trkpt lat="43.4607655" lon="11.7655717"><ele>405.0</ele><time>2026-03-22T14:22:52.77Z</time></trkpt><trkpt lat="43.4608068" lon="11.7654746"><ele>405.0</ele><time>2026-03-22T14:22:53.77Z</time></trkpt><trkpt lat="43.4608492" lon="11.7653782"><ele>405.0</ele><time>2026-03-22T14:22:54.77Z</time></trkpt><trkpt lat="43.4608944" lon="11.7652876"><ele>405.0</ele><time>2026-03-22T14:22:55.771Z</time></trkpt><trkpt lat="43.4609551" lon="11.765212"><ele>405.0</ele><time>2026-03-22T14:22:56.771Z</time></trkpt><trkpt lat="43.4610307" lon="11.7651431"><ele>405.0</ele><time>2026-03-22T14:22:57.769Z</time></trkpt><trkpt lat="43.4611061" lon="11.7650912"><ele>405.0</ele><time>2026-03-22T14:22:58.77Z</time></trkpt><trkpt lat="43.4611866" lon="11.765048"><ele>402.6</ele><time>2026-03-22T14:22:59.77Z</time></trkpt><trkpt lat="43.4612771" lon="11.7649986"><ele>400.2</ele><time>2026-03-22T14:23:00.771Z</time></trkpt><trkpt lat="43.4613614" lon="11.7649429"><ele>397.79999999999995</ele><time>2026-03-22T14:23:01.771Z</time></trkpt><trkpt lat="43.4614426" lon="11.7648787"><ele>395.4</ele><time>2026-03-22T14:23:02.77Z</time></trkpt><trkpt lat="43.4615257" lon="11.7648216"><ele>393.0</ele><time>2026-03-22T14:23:03.771Z</time></trkpt><trkpt lat="43.4616039" lon="11.7647904"><ele>393.0</ele><time>2026-03-22T14:23:04.771Z</time></trkpt><trkpt lat="43.4616829" lon="11.7647835"><ele>393.0</ele><time>2026-03-22T14:23:05.77Z</time></trkpt><trkpt lat="43.4617697" lon="11.7647821"><ele>393.0</ele><time>2026-03-22T14:23:06.77Z</time></trkpt><trkpt lat="43.4618661" lon="11.7647816"><ele>393.0</ele><time>2026-03-22T14:23:07.771Z</time></trkpt><trkpt lat="43.4619608" lon="11.764796"><ele>393.0</ele><time>2026-03-22T14:23:08.771Z</time></trkpt><trkpt lat="43.4620526" lon="11.7648158"><ele>392.59999999999997</ele><time>2026-03-22T14:23:09.77Z</time></trkpt><trkpt lat="43.462148" lon="11.7648273"><ele>392.2</ele><time>2026-03-22T14:23:10.77Z</time></trkpt><trkpt lat="43.4622451" lon="11.7648286"><ele>391.8</ele><time>2026-03-22T14:23:11.771Z</time></trkpt><trkpt lat="43.4623439" lon="11.7648261"><ele>391.4</ele><time>2026-03-22T14:23:12.77Z</time></trkpt><trkpt lat="43.4624383" lon="11.7648132"><ele>391.0</ele><time>2026-03-22T14:23:13.771Z</time></trkpt><trkpt lat="43.4625227" lon="11.7647842"><ele>391.0</ele><time>2026-03-22T14:23:14.771Z</time></trkpt><trkpt lat="43.4625958" lon="11.7647392"><ele>391.0</ele><time>2026-03-22T14:23:15.77Z</time></trkpt><trkpt lat="43.4626661" lon="11.7646626"><ele>391.0</ele><time>2026-03-22T14:23:16.77Z</time></trkpt><trkpt lat="43.4627356" lon="11.7645549"><ele>391.0</ele><time>2026-03-22T14:23:17.77Z</time></trkpt><trkpt lat="43.4628033" lon="11.7644432"><ele>391.0</ele><time>2026-03-22T14:23:18.77Z</time></trkpt><trkpt lat="43.4628615" lon="11.7643424"><ele>388.4</ele><time>2026-03-22T14:23:19.771Z</time></trkpt><trkpt lat="43.4629197" lon="11.7642352"><ele>385.8</ele><time>2026-03-22T14:23:20.771Z</time></trkpt><trkpt lat="43.4629783" lon="11.7641185"><ele>383.2</ele><time>2026-03-22T14:23:21.771Z</time></trkpt><trkpt lat="43.4630318" lon="11.7640108"><ele>380.59999999999997</ele><time>2026-03-22T14:23:22.771Z</time></trkpt><trkpt lat="43.4630868" lon="11.7639018"><ele>378.0</ele><time>2026-03-22T14:23:23.77Z</time></trkpt><trkpt lat="43.46314" lon="11.7637869"><ele>377.79999999999995</ele><time>2026-03-22T14:23:24.771Z</time></trkpt><trkpt lat="43.4631744" lon="11.7636775"><ele>377.6</ele><time>2026-03-22T14:23:25.77Z</time></trkpt><trkpt lat="43.4631881" lon="11.7635663"><ele>377.4</ele><time>2026-03-22T14:23:26.771Z</time></trkpt><trkpt lat="43.4631893" lon="11.7634447"><ele>377.20000000000005</ele><time>2026-03-22T14:23:27.77Z</time></trkpt><trkpt lat="43.463177" lon="11.7633037"><ele>377.0</ele><time>2026-03-22T14:23:28.771Z</time></trkpt><trkpt lat="43.4631521" lon="11.7631573"><ele>377.0</ele><time>2026-03-22T14:23:29.771Z</time></trkpt><trkpt lat="43.4631293" lon="11.7630042"><ele>377.0</ele><time>2026-03-22T14:23:30.77Z</time></trkpt><trkpt lat="43.4631109" lon="11.7628489"><ele>377.0</ele><time>2026-03-22T14:23:31.771Z</time></trkpt><trkpt lat="43.4630909" lon="11.7627117"><ele>377.0</ele><time>2026-03-22T14:23:32.771Z</time></trkpt><trkpt lat="43.4630658" lon="11.7625753"><ele>377.0</ele><time>2026-03-22T14:23:33.77Z</time></trkpt><trkpt lat="43.463046" lon="11.762436"><ele>376.20000000000005</ele><time>2026-03-22T14:23:34.771Z</time></trkpt><trkpt lat="43.4630267" lon="11.7622985"><ele>375.4</ele><time>2026-03-22T14:23:35.77Z</time></trkpt><trkpt lat="43.4630055" lon="11.7621552"><ele>374.6</ele><time>2026-03-22T14:23:36.771Z</time></trkpt><trkpt lat="43.4629831" lon="11.7620119"><ele>373.79999999999995</ele><time>2026-03-22T14:23:37.77Z</time></trkpt><trkpt lat="43.4629666" lon="11.7618776"><ele>373.0</ele><time>2026-03-22T14:23:38.77Z</time></trkpt><trkpt lat="43.4629577" lon="11.7617435"><ele>373.0</ele><time>2026-03-22T14:23:39.771Z</time></trkpt><trkpt lat="43.4629399" lon="11.7616135"><ele>373.0</ele><time>2026-03-22T14:23:40.77Z</time></trkpt><trkpt lat="43.4629157" lon="11.7614912"><ele>373.0</ele><time>2026-03-22T14:23:41.771Z</time></trkpt><trkpt lat="43.4628998" lon="11.7613678"><ele>373.0</ele><time>2026-03-22T14:23:42.771Z</time></trkpt><trkpt lat="43.4628962" lon="11.7612429"><ele>373.0</ele><time>2026-03-22T14:23:43.77Z</time></trkpt><trkpt lat="43.4629075" lon="11.7611246"><ele>373.0</ele><time>2026-03-22T14:23:44.77Z</time></trkpt><trkpt lat="43.4629321" lon="11.7610122"><ele>373.0</ele><time>2026-03-22T14:23:45.77Z</time></trkpt><trkpt lat="43.4629627" lon="11.7609176"><ele>373.0</ele><time>2026-03-22T14:23:46.77Z</time></trkpt><trkpt lat="43.462966" lon="11.7607718"><ele>373.0</ele><time>2026-03-22T14:23:48.771Z</time></trkpt><trkpt lat="43.4629355" lon="11.7606672"><ele>373.0</ele><time>2026-03-22T14:23:49.77Z</time></trkpt><trkpt lat="43.4629148" lon="11.7605412"><ele>373.0</ele><time>2026-03-22T14:23:50.771Z</time></trkpt><trkpt lat="43.4629061" lon="11.7604174"><ele>374.16666666666663</ele><time>2026-03-22T14:23:51.77Z</time></trkpt><trkpt lat="43.4628934" lon="11.7603051"><ele>375.3333333333333</ele><time>2026-03-22T14:23:52.771Z</time></trkpt><trkpt lat="43.4628791" lon="11.7602017"><ele>376.5</ele><time>2026-03-22T14:23:53.771Z</time></trkpt><trkpt lat="43.4628491" lon="11.7601031"><ele>377.6666666666667</ele><time>2026-03-22T14:23:54.771Z</time></trkpt><trkpt lat="43.4628067" lon="11.7600016"><ele>378.83333333333337</ele><time>2026-03-22T14:23:55.77Z</time></trkpt><trkpt lat="43.4627637" lon="11.7599002"><ele>380.0</ele><time>2026-03-22T14:23:56.77Z</time></trkpt><trkpt lat="43.4627257" lon="11.7598174"><ele>381.6</ele><time>2026-03-22T14:23:57.771Z</time></trkpt><trkpt lat="43.4626772" lon="11.7597562"><ele>383.2</ele><time>2026-03-22T14:23:58.77Z</time></trkpt><trkpt lat="43.4626022" lon="11.7597031"><ele>384.79999999999995</ele><time>2026-03-22T14:23:59.771Z</time></trkpt><trkpt lat="43.4625251" lon="11.759631"><ele>386.4</ele><time>2026-03-22T14:24:00.77Z</time></trkpt><trkpt lat="43.4624517" lon="11.7595307"><ele>388.0</ele><time>2026-03-22T14:24:01.771Z</time></trkpt><trkpt lat="43.4623758" lon="11.7594332"><ele>388.6666666666667</ele><time>2026-03-22T14:24:02.771Z</time></trkpt><trkpt lat="43.462303" lon="11.7593394"><ele>389.33333333333337</ele><time>2026-03-22T14:24:03.771Z</time></trkpt><trkpt lat="43.4622381" lon="11.7592417"><ele>390.0</ele><time>2026-03-22T14:24:04.77Z</time></trkpt><trkpt lat="43.4621787" lon="11.7591619"><ele>390.66666666666663</ele><time>2026-03-22T14:24:05.771Z</time></trkpt><trkpt lat="43.4621105" lon="11.7591026"><ele>391.3333333333333</ele><time>2026-03-22T14:24:06.771Z</time></trkpt><trkpt lat="43.462029" lon="11.7590544"><ele>392.0</ele><time>2026-03-22T14:24:07.771Z</time></trkpt><trkpt lat="43.4619482" lon="11.7590166"><ele>393.40000000000003</ele><time>2026-03-22T14:24:08.771Z</time></trkpt><trkpt lat="43.4618717" lon="11.7590033"><ele>394.8</ele><time>2026-03-22T14:24:09.771Z</time></trkpt><trkpt lat="43.461794" lon="11.7589877"><ele>396.2</ele><time>2026-03-22T14:24:10.771Z</time></trkpt><trkpt lat="43.4616915" lon="11.7589332"><ele>397.6</ele><time>2026-03-22T14:24:12.77Z</time></trkpt><trkpt lat="43.4615898" lon="11.7588826"><ele>399.0</ele><time>2026-03-22T14:24:14.77Z</time></trkpt><trkpt lat="43.4615055" lon="11.7588347"><ele>399.0</ele><time>2026-03-22T14:24:16.77Z</time></trkpt><trkpt lat="43.4614315" lon="11.7588034"><ele>399.0</ele><time>2026-03-22T14:24:18.771Z</time></trkpt><trkpt lat="43.4613778" lon="11.7588609"><ele>399.0</ele><time>2026-03-22T14:24:19.771Z</time></trkpt><trkpt lat="43.4612814" lon="11.7589301"><ele>399.0</ele><time>2026-03-22T14:24:21.77Z</time></trkpt><trkpt lat="43.4611794" lon="11.7590289"><ele>399.0</ele><time>2026-03-22T14:24:23.77Z</time></trkpt><trkpt lat="43.4610906" lon="11.7591259"><ele>399.2</ele><time>2026-03-22T14:24:25.77Z</time></trkpt><trkpt lat="43.4610166" lon="11.7592233"><ele>399.4</ele><time>2026-03-22T14:24:27.77Z</time></trkpt><trkpt lat="43.4609242" lon="11.7592634"><ele>399.6</ele><time>2026-03-22T14:24:29.771Z</time></trkpt><trkpt lat="43.4608249" lon="11.7593413"><ele>399.8</ele><time>2026-03-22T14:24:31.771Z</time></trkpt><trkpt lat="43.4607665" lon="11.7594089"><ele>400.0</ele><time>2026-03-22T14:24:32.771Z</time></trkpt><trkpt lat="43.4607126" lon="11.7594623"><ele>398.8</ele><time>2026-03-22T14:24:33.77Z</time></trkpt><trkpt lat="43.4606138" lon="11.7595355"><ele>397.6</ele><time>2026-03-22T14:24:35.77Z</time></trkpt><trkpt lat="43.460525" lon="11.7594969"><ele>396.4</ele><time>2026-03-22T14:24:37.771Z</time></trkpt><trkpt lat="43.4604323" lon="11.759417"><ele>395.2</ele><time>2026-03-22T14:24:39.77Z</time></trkpt><trkpt lat="43.4603724" lon="11.759371"><ele>394.0</ele><time>2026-03-22T14:24:40.771Z</time></trkpt><trkpt lat="43.4602485" lon="11.7593322"><ele>393.79999999999995</ele><time>2026-03-22T14:24:42.77Z</time></trkpt><trkpt lat="43.460118" lon="11.7593286"><ele>393.59999999999997</ele><time>2026-03-22T14:24:44.769Z</time></trkpt><trkpt lat="43.4600468" lon="11.7593349"><ele>393.4</ele><time>2026-03-22T14:24:45.771Z</time></trkpt><trkpt lat="43.4599831" lon="11.7593486"><ele>393.2</ele><time>2026-03-22T14:24:46.77Z</time></trkpt><trkpt lat="43.4598575" lon="11.7593956"><ele>393.0</ele><time>2026-03-22T14:24:48.77Z</time></trkpt><trkpt lat="43.4597965" lon="11.7594308"><ele>393.0</ele><time>2026-03-22T14:24:49.77Z</time></trkpt><trkpt lat="43.4597357" lon="11.7594652"><ele>393.0</ele><time>2026-03-22T14:24:50.769Z</time></trkpt><trkpt lat="43.459621" lon="11.7594708"><ele>393.0</ele><time>2026-03-22T14:24:52.771Z</time></trkpt><trkpt lat="43.4595561" lon="11.7594649"><ele>393.0</ele><time>2026-03-22T14:24:53.77Z</time></trkpt><trkpt lat="43.4594922" lon="11.7594376"><ele>393.0</ele><time>2026-03-22T14:24:54.771Z</time></trkpt><trkpt lat="43.4594321" lon="11.7594045"><ele>393.0</ele><time>2026-03-22T14:24:55.77Z</time></trkpt><trkpt lat="43.4593653" lon="11.759364"><ele>391.5</ele><time>2026-03-22T14:24:56.771Z</time></trkpt><trkpt lat="43.4592555" lon="11.7592932"><ele>390.0</ele><time>2026-03-22T14:24:58.77Z</time></trkpt><trkpt lat="43.4591482" lon="11.7592275"><ele>388.5</ele><time>2026-03-22T14:25:00.77Z</time></trkpt><trkpt lat="43.4590389" lon="11.7591694"><ele>387.0</ele><time>2026-03-22T14:25:02.77Z</time></trkpt><trkpt lat="43.4589274" lon="11.7591102"><ele>387.0</ele><time>2026-03-22T14:25:04.77Z</time></trkpt><trkpt lat="43.458807" lon="11.7590709"><ele>387.0</ele><time>2026-03-22T14:25:06.77Z</time></trkpt><trkpt lat="43.4586798" lon="11.7590147"><ele>387.0</ele><time>2026-03-22T14:25:08.771Z</time></trkpt><trkpt lat="43.4586209" lon="11.7589769"><ele>387.0</ele><time>2026-03-22T14:25:09.771Z</time></trkpt><trkpt lat="43.4585114" lon="11.7589239"><ele>387.0</ele><time>2026-03-22T14:25:11.77Z</time></trkpt><trkpt lat="43.4584243" lon="11.7588636"><ele>385.6</ele><time>2026-03-22T14:25:13.77Z</time></trkpt><trkpt lat="43.4583163" lon="11.7588177"><ele>384.20000000000005</ele><time>2026-03-22T14:25:15.771Z</time></trkpt><trkpt lat="43.4582286" lon="11.7587281"><ele>382.8</ele><time>2026-03-22T14:25:17.769Z</time></trkpt><trkpt lat="43.4581759" lon="11.7586137"><ele>381.4</ele><time>2026-03-22T14:25:19.77Z</time></trkpt><trkpt lat="43.4580911" lon="11.7585352"><ele>380.0</ele><time>2026-03-22T14:25:21.771Z</time></trkpt><trkpt lat="43.4580338" lon="11.7584965"><ele>380.0</ele><time>2026-03-22T14:25:22.771Z</time></trkpt><trkpt lat="43.4579534" lon="11.7584135"><ele>380.0</ele><time>2026-03-22T14:25:24.77Z</time></trkpt><trkpt lat="43.457873" lon="11.7583161"><ele>380.0</ele><time>2026-03-22T14:25:26.771Z</time></trkpt><trkpt lat="43.4577635" lon="11.7582584"><ele>380.0</ele><time>2026-03-22T14:25:28.77Z</time></trkpt><trkpt lat="43.4576939" lon="11.7582391"><ele>380.0</ele><time>2026-03-22T14:25:29.77Z</time></trkpt><trkpt lat="43.4576305" lon="11.7582135"><ele>380.83333333333337</ele><time>2026-03-22T14:25:30.771Z</time></trkpt><trkpt lat="43.4575665" lon="11.7581955"><ele>381.6666666666667</ele><time>2026-03-22T14:25:31.769Z</time></trkpt><trkpt lat="43.4574912" lon="11.7581708"><ele>382.5</ele><time>2026-03-22T14:25:32.771Z</time></trkpt><trkpt lat="43.4574176" lon="11.7581443"><ele>383.33333333333337</ele><time>2026-03-22T14:25:33.771Z</time></trkpt><trkpt lat="43.4573153" lon="11.7580783"><ele>384.1666666666667</ele><time>2026-03-22T14:25:35.769Z</time></trkpt><trkpt lat="43.4572326" lon="11.7580377"><ele>385.0</ele><time>2026-03-22T14:25:37.771Z</time></trkpt><trkpt lat="43.4571208" lon="11.7580613"><ele>386.1666666666667</ele><time>2026-03-22T14:25:39.77Z</time></trkpt><trkpt lat="43.457061" lon="11.7580984"><ele>387.33333333333337</ele><time>2026-03-22T14:25:40.771Z</time></trkpt><trkpt lat="43.456964" lon="11.7582221"><ele>388.5</ele><time>2026-03-22T14:25:42.769Z</time></trkpt><trkpt lat="43.4569263" lon="11.7583066"><ele>389.66666666666663</ele><time>2026-03-22T14:25:43.771Z</time></trkpt><trkpt lat="43.4568862" lon="11.7583763"><ele>390.8333333333333</ele><time>2026-03-22T14:25:44.77Z</time></trkpt><trkpt lat="43.4568497" lon="11.7584486"><ele>392.0</ele><time>2026-03-22T14:25:45.77Z</time></trkpt><trkpt lat="43.4568133" lon="11.75852"><ele>390.8333333333333</ele><time>2026-03-22T14:25:46.77Z</time></trkpt><trkpt lat="43.4567345" lon="11.7586462"><ele>389.66666666666663</ele><time>2026-03-22T14:25:48.769Z</time></trkpt><trkpt lat="43.4566958" lon="11.7587195"><ele>388.5</ele><time>2026-03-22T14:25:49.77Z</time></trkpt><trkpt lat="43.4566104" lon="11.7588258"><ele>387.33333333333337</ele><time>2026-03-22T14:25:51.771Z</time></trkpt><trkpt lat="43.4565568" lon="11.7588805"><ele>386.1666666666667</ele><time>2026-03-22T14:25:52.771Z</time></trkpt><trkpt lat="43.4565046" lon="11.7589361"><ele>385.0</ele><time>2026-03-22T14:25:53.77Z</time></trkpt><trkpt lat="43.4563999" lon="11.7590027"><ele>385.0</ele><time>2026-03-22T14:25:55.77Z</time></trkpt><trkpt lat="43.4563231" lon="11.7590754"><ele>385.0</ele><time>2026-03-22T14:25:57.771Z</time></trkpt><trkpt lat="43.456247" lon="11.7591734"><ele>385.0</ele><time>2026-03-22T14:25:59.77Z</time></trkpt><trkpt lat="43.4561978" lon="11.759231"><ele>385.0</ele><time>2026-03-22T14:26:00.77Z</time></trkpt><trkpt lat="43.4561473" lon="11.7593626"><ele>385.0</ele><time>2026-03-22T14:26:02.771Z</time></trkpt><trkpt lat="43.456138" lon="11.7595139"><ele>385.6666666666667</ele><time>2026-03-22T14:26:04.77Z</time></trkpt><trkpt lat="43.4560931" lon="11.7596794"><ele>386.33333333333337</ele><time>2026-03-22T14:26:06.771Z</time></trkpt><trkpt lat="43.4560786" lon="11.7597711"><ele>387.0</ele><time>2026-03-22T14:26:07.77Z</time></trkpt><trkpt lat="43.456062" lon="11.7598622"><ele>387.66666666666663</ele><time>2026-03-22T14:26:08.77Z</time></trkpt><trkpt lat="43.4560356" lon="11.7599453"><ele>388.3333333333333</ele><time>2026-03-22T14:26:09.77Z</time></trkpt><trkpt lat="43.4559976" lon="11.7600297"><ele>389.0</ele><time>2026-03-22T14:26:10.771Z</time></trkpt><trkpt lat="43.4559278" lon="11.7601594"><ele>389.0</ele><time>2026-03-22T14:26:12.771Z</time></trkpt><trkpt lat="43.4558851" lon="11.7602488"><ele>389.0</ele><time>2026-03-22T14:26:13.77Z</time></trkpt><trkpt lat="43.4558478" lon="11.760329"><ele>389.0</ele><time>2026-03-22T14:26:14.77Z</time></trkpt><trkpt lat="43.4557722" lon="11.7604535"><ele>389.0</ele><time>2026-03-22T14:26:16.771Z</time></trkpt><trkpt lat="43.4557051" lon="11.7605767"><ele>389.0</ele><time>2026-03-22T14:26:18.771Z</time></trkpt><trkpt lat="43.4556086" lon="11.7606419"><ele>388.99999999999994</ele><time>2026-03-22T14:26:20.771Z</time></trkpt><trkpt lat="43.4555004" lon="11.7607247"><ele>389.0</ele><time>2026-03-22T14:26:22.771Z</time></trkpt><trkpt lat="43.4554438" lon="11.7607636"><ele>389.0</ele><time>2026-03-22T14:26:23.771Z</time></trkpt><trkpt lat="43.4553879" lon="11.760809"><ele>389.0</ele><time>2026-03-22T14:26:24.771Z</time></trkpt><trkpt lat="43.4553294" lon="11.760845"><ele>388.99999999999994</ele><time>2026-03-22T14:26:25.771Z</time></trkpt><trkpt lat="43.4552627" lon="11.7608793"><ele>389.0</ele><time>2026-03-22T14:26:26.77Z</time></trkpt><trkpt lat="43.4551508" lon="11.7609424"><ele>390.2</ele><time>2026-03-22T14:26:28.77Z</time></trkpt><trkpt lat="43.4550407" lon="11.76101"><ele>391.4</ele><time>2026-03-22T14:26:30.771Z</time></trkpt><trkpt lat="43.4549415" lon="11.7610871"><ele>392.6</ele><time>2026-03-22T14:26:32.771Z</time></trkpt><trkpt lat="43.4548881" lon="11.7611331"><ele>393.8</ele><time>2026-03-22T14:26:33.77Z</time></trkpt><trkpt lat="43.4547775" lon="11.7611988"><ele>395.0</ele><time>2026-03-22T14:26:35.769Z</time></trkpt><trkpt lat="43.4546685" lon="11.7612654"><ele>396.2</ele><time>2026-03-22T14:26:37.77Z</time></trkpt><trkpt lat="43.4545483" lon="11.7613264"><ele>397.4</ele><time>2026-03-22T14:26:39.771Z</time></trkpt><trkpt lat="43.4544313" lon="11.761395"><ele>398.6</ele><time>2026-03-22T14:26:41.771Z</time></trkpt><trkpt lat="43.4543707" lon="11.7614403"><ele>399.8</ele><time>2026-03-22T14:26:42.77Z</time></trkpt><trkpt lat="43.4542623" lon="11.7614844"><ele>401.0</ele><time>2026-03-22T14:26:44.771Z</time></trkpt><trkpt lat="43.4541715" lon="11.7615219"><ele>401.0</ele><time>2026-03-22T14:26:46.771Z</time></trkpt><trkpt lat="43.4540981" lon="11.761591"><ele>401.0</ele><time>2026-03-22T14:26:48.77Z</time></trkpt><trkpt lat="43.4540384" lon="11.7616467"><ele>401.0</ele><time>2026-03-22T14:26:49.77Z</time></trkpt><trkpt lat="43.4539789" lon="11.7617786"><ele>401.0</ele><time>2026-03-22T14:26:51.771Z</time></trkpt><trkpt lat="43.4539356" lon="11.7619505"><ele>401.0</ele><time>2026-03-22T14:26:53.77Z</time></trkpt><trkpt lat="43.4539173" lon="11.7620452"><ele>401.0</ele><time>2026-03-22T14:26:54.77Z</time></trkpt><trkpt lat="43.4538883" lon="11.7621796"><ele>401.0</ele><time>2026-03-22T14:26:56.771Z</time></trkpt><trkpt lat="43.4538534" lon="11.7623265"><ele>401.0</ele><time>2026-03-22T14:26:58.77Z</time></trkpt><trkpt lat="43.4538352" lon="11.7624429"><ele>401.0</ele><time>2026-03-22T14:27:00.771Z</time></trkpt><trkpt lat="43.4538323" lon="11.7625652"><ele>401.0</ele><time>2026-03-22T14:27:02.77Z</time></trkpt><trkpt lat="43.4538723" lon="11.7626934"><ele>401.66666666666663</ele><time>2026-03-22T14:27:04.771Z</time></trkpt><trkpt lat="43.4538864" lon="11.7628163"><ele>402.3333333333333</ele><time>2026-03-22T14:27:06.771Z</time></trkpt><trkpt lat="43.4538291" lon="11.7629115"><ele>403.0</ele><time>2026-03-22T14:27:08.771Z</time></trkpt><trkpt lat="43.4537974" lon="11.7630121"><ele>403.66666666666663</ele><time>2026-03-22T14:27:10.769Z</time></trkpt><trkpt lat="43.4537443" lon="11.7630675"><ele>404.3333333333333</ele><time>2026-03-22T14:27:14.77Z</time></trkpt><trkpt lat="43.4537758" lon="11.7629881"><ele>405.0</ele><time>2026-03-22T14:29:19.771Z</time></trkpt><trkpt lat="43.4538212" lon="11.7629148"><ele>405.3333333333333</ele><time>2026-03-22T14:29:28.771Z</time></trkpt><trkpt lat="43.4538758" lon="11.7628282"><ele>405.66666666666663</ele><time>2026-03-22T14:29:31.77Z</time></trkpt><trkpt lat="43.4539049" lon="11.7627412"><ele>406.0</ele><time>2026-03-22T14:29:34.77Z</time></trkpt><trkpt lat="43.4538806" lon="11.7626521"><ele>406.3333333333333</ele><time>2026-03-22T14:29:36.77Z</time></trkpt><trkpt lat="43.4538567" lon="11.7625626"><ele>406.66666666666663</ele><time>2026-03-22T14:29:38.771Z</time></trkpt><trkpt lat="43.4538128" lon="11.7624709"><ele>407.0</ele><time>2026-03-22T14:29:41.771Z</time></trkpt><trkpt lat="43.4537229" lon="11.7624492"><ele>407.0</ele><time>2026-03-22T14:29:44.77Z</time></trkpt><trkpt lat="43.4536333" lon="11.7625162"><ele>407.0</ele><time>2026-03-22T14:29:46.77Z</time></trkpt><trkpt lat="43.4535537" lon="11.7625661"><ele>407.0</ele><time>2026-03-22T14:29:48.77Z</time></trkpt><trkpt lat="43.4534607" lon="11.7626281"><ele>407.0</ele><time>2026-03-22T14:29:50.77Z</time></trkpt><trkpt lat="43.4533816" lon="11.7626935"><ele>407.0</ele><time>2026-03-22T14:29:52.77Z</time></trkpt><trkpt lat="43.4533263" lon="11.7627864"><ele>406.6</ele><time>2026-03-22T14:29:54.77Z</time></trkpt><trkpt lat="43.4532972" lon="11.7628987"><ele>406.20000000000005</ele><time>2026-03-22T14:29:56.77Z</time></trkpt><trkpt lat="43.4532888" lon="11.7630462"><ele>405.8</ele><time>2026-03-22T14:29:58.771Z</time></trkpt><trkpt lat="43.4532968" lon="11.7631846"><ele>405.4</ele><time>2026-03-22T14:30:00.77Z</time></trkpt><trkpt lat="43.4532741" lon="11.7633252"><ele>405.0</ele><time>2026-03-22T14:30:02.77Z</time></trkpt><trkpt lat="43.4532075" lon="11.7634083"><ele>405.0</ele><time>2026-03-22T14:30:04.771Z</time></trkpt><trkpt lat="43.4531639" lon="11.7634925"><ele>405.0</ele><time>2026-03-22T14:30:06.77Z</time></trkpt><trkpt lat="43.453113" lon="11.7635462"><ele>405.0</ele><time>2026-03-22T14:30:08.77Z</time></trkpt><trkpt lat="43.4530674" lon="11.7636116"><ele>405.0</ele><time>2026-03-22T14:30:10.77Z</time></trkpt><trkpt lat="43.4530039" lon="11.7637782"><ele>405.0</ele><time>2026-03-22T14:30:15.771Z</time></trkpt><trkpt lat="43.4529739" lon="11.7638803"><ele>405.0</ele><time>2026-03-22T14:30:17.769Z</time></trkpt><trkpt lat="43.4529631" lon="11.7639727"><ele>404.6666666666667</ele><time>2026-03-22T14:30:19.771Z</time></trkpt><trkpt lat="43.452957" lon="11.764068"><ele>404.33333333333337</ele><time>2026-03-22T14:30:21.77Z</time></trkpt><trkpt lat="43.4529319" lon="11.7641679"><ele>404.0</ele><time>2026-03-22T14:30:23.769Z</time></trkpt><trkpt lat="43.45293" lon="11.7642688"><ele>403.6666666666667</ele><time>2026-03-22T14:31:13.771Z</time></trkpt><trkpt lat="43.4528792" lon="11.7643761"><ele>403.33333333333337</ele><time>2026-03-22T14:31:16.771Z</time></trkpt><trkpt lat="43.4528265" lon="11.7644629"><ele>403.0</ele><time>2026-03-22T14:31:19.77Z</time></trkpt><trkpt lat="43.4527806" lon="11.7645644"><ele>398.6666666666667</ele><time>2026-03-22T14:31:22.77Z</time></trkpt><trkpt lat="43.4527557" lon="11.7646476"><ele>394.33333333333337</ele><time>2026-03-22T14:31:24.771Z</time></trkpt><trkpt lat="43.452721" lon="11.7647514"><ele>390.0</ele><time>2026-03-22T14:31:27.771Z</time></trkpt><trkpt lat="43.4526952" lon="11.7648334"><ele>385.6666666666667</ele><time>2026-03-22T14:31:29.769Z</time></trkpt><trkpt lat="43.4526793" lon="11.7649274"><ele>381.33333333333337</ele><time>2026-03-22T14:31:30.771Z</time></trkpt><trkpt lat="43.4526364" lon="11.7650278"><ele>377.0</ele><time>2026-03-22T14:31:32.77Z</time></trkpt><trkpt lat="43.4525898" lon="11.7651543"><ele>377.1666666666667</ele><time>2026-03-22T14:31:34.771Z</time></trkpt><trkpt lat="43.4525284" lon="11.7652586"><ele>377.33333333333337</ele><time>2026-03-22T14:31:36.77Z</time></trkpt><trkpt lat="43.4524594" lon="11.7653182"><ele>377.5</ele><time>2026-03-22T14:31:38.771Z</time></trkpt><trkpt lat="43.4523862" lon="11.7653634"><ele>377.6666666666667</ele><time>2026-03-22T14:31:40.771Z</time></trkpt><trkpt lat="43.4523" lon="11.7654156"><ele>377.8333333333333</ele><time>2026-03-22T14:31:42.771Z</time></trkpt><trkpt lat="43.4522273" lon="11.7655023"><ele>378.0</ele><time>2026-03-22T14:31:44.77Z</time></trkpt><trkpt lat="43.4521272" lon="11.7655393"><ele>377.2</ele><time>2026-03-22T14:31:46.77Z</time></trkpt><trkpt lat="43.4520293" lon="11.7655965"><ele>376.4</ele><time>2026-03-22T14:31:48.771Z</time></trkpt><trkpt lat="43.4519531" lon="11.7656685"><ele>375.59999999999997</ele><time>2026-03-22T14:31:50.771Z</time></trkpt><trkpt lat="43.4518732" lon="11.7657564"><ele>374.79999999999995</ele><time>2026-03-22T14:31:52.77Z</time></trkpt><trkpt lat="43.4517902" lon="11.765846"><ele>374.0</ele><time>2026-03-22T14:31:54.77Z</time></trkpt><trkpt lat="43.4517079" lon="11.7658929"><ele>374.0</ele><time>2026-03-22T14:31:56.77Z</time></trkpt><trkpt lat="43.4516255" lon="11.7659142"><ele>374.0</ele><time>2026-03-22T14:31:58.771Z</time></trkpt><trkpt lat="43.451556" lon="11.7659336"><ele>374.0</ele><time>2026-03-22T14:32:00.77Z</time></trkpt><trkpt lat="43.4514937" lon="11.7659743"><ele>374.0</ele><time>2026-03-22T14:32:02.771Z</time></trkpt><trkpt lat="43.4514178" lon="11.7660158"><ele>374.0</ele><time>2026-03-22T14:32:04.77Z</time></trkpt><trkpt lat="43.4513066" lon="11.7660528"><ele>374.0</ele><time>2026-03-22T14:32:07.77Z</time></trkpt><trkpt lat="43.4512283" lon="11.7661471"><ele>374.0</ele><time>2026-03-22T14:32:09.77Z</time></trkpt><trkpt lat="43.4511658" lon="11.7662613"><ele>374.0</ele><time>2026-03-22T14:32:11.771Z</time></trkpt><trkpt lat="43.4511295" lon="11.7663521"><ele>374.0</ele><time>2026-03-22T14:32:13.77Z</time></trkpt><trkpt lat="43.4510918" lon="11.7664299"><ele>374.0</ele><time>2026-03-22T14:32:36.771Z</time></trkpt><trkpt lat="43.4509849" lon="11.7664523"><ele>374.0</ele><time>2026-03-22T14:32:38.77Z</time></trkpt><trkpt lat="43.450878" lon="11.7664823"><ele>374.0</ele><time>2026-03-22T14:32:40.77Z</time></trkpt><trkpt lat="43.4507673" lon="11.7664992"><ele>374.0</ele><time>2026-03-22T14:32:42.77Z</time></trkpt><trkpt lat="43.4506654" lon="11.7665281"><ele>374.0</ele><time>2026-03-22T14:32:44.77Z</time></trkpt><trkpt lat="43.4505591" lon="11.7665628"><ele>374.0</ele><time>2026-03-22T14:32:46.771Z</time></trkpt><trkpt lat="43.4504555" lon="11.7665533"><ele>374.0</ele><time>2026-03-22T14:32:48.771Z</time></trkpt><trkpt lat="43.4503881" lon="11.766554"><ele>374.0</ele><time>2026-03-22T14:32:49.771Z</time></trkpt><trkpt lat="43.4502834" lon="11.7665422"><ele>374.0</ele><time>2026-03-22T14:32:51.77Z</time></trkpt><trkpt lat="43.4501673" lon="11.7664758"><ele>374.0</ele><time>2026-03-22T14:32:53.77Z</time></trkpt><trkpt lat="43.4501092" lon="11.7664308"><ele>374.0</ele><time>2026-03-22T14:32:54.771Z</time></trkpt><trkpt lat="43.4500395" lon="11.7664078"><ele>374.0</ele><time>2026-03-22T14:32:55.77Z</time></trkpt><trkpt lat="43.4499741" lon="11.766381"><ele>374.0</ele><time>2026-03-22T14:32:56.77Z</time></trkpt><trkpt lat="43.4499124" lon="11.7663598"><ele>374.0</ele><time>2026-03-22T14:32:57.77Z</time></trkpt><trkpt lat="43.449806" lon="11.7663505"><ele>374.0</ele><time>2026-03-22T14:32:59.771Z</time></trkpt><trkpt lat="43.4497176" lon="11.76635"><ele>374.0</ele><time>2026-03-22T14:33:01.77Z</time></trkpt><trkpt lat="43.4496405" lon="11.7663846"><ele>374.0</ele><time>2026-03-22T14:33:03.77Z</time></trkpt><trkpt lat="43.4495812" lon="11.7664729"><ele>374.0</ele><time>2026-03-22T14:33:05.771Z</time></trkpt><trkpt lat="43.4495324" lon="11.7665794"><ele>373.25</ele><time>2026-03-22T14:33:07.771Z</time></trkpt><trkpt lat="43.4494703" lon="11.7666969"><ele>372.5</ele><time>2026-03-22T14:33:09.77Z</time></trkpt><trkpt lat="43.4494911" lon="11.7668823"><ele>371.75</ele><time>2026-03-22T14:33:11.77Z</time></trkpt><trkpt lat="43.4494398" lon="11.7669852"><ele>371.0</ele><time>2026-03-22T14:33:13.771Z</time></trkpt><trkpt lat="43.4493272" lon="11.7670567"><ele>371.0</ele><time>2026-03-22T14:33:15.771Z</time></trkpt><trkpt lat="43.4492394" lon="11.7670916"><ele>371.0</ele><time>2026-03-22T14:33:17.77Z</time></trkpt><trkpt lat="43.4491632" lon="11.7671142"><ele>371.0</ele><time>2026-03-22T14:33:19.77Z</time></trkpt><trkpt lat="43.4490876" lon="11.7671222"><ele>371.0</ele><time>2026-03-22T14:33:21.771Z</time></trkpt><trkpt lat="43.4489998" lon="11.7671628"><ele>371.0</ele><time>2026-03-22T14:33:23.771Z</time></trkpt><trkpt lat="43.4489045" lon="11.7672205"><ele>371.0</ele><time>2026-03-22T14:33:25.771Z</time></trkpt><trkpt lat="43.4488281" lon="11.7673225"><ele>367.6</ele><time>2026-03-22T14:33:27.771Z</time></trkpt><trkpt lat="43.4487515" lon="11.7674298"><ele>364.20000000000005</ele><time>2026-03-22T14:33:29.771Z</time></trkpt><trkpt lat="43.4486803" lon="11.7675146"><ele>360.79999999999995</ele><time>2026-03-22T14:33:31.77Z</time></trkpt><trkpt lat="43.4486085" lon="11.7676003"><ele>357.4</ele><time>2026-03-22T14:33:33.771Z</time></trkpt><trkpt lat="43.4485946" lon="11.7677076"><ele>354.0</ele><time>2026-03-22T14:33:35.77Z</time></trkpt><trkpt lat="43.4486117" lon="11.7678129"><ele>354.0</ele><time>2026-03-22T14:33:37.77Z</time></trkpt><trkpt lat="43.4485741" lon="11.7679533"><ele>354.0</ele><time>2026-03-22T14:33:39.77Z</time></trkpt><trkpt lat="43.4485336" lon="11.7680219"><ele>354.0</ele><time>2026-03-22T14:33:40.771Z</time></trkpt><trkpt lat="43.4484716" lon="11.7681454"><ele>354.0</ele><time>2026-03-22T14:33:42.77Z</time></trkpt><trkpt lat="43.4484292" lon="11.7682574"><ele>354.0</ele><time>2026-03-22T14:33:44.77Z</time></trkpt><trkpt lat="43.4484198" lon="11.7683783"><ele>354.0</ele><time>2026-03-22T14:33:46.771Z</time></trkpt><trkpt lat="43.4483492" lon="11.7684365"><ele>354.0</ele><time>2026-03-22T14:33:47.771Z</time></trkpt><trkpt lat="43.4483077" lon="11.7685721"><ele>354.0</ele><time>2026-03-22T14:33:49.771Z</time></trkpt><trkpt lat="43.4482797" lon="11.7686724"><ele>354.0</ele><time>2026-03-22T14:33:50.77Z</time></trkpt><trkpt lat="43.448267" lon="11.7688215"><ele>354.0</ele><time>2026-03-22T14:33:52.77Z</time></trkpt><trkpt lat="43.4482301" lon="11.7689538"><ele>355.0</ele><time>2026-03-22T14:33:54.771Z</time></trkpt><trkpt lat="43.448208" lon="11.7690711"><ele>356.0</ele><time>2026-03-22T14:33:56.77Z</time></trkpt><trkpt lat="43.4481864" lon="11.7691801"><ele>357.0</ele><time>2026-03-22T14:33:58.771Z</time></trkpt><trkpt lat="43.4481853" lon="11.7692896"><ele>358.0</ele><time>2026-03-22T14:34:00.771Z</time></trkpt><trkpt lat="43.4481485" lon="11.7694058"><ele>359.0</ele><time>2026-03-22T14:34:02.771Z</time></trkpt><trkpt lat="43.4480884" lon="11.7695044"><ele>360.0</ele><time>2026-03-22T14:34:04.771Z</time></trkpt><trkpt lat="43.4480425" lon="11.7695736"><ele>360.8</ele><time>2026-03-22T14:34:05.771Z</time></trkpt><trkpt lat="43.4479884" lon="11.7697172"><ele>361.6</ele><time>2026-03-22T14:34:07.77Z</time></trkpt><trkpt lat="43.4479223" lon="11.769844"><ele>362.4</ele><time>2026-03-22T14:34:09.77Z</time></trkpt><trkpt lat="43.4478569" lon="11.7699249"><ele>363.2</ele><time>2026-03-22T14:34:11.77Z</time></trkpt><trkpt lat="43.4477908" lon="11.7700259"><ele>364.0</ele><time>2026-03-22T14:34:13.771Z</time></trkpt><trkpt lat="43.4477489" lon="11.7700921"><ele>360.0</ele><time>2026-03-22T14:34:14.77Z</time></trkpt><trkpt lat="43.4476869" lon="11.770193"><ele>356.0</ele><time>2026-03-22T14:34:16.77Z</time></trkpt><trkpt lat="43.4476243" lon="11.7703008"><ele>352.0</ele><time>2026-03-22T14:34:18.771Z</time></trkpt><trkpt lat="43.4475626" lon="11.7704158"><ele>348.0</ele><time>2026-03-22T14:34:20.771Z</time></trkpt><trkpt lat="43.4474822" lon="11.7705211"><ele>344.0</ele><time>2026-03-22T14:34:22.771Z</time></trkpt><trkpt lat="43.4474291" lon="11.7706073"><ele>344.0</ele><time>2026-03-22T14:34:24.769Z</time></trkpt><trkpt lat="43.4473475" lon="11.7706553"><ele>344.0</ele><time>2026-03-22T14:34:26.771Z</time></trkpt><trkpt lat="43.4472706" lon="11.7707419"><ele>344.0</ele><time>2026-03-22T14:34:28.771Z</time></trkpt><trkpt lat="43.4472001" lon="11.7707408"><ele>344.0</ele><time>2026-03-22T14:34:30.771Z</time></trkpt><trkpt lat="43.4471304" lon="11.7708058"><ele>344.0</ele><time>2026-03-22T14:34:32.771Z</time></trkpt><trkpt lat="43.4470619" lon="11.7708959"><ele>344.0</ele><time>2026-03-22T14:34:34.771Z</time></trkpt><trkpt lat="43.4469822" lon="11.7709591"><ele>340.0</ele><time>2026-03-22T14:34:36.771Z</time></trkpt><trkpt lat="43.4468948" lon="11.7710375"><ele>336.0</ele><time>2026-03-22T14:34:38.77Z</time></trkpt><trkpt lat="43.4468306" lon="11.7710995"><ele>332.0</ele><time>2026-03-22T14:34:40.77Z</time></trkpt><trkpt lat="43.4467786" lon="11.7712215"><ele>328.0</ele><time>2026-03-22T14:34:42.771Z</time></trkpt><trkpt lat="43.4467413" lon="11.7713465"><ele>324.0</ele><time>2026-03-22T14:34:44.771Z</time></trkpt><trkpt lat="43.4467251" lon="11.7714517"><ele>324.0</ele><time>2026-03-22T14:34:46.77Z</time></trkpt><trkpt lat="43.4467186" lon="11.7715435"><ele>324.0</ele><time>2026-03-22T14:34:48.771Z</time></trkpt><trkpt lat="43.446706" lon="11.771645"><ele>324.0</ele><time>2026-03-22T14:34:50.771Z</time></trkpt><trkpt lat="43.4467295" lon="11.7717333"><ele>324.0</ele><time>2026-03-22T14:34:52.77Z</time></trkpt><trkpt lat="43.4467546" lon="11.771834"><ele>324.0</ele><time>2026-03-22T14:34:54.771Z</time></trkpt><trkpt lat="43.446781" lon="11.7719613"><ele>324.0</ele><time>2026-03-22T14:34:56.771Z</time></trkpt><trkpt lat="43.4468096" lon="11.7720715"><ele>322.8333333333333</ele><time>2026-03-22T14:34:58.771Z</time></trkpt><trkpt lat="43.4468442" lon="11.7721827"><ele>321.6666666666667</ele><time>2026-03-22T14:35:00.771Z</time></trkpt><trkpt lat="43.446896" lon="11.7722444"><ele>320.5</ele><time>2026-03-22T14:35:02.771Z</time></trkpt><trkpt lat="43.4469657" lon="11.7722946"><ele>319.33333333333337</ele><time>2026-03-22T14:35:04.77Z</time></trkpt><trkpt lat="43.4470285" lon="11.7723498"><ele>318.1666666666667</ele><time>2026-03-22T14:35:06.769Z</time></trkpt><trkpt lat="43.4470785" lon="11.7724319"><ele>317.0</ele><time>2026-03-22T14:35:08.771Z</time></trkpt><trkpt lat="43.4471296" lon="11.7725285"><ele>316.83333333333337</ele><time>2026-03-22T14:35:10.771Z</time></trkpt><trkpt lat="43.4471671" lon="11.7726351"><ele>316.6666666666667</ele><time>2026-03-22T14:35:12.77Z</time></trkpt><trkpt lat="43.4471833" lon="11.7727443"><ele>316.5</ele><time>2026-03-22T14:35:14.77Z</time></trkpt><trkpt lat="43.4471947" lon="11.7728517"><ele>316.3333333333333</ele><time>2026-03-22T14:35:16.771Z</time></trkpt><trkpt lat="43.4472068" lon="11.7729612"><ele>316.16666666666663</ele><time>2026-03-22T14:35:18.77Z</time></trkpt><trkpt lat="43.4472161" lon="11.7730618"><ele>316.0</ele><time>2026-03-22T14:35:20.771Z</time></trkpt><trkpt lat="43.4471191" lon="11.7731353"><ele>314.40000000000003</ele><time>2026-03-22T14:35:23.769Z</time></trkpt><trkpt lat="43.4470669" lon="11.7731886"><ele>312.8</ele><time>2026-03-22T14:35:26.77Z</time></trkpt><trkpt lat="43.446979" lon="11.7731228"><ele>311.20000000000005</ele><time>2026-03-22T14:36:23.771Z</time></trkpt><trkpt lat="43.4469015" lon="11.7731882"><ele>309.6</ele><time>2026-03-22T14:36:24.771Z</time></trkpt><trkpt lat="43.4467926" lon="11.7732363"><ele>308.0</ele><time>2026-03-22T14:36:26.77Z</time></trkpt><trkpt lat="43.4466806" lon="11.7732874"><ele>308.0</ele><time>2026-03-22T14:36:28.77Z</time></trkpt><trkpt lat="43.446565" lon="11.7733339"><ele>308.0</ele><time>2026-03-22T14:36:30.771Z</time></trkpt><trkpt lat="43.4464568" lon="11.7733614"><ele>308.0</ele><time>2026-03-22T14:36:32.77Z</time></trkpt><trkpt lat="43.4463662" lon="11.7734055"><ele>308.0</ele><time>2026-03-22T14:36:34.77Z</time></trkpt><trkpt lat="43.4462787" lon="11.7734684"><ele>308.0</ele><time>2026-03-22T14:36:36.771Z</time></trkpt><trkpt lat="43.4461999" lon="11.773552"><ele>304.6</ele><time>2026-03-22T14:36:38.771Z</time></trkpt><trkpt lat="43.4461183" lon="11.7735921"><ele>301.20000000000005</ele><time>2026-03-22T14:36:40.771Z</time></trkpt><trkpt lat="43.4460359" lon="11.7736344"><ele>297.8</ele><time>2026-03-22T14:36:42.771Z</time></trkpt><trkpt lat="43.4459838" lon="11.7737472"><ele>294.40000000000003</ele><time>2026-03-22T14:36:44.771Z</time></trkpt><trkpt lat="43.4458979" lon="11.773792"><ele>291.0</ele><time>2026-03-22T14:36:46.77Z</time></trkpt><trkpt lat="43.4458083" lon="11.7738107"><ele>291.0</ele><time>2026-03-22T14:36:48.769Z</time></trkpt><trkpt lat="43.4457191" lon="11.7738559"><ele>291.0</ele><time>2026-03-22T14:36:50.771Z</time></trkpt><trkpt lat="43.4456443" lon="11.773884"><ele>291.0</ele><time>2026-03-22T14:36:52.77Z</time></trkpt><trkpt lat="43.4455553" lon="11.7739078"><ele>291.0</ele><time>2026-03-22T14:36:54.771Z</time></trkpt><trkpt lat="43.4454583" lon="11.7739525"><ele>291.0</ele><time>2026-03-22T14:36:56.771Z</time></trkpt><trkpt lat="43.4453683" lon="11.7739991"><ele>290.0</ele><time>2026-03-22T14:36:58.771Z</time></trkpt><trkpt lat="43.4452829" lon="11.7740466"><ele>289.0</ele><time>2026-03-22T14:37:00.771Z</time></trkpt><trkpt lat="43.4451903" lon="11.7740908"><ele>288.0</ele><time>2026-03-22T14:37:02.771Z</time></trkpt><trkpt lat="43.4450903" lon="11.7741417"><ele>287.0</ele><time>2026-03-22T14:37:04.77Z</time></trkpt><trkpt lat="43.4449937" lon="11.7741887"><ele>286.0</ele><time>2026-03-22T14:37:06.77Z</time></trkpt><trkpt lat="43.444918" lon="11.7742402"><ele>286.0</ele><time>2026-03-22T14:37:08.771Z</time></trkpt><trkpt lat="43.4449008" lon="11.7743405"><ele>286.0</ele><time>2026-03-22T14:37:10.771Z</time></trkpt><trkpt lat="43.4449352" lon="11.7744603"><ele>286.0</ele><time>2026-03-22T14:37:12.771Z</time></trkpt><trkpt lat="43.4449813" lon="11.7745752"><ele>286.0</ele><time>2026-03-22T14:37:14.771Z</time></trkpt><trkpt lat="43.4450223" lon="11.7746559"><ele>286.0</ele><time>2026-03-22T14:37:16.77Z</time></trkpt><trkpt lat="43.4450626" lon="11.7747493"><ele>286.0</ele><time>2026-03-22T14:37:18.771Z</time></trkpt><trkpt lat="43.4450999" lon="11.7748448"><ele>284.6</ele><time>2026-03-22T14:37:20.77Z</time></trkpt><trkpt lat="43.4451163" lon="11.7749373"><ele>283.20000000000005</ele><time>2026-03-22T14:37:22.771Z</time></trkpt><trkpt lat="43.4450748" lon="11.7750306"><ele>281.79999999999995</ele><time>2026-03-22T14:37:24.771Z</time></trkpt><trkpt lat="43.4449628" lon="11.7750835"><ele>280.4</ele><time>2026-03-22T14:37:26.77Z</time></trkpt><trkpt lat="43.444853" lon="11.7751053"><ele>279.0</ele><time>2026-03-22T14:37:28.771Z</time></trkpt><trkpt lat="43.4447524" lon="11.7751323"><ele>279.0</ele><time>2026-03-22T14:37:30.77Z</time></trkpt><trkpt lat="43.4446886" lon="11.7751476"><ele>279.0</ele><time>2026-03-22T14:37:31.77Z</time></trkpt><trkpt lat="43.4446227" lon="11.7751656"><ele>279.0</ele><time>2026-03-22T14:37:32.77Z</time></trkpt><trkpt lat="43.4445054" lon="11.775192"><ele>279.0</ele><time>2026-03-22T14:37:34.77Z</time></trkpt><trkpt lat="43.4444373" lon="11.7751881"><ele>279.0</ele><time>2026-03-22T14:37:35.77Z</time></trkpt><trkpt lat="43.4443662" lon="11.7751756"><ele>279.0</ele><time>2026-03-22T14:37:36.77Z</time></trkpt><trkpt lat="43.4443016" lon="11.7751687"><ele>278.1666666666667</ele><time>2026-03-22T14:37:37.771Z</time></trkpt><trkpt lat="43.4441927" lon="11.7751642"><ele>277.3333333333333</ele><time>2026-03-22T14:37:39.77Z</time></trkpt><trkpt lat="43.4441002" lon="11.7751698"><ele>276.5</ele><time>2026-03-22T14:37:41.77Z</time></trkpt><trkpt lat="43.4440213" lon="11.7751742"><ele>275.66666666666663</ele><time>2026-03-22T14:37:43.771Z</time></trkpt><trkpt lat="43.4439833" lon="11.7752616"><ele>274.8333333333333</ele><time>2026-03-22T14:37:45.77Z</time></trkpt><trkpt lat="43.4439848" lon="11.7753574"><ele>274.0</ele><time>2026-03-22T14:38:12.771Z</time></trkpt><trkpt lat="43.4439802" lon="11.7755026"><ele>273.0</ele><time>2026-03-22T14:38:13.771Z</time></trkpt><trkpt lat="43.4439767" lon="11.775651"><ele>272.0</ele><time>2026-03-22T14:38:14.77Z</time></trkpt><trkpt lat="43.4439725" lon="11.7757926"><ele>271.0</ele><time>2026-03-22T14:38:15.77Z</time></trkpt><trkpt lat="43.4439718" lon="11.775938"><ele>270.0</ele><time>2026-03-22T14:38:16.771Z</time></trkpt><trkpt lat="43.4439681" lon="11.7760891"><ele>269.0</ele><time>2026-03-22T14:38:17.77Z</time></trkpt><trkpt lat="43.443965" lon="11.7762303"><ele>269.0</ele><time>2026-03-22T14:38:18.771Z</time></trkpt><trkpt lat="43.4439604" lon="11.7763608"><ele>269.0</ele><time>2026-03-22T14:38:19.77Z</time></trkpt><trkpt lat="43.4439519" lon="11.7764904"><ele>269.0</ele><time>2026-03-22T14:38:20.771Z</time></trkpt><trkpt lat="43.4439407" lon="11.7766236"><ele>269.0</ele><time>2026-03-22T14:38:21.77Z</time></trkpt><trkpt lat="43.4439268" lon="11.7767578"><ele>269.0</ele><time>2026-03-22T14:38:22.77Z</time></trkpt><trkpt lat="43.4439068" lon="11.7768945"><ele>269.2</ele><time>2026-03-22T14:38:23.771Z</time></trkpt><trkpt lat="43.443879" lon="11.777033"><ele>269.4</ele><time>2026-03-22T14:38:24.771Z</time></trkpt><trkpt lat="43.4438448" lon="11.777167"><ele>269.6</ele><time>2026-03-22T14:38:25.77Z</time></trkpt><trkpt lat="43.4438107" lon="11.7772927"><ele>269.8</ele><time>2026-03-22T14:38:26.771Z</time></trkpt><trkpt lat="43.4437769" lon="11.7774068"><ele>270.0</ele><time>2026-03-22T14:38:27.771Z</time></trkpt><trkpt lat="43.4437392" lon="11.7775165"><ele>270.0</ele><time>2026-03-22T14:38:28.77Z</time></trkpt><trkpt lat="43.4437015" lon="11.7776337"><ele>270.0</ele><time>2026-03-22T14:38:29.769Z</time></trkpt><trkpt lat="43.4436616" lon="11.777769"><ele>270.0</ele><time>2026-03-22T14:38:30.769Z</time></trkpt><trkpt lat="43.443612" lon="11.777913"><ele>270.0</ele><time>2026-03-22T14:38:31.769Z</time></trkpt><trkpt lat="43.443558" lon="11.7780565"><ele>270.0</ele><time>2026-03-22T14:38:32.769Z</time></trkpt><trkpt lat="43.4435104" lon="11.7781987"><ele>271.0</ele><time>2026-03-22T14:38:33.769Z</time></trkpt><trkpt lat="43.4434704" lon="11.7783329"><ele>272.0</ele><time>2026-03-22T14:38:34.769Z</time></trkpt><trkpt lat="43.4434322" lon="11.7784532"><ele>273.0</ele><time>2026-03-22T14:38:35.77Z</time></trkpt><trkpt lat="43.4433937" lon="11.7785561"><ele>274.0</ele><time>2026-03-22T14:38:36.769Z</time></trkpt><trkpt lat="43.4433649" lon="11.7786468"><ele>275.0</ele><time>2026-03-22T14:38:37.769Z</time></trkpt><trkpt lat="43.4433245" lon="11.7787784"><ele>274.8</ele><time>2026-03-22T14:38:39.769Z</time></trkpt><trkpt lat="43.4432862" lon="11.7788631"><ele>274.6</ele><time>2026-03-22T14:38:41.77Z</time></trkpt><trkpt lat="43.4432301" lon="11.7789151"><ele>274.4</ele><time>2026-03-22T14:38:43.769Z</time></trkpt><trkpt lat="43.4431433" lon="11.7788975"><ele>274.2</ele><time>2026-03-22T14:38:45.77Z</time></trkpt><trkpt lat="43.443004" lon="11.7788672"><ele>274.0</ele><time>2026-03-22T14:38:47.769Z</time></trkpt><trkpt lat="43.4429081" lon="11.7788791"><ele>274.0</ele><time>2026-03-22T14:38:48.77Z</time></trkpt><trkpt lat="43.4427926" lon="11.7789453"><ele>274.0</ele><time>2026-03-22T14:38:49.77Z</time></trkpt><trkpt lat="43.4426846" lon="11.7790095"><ele>274.0</ele><time>2026-03-22T14:38:50.768Z</time></trkpt><trkpt lat="43.4425905" lon="11.7790789"><ele>274.0</ele><time>2026-03-22T14:38:51.769Z</time></trkpt><trkpt lat="43.4425163" lon="11.7791618"><ele>274.0</ele><time>2026-03-22T14:38:52.769Z</time></trkpt><trkpt lat="43.4424501" lon="11.7792808"><ele>274.75</ele><time>2026-03-22T14:38:53.768Z</time></trkpt><trkpt lat="43.442389" lon="11.7794376"><ele>275.5</ele><time>2026-03-22T14:38:54.769Z</time></trkpt><trkpt lat="43.4423314" lon="11.7795984"><ele>276.25</ele><time>2026-03-22T14:38:55.77Z</time></trkpt><trkpt lat="43.4422814" lon="11.7797418"><ele>277.0</ele><time>2026-03-22T14:38:56.769Z</time></trkpt><trkpt lat="43.4422372" lon="11.779872"><ele>277.0</ele><time>2026-03-22T14:38:57.769Z</time></trkpt><trkpt lat="43.4421948" lon="11.7800043"><ele>277.0</ele><time>2026-03-22T14:38:58.769Z</time></trkpt><trkpt lat="43.4421552" lon="11.7801214"><ele>277.0</ele><time>2026-03-22T14:38:59.77Z</time></trkpt><trkpt lat="43.4421174" lon="11.7802287"><ele>277.0</ele><time>2026-03-22T14:39:00.769Z</time></trkpt><trkpt lat="43.4420822" lon="11.7803379"><ele>277.0</ele><time>2026-03-22T14:39:01.77Z</time></trkpt><trkpt lat="43.4420432" lon="11.7804495"><ele>276.0</ele><time>2026-03-22T14:39:02.769Z</time></trkpt><trkpt lat="43.4420062" lon="11.7805595"><ele>275.0</ele><time>2026-03-22T14:39:03.77Z</time></trkpt><trkpt lat="43.4419712" lon="11.7806651"><ele>274.0</ele><time>2026-03-22T14:39:04.769Z</time></trkpt><trkpt lat="43.4419442" lon="11.7807642"><ele>273.0</ele><time>2026-03-22T14:39:05.769Z</time></trkpt><trkpt lat="43.4419307" lon="11.7808632"><ele>272.0</ele><time>2026-03-22T14:39:06.77Z</time></trkpt><trkpt lat="43.4419429" lon="11.7809771"><ele>271.0</ele><time>2026-03-22T14:39:07.77Z</time></trkpt><trkpt lat="43.4419734" lon="11.7810786"><ele>270.8333333333333</ele><time>2026-03-22T14:39:08.77Z</time></trkpt><trkpt lat="43.4420316" lon="11.7811681"><ele>270.66666666666663</ele><time>2026-03-22T14:39:09.77Z</time></trkpt><trkpt lat="43.4421108" lon="11.7812283"><ele>270.5</ele><time>2026-03-22T14:39:10.77Z</time></trkpt><trkpt lat="43.4422071" lon="11.7812851"><ele>270.3333333333333</ele><time>2026-03-22T14:39:11.769Z</time></trkpt><trkpt lat="43.4422916" lon="11.7813374"><ele>270.1666666666667</ele><time>2026-03-22T14:39:12.77Z</time></trkpt><trkpt lat="43.4423536" lon="11.7813748"><ele>270.0</ele><time>2026-03-22T14:39:13.769Z</time></trkpt><trkpt lat="43.4424126" lon="11.7814633"><ele>270.2</ele><time>2026-03-22T14:39:15.768Z</time></trkpt><trkpt lat="43.4423707" lon="11.7816275"><ele>270.4</ele><time>2026-03-22T14:39:17.769Z</time></trkpt><trkpt lat="43.4423231" lon="11.7817401"><ele>270.6</ele><time>2026-03-22T14:39:18.769Z</time></trkpt><trkpt lat="43.4422575" lon="11.7818096"><ele>270.8</ele><time>2026-03-22T14:39:19.77Z</time></trkpt><trkpt lat="43.4421905" lon="11.7818735"><ele>271.0</ele><time>2026-03-22T14:39:20.769Z</time></trkpt><trkpt lat="43.4421274" lon="11.781934"><ele>271.0</ele><time>2026-03-22T14:39:21.77Z</time></trkpt><trkpt lat="43.4420669" lon="11.7819837"><ele>271.0</ele><time>2026-03-22T14:39:22.77Z</time></trkpt><trkpt lat="43.4419869" lon="11.7820417"><ele>271.0</ele><time>2026-03-22T14:39:24.769Z</time></trkpt><trkpt lat="43.4419385" lon="11.7821048"><ele>271.0</ele><time>2026-03-22T14:39:26.769Z</time></trkpt><trkpt lat="43.4419435" lon="11.7822503"><ele>271.0</ele><time>2026-03-22T14:39:28.77Z</time></trkpt><trkpt lat="43.4419714" lon="11.7823602"><ele>271.0</ele><time>2026-03-22T14:39:29.769Z</time></trkpt><trkpt lat="43.4420045" lon="11.7825177"><ele>272.66666666666663</ele><time>2026-03-22T14:39:30.769Z</time></trkpt><trkpt lat="43.4420498" lon="11.7827187"><ele>274.3333333333333</ele><time>2026-03-22T14:39:31.77Z</time></trkpt><trkpt lat="43.442112" lon="11.7829143"><ele>276.0</ele><time>2026-03-22T14:39:32.77Z</time></trkpt><trkpt lat="43.4421917" lon="11.7831011"><ele>277.0</ele><time>2026-03-22T14:39:33.769Z</time></trkpt><trkpt lat="43.4422818" lon="11.7832435"><ele>278.0</ele><time>2026-03-22T14:39:34.77Z</time></trkpt><trkpt lat="43.442395" lon="11.7833715"><ele>279.0</ele><time>2026-03-22T14:39:35.768Z</time></trkpt><trkpt lat="43.4425172" lon="11.7835073"><ele>280.0</ele><time>2026-03-22T14:39:36.77Z</time></trkpt><trkpt lat="43.4426096" lon="11.783641"><ele>280.5</ele><time>2026-03-22T14:39:37.77Z</time></trkpt><trkpt lat="43.4426886" lon="11.7837686"><ele>281.0</ele><time>2026-03-22T14:39:38.769Z</time></trkpt><trkpt lat="43.4427601" lon="11.7838961"><ele>281.5</ele><time>2026-03-22T14:39:39.77Z</time></trkpt><trkpt lat="43.442814" lon="11.7840244"><ele>282.0</ele><time>2026-03-22T14:39:40.769Z</time></trkpt><trkpt lat="43.4428575" lon="11.7841766"><ele>282.0</ele><time>2026-03-22T14:39:41.769Z</time></trkpt><trkpt lat="43.4428954" lon="11.784346"><ele>282.0</ele><time>2026-03-22T14:39:42.77Z</time></trkpt><trkpt lat="43.4429349" lon="11.7844971"><ele>282.0</ele><time>2026-03-22T14:39:43.77Z</time></trkpt><trkpt lat="43.442978" lon="11.7846524"><ele>282.0</ele><time>2026-03-22T14:39:44.769Z</time></trkpt><trkpt lat="43.4430148" lon="11.7848225"><ele>280.5</ele><time>2026-03-22T14:39:45.77Z</time></trkpt><trkpt lat="43.4430338" lon="11.7850069"><ele>279.0</ele><time>2026-03-22T14:39:46.769Z</time></trkpt><trkpt lat="43.4430389" lon="11.7851948"><ele>277.5</ele><time>2026-03-22T14:39:47.77Z</time></trkpt><trkpt lat="43.4430456" lon="11.7853792"><ele>276.0</ele><time>2026-03-22T14:39:48.77Z</time></trkpt><trkpt lat="43.4430632" lon="11.7855784"><ele>274.3333333333333</ele><time>2026-03-22T14:39:49.769Z</time></trkpt><trkpt lat="43.4431031" lon="11.78578"><ele>272.66666666666663</ele><time>2026-03-22T14:39:50.769Z</time></trkpt><trkpt lat="43.4431675" lon="11.7859832"><ele>271.0</ele><time>2026-03-22T14:39:51.77Z</time></trkpt><trkpt lat="43.4432556" lon="11.7861926"><ele>270.0</ele><time>2026-03-22T14:39:52.769Z</time></trkpt><trkpt lat="43.4433526" lon="11.7863878"><ele>269.0</ele><time>2026-03-22T14:39:53.77Z</time></trkpt><trkpt lat="43.4434588" lon="11.7865666"><ele>268.0</ele><time>2026-03-22T14:39:54.77Z</time></trkpt><trkpt lat="43.4435858" lon="11.7867411"><ele>267.3333333333333</ele><time>2026-03-22T14:39:55.769Z</time></trkpt><trkpt lat="43.4437355" lon="11.7869087"><ele>266.6666666666667</ele><time>2026-03-22T14:39:56.769Z</time></trkpt><trkpt lat="43.4438943" lon="11.7870651"><ele>266.0</ele><time>2026-03-22T14:39:57.769Z</time></trkpt><trkpt lat="43.4440362" lon="11.7872152"><ele>265.33333333333337</ele><time>2026-03-22T14:39:58.769Z</time></trkpt><trkpt lat="43.4441713" lon="11.7873795"><ele>264.6666666666667</ele><time>2026-03-22T14:39:59.769Z</time></trkpt><trkpt lat="43.4443002" lon="11.7875572"><ele>264.0</ele><time>2026-03-22T14:40:00.77Z</time></trkpt><trkpt lat="43.4444208" lon="11.7877477"><ele>263.3333333333333</ele><time>2026-03-22T14:40:01.768Z</time></trkpt><trkpt lat="43.4445355" lon="11.7879637"><ele>262.66666666666663</ele><time>2026-03-22T14:40:02.769Z</time></trkpt><trkpt lat="43.444646" lon="11.7882081"><ele>262.0</ele><time>2026-03-22T14:40:03.77Z</time></trkpt><trkpt lat="43.4447508" lon="11.7884668"><ele>262.66666666666663</ele><time>2026-03-22T14:40:04.769Z</time></trkpt><trkpt lat="43.4448495" lon="11.7887297"><ele>263.3333333333333</ele><time>2026-03-22T14:40:05.77Z</time></trkpt><trkpt lat="43.4449398" lon="11.7890006"><ele>264.0</ele><time>2026-03-22T14:40:06.769Z</time></trkpt><trkpt lat="43.4450219" lon="11.7892734"><ele>263.3333333333333</ele><time>2026-03-22T14:40:07.77Z</time></trkpt><trkpt lat="43.445093" lon="11.7895485"><ele>262.66666666666663</ele><time>2026-03-22T14:40:08.77Z</time></trkpt><trkpt lat="43.4451414" lon="11.7898281"><ele>262.0</ele><time>2026-03-22T14:40:09.769Z</time></trkpt><trkpt lat="43.4451756" lon="11.7901074"><ele>260.66666666666663</ele><time>2026-03-22T14:40:10.77Z</time></trkpt><trkpt lat="43.4452022" lon="11.7903753"><ele>259.3333333333333</ele><time>2026-03-22T14:40:11.768Z</time></trkpt><trkpt lat="43.4452446" lon="11.7906265"><ele>258.0</ele><time>2026-03-22T14:40:12.769Z</time></trkpt><trkpt lat="43.4453048" lon="11.7908746"><ele>257.6666666666667</ele><time>2026-03-22T14:40:13.77Z</time></trkpt><trkpt lat="43.4453801" lon="11.7911064"><ele>257.33333333333337</ele><time>2026-03-22T14:40:14.77Z</time></trkpt><trkpt lat="43.4454633" lon="11.7913191"><ele>257.0</ele><time>2026-03-22T14:40:15.769Z</time></trkpt><trkpt lat="43.4455569" lon="11.7915104"><ele>257.0</ele><time>2026-03-22T14:40:16.769Z</time></trkpt><trkpt lat="43.4456677" lon="11.7916715"><ele>257.0</ele><time>2026-03-22T14:40:17.77Z</time></trkpt><trkpt lat="43.4458009" lon="11.7918112"><ele>257.0</ele><time>2026-03-22T14:40:18.77Z</time></trkpt><trkpt lat="43.4459554" lon="11.7919434"><ele>256.6666666666667</ele><time>2026-03-22T14:40:19.769Z</time></trkpt><trkpt lat="43.4461098" lon="11.7920753"><ele>256.3333333333333</ele><time>2026-03-22T14:40:20.77Z</time></trkpt><trkpt lat="43.4462531" lon="11.792205"><ele>256.0</ele><time>2026-03-22T14:40:21.77Z</time></trkpt><trkpt lat="43.4463825" lon="11.792338"><ele>256.0</ele><time>2026-03-22T14:40:22.769Z</time></trkpt><trkpt lat="43.4464911" lon="11.7924872"><ele>256.0</ele><time>2026-03-22T14:40:23.77Z</time></trkpt><trkpt lat="43.4465688" lon="11.7926565"><ele>256.0</ele><time>2026-03-22T14:40:24.769Z</time></trkpt><trkpt lat="43.446622" lon="11.7928502"><ele>256.0</ele><time>2026-03-22T14:40:25.768Z</time></trkpt><trkpt lat="43.4466571" lon="11.793065"><ele>255.66666666666666</ele><time>2026-03-22T14:40:26.769Z</time></trkpt><trkpt lat="43.4466887" lon="11.7933001"><ele>255.33333333333331</ele><time>2026-03-22T14:40:27.77Z</time></trkpt><trkpt lat="43.4467223" lon="11.7935554"><ele>255.0</ele><time>2026-03-22T14:40:28.77Z</time></trkpt><trkpt lat="43.4467583" lon="11.7938245"><ele>255.0</ele><time>2026-03-22T14:40:29.77Z</time></trkpt><trkpt lat="43.4467909" lon="11.7941081"><ele>255.0</ele><time>2026-03-22T14:40:30.769Z</time></trkpt><trkpt lat="43.4468202" lon="11.794392"><ele>255.0</ele><time>2026-03-22T14:40:31.769Z</time></trkpt><trkpt lat="43.4468531" lon="11.7946515"><ele>254.33333333333331</ele><time>2026-03-22T14:40:32.77Z</time></trkpt><trkpt lat="43.4469001" lon="11.7948963"><ele>253.66666666666666</ele><time>2026-03-22T14:40:33.769Z</time></trkpt><trkpt lat="43.4469625" lon="11.7951226"><ele>253.0</ele><time>2026-03-22T14:40:34.77Z</time></trkpt><trkpt lat="43.4470381" lon="11.7953415"><ele>253.33333333333331</ele><time>2026-03-22T14:40:35.769Z</time></trkpt><trkpt lat="43.4471289" lon="11.7955543"><ele>253.66666666666669</ele><time>2026-03-22T14:40:36.77Z</time></trkpt><trkpt lat="43.4472338" lon="11.7957585"><ele>254.0</ele><time>2026-03-22T14:40:37.769Z</time></trkpt><trkpt lat="43.4473505" lon="11.7959577"><ele>253.33333333333334</ele><time>2026-03-22T14:40:38.77Z</time></trkpt><trkpt lat="43.4474638" lon="11.7961433"><ele>252.66666666666669</ele><time>2026-03-22T14:40:39.769Z</time></trkpt><trkpt lat="43.4475676" lon="11.7963082"><ele>252.0</ele><time>2026-03-22T14:40:40.769Z</time></trkpt><trkpt lat="43.4476622" lon="11.7964558"><ele>252.0</ele><time>2026-03-22T14:40:41.768Z</time></trkpt><trkpt lat="43.4477394" lon="11.7965873"><ele>252.0</ele><time>2026-03-22T14:40:42.77Z</time></trkpt><trkpt lat="43.4477898" lon="11.7967069"><ele>252.0</ele><time>2026-03-22T14:40:43.769Z</time></trkpt><trkpt lat="43.447816" lon="11.7968167"><ele>252.0</ele><time>2026-03-22T14:40:44.77Z</time></trkpt><trkpt lat="43.4478384" lon="11.7969219"><ele>252.0</ele><time>2026-03-22T14:40:45.77Z</time></trkpt><trkpt lat="43.4478739" lon="11.7970053"><ele>251.25</ele><time>2026-03-22T14:40:46.77Z</time></trkpt><trkpt lat="43.4479351" lon="11.7970621"><ele>250.5</ele><time>2026-03-22T14:40:47.769Z</time></trkpt><trkpt lat="43.4480317" lon="11.7971161"><ele>249.75</ele><time>2026-03-22T14:40:48.769Z</time></trkpt><trkpt lat="43.4481503" lon="11.7971901"><ele>249.0</ele><time>2026-03-22T14:40:49.77Z</time></trkpt><trkpt lat="43.4482894" lon="11.7972966"><ele>249.0</ele><time>2026-03-22T14:40:50.769Z</time></trkpt><trkpt lat="43.4484269" lon="11.7974072"><ele>249.0</ele><time>2026-03-22T14:40:51.769Z</time></trkpt><trkpt lat="43.4485729" lon="11.7975338"><ele>249.0</ele><time>2026-03-22T14:40:52.77Z</time></trkpt><trkpt lat="43.4487052" lon="11.7976824"><ele>248.66666666666669</ele><time>2026-03-22T14:40:53.769Z</time></trkpt><trkpt lat="43.4488021" lon="11.7978506"><ele>248.33333333333334</ele><time>2026-03-22T14:40:54.77Z</time></trkpt><trkpt lat="43.4488821" lon="11.7980507"><ele>248.0</ele><time>2026-03-22T14:40:55.77Z</time></trkpt><trkpt lat="43.4489662" lon="11.7982768"><ele>248.0</ele><time>2026-03-22T14:40:56.77Z</time></trkpt><trkpt lat="43.4490493" lon="11.7984987"><ele>248.0</ele><time>2026-03-22T14:40:57.769Z</time></trkpt><trkpt lat="43.4491282" lon="11.7987018"><ele>248.0</ele><time>2026-03-22T14:40:58.769Z</time></trkpt><trkpt lat="43.4492208" lon="11.7988943"><ele>248.0</ele><time>2026-03-22T14:40:59.77Z</time></trkpt><trkpt lat="43.4493209" lon="11.7990637"><ele>248.0</ele><time>2026-03-22T14:41:00.77Z</time></trkpt><trkpt lat="43.4494008" lon="11.7991848"><ele>248.0</ele><time>2026-03-22T14:41:01.769Z</time></trkpt><trkpt lat="43.449475" lon="11.7992806"><ele>248.0</ele><time>2026-03-22T14:41:02.77Z</time></trkpt><trkpt lat="43.4495312" lon="11.7993438"><ele>248.2</ele><time>2026-03-22T14:41:03.769Z</time></trkpt><trkpt lat="43.4496362" lon="11.7993974"><ele>248.4</ele><time>2026-03-22T14:41:05.77Z</time></trkpt><trkpt lat="43.4497083" lon="11.7992727"><ele>248.59999999999997</ele><time>2026-03-22T14:41:07.77Z</time></trkpt><trkpt lat="43.4497425" lon="11.7991782"><ele>248.79999999999998</ele><time>2026-03-22T14:41:08.77Z</time></trkpt><trkpt lat="43.4497811" lon="11.7990957"><ele>249.0</ele><time>2026-03-22T14:41:09.77Z</time></trkpt><trkpt lat="43.4498284" lon="11.7990133"><ele>249.0</ele><time>2026-03-22T14:41:10.77Z</time></trkpt><trkpt lat="43.4498744" lon="11.7989421"><ele>248.99999999999997</ele><time>2026-03-22T14:41:11.77Z</time></trkpt><trkpt lat="43.4499614" lon="11.798827"><ele>248.99999999999997</ele><time>2026-03-22T14:41:13.769Z</time></trkpt><trkpt lat="43.4500688" lon="11.798726"><ele>249.0</ele><time>2026-03-22T14:41:15.77Z</time></trkpt><trkpt lat="43.4501263" lon="11.7986822"><ele>249.0</ele><time>2026-03-22T14:41:16.769Z</time></trkpt><trkpt lat="43.4501891" lon="11.7986381"><ele>249.0</ele><time>2026-03-22T14:41:17.77Z</time></trkpt><trkpt lat="43.4502505" lon="11.7986081"><ele>248.99999999999997</ele><time>2026-03-22T14:41:18.77Z</time></trkpt><trkpt lat="43.450331" lon="11.798577"><ele>248.99999999999997</ele><time>2026-03-22T14:41:19.769Z</time></trkpt><trkpt lat="43.450437" lon="11.7985429"><ele>249.0</ele><time>2026-03-22T14:41:20.77Z</time></trkpt><trkpt lat="43.4505696" lon="11.7984954"><ele>249.0</ele><time>2026-03-22T14:41:21.769Z</time></trkpt><trkpt lat="43.4507394" lon="11.7984349"><ele>249.66666666666669</ele><time>2026-03-22T14:41:22.769Z</time></trkpt><trkpt lat="43.4509105" lon="11.7983697"><ele>250.33333333333334</ele><time>2026-03-22T14:41:23.769Z</time></trkpt><trkpt lat="43.4510707" lon="11.7983174"><ele>251.0</ele><time>2026-03-22T14:41:24.769Z</time></trkpt><trkpt lat="43.45122" lon="11.798271"><ele>251.0</ele><time>2026-03-22T14:41:25.77Z</time></trkpt><trkpt lat="43.4513667" lon="11.7982198"><ele>251.0</ele><time>2026-03-22T14:41:26.769Z</time></trkpt><trkpt lat="43.451505" lon="11.7981691"><ele>251.0</ele><time>2026-03-22T14:41:27.77Z</time></trkpt><trkpt lat="43.4516294" lon="11.7981191"><ele>251.0</ele><time>2026-03-22T14:41:28.769Z</time></trkpt><trkpt lat="43.4517454" lon="11.7980745"><ele>251.0</ele><time>2026-03-22T14:41:29.77Z</time></trkpt><trkpt lat="43.451851" lon="11.7980303"><ele>251.0</ele><time>2026-03-22T14:41:30.77Z</time></trkpt><trkpt lat="43.4519635" lon="11.7979779"><ele>251.0</ele><time>2026-03-22T14:41:31.769Z</time></trkpt><trkpt lat="43.4520822" lon="11.7979147"><ele>251.0</ele><time>2026-03-22T14:41:32.77Z</time></trkpt><trkpt lat="43.4522003" lon="11.7978558"><ele>251.0</ele><time>2026-03-22T14:41:33.769Z</time></trkpt><trkpt lat="43.4523172" lon="11.7978049"><ele>251.0</ele><time>2026-03-22T14:41:34.769Z</time></trkpt><trkpt lat="43.4524358" lon="11.7977502"><ele>251.0</ele><time>2026-03-22T14:41:35.769Z</time></trkpt><trkpt lat="43.452562" lon="11.7976886"><ele>251.0</ele><time>2026-03-22T14:41:36.769Z</time></trkpt><trkpt lat="43.4526771" lon="11.797623"><ele>251.20000000000002</ele><time>2026-03-22T14:41:37.769Z</time></trkpt><trkpt lat="43.4527836" lon="11.7975584"><ele>251.40000000000003</ele><time>2026-03-22T14:41:38.77Z</time></trkpt><trkpt lat="43.452883" lon="11.7975131"><ele>251.6</ele><time>2026-03-22T14:41:39.769Z</time></trkpt><trkpt lat="43.4529869" lon="11.7974684"><ele>251.8</ele><time>2026-03-22T14:41:40.77Z</time></trkpt><trkpt lat="43.4530963" lon="11.7974107"><ele>252.0</ele><time>2026-03-22T14:41:41.769Z</time></trkpt><trkpt lat="43.4531994" lon="11.7973597"><ele>252.2</ele><time>2026-03-22T14:41:42.77Z</time></trkpt><trkpt lat="43.453299" lon="11.797302"><ele>252.39999999999998</ele><time>2026-03-22T14:41:43.77Z</time></trkpt><trkpt lat="43.4533989" lon="11.7972495"><ele>252.60000000000002</ele><time>2026-03-22T14:41:44.77Z</time></trkpt><trkpt lat="43.453491" lon="11.797201"><ele>252.8</ele><time>2026-03-22T14:41:45.769Z</time></trkpt><trkpt lat="43.4535776" lon="11.7971445"><ele>253.0</ele><time>2026-03-22T14:41:46.77Z</time></trkpt><trkpt lat="43.4536625" lon="11.7970686"><ele>253.0</ele><time>2026-03-22T14:41:47.769Z</time></trkpt><trkpt lat="43.4537483" lon="11.7969881"><ele>253.0</ele><time>2026-03-22T14:41:48.77Z</time></trkpt><trkpt lat="43.4538424" lon="11.7968914"><ele>253.0</ele><time>2026-03-22T14:41:49.769Z</time></trkpt><trkpt lat="43.4539455" lon="11.7968001"><ele>253.0</ele><time>2026-03-22T14:41:50.769Z</time></trkpt><trkpt lat="43.4540635" lon="11.7967141"><ele>252.33333333333331</ele><time>2026-03-22T14:41:51.77Z</time></trkpt><trkpt lat="43.4542087" lon="11.7966314"><ele>251.66666666666669</ele><time>2026-03-22T14:41:52.77Z</time></trkpt><trkpt lat="43.4543855" lon="11.7965456"><ele>251.0</ele><time>2026-03-22T14:41:53.77Z</time></trkpt><trkpt lat="43.454568" lon="11.7964803"><ele>251.66666666666669</ele><time>2026-03-22T14:41:54.769Z</time></trkpt><trkpt lat="43.4547352" lon="11.796434"><ele>252.33333333333331</ele><time>2026-03-22T14:41:55.77Z</time></trkpt><trkpt lat="43.4548899" lon="11.7963817"><ele>253.0</ele><time>2026-03-22T14:41:56.77Z</time></trkpt><trkpt lat="43.4550242" lon="11.7963038"><ele>253.0</ele><time>2026-03-22T14:41:57.769Z</time></trkpt><trkpt lat="43.4551506" lon="11.7961904"><ele>253.0</ele><time>2026-03-22T14:41:58.768Z</time></trkpt><trkpt lat="43.4552778" lon="11.796061"><ele>253.0</ele><time>2026-03-22T14:41:59.769Z</time></trkpt><trkpt lat="43.4553986" lon="11.7959454"><ele>254.25</ele><time>2026-03-22T14:42:00.77Z</time></trkpt><trkpt lat="43.4555127" lon="11.7958466"><ele>255.5</ele><time>2026-03-22T14:42:01.77Z</time></trkpt><trkpt lat="43.4556142" lon="11.7957562"><ele>256.75</ele><time>2026-03-22T14:42:02.769Z</time></trkpt><trkpt lat="43.4557005" lon="11.7956699"><ele>258.0</ele><time>2026-03-22T14:42:03.769Z</time></trkpt><trkpt lat="43.455777" lon="11.7956025"><ele>258.0</ele><time>2026-03-22T14:42:04.77Z</time></trkpt><trkpt lat="43.4558457" lon="11.7955586"><ele>258.0</ele><time>2026-03-22T14:42:05.769Z</time></trkpt><trkpt lat="43.455906" lon="11.7955311"><ele>258.0</ele><time>2026-03-22T14:42:06.769Z</time></trkpt><trkpt lat="43.4559945" lon="11.7955072"><ele>258.0</ele><time>2026-03-22T14:42:08.769Z</time></trkpt><trkpt lat="43.4562081" lon="11.7954299"><ele>258.0</ele><time>2026-03-22T14:42:18.77Z</time></trkpt><trkpt lat="43.4562767" lon="11.7953966"><ele>258.0</ele><time>2026-03-22T14:42:19.77Z</time></trkpt><trkpt lat="43.4563459" lon="11.7953608"><ele>258.0</ele><time>2026-03-22T14:42:20.769Z</time></trkpt><trkpt lat="43.4564719" lon="11.7953034"><ele>258.0</ele><time>2026-03-22T14:42:22.769Z</time></trkpt><trkpt lat="43.4565563" lon="11.795258"><ele>258.0</ele><time>2026-03-22T14:42:23.77Z</time></trkpt><trkpt lat="43.4566517" lon="11.7952083"><ele>259.4</ele><time>2026-03-22T14:42:24.769Z</time></trkpt><trkpt lat="43.4567289" lon="11.795156"><ele>260.8</ele><time>2026-03-22T14:42:25.769Z</time></trkpt><trkpt lat="43.4567978" lon="11.7951038"><ele>262.2</ele><time>2026-03-22T14:42:26.77Z</time></trkpt><trkpt lat="43.4569237" lon="11.7950844"><ele>263.6</ele><time>2026-03-22T14:42:28.769Z</time></trkpt><trkpt lat="43.4570045" lon="11.7951028"><ele>265.0</ele><time>2026-03-22T14:42:29.77Z</time></trkpt><trkpt lat="43.4570803" lon="11.7951204"><ele>266.4</ele><time>2026-03-22T14:42:30.769Z</time></trkpt><trkpt lat="43.4571706" lon="11.7951454"><ele>267.8</ele><time>2026-03-22T14:42:31.769Z</time></trkpt><trkpt lat="43.4572559" lon="11.7951488"><ele>269.2</ele><time>2026-03-22T14:42:32.769Z</time></trkpt><trkpt lat="43.4573438" lon="11.7951554"><ele>270.6</ele><time>2026-03-22T14:42:33.769Z</time></trkpt><trkpt lat="43.4574361" lon="11.7951863"><ele>272.0</ele><time>2026-03-22T14:42:34.769Z</time></trkpt><trkpt lat="43.4575224" lon="11.7952295"><ele>272.2</ele><time>2026-03-22T14:42:35.768Z</time></trkpt><trkpt lat="43.4576101" lon="11.79527"><ele>272.4</ele><time>2026-03-22T14:42:36.769Z</time></trkpt><trkpt lat="43.4576942" lon="11.7953481"><ele>272.6</ele><time>2026-03-22T14:42:37.77Z</time></trkpt><trkpt lat="43.4577671" lon="11.7954014"><ele>272.8</ele><time>2026-03-22T14:42:38.77Z</time></trkpt><trkpt lat="43.4578427" lon="11.7954524"><ele>273.0</ele><time>2026-03-22T14:42:39.769Z</time></trkpt><trkpt lat="43.4579271" lon="11.7954928"><ele>274.4</ele><time>2026-03-22T14:42:40.77Z</time></trkpt><trkpt lat="43.4580159" lon="11.7955363"><ele>275.8</ele><time>2026-03-22T14:42:41.77Z</time></trkpt><trkpt lat="43.4581149" lon="11.7955819"><ele>277.2</ele><time>2026-03-22T14:42:42.769Z</time></trkpt><trkpt lat="43.4582237" lon="11.7955365"><ele>278.6</ele><time>2026-03-22T14:42:43.77Z</time></trkpt><trkpt lat="43.4583143" lon="11.7955641"><ele>280.0</ele><time>2026-03-22T14:42:44.769Z</time></trkpt><trkpt lat="43.4584045" lon="11.7955838"><ele>280.0</ele><time>2026-03-22T14:42:45.769Z</time></trkpt><trkpt lat="43.4584846" lon="11.7955887"><ele>280.0</ele><time>2026-03-22T14:42:46.769Z</time></trkpt><trkpt lat="43.4585647" lon="11.7955891"><ele>280.0</ele><time>2026-03-22T14:42:47.77Z</time></trkpt><trkpt lat="43.4586613" lon="11.7955967"><ele>280.0</ele><time>2026-03-22T14:42:48.77Z</time></trkpt><trkpt lat="43.4587562" lon="11.795593"><ele>280.0</ele><time>2026-03-22T14:42:49.77Z</time></trkpt><trkpt lat="43.4588518" lon="11.7955721"><ele>280.0</ele><time>2026-03-22T14:42:50.769Z</time></trkpt><trkpt lat="43.4589466" lon="11.7955353"><ele>281.25</ele><time>2026-03-22T14:42:51.77Z</time></trkpt><trkpt lat="43.4590468" lon="11.7954777"><ele>282.5</ele><time>2026-03-22T14:42:52.769Z</time></trkpt><trkpt lat="43.459159" lon="11.7954156"><ele>283.75</ele><time>2026-03-22T14:42:53.769Z</time></trkpt><trkpt lat="43.4592635" lon="11.7953534"><ele>285.0</ele><time>2026-03-22T14:42:54.77Z</time></trkpt><trkpt lat="43.4593644" lon="11.7952759"><ele>285.0</ele><time>2026-03-22T14:42:55.769Z</time></trkpt><trkpt lat="43.4594628" lon="11.795204"><ele>285.0</ele><time>2026-03-22T14:42:56.77Z</time></trkpt><trkpt lat="43.4595511" lon="11.7951476"><ele>285.0</ele><time>2026-03-22T14:42:57.77Z</time></trkpt><trkpt lat="43.4596342" lon="11.7950946"><ele>285.0</ele><time>2026-03-22T14:42:58.769Z</time></trkpt><trkpt lat="43.4597068" lon="11.7950451"><ele>285.0</ele><time>2026-03-22T14:42:59.769Z</time></trkpt><trkpt lat="43.4597742" lon="11.7950137"><ele>286.5</ele><time>2026-03-22T14:43:00.769Z</time></trkpt><trkpt lat="43.4598596" lon="11.7951057"><ele>288.0</ele><time>2026-03-22T14:43:02.769Z</time></trkpt><trkpt lat="43.4598781" lon="11.7951955"><ele>289.5</ele><time>2026-03-22T14:43:03.769Z</time></trkpt><trkpt lat="43.459891" lon="11.7953068"><ele>291.0</ele><time>2026-03-22T14:43:04.77Z</time></trkpt><trkpt lat="43.4599099" lon="11.7954199"><ele>292.5</ele><time>2026-03-22T14:43:05.77Z</time></trkpt><trkpt lat="43.4599314" lon="11.7955159"><ele>294.0</ele><time>2026-03-22T14:43:06.77Z</time></trkpt><trkpt lat="43.4599326" lon="11.7956515"><ele>294.0</ele><time>2026-03-22T14:43:08.769Z</time></trkpt><trkpt lat="43.4599332" lon="11.7957434"><ele>294.0</ele><time>2026-03-22T14:43:10.77Z</time></trkpt><trkpt lat="43.4599368" lon="11.7958608"><ele>294.0</ele><time>2026-03-22T14:43:13.769Z</time></trkpt><trkpt lat="43.4600323" lon="11.7958614"><ele>294.0</ele><time>2026-03-22T14:43:16.769Z</time></trkpt><trkpt lat="43.4601233" lon="11.7958089"><ele>294.0</ele><time>2026-03-22T14:43:18.769Z</time></trkpt><trkpt lat="43.4602112" lon="11.7957609"><ele>294.0</ele><time>2026-03-22T14:43:20.768Z</time></trkpt><trkpt lat="43.4602837" lon="11.7957666"><ele>294.0</ele><time>2026-03-22T14:43:22.769Z</time></trkpt><trkpt lat="43.4603695" lon="11.7958211"><ele>294.0</ele><time>2026-03-22T14:43:24.77Z</time></trkpt><trkpt lat="43.46045" lon="11.7958779"><ele>294.0</ele><time>2026-03-22T14:43:26.769Z</time></trkpt><trkpt lat="43.4605134" lon="11.7958668"><ele>294.0</ele><time>2026-03-22T14:43:28.77Z</time></trkpt><trkpt lat="43.4605727" lon="11.7957539"><ele>294.0</ele><time>2026-03-22T14:43:30.769Z</time></trkpt><trkpt lat="43.460658" lon="11.7957192"><ele>294.0</ele><time>2026-03-22T14:43:32.77Z</time></trkpt><trkpt lat="43.4607253" lon="11.7956312"><ele>296.2</ele><time>2026-03-22T14:43:34.769Z</time></trkpt><trkpt lat="43.460751" lon="11.7954933"><ele>298.4</ele><time>2026-03-22T14:43:36.77Z</time></trkpt><trkpt lat="43.4607621" lon="11.7953825"><ele>300.6</ele><time>2026-03-22T14:43:37.77Z</time></trkpt><trkpt lat="43.4607741" lon="11.7952902"><ele>302.8</ele><time>2026-03-22T14:43:38.77Z</time></trkpt><trkpt lat="43.460816" lon="11.7951297"><ele>305.0</ele><time>2026-03-22T14:43:40.77Z</time></trkpt><trkpt lat="43.4608459" lon="11.7950007"><ele>305.2</ele><time>2026-03-22T14:43:42.769Z</time></trkpt><trkpt lat="43.4608677" lon="11.7949162"><ele>305.4</ele><time>2026-03-22T14:43:43.769Z</time></trkpt><trkpt lat="43.4609251" lon="11.7948044"><ele>305.6</ele><time>2026-03-22T14:43:45.768Z</time></trkpt><trkpt lat="43.4610148" lon="11.7946849"><ele>305.8</ele><time>2026-03-22T14:43:47.77Z</time></trkpt><trkpt lat="43.4611026" lon="11.7945716"><ele>306.0</ele><time>2026-03-22T14:43:49.768Z</time></trkpt><trkpt lat="43.4611451" lon="11.7944842"><ele>306.0</ele><time>2026-03-22T14:43:50.77Z</time></trkpt><trkpt lat="43.4611778" lon="11.7944005"><ele>306.0</ele><time>2026-03-22T14:43:51.769Z</time></trkpt><trkpt lat="43.4612166" lon="11.7943068"><ele>306.0</ele><time>2026-03-22T14:43:52.769Z</time></trkpt><trkpt lat="43.4612574" lon="11.7942339"><ele>306.0</ele><time>2026-03-22T14:43:53.77Z</time></trkpt><trkpt lat="43.4612989" lon="11.794166"><ele>306.0</ele><time>2026-03-22T14:43:54.77Z</time></trkpt><trkpt lat="43.4613481" lon="11.7940929"><ele>306.0</ele><time>2026-03-22T14:43:55.77Z</time></trkpt><trkpt lat="43.4614281" lon="11.7939898"><ele>306.0</ele><time>2026-03-22T14:43:57.769Z</time></trkpt><trkpt lat="43.4614785" lon="11.7938858"><ele>306.0</ele><time>2026-03-22T14:43:59.77Z</time></trkpt><trkpt lat="43.4615048" lon="11.7937521"><ele>306.0</ele><time>2026-03-22T14:44:01.769Z</time></trkpt><trkpt lat="43.4615981" lon="11.79364"><ele>306.0</ele><time>2026-03-22T14:44:03.77Z</time></trkpt><trkpt lat="43.4616678" lon="11.7935601"><ele>306.0</ele><time>2026-03-22T14:44:04.768Z</time></trkpt><trkpt lat="43.4617392" lon="11.7934684"><ele>307.0</ele><time>2026-03-22T14:44:05.769Z</time></trkpt><trkpt lat="43.461812" lon="11.793378"><ele>308.0</ele><time>2026-03-22T14:44:06.769Z</time></trkpt><trkpt lat="43.4618817" lon="11.7932879"><ele>309.0</ele><time>2026-03-22T14:44:07.769Z</time></trkpt><trkpt lat="43.4619416" lon="11.7932103"><ele>310.0</ele><time>2026-03-22T14:44:08.77Z</time></trkpt><trkpt lat="43.462005" lon="11.7931255"><ele>311.0</ele><time>2026-03-22T14:44:09.77Z</time></trkpt><trkpt lat="43.4620682" lon="11.7930365"><ele>311.1666666666667</ele><time>2026-03-22T14:44:10.77Z</time></trkpt><trkpt lat="43.4621257" lon="11.7929512"><ele>311.33333333333337</ele><time>2026-03-22T14:44:11.769Z</time></trkpt><trkpt lat="43.4621832" lon="11.792874"><ele>311.5</ele><time>2026-03-22T14:44:12.77Z</time></trkpt><trkpt lat="43.4622406" lon="11.7927982"><ele>311.6666666666667</ele><time>2026-03-22T14:44:13.77Z</time></trkpt><trkpt lat="43.4622985" lon="11.7927178"><ele>311.8333333333333</ele><time>2026-03-22T14:44:14.77Z</time></trkpt><trkpt lat="43.4623566" lon="11.7926458"><ele>312.0</ele><time>2026-03-22T14:44:15.769Z</time></trkpt><trkpt lat="43.4624262" lon="11.7925672"><ele>313.0</ele><time>2026-03-22T14:44:16.769Z</time></trkpt><trkpt lat="43.4624915" lon="11.7924853"><ele>314.0</ele><time>2026-03-22T14:44:17.769Z</time></trkpt><trkpt lat="43.4625542" lon="11.7923975"><ele>315.0</ele><time>2026-03-22T14:44:18.769Z</time></trkpt><trkpt lat="43.4626132" lon="11.792302"><ele>316.0</ele><time>2026-03-22T14:44:19.768Z</time></trkpt><trkpt lat="43.4626799" lon="11.792218"><ele>317.0</ele><time>2026-03-22T14:44:20.77Z</time></trkpt><trkpt lat="43.4627462" lon="11.7921421"><ele>318.0</ele><time>2026-03-22T14:44:21.769Z</time></trkpt><trkpt lat="43.462812" lon="11.7920654"><ele>318.0</ele><time>2026-03-22T14:44:22.769Z</time></trkpt><trkpt lat="43.4628749" lon="11.7919992"><ele>318.0</ele><time>2026-03-22T14:44:23.769Z</time></trkpt><trkpt lat="43.4629289" lon="11.7919489"><ele>318.0</ele><time>2026-03-22T14:44:24.77Z</time></trkpt><trkpt lat="43.4630186" lon="11.7918503"><ele>318.0</ele><time>2026-03-22T14:44:26.769Z</time></trkpt><trkpt lat="43.4630682" lon="11.7917713"><ele>318.0</ele><time>2026-03-22T14:44:27.769Z</time></trkpt><trkpt lat="43.4631106" lon="11.7916968"><ele>318.0</ele><time>2026-03-22T14:44:28.769Z</time></trkpt><trkpt lat="43.4631549" lon="11.7916298"><ele>319.6666666666667</ele><time>2026-03-22T14:44:29.77Z</time></trkpt><trkpt lat="43.4632125" lon="11.7915515"><ele>321.3333333333333</ele><time>2026-03-22T14:44:30.77Z</time></trkpt><trkpt lat="43.4632717" lon="11.7914722"><ele>323.0</ele><time>2026-03-22T14:44:31.769Z</time></trkpt><trkpt lat="43.4633291" lon="11.7913991"><ele>324.66666666666663</ele><time>2026-03-22T14:44:32.77Z</time></trkpt><trkpt lat="43.4633798" lon="11.7913222"><ele>326.3333333333333</ele><time>2026-03-22T14:44:33.77Z</time></trkpt><trkpt lat="43.463435" lon="11.7911789"><ele>328.0</ele><time>2026-03-22T14:44:35.77Z</time></trkpt><trkpt lat="43.4635186" lon="11.7910371"><ele>329.3333333333333</ele><time>2026-03-22T14:44:37.77Z</time></trkpt><trkpt lat="43.4635768" lon="11.7909704"><ele>330.66666666666663</ele><time>2026-03-22T14:44:38.769Z</time></trkpt><trkpt lat="43.4636318" lon="11.7908898"><ele>332.0</ele><time>2026-03-22T14:44:39.769Z</time></trkpt><trkpt lat="43.4636814" lon="11.7908177"><ele>333.3333333333333</ele><time>2026-03-22T14:44:40.77Z</time></trkpt><trkpt lat="43.4637292" lon="11.7907418"><ele>334.6666666666667</ele><time>2026-03-22T14:44:41.77Z</time></trkpt><trkpt lat="43.4637787" lon="11.7906595"><ele>336.0</ele><time>2026-03-22T14:44:42.77Z</time></trkpt><trkpt lat="43.4638408" lon="11.7905949"><ele>337.0</ele><time>2026-03-22T14:44:43.77Z</time></trkpt><trkpt lat="43.4639027" lon="11.7905223"><ele>338.0</ele><time>2026-03-22T14:44:44.769Z</time></trkpt><trkpt lat="43.4639614" lon="11.7904538"><ele>339.0</ele><time>2026-03-22T14:44:45.77Z</time></trkpt><trkpt lat="43.4640147" lon="11.7903819"><ele>340.0</ele><time>2026-03-22T14:44:46.769Z</time></trkpt><trkpt lat="43.4640811" lon="11.7902882"><ele>341.0</ele><time>2026-03-22T14:44:47.769Z</time></trkpt><trkpt lat="43.4641381" lon="11.7902038"><ele>342.0</ele><time>2026-03-22T14:44:48.77Z</time></trkpt><trkpt lat="43.4642005" lon="11.7901176"><ele>343.0</ele><time>2026-03-22T14:44:49.769Z</time></trkpt><trkpt lat="43.4642477" lon="11.7900406"><ele>344.0</ele><time>2026-03-22T14:44:50.77Z</time></trkpt><trkpt lat="43.4642852" lon="11.7899509"><ele>345.0</ele><time>2026-03-22T14:44:51.77Z</time></trkpt><trkpt lat="43.4643301" lon="11.7898643"><ele>346.0</ele><time>2026-03-22T14:44:52.769Z</time></trkpt><trkpt lat="43.4643749" lon="11.7897615"><ele>347.0</ele><time>2026-03-22T14:44:53.769Z</time></trkpt><trkpt lat="43.4644232" lon="11.7896722"><ele>348.0</ele><time>2026-03-22T14:44:54.769Z</time></trkpt><trkpt lat="43.4644739" lon="11.7895893"><ele>348.0</ele><time>2026-03-22T14:44:55.77Z</time></trkpt><trkpt lat="43.4645129" lon="11.7895202"><ele>348.0</ele><time>2026-03-22T14:44:56.77Z</time></trkpt><trkpt lat="43.4646006" lon="11.7893953"><ele>348.0</ele><time>2026-03-22T14:44:58.769Z</time></trkpt><trkpt lat="43.4646429" lon="11.7893172"><ele>348.0</ele><time>2026-03-22T14:44:59.769Z</time></trkpt><trkpt lat="43.46469" lon="11.7892371"><ele>348.0</ele><time>2026-03-22T14:45:00.768Z</time></trkpt><trkpt lat="43.4647429" lon="11.789159"><ele>348.0</ele><time>2026-03-22T14:45:01.77Z</time></trkpt><trkpt lat="43.4648064" lon="11.7890849"><ele>350.4</ele><time>2026-03-22T14:45:02.77Z</time></trkpt><trkpt lat="43.4648844" lon="11.7890281"><ele>352.79999999999995</ele><time>2026-03-22T14:45:03.769Z</time></trkpt><trkpt lat="43.4649624" lon="11.7889681"><ele>355.2</ele><time>2026-03-22T14:45:04.77Z</time></trkpt><trkpt lat="43.4650249" lon="11.7888949"><ele>357.6</ele><time>2026-03-22T14:45:05.77Z</time></trkpt><trkpt lat="43.4651031" lon="11.7888042"><ele>360.0</ele><time>2026-03-22T14:45:06.769Z</time></trkpt><trkpt lat="43.4651826" lon="11.7887104"><ele>360.0</ele><time>2026-03-22T14:45:07.769Z</time></trkpt><trkpt lat="43.4652619" lon="11.7886112"><ele>360.0</ele><time>2026-03-22T14:45:08.77Z</time></trkpt><trkpt lat="43.4653305" lon="11.7885269"><ele>360.0</ele><time>2026-03-22T14:45:09.77Z</time></trkpt><trkpt lat="43.4653873" lon="11.788464"><ele>360.0</ele><time>2026-03-22T14:45:10.77Z</time></trkpt><trkpt lat="43.4654543" lon="11.7884054"><ele>360.0</ele><time>2026-03-22T14:45:11.77Z</time></trkpt><trkpt lat="43.4655302" lon="11.7883565"><ele>360.0</ele><time>2026-03-22T14:45:12.77Z</time></trkpt><trkpt lat="43.4656071" lon="11.7883238"><ele>361.1428571428571</ele><time>2026-03-22T14:45:13.77Z</time></trkpt><trkpt lat="43.4656746" lon="11.7883082"><ele>362.28571428571433</ele><time>2026-03-22T14:45:14.77Z</time></trkpt><trkpt lat="43.4657495" lon="11.7882978"><ele>363.42857142857144</ele><time>2026-03-22T14:45:16.769Z</time></trkpt><trkpt lat="43.4658273" lon="11.7882766"><ele>364.57142857142856</ele><time>2026-03-22T14:45:47.769Z</time></trkpt><trkpt lat="43.4659038" lon="11.788264"><ele>365.71428571428567</ele><time>2026-03-22T14:45:48.77Z</time></trkpt><trkpt lat="43.4659778" lon="11.7882427"><ele>366.8571428571429</ele><time>2026-03-22T14:45:49.77Z</time></trkpt><trkpt lat="43.466046" lon="11.7882146"><ele>368.0</ele><time>2026-03-22T14:45:50.769Z</time></trkpt><trkpt lat="43.4661189" lon="11.7881855"><ele>368.0</ele><time>2026-03-22T14:45:51.769Z</time></trkpt><trkpt lat="43.4661995" lon="11.788148"><ele>368.0</ele><time>2026-03-22T14:45:52.77Z</time></trkpt><trkpt lat="43.4662874" lon="11.7880939"><ele>368.0</ele><time>2026-03-22T14:45:53.769Z</time></trkpt><trkpt lat="43.4663763" lon="11.7880333"><ele>368.0</ele><time>2026-03-22T14:45:54.769Z</time></trkpt><trkpt lat="43.4664466" lon="11.7879725"><ele>368.0</ele><time>2026-03-22T14:45:55.769Z</time></trkpt><trkpt lat="43.4665169" lon="11.7879005"><ele>368.2857142857143</ele><time>2026-03-22T14:45:56.77Z</time></trkpt><trkpt lat="43.4665802" lon="11.7878183"><ele>368.57142857142856</ele><time>2026-03-22T14:45:57.769Z</time></trkpt><trkpt lat="43.4666361" lon="11.787732"><ele>368.85714285714283</ele><time>2026-03-22T14:45:58.769Z</time></trkpt><trkpt lat="43.4666735" lon="11.7876526"><ele>369.1428571428571</ele><time>2026-03-22T14:45:59.77Z</time></trkpt><trkpt lat="43.4667031" lon="11.7875745"><ele>369.42857142857144</ele><time>2026-03-22T14:46:00.769Z</time></trkpt><trkpt lat="43.466731" lon="11.7874854"><ele>369.71428571428567</ele><time>2026-03-22T14:46:01.77Z</time></trkpt><trkpt lat="43.4667655" lon="11.7873994"><ele>370.0</ele><time>2026-03-22T14:46:02.769Z</time></trkpt><trkpt lat="43.4668078" lon="11.7873136"><ele>370.16666666666663</ele><time>2026-03-22T14:46:03.769Z</time></trkpt><trkpt lat="43.4668425" lon="11.7872202"><ele>370.3333333333333</ele><time>2026-03-22T14:46:04.769Z</time></trkpt><trkpt lat="43.4668867" lon="11.7871332"><ele>370.5</ele><time>2026-03-22T14:46:05.77Z</time></trkpt><trkpt lat="43.4669427" lon="11.7870521"><ele>370.6666666666667</ele><time>2026-03-22T14:46:06.77Z</time></trkpt><trkpt lat="43.4669992" lon="11.7869707"><ele>370.83333333333337</ele><time>2026-03-22T14:46:07.769Z</time></trkpt><trkpt lat="43.4670466" lon="11.7868839"><ele>371.0</ele><time>2026-03-22T14:46:08.77Z</time></trkpt><trkpt lat="43.4670962" lon="11.786787"><ele>371.0</ele><time>2026-03-22T14:46:09.77Z</time></trkpt><trkpt lat="43.4671421" lon="11.7866897"><ele>371.0</ele><time>2026-03-22T14:46:10.77Z</time></trkpt><trkpt lat="43.4671746" lon="11.7865966"><ele>371.0</ele><time>2026-03-22T14:46:11.77Z</time></trkpt><trkpt lat="43.4672048" lon="11.7865172"><ele>371.0</ele><time>2026-03-22T14:46:12.77Z</time></trkpt><trkpt lat="43.4672691" lon="11.7863935"><ele>371.0</ele><time>2026-03-22T14:46:14.769Z</time></trkpt><trkpt lat="43.4673528" lon="11.7862764"><ele>371.0</ele><time>2026-03-22T14:46:16.77Z</time></trkpt><trkpt lat="43.467436" lon="11.7861855"><ele>371.0</ele><time>2026-03-22T14:46:18.77Z</time></trkpt><trkpt lat="43.4674941" lon="11.7861392"><ele>371.0</ele><time>2026-03-22T14:46:19.77Z</time></trkpt><trkpt lat="43.4675564" lon="11.7861053"><ele>371.0</ele><time>2026-03-22T14:46:20.77Z</time></trkpt><trkpt lat="43.4676478" lon="11.7860848"><ele>371.0</ele><time>2026-03-22T14:46:21.77Z</time></trkpt><trkpt lat="43.4677341" lon="11.7860823"><ele>371.0</ele><time>2026-03-22T14:46:22.769Z</time></trkpt><trkpt lat="43.4678201" lon="11.786082"><ele>371.0</ele><time>2026-03-22T14:46:23.77Z</time></trkpt><trkpt lat="43.4679009" lon="11.7860853"><ele>371.0</ele><time>2026-03-22T14:46:24.77Z</time></trkpt><trkpt lat="43.467966" lon="11.7860663"><ele>371.0</ele><time>2026-03-22T14:46:25.769Z</time></trkpt><trkpt lat="43.4680304" lon="11.7860262"><ele>371.0</ele><time>2026-03-22T14:46:26.769Z</time></trkpt><trkpt lat="43.4680862" lon="11.7859674"><ele>371.0</ele><time>2026-03-22T14:46:27.769Z</time></trkpt><trkpt lat="43.4681419" lon="11.7859151"><ele>371.0</ele><time>2026-03-22T14:46:28.77Z</time></trkpt><trkpt lat="43.468187" lon="11.7858526"><ele>371.0</ele><time>2026-03-22T14:46:29.769Z</time></trkpt><trkpt lat="43.4682394" lon="11.7857865"><ele>370.83333333333337</ele><time>2026-03-22T14:46:30.769Z</time></trkpt><trkpt lat="43.4682692" lon="11.7856946"><ele>370.6666666666667</ele><time>2026-03-22T14:46:31.769Z</time></trkpt><trkpt lat="43.4683008" lon="11.7855915"><ele>370.5</ele><time>2026-03-22T14:46:32.77Z</time></trkpt><trkpt lat="43.468326" lon="11.7854828"><ele>370.3333333333333</ele><time>2026-03-22T14:46:33.769Z</time></trkpt><trkpt lat="43.4683383" lon="11.7853651"><ele>370.16666666666663</ele><time>2026-03-22T14:46:34.769Z</time></trkpt><trkpt lat="43.4683543" lon="11.7852513"><ele>370.0</ele><time>2026-03-22T14:46:35.768Z</time></trkpt><trkpt lat="43.4683735" lon="11.7851377"><ele>369.5</ele><time>2026-03-22T14:46:36.77Z</time></trkpt><trkpt lat="43.4683872" lon="11.7850255"><ele>369.0</ele><time>2026-03-22T14:46:37.769Z</time></trkpt><trkpt lat="43.4683973" lon="11.7849095"><ele>368.5</ele><time>2026-03-22T14:46:38.769Z</time></trkpt><trkpt lat="43.4684069" lon="11.7847971"><ele>368.0</ele><time>2026-03-22T14:46:39.77Z</time></trkpt><trkpt lat="43.468421" lon="11.7846849"><ele>367.5</ele><time>2026-03-22T14:46:40.769Z</time></trkpt><trkpt lat="43.4684467" lon="11.7845641"><ele>367.0</ele><time>2026-03-22T14:46:41.77Z</time></trkpt><trkpt lat="43.4684888" lon="11.7844419"><ele>365.40000000000003</ele><time>2026-03-22T14:46:42.77Z</time></trkpt><trkpt lat="43.468546" lon="11.7843328"><ele>363.8</ele><time>2026-03-22T14:46:43.77Z</time></trkpt><trkpt lat="43.4686131" lon="11.7842258"><ele>362.2</ele><time>2026-03-22T14:46:44.769Z</time></trkpt><trkpt lat="43.4686861" lon="11.7841272"><ele>360.6</ele><time>2026-03-22T14:46:45.769Z</time></trkpt><trkpt lat="43.4687564" lon="11.7840527"><ele>359.0</ele><time>2026-03-22T14:46:46.769Z</time></trkpt><trkpt lat="43.4688246" lon="11.7840032"><ele>358.6</ele><time>2026-03-22T14:46:47.77Z</time></trkpt><trkpt lat="43.4688848" lon="11.7839601"><ele>358.2</ele><time>2026-03-22T14:46:48.769Z</time></trkpt><trkpt lat="43.4689407" lon="11.7839095"><ele>357.8</ele><time>2026-03-22T14:46:49.769Z</time></trkpt><trkpt lat="43.4690341" lon="11.7838266"><ele>357.40000000000003</ele><time>2026-03-22T14:46:51.769Z</time></trkpt><trkpt lat="43.4691363" lon="11.7837605"><ele>357.0</ele><time>2026-03-22T14:46:53.769Z</time></trkpt><trkpt lat="43.4692416" lon="11.7836975"><ele>357.0</ele><time>2026-03-22T14:46:55.77Z</time></trkpt><trkpt lat="43.4693288" lon="11.7836384"><ele>357.0</ele><time>2026-03-22T14:46:57.769Z</time></trkpt><trkpt lat="43.4694328" lon="11.7835705"><ele>357.0</ele><time>2026-03-22T14:46:59.769Z</time></trkpt><trkpt lat="43.4695309" lon="11.7835149"><ele>357.0</ele><time>2026-03-22T14:47:01.77Z</time></trkpt><trkpt lat="43.4696057" lon="11.7834691"><ele>357.0</ele><time>2026-03-22T14:47:03.768Z</time></trkpt><trkpt lat="43.4696929" lon="11.7834499"><ele>358.0</ele><time>2026-03-22T14:47:05.769Z</time></trkpt><trkpt lat="43.4697656" lon="11.7834168"><ele>359.0</ele><time>2026-03-22T14:47:07.77Z</time></trkpt><trkpt lat="43.4698496" lon="11.7833852"><ele>360.0</ele><time>2026-03-22T14:47:09.77Z</time></trkpt><trkpt lat="43.4699622" lon="11.7833922"><ele>361.0</ele><time>2026-03-22T14:47:11.77Z</time></trkpt><trkpt lat="43.4700673" lon="11.7834224"><ele>362.0</ele><time>2026-03-22T14:47:13.77Z</time></trkpt><trkpt lat="43.4701766" lon="11.7834453"><ele>362.0</ele><time>2026-03-22T14:47:15.77Z</time></trkpt><trkpt lat="43.47029" lon="11.7834644"><ele>362.0</ele><time>2026-03-22T14:47:17.77Z</time></trkpt><trkpt lat="43.4704081" lon="11.7834812"><ele>362.0</ele><time>2026-03-22T14:47:19.769Z</time></trkpt><trkpt lat="43.4704811" lon="11.7834956"><ele>362.0</ele><time>2026-03-22T14:47:20.769Z</time></trkpt><trkpt lat="43.4705618" lon="11.7835085"><ele>362.0</ele><time>2026-03-22T14:47:21.77Z</time></trkpt><trkpt lat="43.4706361" lon="11.7835158"><ele>361.6666666666667</ele><time>2026-03-22T14:47:22.77Z</time></trkpt><trkpt lat="43.4707169" lon="11.7835179"><ele>361.33333333333337</ele><time>2026-03-22T14:47:23.77Z</time></trkpt><trkpt lat="43.470807" lon="11.7835156"><ele>361.0</ele><time>2026-03-22T14:47:24.769Z</time></trkpt><trkpt lat="43.470894" lon="11.7835069"><ele>360.6666666666667</ele><time>2026-03-22T14:47:25.77Z</time></trkpt><trkpt lat="43.4709674" lon="11.7834696"><ele>360.3333333333333</ele><time>2026-03-22T14:47:26.769Z</time></trkpt><trkpt lat="43.4710304" lon="11.7834287"><ele>360.0</ele><time>2026-03-22T14:47:27.77Z</time></trkpt><trkpt lat="43.4710881" lon="11.7833894"><ele>359.2</ele><time>2026-03-22T14:47:28.769Z</time></trkpt><trkpt lat="43.4711458" lon="11.7833458"><ele>358.4</ele><time>2026-03-22T14:47:29.77Z</time></trkpt><trkpt lat="43.4712154" lon="11.7832801"><ele>357.6</ele><time>2026-03-22T14:47:30.77Z</time></trkpt><trkpt lat="43.4712874" lon="11.7832028"><ele>356.8</ele><time>2026-03-22T14:47:31.77Z</time></trkpt><trkpt lat="43.4713706" lon="11.7831243"><ele>356.0</ele><time>2026-03-22T14:47:32.77Z</time></trkpt><trkpt lat="43.4714652" lon="11.78305"><ele>356.0</ele><time>2026-03-22T14:47:33.769Z</time></trkpt><trkpt lat="43.4715699" lon="11.7829887"><ele>356.0</ele><time>2026-03-22T14:47:34.769Z</time></trkpt><trkpt lat="43.4716786" lon="11.7829353"><ele>356.0</ele><time>2026-03-22T14:47:35.769Z</time></trkpt><trkpt lat="43.4717694" lon="11.7828914"><ele>356.0</ele><time>2026-03-22T14:47:36.769Z</time></trkpt><trkpt lat="43.4718406" lon="11.7828568"><ele>356.0</ele><time>2026-03-22T14:47:37.769Z</time></trkpt><trkpt lat="43.4719168" lon="11.7828197"><ele>356.0</ele><time>2026-03-22T14:47:38.768Z</time></trkpt><trkpt lat="43.4719961" lon="11.7827808"><ele>356.0</ele><time>2026-03-22T14:47:39.768Z</time></trkpt><trkpt lat="43.472079" lon="11.782737"><ele>356.0</ele><time>2026-03-22T14:47:40.769Z</time></trkpt><trkpt lat="43.4721558" lon="11.7826891"><ele>356.0</ele><time>2026-03-22T14:47:41.769Z</time></trkpt><trkpt lat="43.472224" lon="11.7826419"><ele>356.0</ele><time>2026-03-22T14:47:42.77Z</time></trkpt><trkpt lat="43.4722787" lon="11.7825843"><ele>356.0</ele><time>2026-03-22T14:47:43.77Z</time></trkpt><trkpt lat="43.4723213" lon="11.782505"><ele>358.83333333333337</ele><time>2026-03-22T14:47:44.769Z</time></trkpt><trkpt lat="43.4723638" lon="11.7824128"><ele>361.6666666666667</ele><time>2026-03-22T14:47:45.77Z</time></trkpt><trkpt lat="43.47239" lon="11.7823127"><ele>364.5</ele><time>2026-03-22T14:47:46.77Z</time></trkpt><trkpt lat="43.472462" lon="11.7821813"><ele>367.3333333333333</ele><time>2026-03-22T14:47:48.77Z</time></trkpt><trkpt lat="43.472527" lon="11.7821309"><ele>370.16666666666663</ele><time>2026-03-22T14:47:49.77Z</time></trkpt><trkpt lat="43.472601" lon="11.7820955"><ele>373.0</ele><time>2026-03-22T14:47:50.77Z</time></trkpt><trkpt lat="43.4726772" lon="11.7820742"><ele>373.0</ele><time>2026-03-22T14:47:51.769Z</time></trkpt><trkpt lat="43.4727515" lon="11.7820653"><ele>373.0</ele><time>2026-03-22T14:47:52.769Z</time></trkpt><trkpt lat="43.4728299" lon="11.7820525"><ele>373.0</ele><time>2026-03-22T14:47:53.77Z</time></trkpt><trkpt lat="43.4729073" lon="11.7820205"><ele>373.0</ele><time>2026-03-22T14:47:54.769Z</time></trkpt><trkpt lat="43.4729861" lon="11.7819733"><ele>373.0</ele><time>2026-03-22T14:47:55.769Z</time></trkpt><trkpt lat="43.4730606" lon="11.7818911"><ele>373.0</ele><time>2026-03-22T14:47:56.77Z</time></trkpt><trkpt lat="43.473127" lon="11.7818191"><ele>373.0</ele><time>2026-03-22T14:47:57.77Z</time></trkpt><trkpt lat="43.4731873" lon="11.7817493"><ele>373.0</ele><time>2026-03-22T14:47:58.77Z</time></trkpt><trkpt lat="43.4732296" lon="11.7816536"><ele>373.0</ele><time>2026-03-22T14:47:59.77Z</time></trkpt><trkpt lat="43.4732538" lon="11.7815516"><ele>373.0</ele><time>2026-03-22T14:48:00.77Z</time></trkpt><trkpt lat="43.4732667" lon="11.7814545"><ele>373.0</ele><time>2026-03-22T14:48:01.769Z</time></trkpt><trkpt lat="43.473276" lon="11.7813672"><ele>373.0</ele><time>2026-03-22T14:48:02.77Z</time></trkpt><trkpt lat="43.4732904" lon="11.7812824"><ele>373.0</ele><time>2026-03-22T14:48:03.769Z</time></trkpt><trkpt lat="43.4733102" lon="11.7811878"><ele>373.0</ele><time>2026-03-22T14:48:04.77Z</time></trkpt><trkpt lat="43.4733392" lon="11.7810855"><ele>373.0</ele><time>2026-03-22T14:48:05.77Z</time></trkpt><trkpt lat="43.4733741" lon="11.7809784"><ele>373.0</ele><time>2026-03-22T14:48:06.769Z</time></trkpt><trkpt lat="43.4734106" lon="11.7808704"><ele>373.0</ele><time>2026-03-22T14:48:07.769Z</time></trkpt><trkpt lat="43.4734507" lon="11.7807666"><ele>373.0</ele><time>2026-03-22T14:48:08.769Z</time></trkpt><trkpt lat="43.4734935" lon="11.780665"><ele>373.0</ele><time>2026-03-22T14:48:09.77Z</time></trkpt><trkpt lat="43.4735385" lon="11.7805641"><ele>372.2</ele><time>2026-03-22T14:48:10.77Z</time></trkpt><trkpt lat="43.4735894" lon="11.7804611"><ele>371.4</ele><time>2026-03-22T14:48:11.77Z</time></trkpt><trkpt lat="43.4736395" lon="11.7803604"><ele>370.59999999999997</ele><time>2026-03-22T14:48:12.769Z</time></trkpt><trkpt lat="43.4736852" lon="11.7802549"><ele>369.79999999999995</ele><time>2026-03-22T14:48:13.77Z</time></trkpt><trkpt lat="43.4737261" lon="11.780141"><ele>369.0</ele><time>2026-03-22T14:48:14.769Z</time></trkpt><trkpt lat="43.473787" lon="11.7800341"><ele>368.6</ele><time>2026-03-22T14:48:15.77Z</time></trkpt><trkpt lat="43.4738492" lon="11.7799323"><ele>368.2</ele><time>2026-03-22T14:48:16.77Z</time></trkpt><trkpt lat="43.4739077" lon="11.7798247"><ele>367.8</ele><time>2026-03-22T14:48:17.77Z</time></trkpt><trkpt lat="43.4739674" lon="11.7797225"><ele>367.40000000000003</ele><time>2026-03-22T14:48:18.769Z</time></trkpt><trkpt lat="43.4740221" lon="11.7796254"><ele>367.0</ele><time>2026-03-22T14:48:19.77Z</time></trkpt><trkpt lat="43.47409" lon="11.7795264"><ele>367.0</ele><time>2026-03-22T14:48:20.77Z</time></trkpt><trkpt lat="43.4741654" lon="11.7794245"><ele>367.0</ele><time>2026-03-22T14:48:21.769Z</time></trkpt><trkpt lat="43.4742323" lon="11.7793288"><ele>367.0</ele><time>2026-03-22T14:48:22.77Z</time></trkpt><trkpt lat="43.4742855" lon="11.7792444"><ele>367.0</ele><time>2026-03-22T14:48:23.77Z</time></trkpt><trkpt lat="43.474332" lon="11.7791733"><ele>367.0</ele><time>2026-03-22T14:48:24.77Z</time></trkpt><trkpt lat="43.4743777" lon="11.7790391"><ele>366.6</ele><time>2026-03-22T14:48:26.769Z</time></trkpt><trkpt lat="43.4744025" lon="11.7789304"><ele>366.20000000000005</ele><time>2026-03-22T14:48:28.77Z</time></trkpt><trkpt lat="43.4744597" lon="11.7788221"><ele>365.8</ele><time>2026-03-22T14:48:30.769Z</time></trkpt><trkpt lat="43.4745306" lon="11.7787504"><ele>365.4</ele><time>2026-03-22T14:48:32.77Z</time></trkpt><trkpt lat="43.4746233" lon="11.7787197"><ele>365.0</ele><time>2026-03-22T14:48:34.77Z</time></trkpt><trkpt lat="43.4747207" lon="11.7787167"><ele>365.0</ele><time>2026-03-22T14:48:36.77Z</time></trkpt><trkpt lat="43.4748036" lon="11.7787231"><ele>365.0</ele><time>2026-03-22T14:48:38.77Z</time></trkpt><trkpt lat="43.4749039" lon="11.7786735"><ele>365.0</ele><time>2026-03-22T14:48:40.769Z</time></trkpt><trkpt lat="43.4749817" lon="11.7785857"><ele>365.0</ele><time>2026-03-22T14:48:42.769Z</time></trkpt><trkpt lat="43.4750503" lon="11.7785022"><ele>365.0</ele><time>2026-03-22T14:48:44.769Z</time></trkpt><trkpt lat="43.4751185" lon="11.7784156"><ele>365.5</ele><time>2026-03-22T14:48:46.769Z</time></trkpt><trkpt lat="43.4751674" lon="11.7783294"><ele>366.0</ele><time>2026-03-22T14:48:48.769Z</time></trkpt><trkpt lat="43.4752233" lon="11.7782639"><ele>366.5</ele><time>2026-03-22T14:48:50.77Z</time></trkpt><trkpt lat="43.4752846" lon="11.7781857"><ele>367.0</ele><time>2026-03-22T14:48:52.77Z</time></trkpt><trkpt lat="43.4753666" lon="11.7781412"><ele>367.5</ele><time>2026-03-22T14:48:54.77Z</time></trkpt><trkpt lat="43.4754423" lon="11.7780513"><ele>368.0</ele><time>2026-03-22T14:48:56.77Z</time></trkpt><trkpt lat="43.4755256" lon="11.77798"><ele>368.0</ele><time>2026-03-22T14:48:58.769Z</time></trkpt><trkpt lat="43.4755854" lon="11.7778806"><ele>368.0</ele><time>2026-03-22T14:49:00.769Z</time></trkpt><trkpt lat="43.4756623" lon="11.7778008"><ele>368.0</ele><time>2026-03-22T14:49:03.769Z</time></trkpt><trkpt lat="43.4757413" lon="11.7777091"><ele>368.0</ele><time>2026-03-22T14:49:05.77Z</time></trkpt><trkpt lat="43.4758193" lon="11.7776307"><ele>368.0</ele><time>2026-03-22T14:49:07.77Z</time></trkpt><trkpt lat="43.4758725" lon="11.7775664"><ele>366.59999999999997</ele><time>2026-03-22T14:49:08.769Z</time></trkpt><trkpt lat="43.4759368" lon="11.7774527"><ele>365.2</ele><time>2026-03-22T14:49:10.769Z</time></trkpt><trkpt lat="43.4760057" lon="11.7773428"><ele>363.8</ele><time>2026-03-22T14:49:12.768Z</time></trkpt><trkpt lat="43.476084" lon="11.7772223"><ele>362.4</ele><time>2026-03-22T14:49:14.77Z</time></trkpt><trkpt lat="43.4761585" lon="11.7771186"><ele>361.0</ele><time>2026-03-22T14:49:16.77Z</time></trkpt><trkpt lat="43.476213" lon="11.777063"><ele>361.0</ele><time>2026-03-22T14:49:17.769Z</time></trkpt><trkpt lat="43.4762678" lon="11.7769995"><ele>361.0</ele><time>2026-03-22T14:49:18.77Z</time></trkpt><trkpt lat="43.4763743" lon="11.7768821"><ele>361.0</ele><time>2026-03-22T14:49:20.77Z</time></trkpt><trkpt lat="43.4764273" lon="11.7768158"><ele>361.0</ele><time>2026-03-22T14:49:21.769Z</time></trkpt><trkpt lat="43.4764771" lon="11.7767497"><ele>361.0</ele><time>2026-03-22T14:49:22.769Z</time></trkpt><trkpt lat="43.4765731" lon="11.7766364"><ele>362.8</ele><time>2026-03-22T14:49:24.77Z</time></trkpt><trkpt lat="43.4766604" lon="11.776525"><ele>364.6</ele><time>2026-03-22T14:49:26.769Z</time></trkpt><trkpt lat="43.4767402" lon="11.7764244"><ele>366.4</ele><time>2026-03-22T14:49:28.769Z</time></trkpt><trkpt lat="43.476812" lon="11.7763273"><ele>368.2</ele><time>2026-03-22T14:49:30.77Z</time></trkpt><trkpt lat="43.4768955" lon="11.7762621"><ele>370.0</ele><time>2026-03-22T14:49:32.77Z</time></trkpt><trkpt lat="43.4769761" lon="11.7761832"><ele>370.0</ele><time>2026-03-22T14:49:34.77Z</time></trkpt><trkpt lat="43.4770807" lon="11.7761222"><ele>370.0</ele><time>2026-03-22T14:49:36.77Z</time></trkpt><trkpt lat="43.4771818" lon="11.776067"><ele>370.0</ele><time>2026-03-22T14:49:38.769Z</time></trkpt><trkpt lat="43.4772771" lon="11.7759989"><ele>370.0</ele><time>2026-03-22T14:49:40.77Z</time></trkpt><trkpt lat="43.4773518" lon="11.7759187"><ele>370.0</ele><time>2026-03-22T14:49:42.77Z</time></trkpt><trkpt lat="43.4774064" lon="11.7758428"><ele>370.57142857142856</ele><time>2026-03-22T14:49:44.77Z</time></trkpt><trkpt lat="43.4774281" lon="11.7757551"><ele>371.1428571428571</ele><time>2026-03-22T14:49:47.769Z</time></trkpt><trkpt lat="43.4774217" lon="11.775666"><ele>371.71428571428567</ele><time>2026-03-22T14:50:10.77Z</time></trkpt><trkpt lat="43.477439" lon="11.7755685"><ele>372.2857142857143</ele><time>2026-03-22T14:50:13.769Z</time></trkpt><trkpt lat="43.4774332" lon="11.7754653"><ele>372.8571428571429</ele><time>2026-03-22T14:50:15.77Z</time></trkpt><trkpt lat="43.4774417" lon="11.7753611"><ele>373.4285714285714</ele><time>2026-03-22T14:50:41.769Z</time></trkpt><trkpt lat="43.4774405" lon="11.7752695"><ele>374.0</ele><time>2026-03-22T14:50:45.77Z</time></trkpt><trkpt lat="43.4774512" lon="11.7751554"><ele>374.33333333333337</ele><time>2026-03-22T14:50:55.77Z</time></trkpt><trkpt lat="43.4774735" lon="11.775059"><ele>374.6666666666667</ele><time>2026-03-22T14:50:58.769Z</time></trkpt><trkpt lat="43.4775075" lon="11.7749666"><ele>375.0</ele><time>2026-03-22T14:51:01.769Z</time></trkpt><trkpt lat="43.4775578" lon="11.7748706"><ele>375.3333333333333</ele><time>2026-03-22T14:51:04.77Z</time></trkpt><trkpt lat="43.4775523" lon="11.7747833"><ele>375.66666666666663</ele><time>2026-03-22T14:53:30.77Z</time></trkpt><trkpt lat="43.4775655" lon="11.7746565"><ele>376.0</ele><time>2026-03-22T14:54:06.769Z</time></trkpt><trkpt lat="43.4775746" lon="11.7745672"><ele>376.0</ele><time>2026-03-22T14:54:08.77Z</time></trkpt><trkpt lat="43.4775839" lon="11.7744465"><ele>376.0</ele><time>2026-03-22T14:54:11.77Z</time></trkpt><trkpt lat="43.477589" lon="11.7743225"><ele>376.0</ele><time>2026-03-22T14:54:24.769Z</time></trkpt><trkpt lat="43.4775973" lon="11.77422"><ele>376.0</ele><time>2026-03-22T14:54:26.77Z</time></trkpt><trkpt lat="43.4776221" lon="11.7740953"><ele>376.0</ele><time>2026-03-22T14:54:28.77Z</time></trkpt><trkpt lat="43.4776595" lon="11.7739651"><ele>376.0</ele><time>2026-03-22T14:54:30.769Z</time></trkpt><trkpt lat="43.4777011" lon="11.7738564"><ele>376.5</ele><time>2026-03-22T14:54:32.77Z</time></trkpt><trkpt lat="43.4777417" lon="11.7737457"><ele>377.0</ele><time>2026-03-22T14:54:34.77Z</time></trkpt><trkpt lat="43.4777974" lon="11.773679"><ele>377.5</ele><time>2026-03-22T14:54:36.769Z</time></trkpt><trkpt lat="43.4778685" lon="11.7736204"><ele>378.0</ele><time>2026-03-22T14:54:38.77Z</time></trkpt><trkpt lat="43.477945" lon="11.7735797"><ele>378.5</ele><time>2026-03-22T14:54:40.768Z</time></trkpt><trkpt lat="43.4780279" lon="11.7736095"><ele>379.0</ele><time>2026-03-22T14:54:42.769Z</time></trkpt><trkpt lat="43.478117" lon="11.773653"><ele>379.0</ele><time>2026-03-22T14:54:44.769Z</time></trkpt><trkpt lat="43.4782078" lon="11.7736674"><ele>379.0</ele><time>2026-03-22T14:54:46.769Z</time></trkpt><trkpt lat="43.4782843" lon="11.7736563"><ele>379.0</ele><time>2026-03-22T14:54:48.769Z</time></trkpt><trkpt lat="43.4783577" lon="11.7736243"><ele>379.0</ele><time>2026-03-22T14:54:50.77Z</time></trkpt><trkpt lat="43.4783679" lon="11.773494"><ele>379.0</ele><time>2026-03-22T14:54:53.769Z</time></trkpt><trkpt lat="43.4783018" lon="11.7734327"><ele>379.0</ele><time>2026-03-22T14:54:55.769Z</time></trkpt><trkpt lat="43.4782478" lon="11.7733719"><ele>379.3333333333333</ele><time>2026-03-22T14:54:57.769Z</time></trkpt><trkpt lat="43.4782363" lon="11.7732574"><ele>379.66666666666663</ele><time>2026-03-22T14:54:59.77Z</time></trkpt><trkpt lat="43.4782749" lon="11.7731799"><ele>380.0</ele><time>2026-03-22T14:55:01.769Z</time></trkpt><trkpt lat="43.4782929" lon="11.7730764"><ele>380.3333333333333</ele><time>2026-03-22T14:55:04.77Z</time></trkpt><trkpt lat="43.4782454" lon="11.7729736"><ele>380.6666666666667</ele><time>2026-03-22T14:55:07.769Z</time></trkpt><trkpt lat="43.4782075" lon="11.7728905"><ele>381.0</ele><time>2026-03-22T14:55:09.769Z</time></trkpt><trkpt lat="43.4781593" lon="11.772811"><ele>381.0</ele><time>2026-03-22T14:55:11.769Z</time></trkpt><trkpt lat="43.4781208" lon="11.772722"><ele>381.0</ele><time>2026-03-22T14:55:13.77Z</time></trkpt><trkpt lat="43.4780741" lon="11.7726321"><ele>381.0</ele><time>2026-03-22T14:55:15.77Z</time></trkpt><trkpt lat="43.4780359" lon="11.7725511"><ele>381.0</ele><time>2026-03-22T14:55:17.769Z</time></trkpt><trkpt lat="43.477987" lon="11.772463"><ele>381.0</ele><time>2026-03-22T14:55:19.77Z</time></trkpt><trkpt lat="43.4779287" lon="11.7723736"><ele>381.0</ele><time>2026-03-22T14:55:21.77Z</time></trkpt><trkpt lat="43.4778502" lon="11.7722933"><ele>382.3333333333333</ele><time>2026-03-22T14:55:23.768Z</time></trkpt><trkpt lat="43.4777742" lon="11.7722291"><ele>383.66666666666663</ele><time>2026-03-22T14:55:25.769Z</time></trkpt><trkpt lat="43.4777223" lon="11.7721574"><ele>385.0</ele><time>2026-03-22T14:55:27.769Z</time></trkpt><trkpt lat="43.4776785" lon="11.7720917"><ele>386.3333333333333</ele><time>2026-03-22T14:55:29.769Z</time></trkpt><trkpt lat="43.4776232" lon="11.7720331"><ele>387.66666666666663</ele><time>2026-03-22T14:55:31.769Z</time></trkpt><trkpt lat="43.4775816" lon="11.7719656"><ele>389.0</ele><time>2026-03-22T14:55:33.768Z</time></trkpt><trkpt lat="43.4774838" lon="11.7718657"><ele>387.66666666666663</ele><time>2026-03-22T14:55:35.769Z</time></trkpt><trkpt lat="43.4774043" lon="11.7717837"><ele>386.3333333333333</ele><time>2026-03-22T14:55:37.77Z</time></trkpt><trkpt lat="43.4773223" lon="11.7716607"><ele>385.0</ele><time>2026-03-22T14:55:39.769Z</time></trkpt><trkpt lat="43.4772833" lon="11.7715477"><ele>383.66666666666663</ele><time>2026-03-22T14:55:41.77Z</time></trkpt><trkpt lat="43.4772843" lon="11.7714515"><ele>382.3333333333333</ele><time>2026-03-22T14:55:43.769Z</time></trkpt><trkpt lat="43.4773335" lon="11.771394"><ele>381.0</ele><time>2026-03-22T14:55:45.77Z</time></trkpt><trkpt lat="43.4773632" lon="11.771298"><ele>381.0</ele><time>2026-03-22T14:56:59.77Z</time></trkpt><trkpt lat="43.477372" lon="11.7712089"><ele>381.0</ele><time>2026-03-22T14:57:33.77Z</time></trkpt><trkpt lat="43.4774021" lon="11.7711225"><ele>381.0</ele><time>2026-03-22T14:58:43.77Z</time></trkpt><trkpt lat="43.4774433" lon="11.7710408"><ele>381.0</ele><time>2026-03-22T15:00:06.769Z</time></trkpt><trkpt lat="43.4774914" lon="11.7709519"><ele>381.0</ele><time>2026-03-22T15:00:09.769Z</time></trkpt><trkpt lat="43.4775461" lon="11.7708432"><ele>381.0</ele><time>2026-03-22T15:00:11.77Z</time></trkpt><trkpt lat="43.4775988" lon="11.770759"><ele>381.0</ele><time>2026-03-22T15:00:13.77Z</time></trkpt><trkpt lat="43.4776714" lon="11.770705"><ele>381.0</ele><time>2026-03-22T15:00:15.77Z</time></trkpt><trkpt lat="43.4777443" lon="11.7706695"><ele>381.0</ele><time>2026-03-22T15:00:17.769Z</time></trkpt><trkpt lat="43.4777988" lon="11.7705947"><ele>381.0</ele><time>2026-03-22T15:00:19.77Z</time></trkpt><trkpt lat="43.4778459" lon="11.7705135"><ele>381.0</ele><time>2026-03-22T15:00:21.77Z</time></trkpt><trkpt lat="43.4778497" lon="11.7703953"><ele>381.0</ele><time>2026-03-22T15:00:24.769Z</time></trkpt><trkpt lat="43.4778665" lon="11.770285"><ele>380.6666666666667</ele><time>2026-03-22T15:00:27.77Z</time></trkpt><trkpt lat="43.4779093" lon="11.7701731"><ele>380.3333333333333</ele><time>2026-03-22T15:00:30.77Z</time></trkpt><trkpt lat="43.4779414" lon="11.770088"><ele>380.0</ele><time>2026-03-22T15:00:32.768Z</time></trkpt><trkpt lat="43.4779625" lon="11.7699872"><ele>379.66666666666663</ele><time>2026-03-22T15:00:34.769Z</time></trkpt><trkpt lat="43.4779723" lon="11.76987"><ele>379.3333333333333</ele><time>2026-03-22T15:00:36.77Z</time></trkpt><trkpt lat="43.4779326" lon="11.7697314"><ele>379.0</ele><time>2026-03-22T15:00:38.77Z</time></trkpt><trkpt lat="43.4778971" lon="11.7695966"><ele>379.0</ele><time>2026-03-22T15:00:40.769Z</time></trkpt><trkpt lat="43.4778711" lon="11.7694678"><ele>379.0</ele><time>2026-03-22T15:00:42.77Z</time></trkpt><trkpt lat="43.4778782" lon="11.7693116"><ele>379.0</ele><time>2026-03-22T15:00:44.77Z</time></trkpt><trkpt lat="43.4779157" lon="11.7692251"><ele>379.0</ele><time>2026-03-22T15:00:45.77Z</time></trkpt><trkpt lat="43.477979" lon="11.7690771"><ele>379.0</ele><time>2026-03-22T15:00:47.769Z</time></trkpt><trkpt lat="43.4780426" lon="11.7689502"><ele>375.2</ele><time>2026-03-22T15:00:49.769Z</time></trkpt><trkpt lat="43.4781238" lon="11.7688574"><ele>371.4</ele><time>2026-03-22T15:00:51.769Z</time></trkpt><trkpt lat="43.4782044" lon="11.7687352"><ele>367.6</ele><time>2026-03-22T15:00:53.769Z</time></trkpt><trkpt lat="43.4782825" lon="11.7685982"><ele>363.8</ele><time>2026-03-22T15:00:55.769Z</time></trkpt><trkpt lat="43.478338" lon="11.7684887"><ele>360.0</ele><time>2026-03-22T15:00:57.769Z</time></trkpt><trkpt lat="43.4783567" lon="11.7683897"><ele>359.1666666666667</ele><time>2026-03-22T15:00:59.77Z</time></trkpt><trkpt lat="43.4783966" lon="11.7682993"><ele>358.3333333333333</ele><time>2026-03-22T15:01:31.77Z</time></trkpt><trkpt lat="43.4784933" lon="11.7683222"><ele>357.5</ele><time>2026-03-22T15:01:34.769Z</time></trkpt><trkpt lat="43.4785677" lon="11.7683223"><ele>356.66666666666663</ele><time>2026-03-22T15:01:35.768Z</time></trkpt><trkpt lat="43.4786407" lon="11.768348"><ele>355.8333333333333</ele><time>2026-03-22T15:01:36.768Z</time></trkpt><trkpt lat="43.4787226" lon="11.7683879"><ele>355.0</ele><time>2026-03-22T15:01:37.768Z</time></trkpt><trkpt lat="43.4787989" lon="11.7684021"><ele>353.5</ele><time>2026-03-22T15:01:38.768Z</time></trkpt><trkpt lat="43.4788685" lon="11.7684061"><ele>352.0</ele><time>2026-03-22T15:01:39.769Z</time></trkpt><trkpt lat="43.4789345" lon="11.7684021"><ele>350.5</ele><time>2026-03-22T15:01:40.769Z</time></trkpt><trkpt lat="43.4789981" lon="11.768399"><ele>349.0</ele><time>2026-03-22T15:01:41.768Z</time></trkpt><trkpt lat="43.4791118" lon="11.7683928"><ele>347.5</ele><time>2026-03-22T15:01:43.768Z</time></trkpt><trkpt lat="43.4792346" lon="11.7683861"><ele>346.0</ele><time>2026-03-22T15:01:45.768Z</time></trkpt><trkpt lat="43.4793446" lon="11.7683596"><ele>346.0</ele><time>2026-03-22T15:01:46.768Z</time></trkpt><trkpt lat="43.4794174" lon="11.7683535"><ele>346.0</ele><time>2026-03-22T15:01:47.768Z</time></trkpt><trkpt lat="43.4794892" lon="11.7683438"><ele>346.0</ele><time>2026-03-22T15:01:48.768Z</time></trkpt><trkpt lat="43.4795642" lon="11.7683132"><ele>346.0</ele><time>2026-03-22T15:01:49.769Z</time></trkpt><trkpt lat="43.4796386" lon="11.7682722"><ele>346.0</ele><time>2026-03-22T15:01:50.769Z</time></trkpt><trkpt lat="43.4797075" lon="11.7682237"><ele>346.0</ele><time>2026-03-22T15:01:51.768Z</time></trkpt><trkpt lat="43.4797705" lon="11.7681733"><ele>345.0</ele><time>2026-03-22T15:01:52.769Z</time></trkpt><trkpt lat="43.4798458" lon="11.7681136"><ele>344.0</ele><time>2026-03-22T15:01:53.768Z</time></trkpt><trkpt lat="43.4799194" lon="11.7680692"><ele>343.0</ele><time>2026-03-22T15:01:54.769Z</time></trkpt><trkpt lat="43.4799956" lon="11.7680351"><ele>342.0</ele><time>2026-03-22T15:01:55.768Z</time></trkpt><trkpt lat="43.4800735" lon="11.7680073"><ele>341.0</ele><time>2026-03-22T15:01:56.768Z</time></trkpt><trkpt lat="43.4801618" lon="11.7679867"><ele>340.0</ele><time>2026-03-22T15:01:57.769Z</time></trkpt><trkpt lat="43.4802536" lon="11.7679705"><ele>340.0</ele><time>2026-03-22T15:01:58.768Z</time></trkpt><trkpt lat="43.4803374" lon="11.7679656"><ele>340.0</ele><time>2026-03-22T15:01:59.768Z</time></trkpt><trkpt lat="43.4804185" lon="11.7679481"><ele>340.0</ele><time>2026-03-22T15:02:00.769Z</time></trkpt><trkpt lat="43.4804945" lon="11.7679156"><ele>340.0</ele><time>2026-03-22T15:02:01.769Z</time></trkpt><trkpt lat="43.4805643" lon="11.7678886"><ele>340.0</ele><time>2026-03-22T15:02:02.768Z</time></trkpt><trkpt lat="43.4806365" lon="11.767896"><ele>340.0</ele><time>2026-03-22T15:02:03.768Z</time></trkpt><trkpt lat="43.4807024" lon="11.767917"><ele>339.3333333333333</ele><time>2026-03-22T15:02:04.768Z</time></trkpt><trkpt lat="43.4807682" lon="11.7679385"><ele>338.66666666666663</ele><time>2026-03-22T15:02:05.769Z</time></trkpt><trkpt lat="43.4808386" lon="11.7679622"><ele>338.0</ele><time>2026-03-22T15:02:06.769Z</time></trkpt><trkpt lat="43.4809058" lon="11.7679921"><ele>337.3333333333333</ele><time>2026-03-22T15:02:07.768Z</time></trkpt><trkpt lat="43.4809958" lon="11.7680568"><ele>336.6666666666667</ele><time>2026-03-22T15:02:08.768Z</time></trkpt><trkpt lat="43.4810729" lon="11.7681194"><ele>336.0</ele><time>2026-03-22T15:02:09.768Z</time></trkpt><trkpt lat="43.4811426" lon="11.7681591"><ele>336.0</ele><time>2026-03-22T15:02:10.768Z</time></trkpt><trkpt lat="43.4812166" lon="11.7682135"><ele>336.0</ele><time>2026-03-22T15:02:11.769Z</time></trkpt><trkpt lat="43.4813104" lon="11.7682382"><ele>336.0</ele><time>2026-03-22T15:02:12.769Z</time></trkpt><trkpt lat="43.4813873" lon="11.7682701"><ele>336.0</ele><time>2026-03-22T15:02:13.768Z</time></trkpt><trkpt lat="43.4814649" lon="11.768294"><ele>336.0</ele><time>2026-03-22T15:02:14.768Z</time></trkpt><trkpt lat="43.4815466" lon="11.7682955"><ele>336.0</ele><time>2026-03-22T15:02:15.769Z</time></trkpt><trkpt lat="43.481624" lon="11.7682918"><ele>334.0</ele><time>2026-03-22T15:02:16.769Z</time></trkpt><trkpt lat="43.4816994" lon="11.7682647"><ele>332.0</ele><time>2026-03-22T15:02:17.768Z</time></trkpt><trkpt lat="43.481777" lon="11.7682289"><ele>330.0</ele><time>2026-03-22T15:02:18.769Z</time></trkpt><trkpt lat="43.4818517" lon="11.768186"><ele>328.0</ele><time>2026-03-22T15:02:19.769Z</time></trkpt><trkpt lat="43.4819232" lon="11.7681355"><ele>326.0</ele><time>2026-03-22T15:02:20.769Z</time></trkpt><trkpt lat="43.4819958" lon="11.7680886"><ele>324.0</ele><time>2026-03-22T15:02:21.768Z</time></trkpt><trkpt lat="43.4820765" lon="11.7680546"><ele>322.6666666666667</ele><time>2026-03-22T15:02:22.768Z</time></trkpt><trkpt lat="43.482162" lon="11.7680251"><ele>321.3333333333333</ele><time>2026-03-22T15:02:23.769Z</time></trkpt><trkpt lat="43.482243" lon="11.7680087"><ele>320.0</ele><time>2026-03-22T15:02:24.768Z</time></trkpt><trkpt lat="43.4823133" lon="11.7680093"><ele>318.66666666666663</ele><time>2026-03-22T15:02:25.769Z</time></trkpt><trkpt lat="43.4824213" lon="11.7680567"><ele>317.3333333333333</ele><time>2026-03-22T15:02:27.769Z</time></trkpt><trkpt lat="43.4824601" lon="11.7681272"><ele>316.0</ele><time>2026-03-22T15:02:28.768Z</time></trkpt><trkpt lat="43.4824866" lon="11.7682321"><ele>316.0</ele><time>2026-03-22T15:02:29.768Z</time></trkpt><trkpt lat="43.4824999" lon="11.7683572"><ele>316.0</ele><time>2026-03-22T15:02:30.768Z</time></trkpt><trkpt lat="43.4825016" lon="11.7684827"><ele>316.0</ele><time>2026-03-22T15:02:31.769Z</time></trkpt><trkpt lat="43.4824992" lon="11.7685959"><ele>316.0</ele><time>2026-03-22T15:02:32.768Z</time></trkpt><trkpt lat="43.4825075" lon="11.7687049"><ele>316.0</ele><time>2026-03-22T15:02:33.769Z</time></trkpt><trkpt lat="43.4825326" lon="11.7688045"><ele>316.0</ele><time>2026-03-22T15:02:34.768Z</time></trkpt><trkpt lat="43.48258" lon="11.7688824"><ele>315.0</ele><time>2026-03-22T15:02:35.768Z</time></trkpt><trkpt lat="43.4826445" lon="11.7689171"><ele>314.0</ele><time>2026-03-22T15:02:36.769Z</time></trkpt><trkpt lat="43.4827194" lon="11.7688923"><ele>313.0</ele><time>2026-03-22T15:02:37.769Z</time></trkpt><trkpt lat="43.4827978" lon="11.7688366"><ele>312.0</ele><time>2026-03-22T15:02:38.769Z</time></trkpt><trkpt lat="43.4828642" lon="11.7687904"><ele>311.0</ele><time>2026-03-22T15:02:39.768Z</time></trkpt><trkpt lat="43.4829257" lon="11.768759"><ele>310.0</ele><time>2026-03-22T15:02:40.769Z</time></trkpt><trkpt lat="43.483007" lon="11.7687304"><ele>310.0</ele><time>2026-03-22T15:02:42.769Z</time></trkpt><trkpt lat="43.4830497" lon="11.7686538"><ele>310.0</ele><time>2026-03-22T15:03:14.769Z</time></trkpt><trkpt lat="43.4830495" lon="11.7685374"><ele>310.0</ele><time>2026-03-22T15:03:15.768Z</time></trkpt><trkpt lat="43.4830203" lon="11.7683957"><ele>310.0</ele><time>2026-03-22T15:03:16.769Z</time></trkpt><trkpt lat="43.4829889" lon="11.768234"><ele>310.0</ele><time>2026-03-22T15:03:17.769Z</time></trkpt><trkpt lat="43.4829564" lon="11.7680474"><ele>312.0</ele><time>2026-03-22T15:03:18.768Z</time></trkpt><trkpt lat="43.4829174" lon="11.7678183"><ele>314.0</ele><time>2026-03-22T15:03:19.768Z</time></trkpt><trkpt lat="43.482882" lon="11.7675764"><ele>316.0</ele><time>2026-03-22T15:03:20.769Z</time></trkpt><trkpt lat="43.4828449" lon="11.7673156"><ele>316.0</ele><time>2026-03-22T15:03:21.768Z</time></trkpt><trkpt lat="43.4828066" lon="11.7670391"><ele>316.0</ele><time>2026-03-22T15:03:22.768Z</time></trkpt><trkpt lat="43.4827729" lon="11.7667842"><ele>316.0</ele><time>2026-03-22T15:03:23.768Z</time></trkpt><trkpt lat="43.4827405" lon="11.7665418"><ele>315.0</ele><time>2026-03-22T15:03:24.769Z</time></trkpt><trkpt lat="43.4827088" lon="11.7663179"><ele>314.0</ele><time>2026-03-22T15:03:25.768Z</time></trkpt><trkpt lat="43.4826783" lon="11.7661082"><ele>313.0</ele><time>2026-03-22T15:03:26.769Z</time></trkpt><trkpt lat="43.482656" lon="11.7659025"><ele>312.0</ele><time>2026-03-22T15:03:27.769Z</time></trkpt><trkpt lat="43.4826399" lon="11.7657049"><ele>311.0</ele><time>2026-03-22T15:03:28.768Z</time></trkpt><trkpt lat="43.4826231" lon="11.7655156"><ele>310.0</ele><time>2026-03-22T15:03:29.768Z</time></trkpt><trkpt lat="43.4826056" lon="11.7653424"><ele>309.0</ele><time>2026-03-22T15:03:30.768Z</time></trkpt><trkpt lat="43.482597" lon="11.765185"><ele>307.0</ele><time>2026-03-22T15:03:31.768Z</time></trkpt><trkpt lat="43.4825884" lon="11.7650294"><ele>305.0</ele><time>2026-03-22T15:03:32.769Z</time></trkpt><trkpt lat="43.4825781" lon="11.7648708"><ele>303.0</ele><time>2026-03-22T15:03:33.769Z</time></trkpt><trkpt lat="43.4825689" lon="11.7647031"><ele>301.0</ele><time>2026-03-22T15:03:34.768Z</time></trkpt><trkpt lat="43.4825594" lon="11.7645159"><ele>299.75</ele><time>2026-03-22T15:03:35.768Z</time></trkpt><trkpt lat="43.4825661" lon="11.7643273"><ele>298.5</ele><time>2026-03-22T15:03:36.769Z</time></trkpt><trkpt lat="43.4825945" lon="11.7641432"><ele>297.25</ele><time>2026-03-22T15:03:37.769Z</time></trkpt><trkpt lat="43.4826404" lon="11.7639533"><ele>296.0</ele><time>2026-03-22T15:03:38.769Z</time></trkpt><trkpt lat="43.482704" lon="11.7637584"><ele>296.0</ele><time>2026-03-22T15:03:39.768Z</time></trkpt><trkpt lat="43.4827837" lon="11.7635581"><ele>296.0</ele><time>2026-03-22T15:03:40.769Z</time></trkpt><trkpt lat="43.4828714" lon="11.7633667"><ele>296.0</ele><time>2026-03-22T15:03:41.768Z</time></trkpt><trkpt lat="43.4829566" lon="11.7631819"><ele>296.25</ele><time>2026-03-22T15:03:42.769Z</time></trkpt><trkpt lat="43.4830311" lon="11.7629937"><ele>296.5</ele><time>2026-03-22T15:03:43.768Z</time></trkpt><trkpt lat="43.4830882" lon="11.7628054"><ele>296.75</ele><time>2026-03-22T15:03:44.769Z</time></trkpt><trkpt lat="43.4831352" lon="11.7626204"><ele>297.0</ele><time>2026-03-22T15:03:45.769Z</time></trkpt><trkpt lat="43.4831799" lon="11.7624361"><ele>297.0</ele><time>2026-03-22T15:03:46.768Z</time></trkpt><trkpt lat="43.4832308" lon="11.7622489"><ele>297.0</ele><time>2026-03-22T15:03:47.768Z</time></trkpt><trkpt lat="43.4832825" lon="11.7620561"><ele>297.0</ele><time>2026-03-22T15:03:48.769Z</time></trkpt><trkpt lat="43.4833366" lon="11.7618603"><ele>297.0</ele><time>2026-03-22T15:03:49.768Z</time></trkpt><trkpt lat="43.4833931" lon="11.7616642"><ele>293.6666666666667</ele><time>2026-03-22T15:03:50.769Z</time></trkpt><trkpt lat="43.4834462" lon="11.7614657"><ele>290.33333333333337</ele><time>2026-03-22T15:03:51.768Z</time></trkpt><trkpt lat="43.4834983" lon="11.7612665"><ele>287.0</ele><time>2026-03-22T15:03:52.769Z</time></trkpt><trkpt lat="43.4835398" lon="11.761062"><ele>285.0</ele><time>2026-03-22T15:03:53.768Z</time></trkpt><trkpt lat="43.483572" lon="11.7608557"><ele>283.0</ele><time>2026-03-22T15:03:54.769Z</time></trkpt><trkpt lat="43.4835978" lon="11.7606512"><ele>281.0</ele><time>2026-03-22T15:03:55.769Z</time></trkpt><trkpt lat="43.4836335" lon="11.7604422"><ele>281.0</ele><time>2026-03-22T15:03:56.768Z</time></trkpt><trkpt lat="43.4836761" lon="11.7602233"><ele>281.0</ele><time>2026-03-22T15:03:57.769Z</time></trkpt><trkpt lat="43.4837234" lon="11.7600136"><ele>281.0</ele><time>2026-03-22T15:03:58.769Z</time></trkpt><trkpt lat="43.4837718" lon="11.7598117"><ele>282.0</ele><time>2026-03-22T15:03:59.768Z</time></trkpt><trkpt lat="43.483822" lon="11.7596224"><ele>283.0</ele><time>2026-03-22T15:04:00.768Z</time></trkpt><trkpt lat="43.4838705" lon="11.7594466"><ele>284.0</ele><time>2026-03-22T15:04:01.769Z</time></trkpt><trkpt lat="43.4839202" lon="11.7592806"><ele>285.0</ele><time>2026-03-22T15:04:02.768Z</time></trkpt><trkpt lat="43.4839677" lon="11.7591197"><ele>285.0</ele><time>2026-03-22T15:04:03.768Z</time></trkpt><trkpt lat="43.483998" lon="11.7589613"><ele>285.0</ele><time>2026-03-22T15:04:04.769Z</time></trkpt><trkpt lat="43.4840126" lon="11.7588033"><ele>285.0</ele><time>2026-03-22T15:04:05.769Z</time></trkpt><trkpt lat="43.4840017" lon="11.7586455"><ele>285.0</ele><time>2026-03-22T15:04:06.768Z</time></trkpt><trkpt lat="43.4839661" lon="11.7584889"><ele>285.0</ele><time>2026-03-22T15:04:07.769Z</time></trkpt><trkpt lat="43.4839123" lon="11.7583293"><ele>285.0</ele><time>2026-03-22T15:04:08.767Z</time></trkpt><trkpt lat="43.4838486" lon="11.7581578"><ele>285.0</ele><time>2026-03-22T15:04:09.769Z</time></trkpt><trkpt lat="43.4837859" lon="11.7579761"><ele>285.0</ele><time>2026-03-22T15:04:10.768Z</time></trkpt><trkpt lat="43.4837238" lon="11.7577941"><ele>283.0</ele><time>2026-03-22T15:04:11.768Z</time></trkpt><trkpt lat="43.4836635" lon="11.7576244"><ele>281.0</ele><time>2026-03-22T15:04:12.769Z</time></trkpt><trkpt lat="43.4836062" lon="11.7574578"><ele>279.0</ele><time>2026-03-22T15:04:13.769Z</time></trkpt><trkpt lat="43.4835516" lon="11.7572915"><ele>277.0</ele><time>2026-03-22T15:04:14.769Z</time></trkpt><trkpt lat="43.4835012" lon="11.7571297"><ele>277.0</ele><time>2026-03-22T15:04:15.769Z</time></trkpt><trkpt lat="43.4834499" lon="11.756972"><ele>277.0</ele><time>2026-03-22T15:04:16.769Z</time></trkpt><trkpt lat="43.4834025" lon="11.7568117"><ele>277.0</ele><time>2026-03-22T15:04:17.768Z</time></trkpt><trkpt lat="43.4833525" lon="11.7566512"><ele>277.0</ele><time>2026-03-22T15:04:18.769Z</time></trkpt><trkpt lat="43.4833024" lon="11.7564908"><ele>277.5</ele><time>2026-03-22T15:04:19.769Z</time></trkpt><trkpt lat="43.4832538" lon="11.756329"><ele>278.0</ele><time>2026-03-22T15:04:20.769Z</time></trkpt><trkpt lat="43.4832126" lon="11.7561649"><ele>278.5</ele><time>2026-03-22T15:04:21.769Z</time></trkpt><trkpt lat="43.4831768" lon="11.7560056"><ele>279.0</ele><time>2026-03-22T15:04:22.769Z</time></trkpt><trkpt lat="43.4831536" lon="11.7558481"><ele>279.0</ele><time>2026-03-22T15:04:23.768Z</time></trkpt><trkpt lat="43.4831431" lon="11.7556919"><ele>279.0</ele><time>2026-03-22T15:04:24.768Z</time></trkpt><trkpt lat="43.4831394" lon="11.7555426"><ele>279.0</ele><time>2026-03-22T15:04:25.768Z</time></trkpt><trkpt lat="43.4831443" lon="11.7553942"><ele>279.0</ele><time>2026-03-22T15:04:26.769Z</time></trkpt><trkpt lat="43.483164" lon="11.7552431"><ele>279.0</ele><time>2026-03-22T15:04:27.769Z</time></trkpt><trkpt lat="43.4832066" lon="11.7551078"><ele>277.59999999999997</ele><time>2026-03-22T15:04:28.768Z</time></trkpt><trkpt lat="43.4832586" lon="11.7550085"><ele>276.2</ele><time>2026-03-22T15:04:29.769Z</time></trkpt><trkpt lat="43.4833137" lon="11.7549382"><ele>274.79999999999995</ele><time>2026-03-22T15:04:30.769Z</time></trkpt><trkpt lat="43.4833703" lon="11.7548173"><ele>273.4</ele><time>2026-03-22T15:04:32.769Z</time></trkpt><trkpt lat="43.4832843" lon="11.7547657"><ele>272.0</ele><time>2026-03-22T15:04:35.768Z</time></trkpt><trkpt lat="43.4832147" lon="11.7548439"><ele>272.0</ele><time>2026-03-22T15:04:37.768Z</time></trkpt><trkpt lat="43.4831711" lon="11.7549186"><ele>272.0</ele><time>2026-03-22T15:04:39.767Z</time></trkpt><trkpt lat="43.4831156" lon="11.7549973"><ele>272.0</ele><time>2026-03-22T15:04:41.769Z</time></trkpt><trkpt lat="43.4830742" lon="11.7550824"><ele>272.0</ele><time>2026-03-22T15:04:43.769Z</time></trkpt><trkpt lat="43.4831443" lon="11.7549852"><ele>272.0</ele><time>2026-03-22T15:05:25.767Z</time></trkpt><trkpt lat="43.4831849" lon="11.7549156"><ele>272.0</ele><time>2026-03-22T15:05:27.768Z</time></trkpt><trkpt lat="43.4832342" lon="11.7548476"><ele>272.0</ele><time>2026-03-22T15:05:30.769Z</time></trkpt><trkpt lat="43.4832864" lon="11.7547781"><ele>272.0</ele><time>2026-03-22T15:05:33.769Z</time></trkpt><trkpt lat="43.4833536" lon="11.7547663"><ele>272.0</ele><time>2026-03-22T15:05:41.769Z</time></trkpt><trkpt lat="43.4834649" lon="11.7547568"><ele>272.0</ele><time>2026-03-22T15:05:47.768Z</time></trkpt><trkpt lat="43.4835195" lon="11.7546912"><ele>272.0</ele><time>2026-03-22T15:05:48.769Z</time></trkpt><trkpt lat="43.4835653" lon="11.754631"><ele>272.0</ele><time>2026-03-22T15:05:49.769Z</time></trkpt><trkpt lat="43.4835829" lon="11.7545245"><ele>272.0</ele><time>2026-03-22T15:05:51.768Z</time></trkpt><trkpt lat="43.4835001" lon="11.7544968"><ele>272.0</ele><time>2026-03-22T15:05:53.769Z</time></trkpt><trkpt lat="43.4834222" lon="11.754515"><ele>272.0</ele><time>2026-03-22T15:05:54.768Z</time></trkpt><trkpt lat="43.4833221" lon="11.7545298"><ele>272.0</ele><time>2026-03-22T15:05:55.768Z</time></trkpt><trkpt lat="43.4832271" lon="11.7545201"><ele>272.0</ele><time>2026-03-22T15:05:56.769Z</time></trkpt><trkpt lat="43.4831339" lon="11.7545077"><ele>272.0</ele><time>2026-03-22T15:05:57.769Z</time></trkpt><trkpt lat="43.4830405" lon="11.7545097"><ele>272.0</ele><time>2026-03-22T15:05:58.767Z</time></trkpt><trkpt lat="43.4829489" lon="11.7545256"><ele>272.0</ele><time>2026-03-22T15:05:59.767Z</time></trkpt><trkpt lat="43.4828573" lon="11.7545485"><ele>272.0</ele><time>2026-03-22T15:06:00.768Z</time></trkpt><trkpt lat="43.48276" lon="11.7545728"><ele>272.0</ele><time>2026-03-22T15:06:01.768Z</time></trkpt><trkpt lat="43.4826762" lon="11.7545912"><ele>271.1666666666667</ele><time>2026-03-22T15:06:02.768Z</time></trkpt><trkpt lat="43.482596" lon="11.7545944"><ele>270.33333333333337</ele><time>2026-03-22T15:06:03.768Z</time></trkpt><trkpt lat="43.4825185" lon="11.7545757"><ele>269.5</ele><time>2026-03-22T15:06:04.768Z</time></trkpt><trkpt lat="43.4824446" lon="11.7545329"><ele>268.6666666666667</ele><time>2026-03-22T15:06:05.768Z</time></trkpt><trkpt lat="43.4823833" lon="11.7544692"><ele>267.8333333333333</ele><time>2026-03-22T15:06:06.768Z</time></trkpt><trkpt lat="43.4823178" lon="11.7543906"><ele>267.0</ele><time>2026-03-22T15:06:07.768Z</time></trkpt><trkpt lat="43.4822614" lon="11.7543166"><ele>266.8333333333333</ele><time>2026-03-22T15:06:08.769Z</time></trkpt><trkpt lat="43.4822062" lon="11.7542453"><ele>266.6666666666667</ele><time>2026-03-22T15:06:09.769Z</time></trkpt><trkpt lat="43.4821473" lon="11.7541768"><ele>266.5</ele><time>2026-03-22T15:06:10.769Z</time></trkpt><trkpt lat="43.482085" lon="11.7541168"><ele>266.33333333333337</ele><time>2026-03-22T15:06:11.769Z</time></trkpt><trkpt lat="43.4820219" lon="11.7540747"><ele>266.1666666666667</ele><time>2026-03-22T15:06:12.769Z</time></trkpt><trkpt lat="43.4819416" lon="11.7540302"><ele>266.0</ele><time>2026-03-22T15:06:13.769Z</time></trkpt><trkpt lat="43.4818712" lon="11.7539768"><ele>268.83333333333337</ele><time>2026-03-22T15:06:14.768Z</time></trkpt><trkpt lat="43.4818046" lon="11.7539287"><ele>271.6666666666667</ele><time>2026-03-22T15:06:15.768Z</time></trkpt><trkpt lat="43.4817299" lon="11.7538899"><ele>274.5</ele><time>2026-03-22T15:06:16.769Z</time></trkpt><trkpt lat="43.4816526" lon="11.7538571"><ele>277.3333333333333</ele><time>2026-03-22T15:06:17.768Z</time></trkpt><trkpt lat="43.4815793" lon="11.7538363"><ele>280.16666666666663</ele><time>2026-03-22T15:06:18.767Z</time></trkpt><trkpt lat="43.4815071" lon="11.7538102"><ele>283.0</ele><time>2026-03-22T15:06:19.768Z</time></trkpt><trkpt lat="43.4814246" lon="11.7537787"><ele>283.0</ele><time>2026-03-22T15:06:20.769Z</time></trkpt><trkpt lat="43.4813364" lon="11.7537373"><ele>283.0</ele><time>2026-03-22T15:06:21.768Z</time></trkpt><trkpt lat="43.4812528" lon="11.7536979"><ele>283.0</ele><time>2026-03-22T15:06:22.768Z</time></trkpt><trkpt lat="43.4811627" lon="11.7536577"><ele>283.0</ele><time>2026-03-22T15:06:23.768Z</time></trkpt><trkpt lat="43.4810715" lon="11.7536261"><ele>283.0</ele><time>2026-03-22T15:06:24.768Z</time></trkpt><trkpt lat="43.4809838" lon="11.7535886"><ele>285.4</ele><time>2026-03-22T15:06:25.769Z</time></trkpt><trkpt lat="43.4809009" lon="11.7535455"><ele>287.8</ele><time>2026-03-22T15:06:26.769Z</time></trkpt><trkpt lat="43.4808185" lon="11.7535087"><ele>290.2</ele><time>2026-03-22T15:06:27.767Z</time></trkpt><trkpt lat="43.4807328" lon="11.753467"><ele>292.6</ele><time>2026-03-22T15:06:28.769Z</time></trkpt><trkpt lat="43.4806445" lon="11.7534279"><ele>295.0</ele><time>2026-03-22T15:06:29.768Z</time></trkpt><trkpt lat="43.4805422" lon="11.7533846"><ele>296.8</ele><time>2026-03-22T15:06:30.769Z</time></trkpt><trkpt lat="43.480434" lon="11.7533368"><ele>298.6</ele><time>2026-03-22T15:06:31.768Z</time></trkpt><trkpt lat="43.4803496" lon="11.7532886"><ele>300.4</ele><time>2026-03-22T15:06:32.769Z</time></trkpt><trkpt lat="43.4802755" lon="11.7532519"><ele>302.2</ele><time>2026-03-22T15:06:33.769Z</time></trkpt><trkpt lat="43.4801968" lon="11.7532092"><ele>304.0</ele><time>2026-03-22T15:06:34.769Z</time></trkpt><trkpt lat="43.4801229" lon="11.7531609"><ele>305.16666666666663</ele><time>2026-03-22T15:06:35.768Z</time></trkpt><trkpt lat="43.4800525" lon="11.7531224"><ele>306.3333333333333</ele><time>2026-03-22T15:06:36.768Z</time></trkpt><trkpt lat="43.4799874" lon="11.7530818"><ele>307.5</ele><time>2026-03-22T15:06:37.768Z</time></trkpt><trkpt lat="43.4799216" lon="11.7530503"><ele>308.6666666666667</ele><time>2026-03-22T15:06:38.769Z</time></trkpt><trkpt lat="43.4798493" lon="11.7530146"><ele>309.83333333333337</ele><time>2026-03-22T15:06:39.769Z</time></trkpt><trkpt lat="43.4797686" lon="11.7529872"><ele>311.0</ele><time>2026-03-22T15:06:40.768Z</time></trkpt><trkpt lat="43.47968" lon="11.7529744"><ele>312.0</ele><time>2026-03-22T15:06:41.769Z</time></trkpt><trkpt lat="43.479594" lon="11.7529539"><ele>313.0</ele><time>2026-03-22T15:06:42.768Z</time></trkpt><trkpt lat="43.4795211" lon="11.7529215"><ele>314.0</ele><time>2026-03-22T15:06:43.767Z</time></trkpt><trkpt lat="43.4794579" lon="11.7529045"><ele>315.0</ele><time>2026-03-22T15:06:44.768Z</time></trkpt><trkpt lat="43.4793291" lon="11.7529593"><ele>316.0</ele><time>2026-03-22T15:06:46.769Z</time></trkpt><trkpt lat="43.4792627" lon="11.7530089"><ele>317.0</ele><time>2026-03-22T15:06:47.768Z</time></trkpt><trkpt lat="43.479148" lon="11.7530066"><ele>317.0</ele><time>2026-03-22T15:06:49.769Z</time></trkpt><trkpt lat="43.4790895" lon="11.7528795"><ele>317.0</ele><time>2026-03-22T15:06:51.769Z</time></trkpt><trkpt lat="43.4790674" lon="11.7527925"><ele>317.0</ele><time>2026-03-22T15:06:52.769Z</time></trkpt><trkpt lat="43.4790465" lon="11.7526879"><ele>317.0</ele><time>2026-03-22T15:06:53.769Z</time></trkpt><trkpt lat="43.4790192" lon="11.7525819"><ele>317.0</ele><time>2026-03-22T15:06:54.769Z</time></trkpt><trkpt lat="43.4789877" lon="11.7524864"><ele>317.0</ele><time>2026-03-22T15:06:55.769Z</time></trkpt><trkpt lat="43.4789495" lon="11.7523915"><ele>317.1666666666667</ele><time>2026-03-22T15:06:56.769Z</time></trkpt><trkpt lat="43.4789023" lon="11.7523068"><ele>317.33333333333337</ele><time>2026-03-22T15:06:57.768Z</time></trkpt><trkpt lat="43.4788456" lon="11.7522283"><ele>317.5</ele><time>2026-03-22T15:06:58.768Z</time></trkpt><trkpt lat="43.4787885" lon="11.7521404"><ele>317.6666666666667</ele><time>2026-03-22T15:06:59.768Z</time></trkpt><trkpt lat="43.4787311" lon="11.7520475"><ele>317.8333333333333</ele><time>2026-03-22T15:07:00.768Z</time></trkpt><trkpt lat="43.4786692" lon="11.7519505"><ele>318.0</ele><time>2026-03-22T15:07:01.768Z</time></trkpt><trkpt lat="43.4786097" lon="11.7518587"><ele>318.0</ele><time>2026-03-22T15:07:02.769Z</time></trkpt><trkpt lat="43.4785516" lon="11.7517828"><ele>318.0</ele><time>2026-03-22T15:07:03.768Z</time></trkpt><trkpt lat="43.4784916" lon="11.7517088"><ele>318.0</ele><time>2026-03-22T15:07:04.769Z</time></trkpt><trkpt lat="43.4784357" lon="11.7516185"><ele>318.0</ele><time>2026-03-22T15:07:05.768Z</time></trkpt><trkpt lat="43.4783715" lon="11.7515066"><ele>318.0</ele><time>2026-03-22T15:07:06.768Z</time></trkpt><trkpt lat="43.4783048" lon="11.7514004"><ele>318.0</ele><time>2026-03-22T15:07:07.768Z</time></trkpt><trkpt lat="43.4782458" lon="11.7512953"><ele>318.0</ele><time>2026-03-22T15:07:08.769Z</time></trkpt><trkpt lat="43.4781896" lon="11.751187"><ele>318.0</ele><time>2026-03-22T15:07:09.769Z</time></trkpt><trkpt lat="43.4781302" lon="11.7510782"><ele>318.0</ele><time>2026-03-22T15:07:10.769Z</time></trkpt><trkpt lat="43.4780664" lon="11.7509861"><ele>318.0</ele><time>2026-03-22T15:07:11.769Z</time></trkpt><trkpt lat="43.4779992" lon="11.7509069"><ele>318.2</ele><time>2026-03-22T15:07:12.768Z</time></trkpt><trkpt lat="43.4779389" lon="11.7508254"><ele>318.4</ele><time>2026-03-22T15:07:13.768Z</time></trkpt><trkpt lat="43.4778906" lon="11.7507295"><ele>318.59999999999997</ele><time>2026-03-22T15:07:14.768Z</time></trkpt><trkpt lat="43.4778368" lon="11.7506267"><ele>318.8</ele><time>2026-03-22T15:07:15.769Z</time></trkpt><trkpt lat="43.477764" lon="11.7505395"><ele>319.0</ele><time>2026-03-22T15:07:16.769Z</time></trkpt><trkpt lat="43.4776885" lon="11.7504667"><ele>318.5</ele><time>2026-03-22T15:07:17.769Z</time></trkpt><trkpt lat="43.4776289" lon="11.7503989"><ele>318.0</ele><time>2026-03-22T15:07:18.769Z</time></trkpt><trkpt lat="43.4775732" lon="11.7503388"><ele>317.5</ele><time>2026-03-22T15:07:19.769Z</time></trkpt><trkpt lat="43.4775112" lon="11.7502728"><ele>317.0</ele><time>2026-03-22T15:07:20.769Z</time></trkpt><trkpt lat="43.4774468" lon="11.7501977"><ele>316.5</ele><time>2026-03-22T15:07:21.769Z</time></trkpt><trkpt lat="43.4773914" lon="11.7501206"><ele>316.0</ele><time>2026-03-22T15:07:22.769Z</time></trkpt><trkpt lat="43.4773444" lon="11.7500373"><ele>316.0</ele><time>2026-03-22T15:07:23.768Z</time></trkpt><trkpt lat="43.4773002" lon="11.7499616"><ele>316.0</ele><time>2026-03-22T15:07:24.769Z</time></trkpt><trkpt lat="43.4772176" lon="11.7498212"><ele>316.0</ele><time>2026-03-22T15:07:26.769Z</time></trkpt><trkpt lat="43.4771778" lon="11.7497259"><ele>316.0</ele><time>2026-03-22T15:07:27.767Z</time></trkpt><trkpt lat="43.4771432" lon="11.7496187"><ele>316.0</ele><time>2026-03-22T15:07:28.769Z</time></trkpt><trkpt lat="43.4771133" lon="11.7495171"><ele>316.0</ele><time>2026-03-22T15:07:29.768Z</time></trkpt><trkpt lat="43.477089" lon="11.7494314"><ele>313.40000000000003</ele><time>2026-03-22T15:07:30.768Z</time></trkpt><trkpt lat="43.4770836" lon="11.7492455"><ele>310.8</ele><time>2026-03-22T15:07:32.769Z</time></trkpt><trkpt lat="43.4770919" lon="11.7491118"><ele>308.20000000000005</ele><time>2026-03-22T15:07:33.768Z</time></trkpt><trkpt lat="43.4770948" lon="11.7489743"><ele>305.6</ele><time>2026-03-22T15:07:34.769Z</time></trkpt><trkpt lat="43.4770911" lon="11.7488391"><ele>303.0</ele><time>2026-03-22T15:07:35.769Z</time></trkpt><trkpt lat="43.4770898" lon="11.7487192"><ele>303.0</ele><time>2026-03-22T15:07:36.769Z</time></trkpt><trkpt lat="43.4770905" lon="11.7486145"><ele>303.0</ele><time>2026-03-22T15:07:37.768Z</time></trkpt><trkpt lat="43.4770862" lon="11.7485151"><ele>303.0</ele><time>2026-03-22T15:07:38.769Z</time></trkpt><trkpt lat="43.4770632" lon="11.7484189"><ele>303.0</ele><time>2026-03-22T15:07:39.768Z</time></trkpt><trkpt lat="43.4770107" lon="11.7483305"><ele>303.0</ele><time>2026-03-22T15:07:40.769Z</time></trkpt><trkpt lat="43.4769448" lon="11.7482392"><ele>303.0</ele><time>2026-03-22T15:07:41.768Z</time></trkpt><trkpt lat="43.4768879" lon="11.748152"><ele>304.2</ele><time>2026-03-22T15:07:42.767Z</time></trkpt><trkpt lat="43.4768455" lon="11.7480758"><ele>305.4</ele><time>2026-03-22T15:07:43.769Z</time></trkpt><trkpt lat="43.4768091" lon="11.7479034"><ele>306.59999999999997</ele><time>2026-03-22T15:07:45.769Z</time></trkpt><trkpt lat="43.4768102" lon="11.7477806"><ele>307.8</ele><time>2026-03-22T15:07:46.769Z</time></trkpt><trkpt lat="43.4768226" lon="11.7476568"><ele>309.0</ele><time>2026-03-22T15:07:47.769Z</time></trkpt><trkpt lat="43.4768366" lon="11.74755"><ele>310.5</ele><time>2026-03-22T15:07:48.768Z</time></trkpt><trkpt lat="43.4768331" lon="11.7474524"><ele>312.0</ele><time>2026-03-22T15:07:49.768Z</time></trkpt><trkpt lat="43.4768098" lon="11.7473563"><ele>313.5</ele><time>2026-03-22T15:07:50.768Z</time></trkpt><trkpt lat="43.4767742" lon="11.7472756"><ele>315.0</ele><time>2026-03-22T15:07:51.768Z</time></trkpt><trkpt lat="43.4767241" lon="11.7472032"><ele>316.5</ele><time>2026-03-22T15:07:52.769Z</time></trkpt><trkpt lat="43.476664" lon="11.7470702"><ele>318.0</ele><time>2026-03-22T15:07:54.768Z</time></trkpt><trkpt lat="43.4766808" lon="11.7469191"><ele>318.0</ele><time>2026-03-22T15:07:56.768Z</time></trkpt><trkpt lat="43.4766795" lon="11.7467754"><ele>318.0</ele><time>2026-03-22T15:07:58.768Z</time></trkpt><trkpt lat="43.476738" lon="11.7466471"><ele>318.0</ele><time>2026-03-22T15:08:00.768Z</time></trkpt><trkpt lat="43.4768233" lon="11.7465611"><ele>318.0</ele><time>2026-03-22T15:08:02.769Z</time></trkpt><trkpt lat="43.4768977" lon="11.7464763"><ele>318.0</ele><time>2026-03-22T15:08:04.768Z</time></trkpt><trkpt lat="43.4769938" lon="11.7464144"><ele>318.0</ele><time>2026-03-22T15:08:06.769Z</time></trkpt><trkpt lat="43.4770639" lon="11.7464129"><ele>318.0</ele><time>2026-03-22T15:08:07.769Z</time></trkpt><trkpt lat="43.4771368" lon="11.7464465"><ele>318.0</ele><time>2026-03-22T15:08:08.769Z</time></trkpt><trkpt lat="43.4772054" lon="11.7464975"><ele>318.0</ele><time>2026-03-22T15:08:09.769Z</time></trkpt><trkpt lat="43.4772769" lon="11.746534"><ele>318.0</ele><time>2026-03-22T15:08:10.769Z</time></trkpt><trkpt lat="43.4773518" lon="11.7465395"><ele>318.0</ele><time>2026-03-22T15:08:11.769Z</time></trkpt><trkpt lat="43.4774235" lon="11.7465093"><ele>318.2</ele><time>2026-03-22T15:08:12.768Z</time></trkpt><trkpt lat="43.4774941" lon="11.7464614"><ele>318.4</ele><time>2026-03-22T15:08:13.768Z</time></trkpt><trkpt lat="43.4775665" lon="11.7464084"><ele>318.59999999999997</ele><time>2026-03-22T15:08:14.768Z</time></trkpt><trkpt lat="43.4776337" lon="11.7463655"><ele>318.8</ele><time>2026-03-22T15:08:15.767Z</time></trkpt><trkpt lat="43.4777419" lon="11.7463031"><ele>319.0</ele><time>2026-03-22T15:08:17.768Z</time></trkpt><trkpt lat="43.4778719" lon="11.7462809"><ele>319.2857142857143</ele><time>2026-03-22T15:08:19.769Z</time></trkpt><trkpt lat="43.4779393" lon="11.7462683"><ele>319.57142857142856</ele><time>2026-03-22T15:08:20.768Z</time></trkpt><trkpt lat="43.4780064" lon="11.7462254"><ele>319.85714285714283</ele><time>2026-03-22T15:08:21.768Z</time></trkpt><trkpt lat="43.4780725" lon="11.7461579"><ele>320.1428571428571</ele><time>2026-03-22T15:08:22.769Z</time></trkpt><trkpt lat="43.4781291" lon="11.7460889"><ele>320.42857142857144</ele><time>2026-03-22T15:08:23.768Z</time></trkpt><trkpt lat="43.4781896" lon="11.7460469"><ele>320.71428571428567</ele><time>2026-03-22T15:08:24.768Z</time></trkpt><trkpt lat="43.4782643" lon="11.7460388"><ele>321.0</ele><time>2026-03-22T15:08:25.768Z</time></trkpt><trkpt lat="43.4783457" lon="11.7460604"><ele>321.0</ele><time>2026-03-22T15:08:26.769Z</time></trkpt><trkpt lat="43.4784362" lon="11.746091"><ele>321.0</ele><time>2026-03-22T15:08:27.768Z</time></trkpt><trkpt lat="43.4785283" lon="11.7460998"><ele>321.0</ele><time>2026-03-22T15:08:28.769Z</time></trkpt><trkpt lat="43.4786118" lon="11.7460941"><ele>321.0</ele><time>2026-03-22T15:08:29.768Z</time></trkpt><trkpt lat="43.4786879" lon="11.746085"><ele>321.0</ele><time>2026-03-22T15:08:30.768Z</time></trkpt><trkpt lat="43.4787677" lon="11.7460831"><ele>321.0</ele><time>2026-03-22T15:08:31.768Z</time></trkpt><trkpt lat="43.4788567" lon="11.7460953"><ele>319.6666666666667</ele><time>2026-03-22T15:08:32.768Z</time></trkpt><trkpt lat="43.4789516" lon="11.7461193"><ele>318.3333333333333</ele><time>2026-03-22T15:08:33.767Z</time></trkpt><trkpt lat="43.479042" lon="11.7461447"><ele>317.0</ele><time>2026-03-22T15:08:34.768Z</time></trkpt><trkpt lat="43.479119" lon="11.7461669"><ele>315.66666666666663</ele><time>2026-03-22T15:08:35.768Z</time></trkpt><trkpt lat="43.4791893" lon="11.7461893"><ele>314.3333333333333</ele><time>2026-03-22T15:08:36.768Z</time></trkpt><trkpt lat="43.4792635" lon="11.746227"><ele>313.0</ele><time>2026-03-22T15:08:37.769Z</time></trkpt><trkpt lat="43.4793373" lon="11.7462793"><ele>313.0</ele><time>2026-03-22T15:08:38.769Z</time></trkpt><trkpt lat="43.4794057" lon="11.7463194"><ele>313.0</ele><time>2026-03-22T15:08:39.769Z</time></trkpt><trkpt lat="43.479472" lon="11.7463228"><ele>313.0</ele><time>2026-03-22T15:08:40.768Z</time></trkpt><trkpt lat="43.4795452" lon="11.7462889"><ele>313.0</ele><time>2026-03-22T15:08:41.767Z</time></trkpt><trkpt lat="43.4796249" lon="11.7462239"><ele>313.0</ele><time>2026-03-22T15:08:42.769Z</time></trkpt><trkpt lat="43.4796939" lon="11.7461583"><ele>313.0</ele><time>2026-03-22T15:08:43.768Z</time></trkpt><trkpt lat="43.479757" lon="11.7460918"><ele>310.8333333333333</ele><time>2026-03-22T15:08:44.768Z</time></trkpt><trkpt lat="43.4798254" lon="11.746004"><ele>308.66666666666663</ele><time>2026-03-22T15:08:45.769Z</time></trkpt><trkpt lat="43.4798896" lon="11.7459348"><ele>306.5</ele><time>2026-03-22T15:08:46.769Z</time></trkpt><trkpt lat="43.4799631" lon="11.7458675"><ele>304.3333333333333</ele><time>2026-03-22T15:08:47.769Z</time></trkpt><trkpt lat="43.4800406" lon="11.7458044"><ele>302.1666666666667</ele><time>2026-03-22T15:08:48.769Z</time></trkpt><trkpt lat="43.480108" lon="11.7457457"><ele>300.0</ele><time>2026-03-22T15:08:49.768Z</time></trkpt><trkpt lat="43.480161" lon="11.7456953"><ele>300.0</ele><time>2026-03-22T15:08:50.769Z</time></trkpt><trkpt lat="43.4802371" lon="11.7455997"><ele>300.0</ele><time>2026-03-22T15:08:52.768Z</time></trkpt><trkpt lat="43.4803063" lon="11.7454756"><ele>300.0</ele><time>2026-03-22T15:08:54.768Z</time></trkpt><trkpt lat="43.4803453" lon="11.7453894"><ele>300.0</ele><time>2026-03-22T15:08:55.768Z</time></trkpt><trkpt lat="43.4803784" lon="11.7452996"><ele>300.0</ele><time>2026-03-22T15:08:56.768Z</time></trkpt><trkpt lat="43.4804161" lon="11.7452096"><ele>300.0</ele><time>2026-03-22T15:08:57.768Z</time></trkpt><trkpt lat="43.4804517" lon="11.7451187"><ele>297.85714285714283</ele><time>2026-03-22T15:08:58.769Z</time></trkpt><trkpt lat="43.4804894" lon="11.7450368"><ele>295.7142857142857</ele><time>2026-03-22T15:08:59.769Z</time></trkpt><trkpt lat="43.4805435" lon="11.744975"><ele>293.57142857142856</ele><time>2026-03-22T15:09:00.768Z</time></trkpt><trkpt lat="43.4806042" lon="11.7449345"><ele>291.42857142857144</ele><time>2026-03-22T15:09:01.768Z</time></trkpt><trkpt lat="43.4806691" lon="11.7449312"><ele>289.2857142857143</ele><time>2026-03-22T15:09:02.768Z</time></trkpt><trkpt lat="43.4807422" lon="11.7449532"><ele>287.1428571428571</ele><time>2026-03-22T15:09:03.769Z</time></trkpt><trkpt lat="43.4808135" lon="11.744982"><ele>285.0</ele><time>2026-03-22T15:09:04.769Z</time></trkpt><trkpt lat="43.480897" lon="11.7450248"><ele>285.0</ele><time>2026-03-22T15:09:05.768Z</time></trkpt><trkpt lat="43.4809819" lon="11.745069"><ele>285.0</ele><time>2026-03-22T15:09:06.769Z</time></trkpt><trkpt lat="43.4810647" lon="11.7451092"><ele>285.0</ele><time>2026-03-22T15:09:07.769Z</time></trkpt><trkpt lat="43.4811468" lon="11.7451467"><ele>285.0</ele><time>2026-03-22T15:09:08.768Z</time></trkpt><trkpt lat="43.4812282" lon="11.7451819"><ele>285.0</ele><time>2026-03-22T15:09:09.769Z</time></trkpt><trkpt lat="43.4813111" lon="11.7452033"><ele>285.0</ele><time>2026-03-22T15:09:10.769Z</time></trkpt><trkpt lat="43.4813981" lon="11.7452082"><ele>282.2</ele><time>2026-03-22T15:09:11.767Z</time></trkpt><trkpt lat="43.4814929" lon="11.7451971"><ele>279.4</ele><time>2026-03-22T15:09:12.769Z</time></trkpt><trkpt lat="43.481592" lon="11.7451759"><ele>276.6</ele><time>2026-03-22T15:09:13.769Z</time></trkpt><trkpt lat="43.4816862" lon="11.7451602"><ele>273.8</ele><time>2026-03-22T15:09:14.769Z</time></trkpt><trkpt lat="43.481781" lon="11.7451421"><ele>271.0</ele><time>2026-03-22T15:09:15.768Z</time></trkpt><trkpt lat="43.4818681" lon="11.7451246"><ele>271.0</ele><time>2026-03-22T15:09:16.769Z</time></trkpt><trkpt lat="43.4819589" lon="11.7451112"><ele>271.0</ele><time>2026-03-22T15:09:17.768Z</time></trkpt><trkpt lat="43.4820642" lon="11.7450951"><ele>271.0</ele><time>2026-03-22T15:09:18.769Z</time></trkpt><trkpt lat="43.4821599" lon="11.7450782"><ele>271.0</ele><time>2026-03-22T15:09:19.768Z</time></trkpt><trkpt lat="43.4822447" lon="11.7450648"><ele>271.0</ele><time>2026-03-22T15:09:20.769Z</time></trkpt><trkpt lat="43.4823248" lon="11.7450529"><ele>270.5</ele><time>2026-03-22T15:09:21.768Z</time></trkpt><trkpt lat="43.4823989" lon="11.7450398"><ele>270.0</ele><time>2026-03-22T15:09:22.768Z</time></trkpt><trkpt lat="43.4824757" lon="11.7450225"><ele>269.5</ele><time>2026-03-22T15:09:23.768Z</time></trkpt><trkpt lat="43.4825482" lon="11.74501"><ele>269.0</ele><time>2026-03-22T15:09:24.768Z</time></trkpt><trkpt lat="43.4826403" lon="11.7450067"><ele>268.5</ele><time>2026-03-22T15:09:26.769Z</time></trkpt><trkpt lat="43.4826989" lon="11.7449668"><ele>268.0</ele><time>2026-03-22T15:10:29.769Z</time></trkpt><trkpt lat="43.48267" lon="11.744835"><ele>268.0</ele><time>2026-03-22T15:10:31.769Z</time></trkpt><trkpt lat="43.482609" lon="11.7447482"><ele>268.0</ele><time>2026-03-22T15:10:32.768Z</time></trkpt><trkpt lat="43.4825368" lon="11.7446442"><ele>268.0</ele><time>2026-03-22T15:10:33.769Z</time></trkpt><trkpt lat="43.482465" lon="11.7445353"><ele>268.0</ele><time>2026-03-22T15:10:34.768Z</time></trkpt><trkpt lat="43.4823667" lon="11.7443924"><ele>268.0</ele><time>2026-03-22T15:10:35.768Z</time></trkpt><trkpt lat="43.4822723" lon="11.7442545"><ele>267.25</ele><time>2026-03-22T15:10:36.769Z</time></trkpt><trkpt lat="43.482186" lon="11.7441197"><ele>266.5</ele><time>2026-03-22T15:10:37.769Z</time></trkpt><trkpt lat="43.4820924" lon="11.7439792"><ele>265.75</ele><time>2026-03-22T15:10:38.769Z</time></trkpt><trkpt lat="43.4819957" lon="11.7438321"><ele>265.0</ele><time>2026-03-22T15:10:39.769Z</time></trkpt><trkpt lat="43.481895" lon="11.7436838"><ele>265.75</ele><time>2026-03-22T15:10:40.768Z</time></trkpt><trkpt lat="43.4817908" lon="11.7435307"><ele>266.5</ele><time>2026-03-22T15:10:41.768Z</time></trkpt><trkpt lat="43.4816905" lon="11.7433804"><ele>267.25</ele><time>2026-03-22T15:10:42.768Z</time></trkpt><trkpt lat="43.4815938" lon="11.7432295"><ele>268.0</ele><time>2026-03-22T15:10:43.768Z</time></trkpt><trkpt lat="43.4814997" lon="11.7430796"><ele>268.0</ele><time>2026-03-22T15:10:44.768Z</time></trkpt><trkpt lat="43.4813986" lon="11.7429269"><ele>268.0</ele><time>2026-03-22T15:10:45.768Z</time></trkpt><trkpt lat="43.4813" lon="11.7427682"><ele>268.0</ele><time>2026-03-22T15:10:46.768Z</time></trkpt><trkpt lat="43.4812151" lon="11.7426107"><ele>268.0</ele><time>2026-03-22T15:10:47.768Z</time></trkpt><trkpt lat="43.4811327" lon="11.7424437"><ele>268.0</ele><time>2026-03-22T15:10:48.769Z</time></trkpt><trkpt lat="43.4810552" lon="11.742259"><ele>268.0</ele><time>2026-03-22T15:10:49.768Z</time></trkpt><trkpt lat="43.4809815" lon="11.7420615"><ele>268.0</ele><time>2026-03-22T15:10:50.769Z</time></trkpt><trkpt lat="43.480909" lon="11.7418538"><ele>266.66666666666663</ele><time>2026-03-22T15:10:51.768Z</time></trkpt><trkpt lat="43.4808418" lon="11.74164"><ele>265.3333333333333</ele><time>2026-03-22T15:10:52.769Z</time></trkpt><trkpt lat="43.4807849" lon="11.7414099"><ele>264.0</ele><time>2026-03-22T15:10:53.768Z</time></trkpt><trkpt lat="43.4807348" lon="11.7411737"><ele>263.3333333333333</ele><time>2026-03-22T15:10:54.768Z</time></trkpt><trkpt lat="43.4806907" lon="11.7409293"><ele>262.66666666666663</ele><time>2026-03-22T15:10:55.769Z</time></trkpt><trkpt lat="43.4806514" lon="11.7406824"><ele>262.0</ele><time>2026-03-22T15:10:56.769Z</time></trkpt><trkpt lat="43.480616" lon="11.740444"><ele>262.0</ele><time>2026-03-22T15:10:57.769Z</time></trkpt><trkpt lat="43.4805844" lon="11.7402202"><ele>262.0</ele><time>2026-03-22T15:10:58.768Z</time></trkpt><trkpt lat="43.4805555" lon="11.7399957"><ele>262.0</ele><time>2026-03-22T15:10:59.768Z</time></trkpt><trkpt lat="43.4805268" lon="11.7397743"><ele>259.66666666666663</ele><time>2026-03-22T15:11:00.769Z</time></trkpt><trkpt lat="43.4804978" lon="11.739556"><ele>257.3333333333333</ele><time>2026-03-22T15:11:01.768Z</time></trkpt><trkpt lat="43.4804671" lon="11.7393349"><ele>255.0</ele><time>2026-03-22T15:11:02.769Z</time></trkpt><trkpt lat="43.4804364" lon="11.7391133"><ele>256.3333333333333</ele><time>2026-03-22T15:11:03.769Z</time></trkpt><trkpt lat="43.4804115" lon="11.7388932"><ele>257.66666666666663</ele><time>2026-03-22T15:11:04.768Z</time></trkpt><trkpt lat="43.4803818" lon="11.7386671"><ele>259.0</ele><time>2026-03-22T15:11:05.769Z</time></trkpt><trkpt lat="43.480346" lon="11.7384367"><ele>259.0</ele><time>2026-03-22T15:11:06.768Z</time></trkpt><trkpt lat="43.4803073" lon="11.7382037"><ele>259.0</ele><time>2026-03-22T15:11:07.768Z</time></trkpt><trkpt lat="43.4802714" lon="11.7379698"><ele>259.0</ele><time>2026-03-22T15:11:08.769Z</time></trkpt><trkpt lat="43.4802404" lon="11.7377302"><ele>260.66666666666663</ele><time>2026-03-22T15:11:09.768Z</time></trkpt><trkpt lat="43.4802133" lon="11.7374878"><ele>262.3333333333333</ele><time>2026-03-22T15:11:10.768Z</time></trkpt><trkpt lat="43.4801926" lon="11.7372459"><ele>264.0</ele><time>2026-03-22T15:11:11.769Z</time></trkpt><trkpt lat="43.4801832" lon="11.7369991"><ele>263.6666666666667</ele><time>2026-03-22T15:11:12.769Z</time></trkpt><trkpt lat="43.4801925" lon="11.7367515"><ele>263.33333333333337</ele><time>2026-03-22T15:11:13.769Z</time></trkpt><trkpt lat="43.4802186" lon="11.7364888"><ele>263.0</ele><time>2026-03-22T15:11:14.769Z</time></trkpt><trkpt lat="43.4802556" lon="11.7362275"><ele>262.33333333333337</ele><time>2026-03-22T15:11:15.769Z</time></trkpt><trkpt lat="43.4803035" lon="11.7359935"><ele>261.6666666666667</ele><time>2026-03-22T15:11:16.768Z</time></trkpt><trkpt lat="43.4803549" lon="11.7357592"><ele>261.0</ele><time>2026-03-22T15:11:17.769Z</time></trkpt><trkpt lat="43.480406" lon="11.7355077"><ele>261.3333333333333</ele><time>2026-03-22T15:11:18.769Z</time></trkpt><trkpt lat="43.4804548" lon="11.7352756"><ele>261.66666666666663</ele><time>2026-03-22T15:11:19.768Z</time></trkpt><trkpt lat="43.4805032" lon="11.7350583"><ele>262.0</ele><time>2026-03-22T15:11:20.769Z</time></trkpt><trkpt lat="43.4805467" lon="11.7348509"><ele>262.0</ele><time>2026-03-22T15:11:21.768Z</time></trkpt><trkpt lat="43.4805898" lon="11.7346532"><ele>262.0</ele><time>2026-03-22T15:11:22.768Z</time></trkpt><trkpt lat="43.4806353" lon="11.7344591"><ele>262.0</ele><time>2026-03-22T15:11:23.768Z</time></trkpt><trkpt lat="43.4806793" lon="11.7342605"><ele>262.0</ele><time>2026-03-22T15:11:24.768Z</time></trkpt><trkpt lat="43.4807223" lon="11.7340576"><ele>263.3333333333333</ele><time>2026-03-22T15:11:25.768Z</time></trkpt><trkpt lat="43.480769" lon="11.7338519"><ele>264.6666666666667</ele><time>2026-03-22T15:11:26.769Z</time></trkpt><trkpt lat="43.4808149" lon="11.7336392"><ele>266.0</ele><time>2026-03-22T15:11:27.768Z</time></trkpt><trkpt lat="43.4808616" lon="11.7334258"><ele>266.6666666666667</ele><time>2026-03-22T15:11:28.767Z</time></trkpt><trkpt lat="43.4809102" lon="11.7332087"><ele>267.3333333333333</ele><time>2026-03-22T15:11:29.768Z</time></trkpt><trkpt lat="43.4809607" lon="11.732991"><ele>268.0</ele><time>2026-03-22T15:11:30.769Z</time></trkpt><trkpt lat="43.4810073" lon="11.7327693"><ele>267.0</ele><time>2026-03-22T15:11:31.769Z</time></trkpt><trkpt lat="43.4810524" lon="11.7325436"><ele>266.0</ele><time>2026-03-22T15:11:32.768Z</time></trkpt><trkpt lat="43.4811016" lon="11.7323184"><ele>265.0</ele><time>2026-03-22T15:11:33.769Z</time></trkpt><trkpt lat="43.4811483" lon="11.7320908"><ele>265.0</ele><time>2026-03-22T15:11:34.768Z</time></trkpt><trkpt lat="43.4811922" lon="11.7318655"><ele>265.0</ele><time>2026-03-22T15:11:35.768Z</time></trkpt><trkpt lat="43.4812242" lon="11.7316335"><ele>265.0</ele><time>2026-03-22T15:11:36.769Z</time></trkpt><trkpt lat="43.4812408" lon="11.7314036"><ele>265.0</ele><time>2026-03-22T15:11:37.768Z</time></trkpt><trkpt lat="43.4812446" lon="11.7311681"><ele>265.0</ele><time>2026-03-22T15:11:38.768Z</time></trkpt><trkpt lat="43.4812388" lon="11.7309208"><ele>265.0</ele><time>2026-03-22T15:11:39.769Z</time></trkpt><trkpt lat="43.4812243" lon="11.7306722"><ele>267.66666666666663</ele><time>2026-03-22T15:11:40.769Z</time></trkpt><trkpt lat="43.481204" lon="11.7304182"><ele>270.3333333333333</ele><time>2026-03-22T15:11:41.769Z</time></trkpt><trkpt lat="43.4811837" lon="11.7301653"><ele>273.0</ele><time>2026-03-22T15:11:42.769Z</time></trkpt><trkpt lat="43.4811644" lon="11.7299134"><ele>273.3333333333333</ele><time>2026-03-22T15:11:43.768Z</time></trkpt><trkpt lat="43.4811461" lon="11.7296554"><ele>273.66666666666663</ele><time>2026-03-22T15:11:44.769Z</time></trkpt><trkpt lat="43.4811229" lon="11.7293944"><ele>274.0</ele><time>2026-03-22T15:11:45.768Z</time></trkpt><trkpt lat="43.4811015" lon="11.7291462"><ele>272.3333333333333</ele><time>2026-03-22T15:11:46.768Z</time></trkpt><trkpt lat="43.4810832" lon="11.728907"><ele>270.6666666666667</ele><time>2026-03-22T15:11:47.768Z</time></trkpt><trkpt lat="43.4810644" lon="11.728675"><ele>269.0</ele><time>2026-03-22T15:11:48.769Z</time></trkpt><trkpt lat="43.4810489" lon="11.7284396"><ele>268.6666666666667</ele><time>2026-03-22T15:11:49.768Z</time></trkpt><trkpt lat="43.4810315" lon="11.7281989"><ele>268.3333333333333</ele><time>2026-03-22T15:11:50.768Z</time></trkpt><trkpt lat="43.481012" lon="11.7279557"><ele>268.0</ele><time>2026-03-22T15:11:51.769Z</time></trkpt><trkpt lat="43.4809904" lon="11.7277113"><ele>268.0</ele><time>2026-03-22T15:11:52.769Z</time></trkpt><trkpt lat="43.4809729" lon="11.7274571"><ele>268.0</ele><time>2026-03-22T15:11:53.769Z</time></trkpt><trkpt lat="43.4809433" lon="11.7272024"><ele>268.0</ele><time>2026-03-22T15:11:54.768Z</time></trkpt><trkpt lat="43.4809242" lon="11.7269524"><ele>266.66666666666663</ele><time>2026-03-22T15:11:55.769Z</time></trkpt><trkpt lat="43.4809017" lon="11.7267054"><ele>265.3333333333333</ele><time>2026-03-22T15:11:56.768Z</time></trkpt><trkpt lat="43.4808891" lon="11.7264621"><ele>264.0</ele><time>2026-03-22T15:11:57.767Z</time></trkpt><trkpt lat="43.4808826" lon="11.7262265"><ele>263.0</ele><time>2026-03-22T15:11:58.768Z</time></trkpt><trkpt lat="43.480875" lon="11.7259934"><ele>262.0</ele><time>2026-03-22T15:11:59.769Z</time></trkpt><trkpt lat="43.4808704" lon="11.725763"><ele>261.0</ele><time>2026-03-22T15:12:00.768Z</time></trkpt><trkpt lat="43.4808643" lon="11.7255275"><ele>261.0</ele><time>2026-03-22T15:12:01.769Z</time></trkpt><trkpt lat="43.4808574" lon="11.7252892"><ele>261.0</ele><time>2026-03-22T15:12:02.768Z</time></trkpt><trkpt lat="43.480852" lon="11.7250525"><ele>261.0</ele><time>2026-03-22T15:12:03.769Z</time></trkpt><trkpt lat="43.4808449" lon="11.7248155"><ele>259.6666666666667</ele><time>2026-03-22T15:12:04.768Z</time></trkpt><trkpt lat="43.4808409" lon="11.7245914"><ele>258.33333333333337</ele><time>2026-03-22T15:12:05.768Z</time></trkpt><trkpt lat="43.48084" lon="11.724374"><ele>257.0</ele><time>2026-03-22T15:12:06.767Z</time></trkpt><trkpt lat="43.4808641" lon="11.7241784"><ele>257.0</ele><time>2026-03-22T15:12:07.768Z</time></trkpt><trkpt lat="43.4809017" lon="11.7239848"><ele>257.0</ele><time>2026-03-22T15:12:08.768Z</time></trkpt><trkpt lat="43.4809432" lon="11.7237915"><ele>257.0</ele><time>2026-03-22T15:12:09.768Z</time></trkpt><trkpt lat="43.4809764" lon="11.7235937"><ele>257.0</ele><time>2026-03-22T15:12:10.768Z</time></trkpt><trkpt lat="43.4809881" lon="11.7233903"><ele>257.75</ele><time>2026-03-22T15:12:11.768Z</time></trkpt><trkpt lat="43.4809805" lon="11.7231881"><ele>258.5</ele><time>2026-03-22T15:12:12.769Z</time></trkpt><trkpt lat="43.4809679" lon="11.7229837"><ele>259.25</ele><time>2026-03-22T15:12:13.769Z</time></trkpt><trkpt lat="43.4809553" lon="11.72278"><ele>260.0</ele><time>2026-03-22T15:12:14.768Z</time></trkpt><trkpt lat="43.4809376" lon="11.7225761"><ele>261.33333333333337</ele><time>2026-03-22T15:12:15.768Z</time></trkpt><trkpt lat="43.4809173" lon="11.7223636"><ele>262.6666666666667</ele><time>2026-03-22T15:12:16.769Z</time></trkpt><trkpt lat="43.4808983" lon="11.7221381"><ele>264.0</ele><time>2026-03-22T15:12:17.769Z</time></trkpt><trkpt lat="43.4808839" lon="11.7219245"><ele>264.0</ele><time>2026-03-22T15:12:18.769Z</time></trkpt><trkpt lat="43.4808675" lon="11.7217175"><ele>264.0</ele><time>2026-03-22T15:12:19.769Z</time></trkpt><trkpt lat="43.4808528" lon="11.7215176"><ele>264.0</ele><time>2026-03-22T15:12:20.768Z</time></trkpt><trkpt lat="43.4808378" lon="11.7213264"><ele>264.0</ele><time>2026-03-22T15:12:21.769Z</time></trkpt><trkpt lat="43.4808312" lon="11.7211441"><ele>263.25</ele><time>2026-03-22T15:12:22.769Z</time></trkpt><trkpt lat="43.4808399" lon="11.7209714"><ele>262.5</ele><time>2026-03-22T15:12:23.768Z</time></trkpt><trkpt lat="43.4808637" lon="11.7208062"><ele>261.75</ele><time>2026-03-22T15:12:24.768Z</time></trkpt><trkpt lat="43.4809125" lon="11.7206619"><ele>261.0</ele><time>2026-03-22T15:12:25.769Z</time></trkpt><trkpt lat="43.4809842" lon="11.7205477"><ele>261.0</ele><time>2026-03-22T15:12:26.769Z</time></trkpt><trkpt lat="43.4810757" lon="11.7204607"><ele>261.0</ele><time>2026-03-22T15:12:27.768Z</time></trkpt><trkpt lat="43.4811898" lon="11.7203974"><ele>261.0</ele><time>2026-03-22T15:12:28.768Z</time></trkpt><trkpt lat="43.4813144" lon="11.720351"><ele>261.0</ele><time>2026-03-22T15:12:29.769Z</time></trkpt><trkpt lat="43.481453" lon="11.7202975"><ele>260.25</ele><time>2026-03-22T15:12:30.768Z</time></trkpt><trkpt lat="43.4815884" lon="11.7202351"><ele>259.5</ele><time>2026-03-22T15:12:31.768Z</time></trkpt><trkpt lat="43.4817254" lon="11.7201802"><ele>258.75</ele><time>2026-03-22T15:12:32.769Z</time></trkpt><trkpt lat="43.4818616" lon="11.7201209"><ele>258.0</ele><time>2026-03-22T15:12:33.769Z</time></trkpt><trkpt lat="43.4819949" lon="11.7200515"><ele>258.5</ele><time>2026-03-22T15:12:34.769Z</time></trkpt><trkpt lat="43.4821223" lon="11.7199658"><ele>259.0</ele><time>2026-03-22T15:12:35.768Z</time></trkpt><trkpt lat="43.4822487" lon="11.7198699"><ele>259.5</ele><time>2026-03-22T15:12:36.768Z</time></trkpt><trkpt lat="43.4823754" lon="11.7197686"><ele>260.0</ele><time>2026-03-22T15:12:37.769Z</time></trkpt><trkpt lat="43.4825036" lon="11.7196687"><ele>260.0</ele><time>2026-03-22T15:12:38.769Z</time></trkpt><trkpt lat="43.4826339" lon="11.7195728"><ele>260.0</ele><time>2026-03-22T15:12:39.768Z</time></trkpt><trkpt lat="43.4827682" lon="11.7194781"><ele>260.0</ele><time>2026-03-22T15:12:40.769Z</time></trkpt><trkpt lat="43.4829023" lon="11.7193775"><ele>259.5</ele><time>2026-03-22T15:12:41.768Z</time></trkpt><trkpt lat="43.4830351" lon="11.7192705"><ele>259.0</ele><time>2026-03-22T15:12:42.768Z</time></trkpt><trkpt lat="43.4831569" lon="11.7191585"><ele>258.5</ele><time>2026-03-22T15:12:43.768Z</time></trkpt><trkpt lat="43.4832706" lon="11.7190391"><ele>258.0</ele><time>2026-03-22T15:12:44.769Z</time></trkpt><trkpt lat="43.4833827" lon="11.7189144"><ele>258.0</ele><time>2026-03-22T15:12:45.768Z</time></trkpt><trkpt lat="43.4834879" lon="11.7187893"><ele>258.0</ele><time>2026-03-22T15:12:46.769Z</time></trkpt><trkpt lat="43.4835835" lon="11.7186749"><ele>258.0</ele><time>2026-03-22T15:12:47.769Z</time></trkpt><trkpt lat="43.4836759" lon="11.7185769"><ele>258.0</ele><time>2026-03-22T15:12:48.769Z</time></trkpt><trkpt lat="43.4837737" lon="11.7185094"><ele>258.25</ele><time>2026-03-22T15:12:49.769Z</time></trkpt><trkpt lat="43.4838769" lon="11.7184634"><ele>258.5</ele><time>2026-03-22T15:12:50.768Z</time></trkpt><trkpt lat="43.4839901" lon="11.7184546"><ele>258.75</ele><time>2026-03-22T15:12:51.768Z</time></trkpt><trkpt lat="43.4841204" lon="11.7184616"><ele>259.0</ele><time>2026-03-22T15:12:52.769Z</time></trkpt><trkpt lat="43.4842561" lon="11.7184632"><ele>259.0</ele><time>2026-03-22T15:12:53.768Z</time></trkpt><trkpt lat="43.4843841" lon="11.7184588"><ele>259.0</ele><time>2026-03-22T15:12:54.769Z</time></trkpt><trkpt lat="43.4845082" lon="11.7184343"><ele>259.0</ele><time>2026-03-22T15:12:55.768Z</time></trkpt><trkpt lat="43.4846276" lon="11.7183823"><ele>259.0</ele><time>2026-03-22T15:12:56.768Z</time></trkpt><trkpt lat="43.4847569" lon="11.7183073"><ele>258.3333333333333</ele><time>2026-03-22T15:12:57.768Z</time></trkpt><trkpt lat="43.4849063" lon="11.7182098"><ele>257.6666666666667</ele><time>2026-03-22T15:12:58.768Z</time></trkpt><trkpt lat="43.4850524" lon="11.7181142"><ele>257.0</ele><time>2026-03-22T15:12:59.769Z</time></trkpt><trkpt lat="43.4851952" lon="11.7180221"><ele>257.0</ele><time>2026-03-22T15:13:00.768Z</time></trkpt><trkpt lat="43.4853321" lon="11.7179295"><ele>257.0</ele><time>2026-03-22T15:13:01.768Z</time></trkpt><trkpt lat="43.4854683" lon="11.7178426"><ele>257.0</ele><time>2026-03-22T15:13:02.768Z</time></trkpt><trkpt lat="43.4856066" lon="11.717759"><ele>257.0</ele><time>2026-03-22T15:13:03.769Z</time></trkpt><trkpt lat="43.4857472" lon="11.7176645"><ele>257.0</ele><time>2026-03-22T15:13:04.768Z</time></trkpt><trkpt lat="43.4858801" lon="11.7175573"><ele>257.0</ele><time>2026-03-22T15:13:05.769Z</time></trkpt><trkpt lat="43.4860013" lon="11.7174441"><ele>257.0</ele><time>2026-03-22T15:13:06.769Z</time></trkpt><trkpt lat="43.4861137" lon="11.7173192"><ele>257.0</ele><time>2026-03-22T15:13:07.768Z</time></trkpt><trkpt lat="43.4862278" lon="11.7171955"><ele>257.0</ele><time>2026-03-22T15:13:08.769Z</time></trkpt><trkpt lat="43.4863405" lon="11.7170786"><ele>257.0</ele><time>2026-03-22T15:13:09.768Z</time></trkpt><trkpt lat="43.4864562" lon="11.7169762"><ele>255.25</ele><time>2026-03-22T15:13:10.768Z</time></trkpt><trkpt lat="43.4865823" lon="11.7169003"><ele>253.5</ele><time>2026-03-22T15:13:11.769Z</time></trkpt><trkpt lat="43.4867196" lon="11.7168533"><ele>251.75</ele><time>2026-03-22T15:13:12.769Z</time></trkpt><trkpt lat="43.4868603" lon="11.7168335"><ele>250.0</ele><time>2026-03-22T15:13:13.768Z</time></trkpt><trkpt lat="43.4870123" lon="11.7168229"><ele>249.66666666666666</ele><time>2026-03-22T15:13:14.769Z</time></trkpt><trkpt lat="43.4871699" lon="11.7168126"><ele>249.33333333333331</ele><time>2026-03-22T15:13:15.768Z</time></trkpt><trkpt lat="43.4873291" lon="11.716791"><ele>249.0</ele><time>2026-03-22T15:13:16.769Z</time></trkpt><trkpt lat="43.4874878" lon="11.7167713"><ele>249.0</ele><time>2026-03-22T15:13:17.769Z</time></trkpt><trkpt lat="43.4876465" lon="11.7167597"><ele>249.0</ele><time>2026-03-22T15:13:18.768Z</time></trkpt><trkpt lat="43.4878035" lon="11.7167618"><ele>249.0</ele><time>2026-03-22T15:13:19.769Z</time></trkpt><trkpt lat="43.4879506" lon="11.7167814"><ele>249.0</ele><time>2026-03-22T15:13:20.768Z</time></trkpt><trkpt lat="43.4881004" lon="11.7168158"><ele>249.0</ele><time>2026-03-22T15:13:21.768Z</time></trkpt><trkpt lat="43.4882492" lon="11.7168612"><ele>249.0</ele><time>2026-03-22T15:13:22.769Z</time></trkpt><trkpt lat="43.4884003" lon="11.7169157"><ele>249.0</ele><time>2026-03-22T15:13:23.769Z</time></trkpt><trkpt lat="43.4885483" lon="11.7169861"><ele>249.0</ele><time>2026-03-22T15:13:24.768Z</time></trkpt><trkpt lat="43.4886924" lon="11.7170693"><ele>249.0</ele><time>2026-03-22T15:13:25.769Z</time></trkpt><trkpt lat="43.4888337" lon="11.7171582"><ele>250.33333333333331</ele><time>2026-03-22T15:13:26.769Z</time></trkpt><trkpt lat="43.4889744" lon="11.7172497"><ele>251.66666666666666</ele><time>2026-03-22T15:13:27.768Z</time></trkpt><trkpt lat="43.4891182" lon="11.7173463"><ele>253.0</ele><time>2026-03-22T15:13:28.769Z</time></trkpt><trkpt lat="43.4892614" lon="11.7174446"><ele>253.0</ele><time>2026-03-22T15:13:29.769Z</time></trkpt><trkpt lat="43.4894026" lon="11.7175435"><ele>253.0</ele><time>2026-03-22T15:13:30.768Z</time></trkpt><trkpt lat="43.4895457" lon="11.7176469"><ele>253.0</ele><time>2026-03-22T15:13:31.768Z</time></trkpt><trkpt lat="43.4896883" lon="11.7177489"><ele>252.33333333333331</ele><time>2026-03-22T15:13:32.768Z</time></trkpt><trkpt lat="43.4898316" lon="11.7178466"><ele>251.66666666666669</ele><time>2026-03-22T15:13:33.768Z</time></trkpt><trkpt lat="43.4899712" lon="11.7179417"><ele>251.0</ele><time>2026-03-22T15:13:34.768Z</time></trkpt><trkpt lat="43.4901087" lon="11.7180302"><ele>251.0</ele><time>2026-03-22T15:13:35.768Z</time></trkpt><trkpt lat="43.4902446" lon="11.7181094"><ele>251.0</ele><time>2026-03-22T15:13:36.768Z</time></trkpt><trkpt lat="43.4903786" lon="11.7181655"><ele>251.0</ele><time>2026-03-22T15:13:37.769Z</time></trkpt><trkpt lat="43.4905127" lon="11.7181985"><ele>251.0</ele><time>2026-03-22T15:13:38.769Z</time></trkpt><trkpt lat="43.4906509" lon="11.7182136"><ele>250.0</ele><time>2026-03-22T15:13:39.768Z</time></trkpt><trkpt lat="43.4907963" lon="11.7182105"><ele>249.0</ele><time>2026-03-22T15:13:40.768Z</time></trkpt><trkpt lat="43.4909465" lon="11.7182001"><ele>248.0</ele><time>2026-03-22T15:13:41.768Z</time></trkpt><trkpt lat="43.4910973" lon="11.718183"><ele>247.0</ele><time>2026-03-22T15:13:42.768Z</time></trkpt><trkpt lat="43.4912475" lon="11.7181642"><ele>246.25</ele><time>2026-03-22T15:13:43.768Z</time></trkpt><trkpt lat="43.4913921" lon="11.7181494"><ele>245.5</ele><time>2026-03-22T15:13:44.769Z</time></trkpt><trkpt lat="43.4915334" lon="11.7181518"><ele>244.75</ele><time>2026-03-22T15:13:45.769Z</time></trkpt><trkpt lat="43.4916734" lon="11.7181678"><ele>244.0</ele><time>2026-03-22T15:13:46.767Z</time></trkpt><trkpt lat="43.4918154" lon="11.718206"><ele>244.0</ele><time>2026-03-22T15:13:47.768Z</time></trkpt><trkpt lat="43.4919565" lon="11.7182718"><ele>244.0</ele><time>2026-03-22T15:13:48.768Z</time></trkpt><trkpt lat="43.4920963" lon="11.7183543"><ele>244.0</ele><time>2026-03-22T15:13:49.768Z</time></trkpt><trkpt lat="43.4922326" lon="11.7184442"><ele>244.0</ele><time>2026-03-22T15:13:50.769Z</time></trkpt><trkpt lat="43.492371" lon="11.7185281"><ele>244.0</ele><time>2026-03-22T15:13:51.768Z</time></trkpt><trkpt lat="43.4925135" lon="11.7185917"><ele>244.0</ele><time>2026-03-22T15:13:52.769Z</time></trkpt><trkpt lat="43.4926579" lon="11.7186307"><ele>244.0</ele><time>2026-03-22T15:13:53.768Z</time></trkpt><trkpt lat="43.4928039" lon="11.71864"><ele>240.0</ele><time>2026-03-22T15:13:54.768Z</time></trkpt><trkpt lat="43.4929475" lon="11.7186255"><ele>236.0</ele><time>2026-03-22T15:13:55.768Z</time></trkpt><trkpt lat="43.4930809" lon="11.7186209"><ele>232.0</ele><time>2026-03-22T15:13:56.768Z</time></trkpt><trkpt lat="43.493206" lon="11.7186321"><ele>228.0</ele><time>2026-03-22T15:13:57.769Z</time></trkpt><trkpt lat="43.4933307" lon="11.7186674"><ele>228.0</ele><time>2026-03-22T15:13:58.768Z</time></trkpt><trkpt lat="43.4934549" lon="11.7187329"><ele>228.0</ele><time>2026-03-22T15:13:59.769Z</time></trkpt><trkpt lat="43.4935681" lon="11.7188345"><ele>228.0</ele><time>2026-03-22T15:14:00.768Z</time></trkpt><trkpt lat="43.4936718" lon="11.7189816"><ele>228.0</ele><time>2026-03-22T15:14:01.769Z</time></trkpt><trkpt lat="43.4937624" lon="11.7191377"><ele>228.0</ele><time>2026-03-22T15:14:02.769Z</time></trkpt><trkpt lat="43.4938427" lon="11.7192959"><ele>228.0</ele><time>2026-03-22T15:14:03.768Z</time></trkpt><trkpt lat="43.4939208" lon="11.7194632"><ele>228.0</ele><time>2026-03-22T15:14:04.769Z</time></trkpt><trkpt lat="43.493993" lon="11.7196427"><ele>228.0</ele><time>2026-03-22T15:14:05.768Z</time></trkpt><trkpt lat="43.4940618" lon="11.7198268"><ele>225.25</ele><time>2026-03-22T15:14:06.769Z</time></trkpt><trkpt lat="43.4941328" lon="11.7200022"><ele>222.5</ele><time>2026-03-22T15:14:07.768Z</time></trkpt><trkpt lat="43.494208" lon="11.7201621"><ele>219.75</ele><time>2026-03-22T15:14:08.769Z</time></trkpt><trkpt lat="43.4942981" lon="11.7203033"><ele>217.0</ele><time>2026-03-22T15:14:09.768Z</time></trkpt><trkpt lat="43.4944068" lon="11.7204188"><ele>216.75</ele><time>2026-03-22T15:14:10.768Z</time></trkpt><trkpt lat="43.4945304" lon="11.7205011"><ele>216.5</ele><time>2026-03-22T15:14:11.768Z</time></trkpt><trkpt lat="43.4946635" lon="11.7205509"><ele>216.25</ele><time>2026-03-22T15:14:12.769Z</time></trkpt><trkpt lat="43.4948082" lon="11.7205853"><ele>216.0</ele><time>2026-03-22T15:14:13.768Z</time></trkpt><trkpt lat="43.4949634" lon="11.7206092"><ele>212.0</ele><time>2026-03-22T15:14:14.769Z</time></trkpt><trkpt lat="43.4951269" lon="11.7206107"><ele>208.0</ele><time>2026-03-22T15:14:15.769Z</time></trkpt><trkpt lat="43.495288" lon="11.7206091"><ele>204.0</ele><time>2026-03-22T15:14:16.768Z</time></trkpt><trkpt lat="43.4954471" lon="11.7206162"><ele>201.33333333333331</ele><time>2026-03-22T15:14:17.768Z</time></trkpt><trkpt lat="43.4955995" lon="11.7206266"><ele>198.66666666666666</ele><time>2026-03-22T15:14:18.768Z</time></trkpt><trkpt lat="43.495753" lon="11.7206392"><ele>196.0</ele><time>2026-03-22T15:14:19.769Z</time></trkpt><trkpt lat="43.495903" lon="11.7206439"><ele>196.0</ele><time>2026-03-22T15:14:20.768Z</time></trkpt><trkpt lat="43.4960508" lon="11.7206348"><ele>196.0</ele><time>2026-03-22T15:14:21.768Z</time></trkpt><trkpt lat="43.4961983" lon="11.7205997"><ele>196.0</ele><time>2026-03-22T15:14:22.768Z</time></trkpt><trkpt lat="43.4963339" lon="11.7205374"><ele>196.0</ele><time>2026-03-22T15:14:23.769Z</time></trkpt><trkpt lat="43.4964653" lon="11.7204666"><ele>194.0</ele><time>2026-03-22T15:14:24.769Z</time></trkpt><trkpt lat="43.4965998" lon="11.7203926"><ele>192.0</ele><time>2026-03-22T15:14:25.768Z</time></trkpt><trkpt lat="43.4967337" lon="11.7203229"><ele>190.0</ele><time>2026-03-22T15:14:26.768Z</time></trkpt><trkpt lat="43.4968657" lon="11.7202415"><ele>188.0</ele><time>2026-03-22T15:14:27.768Z</time></trkpt><trkpt lat="43.496999" lon="11.7201554"><ele>185.75</ele><time>2026-03-22T15:14:28.769Z</time></trkpt><trkpt lat="43.4971293" lon="11.7200597"><ele>183.5</ele><time>2026-03-22T15:14:29.768Z</time></trkpt><trkpt lat="43.4972502" lon="11.7199465"><ele>181.25</ele><time>2026-03-22T15:14:30.769Z</time></trkpt><trkpt lat="43.4973607" lon="11.719808"><ele>179.0</ele><time>2026-03-22T15:14:31.769Z</time></trkpt><trkpt lat="43.4974664" lon="11.719659"><ele>179.0</ele><time>2026-03-22T15:14:32.768Z</time></trkpt><trkpt lat="43.4975565" lon="11.7195056"><ele>179.0</ele><time>2026-03-22T15:14:33.769Z</time></trkpt><trkpt lat="43.4976412" lon="11.7193644"><ele>179.0</ele><time>2026-03-22T15:14:34.768Z</time></trkpt><trkpt lat="43.4977298" lon="11.7192548"><ele>179.0</ele><time>2026-03-22T15:14:35.769Z</time></trkpt><trkpt lat="43.4978228" lon="11.719172"><ele>178.79999999999998</ele><time>2026-03-22T15:14:36.769Z</time></trkpt><trkpt lat="43.497916" lon="11.7191181"><ele>178.6</ele><time>2026-03-22T15:14:37.769Z</time></trkpt><trkpt lat="43.4979898" lon="11.7190954"><ele>178.4</ele><time>2026-03-22T15:14:38.768Z</time></trkpt><trkpt lat="43.4980809" lon="11.7190859"><ele>178.2</ele><time>2026-03-22T15:14:40.768Z</time></trkpt><trkpt lat="43.4981535" lon="11.718989"><ele>178.0</ele><time>2026-03-22T15:14:43.769Z</time></trkpt><trkpt lat="43.4981643" lon="11.7188402"><ele>177.0</ele><time>2026-03-22T15:14:45.769Z</time></trkpt><trkpt lat="43.4981758" lon="11.7187339"><ele>176.0</ele><time>2026-03-22T15:14:46.769Z</time></trkpt><trkpt lat="43.4981927" lon="11.7186049"><ele>175.0</ele><time>2026-03-22T15:14:47.769Z</time></trkpt><trkpt lat="43.4982116" lon="11.7184641"><ele>174.0</ele><time>2026-03-22T15:14:48.768Z</time></trkpt><trkpt lat="43.4982275" lon="11.7183421"><ele>173.0</ele><time>2026-03-22T15:14:49.768Z</time></trkpt><trkpt lat="43.4982437" lon="11.7182305"><ele>172.0</ele><time>2026-03-22T15:14:50.768Z</time></trkpt><trkpt lat="43.4982586" lon="11.7181082"><ele>171.83333333333334</ele><time>2026-03-22T15:14:51.768Z</time></trkpt><trkpt lat="43.4982738" lon="11.7179893"><ele>171.66666666666669</ele><time>2026-03-22T15:14:52.769Z</time></trkpt><trkpt lat="43.4982903" lon="11.7178729"><ele>171.5</ele><time>2026-03-22T15:14:53.769Z</time></trkpt><trkpt lat="43.4983081" lon="11.7177619"><ele>171.33333333333334</ele><time>2026-03-22T15:14:54.769Z</time></trkpt><trkpt lat="43.4983237" lon="11.7176504"><ele>171.16666666666666</ele><time>2026-03-22T15:14:55.768Z</time></trkpt><trkpt lat="43.4983362" lon="11.717545"><ele>171.0</ele><time>2026-03-22T15:14:56.769Z</time></trkpt><trkpt lat="43.4983471" lon="11.7174331"><ele>171.28571428571428</ele><time>2026-03-22T15:14:57.768Z</time></trkpt><trkpt lat="43.4983556" lon="11.7173316"><ele>171.57142857142856</ele><time>2026-03-22T15:14:58.769Z</time></trkpt><trkpt lat="43.4983637" lon="11.7172293"><ele>171.85714285714283</ele><time>2026-03-22T15:14:59.769Z</time></trkpt><trkpt lat="43.4983702" lon="11.7171343"><ele>172.14285714285714</ele><time>2026-03-22T15:15:00.768Z</time></trkpt><trkpt lat="43.4983758" lon="11.7170323"><ele>172.42857142857144</ele><time>2026-03-22T15:15:01.769Z</time></trkpt><trkpt lat="43.4983835" lon="11.716942"><ele>172.7142857142857</ele><time>2026-03-22T15:15:02.769Z</time></trkpt><trkpt lat="43.498392" lon="11.716844"><ele>173.0</ele><time>2026-03-22T15:15:03.769Z</time></trkpt><trkpt lat="43.4984113" lon="11.7166643"><ele>173.0</ele><time>2026-03-22T15:15:05.769Z</time></trkpt><trkpt lat="43.4984211" lon="11.7165752"><ele>173.0</ele><time>2026-03-22T15:15:06.768Z</time></trkpt><trkpt lat="43.4984319" lon="11.7164774"><ele>173.0</ele><time>2026-03-22T15:15:07.768Z</time></trkpt><trkpt lat="43.4984492" lon="11.7163036"><ele>173.0</ele><time>2026-03-22T15:15:09.769Z</time></trkpt><trkpt lat="43.4984594" lon="11.7162165"><ele>173.0</ele><time>2026-03-22T15:15:10.768Z</time></trkpt><trkpt lat="43.4984753" lon="11.716048"><ele>172.8</ele><time>2026-03-22T15:15:12.769Z</time></trkpt><trkpt lat="43.4984931" lon="11.7158841"><ele>172.60000000000002</ele><time>2026-03-22T15:15:14.768Z</time></trkpt><trkpt lat="43.4985138" lon="11.7157084"><ele>172.39999999999998</ele><time>2026-03-22T15:15:16.769Z</time></trkpt><trkpt lat="43.4985235" lon="11.7156058"><ele>172.2</ele><time>2026-03-22T15:15:17.769Z</time></trkpt><trkpt lat="43.4985376" lon="11.7154944"><ele>172.0</ele><time>2026-03-22T15:15:18.768Z</time></trkpt><trkpt lat="43.4985537" lon="11.715371"><ele>171.75</ele><time>2026-03-22T15:15:19.768Z</time></trkpt><trkpt lat="43.4985665" lon="11.7152307"><ele>171.5</ele><time>2026-03-22T15:15:20.769Z</time></trkpt><trkpt lat="43.4985771" lon="11.7150655"><ele>171.25</ele><time>2026-03-22T15:15:21.768Z</time></trkpt><trkpt lat="43.4985894" lon="11.7149075"><ele>171.0</ele><time>2026-03-22T15:15:22.769Z</time></trkpt><trkpt lat="43.4986019" lon="11.714718"><ele>171.0</ele><time>2026-03-22T15:15:23.769Z</time></trkpt><trkpt lat="43.4986138" lon="11.7145221"><ele>171.0</ele><time>2026-03-22T15:15:24.768Z</time></trkpt><trkpt lat="43.4986277" lon="11.7143227"><ele>171.0</ele><time>2026-03-22T15:15:25.769Z</time></trkpt><trkpt lat="43.4986394" lon="11.7141199"><ele>171.0</ele><time>2026-03-22T15:15:26.768Z</time></trkpt><trkpt lat="43.4986516" lon="11.7139228"><ele>171.25</ele><time>2026-03-22T15:15:27.769Z</time></trkpt><trkpt lat="43.4986671" lon="11.7137301"><ele>171.5</ele><time>2026-03-22T15:15:28.768Z</time></trkpt><trkpt lat="43.4986831" lon="11.7135392"><ele>171.75</ele><time>2026-03-22T15:15:29.768Z</time></trkpt><trkpt lat="43.4986991" lon="11.7133462"><ele>172.0</ele><time>2026-03-22T15:15:30.769Z</time></trkpt><trkpt lat="43.4987153" lon="11.7131505"><ele>172.0</ele><time>2026-03-22T15:15:31.769Z</time></trkpt><trkpt lat="43.498732" lon="11.7129523"><ele>172.0</ele><time>2026-03-22T15:15:32.768Z</time></trkpt><trkpt lat="43.4987494" lon="11.7127495"><ele>172.0</ele><time>2026-03-22T15:15:33.769Z</time></trkpt><trkpt lat="43.498767" lon="11.7125506"><ele>172.0</ele><time>2026-03-22T15:15:34.769Z</time></trkpt><trkpt lat="43.4987861" lon="11.7123572"><ele>171.75</ele><time>2026-03-22T15:15:35.769Z</time></trkpt><trkpt lat="43.4988045" lon="11.7121631"><ele>171.5</ele><time>2026-03-22T15:15:36.768Z</time></trkpt><trkpt lat="43.4988221" lon="11.7119644"><ele>171.25</ele><time>2026-03-22T15:15:37.769Z</time></trkpt><trkpt lat="43.4988376" lon="11.7117662"><ele>171.0</ele><time>2026-03-22T15:15:38.769Z</time></trkpt><trkpt lat="43.4988504" lon="11.7115804"><ele>171.0</ele><time>2026-03-22T15:15:39.768Z</time></trkpt><trkpt lat="43.4988622" lon="11.7114117"><ele>171.0</ele><time>2026-03-22T15:15:40.769Z</time></trkpt><trkpt lat="43.4988736" lon="11.7112543"><ele>171.0</ele><time>2026-03-22T15:15:41.768Z</time></trkpt><trkpt lat="43.4988842" lon="11.7111048"><ele>171.0</ele><time>2026-03-22T15:15:42.769Z</time></trkpt><trkpt lat="43.4988919" lon="11.7109682"><ele>171.0</ele><time>2026-03-22T15:15:43.769Z</time></trkpt><trkpt lat="43.4988908" lon="11.7108444"><ele>170.83333333333334</ele><time>2026-03-22T15:15:44.769Z</time></trkpt><trkpt lat="43.4988732" lon="11.7107321"><ele>170.66666666666666</ele><time>2026-03-22T15:15:45.768Z</time></trkpt><trkpt lat="43.4988363" lon="11.7106337"><ele>170.5</ele><time>2026-03-22T15:15:46.767Z</time></trkpt><trkpt lat="43.498782" lon="11.7105616"><ele>170.33333333333331</ele><time>2026-03-22T15:15:47.769Z</time></trkpt><trkpt lat="43.4987113" lon="11.7105152"><ele>170.16666666666666</ele><time>2026-03-22T15:15:48.768Z</time></trkpt><trkpt lat="43.4986445" lon="11.7104754"><ele>170.0</ele><time>2026-03-22T15:15:49.768Z</time></trkpt><trkpt lat="43.4985791" lon="11.710343"><ele>170.0</ele><time>2026-03-22T15:15:51.769Z</time></trkpt><trkpt lat="43.4985751" lon="11.7102451"><ele>170.0</ele><time>2026-03-22T15:15:52.768Z</time></trkpt><trkpt lat="43.4985983" lon="11.7101576"><ele>170.0</ele><time>2026-03-22T15:15:53.768Z</time></trkpt><trkpt lat="43.4986539" lon="11.7100851"><ele>170.0</ele><time>2026-03-22T15:15:54.769Z</time></trkpt><trkpt lat="43.4987315" lon="11.7100279"><ele>170.0</ele><time>2026-03-22T15:15:55.768Z</time></trkpt><trkpt lat="43.4988182" lon="11.7099713"><ele>170.0</ele><time>2026-03-22T15:15:56.769Z</time></trkpt><trkpt lat="43.4988916" lon="11.7098814"><ele>170.0</ele><time>2026-03-22T15:15:57.768Z</time></trkpt><trkpt lat="43.4989412" lon="11.7097593"><ele>170.0</ele><time>2026-03-22T15:15:58.768Z</time></trkpt><trkpt lat="43.4989695" lon="11.709626"><ele>170.0</ele><time>2026-03-22T15:15:59.768Z</time></trkpt><trkpt lat="43.4989851" lon="11.7094891"><ele>170.0</ele><time>2026-03-22T15:16:00.767Z</time></trkpt><trkpt lat="43.4989968" lon="11.709343"><ele>170.0</ele><time>2026-03-22T15:16:01.768Z</time></trkpt><trkpt lat="43.499007" lon="11.7091854"><ele>170.75</ele><time>2026-03-22T15:16:02.768Z</time></trkpt><trkpt lat="43.4990133" lon="11.7090294"><ele>171.5</ele><time>2026-03-22T15:16:03.768Z</time></trkpt><trkpt lat="43.4990228" lon="11.7088704"><ele>172.25</ele><time>2026-03-22T15:16:04.768Z</time></trkpt><trkpt lat="43.4990324" lon="11.7087105"><ele>173.0</ele><time>2026-03-22T15:16:05.768Z</time></trkpt><trkpt lat="43.4990387" lon="11.7085508"><ele>173.0</ele><time>2026-03-22T15:16:06.768Z</time></trkpt><trkpt lat="43.499046" lon="11.7083923"><ele>173.0</ele><time>2026-03-22T15:16:07.769Z</time></trkpt><trkpt lat="43.4990525" lon="11.7082361"><ele>173.0</ele><time>2026-03-22T15:16:08.768Z</time></trkpt><trkpt lat="43.4990578" lon="11.7080814"><ele>173.0</ele><time>2026-03-22T15:16:09.769Z</time></trkpt><trkpt lat="43.499064" lon="11.7079262"><ele>173.0</ele><time>2026-03-22T15:16:10.768Z</time></trkpt><trkpt lat="43.4990724" lon="11.7077703"><ele>173.0</ele><time>2026-03-22T15:16:11.768Z</time></trkpt><trkpt lat="43.4990849" lon="11.7076158"><ele>173.0</ele><time>2026-03-22T15:16:12.769Z</time></trkpt><trkpt lat="43.4991052" lon="11.7074662"><ele>173.0</ele><time>2026-03-22T15:16:13.769Z</time></trkpt><trkpt lat="43.4991247" lon="11.7073074"><ele>173.0</ele><time>2026-03-22T15:16:14.769Z</time></trkpt><trkpt lat="43.4991346" lon="11.7071427"><ele>173.0</ele><time>2026-03-22T15:16:15.768Z</time></trkpt><trkpt lat="43.4991404" lon="11.7069855"><ele>173.0</ele><time>2026-03-22T15:16:16.769Z</time></trkpt><trkpt lat="43.4991473" lon="11.7068361"><ele>173.0</ele><time>2026-03-22T15:16:17.768Z</time></trkpt><trkpt lat="43.4991524" lon="11.7066875"><ele>173.0</ele><time>2026-03-22T15:16:18.768Z</time></trkpt><trkpt lat="43.4991578" lon="11.7065372"><ele>173.0</ele><time>2026-03-22T15:16:19.768Z</time></trkpt><trkpt lat="43.4991683" lon="11.7063831"><ele>173.0</ele><time>2026-03-22T15:16:20.768Z</time></trkpt><trkpt lat="43.4991784" lon="11.7062265"><ele>173.0</ele><time>2026-03-22T15:16:21.768Z</time></trkpt><trkpt lat="43.4991867" lon="11.7060713"><ele>173.0</ele><time>2026-03-22T15:16:22.769Z</time></trkpt><trkpt lat="43.4991978" lon="11.7059176"><ele>173.0</ele><time>2026-03-22T15:16:23.768Z</time></trkpt><trkpt lat="43.4992104" lon="11.7057644"><ele>173.0</ele><time>2026-03-22T15:16:24.768Z</time></trkpt><trkpt lat="43.4992183" lon="11.7056112"><ele>173.0</ele><time>2026-03-22T15:16:25.769Z</time></trkpt><trkpt lat="43.4992253" lon="11.7054613"><ele>173.0</ele><time>2026-03-22T15:16:26.768Z</time></trkpt><trkpt lat="43.4992328" lon="11.7053086"><ele>173.0</ele><time>2026-03-22T15:16:27.768Z</time></trkpt><trkpt lat="43.4992468" lon="11.7051527"><ele>173.75</ele><time>2026-03-22T15:16:28.769Z</time></trkpt><trkpt lat="43.4992591" lon="11.7049971"><ele>174.5</ele><time>2026-03-22T15:16:29.767Z</time></trkpt><trkpt lat="43.4992694" lon="11.7048342"><ele>175.25</ele><time>2026-03-22T15:16:30.768Z</time></trkpt><trkpt lat="43.4992801" lon="11.7046593"><ele>176.0</ele><time>2026-03-22T15:16:31.768Z</time></trkpt><trkpt lat="43.4992909" lon="11.7044784"><ele>175.75</ele><time>2026-03-22T15:16:32.768Z</time></trkpt><trkpt lat="43.4993008" lon="11.7043005"><ele>175.5</ele><time>2026-03-22T15:16:33.768Z</time></trkpt><trkpt lat="43.4993096" lon="11.7041276"><ele>175.25</ele><time>2026-03-22T15:16:34.769Z</time></trkpt><trkpt lat="43.4993211" lon="11.70395"><ele>175.0</ele><time>2026-03-22T15:16:35.768Z</time></trkpt><trkpt lat="43.4993305" lon="11.7037857"><ele>175.0</ele><time>2026-03-22T15:16:36.768Z</time></trkpt><trkpt lat="43.4993393" lon="11.7036331"><ele>175.0</ele><time>2026-03-22T15:16:37.769Z</time></trkpt><trkpt lat="43.4993492" lon="11.7034831"><ele>175.0</ele><time>2026-03-22T15:16:38.768Z</time></trkpt><trkpt lat="43.4993615" lon="11.7033489"><ele>175.0</ele><time>2026-03-22T15:16:39.768Z</time></trkpt><trkpt lat="43.4993677" lon="11.7032236"><ele>175.0</ele><time>2026-03-22T15:16:40.768Z</time></trkpt><trkpt lat="43.4993726" lon="11.7031065"><ele>174.66666666666669</ele><time>2026-03-22T15:16:41.768Z</time></trkpt><trkpt lat="43.4993789" lon="11.702991"><ele>174.33333333333334</ele><time>2026-03-22T15:16:42.769Z</time></trkpt><trkpt lat="43.4993546" lon="11.7029096"><ele>174.0</ele><time>2026-03-22T15:16:43.769Z</time></trkpt><trkpt lat="43.4992541" lon="11.7028064"><ele>173.66666666666666</ele><time>2026-03-22T15:16:45.768Z</time></trkpt><trkpt lat="43.4991721" lon="11.7027967"><ele>173.33333333333331</ele><time>2026-03-22T15:16:46.768Z</time></trkpt><trkpt lat="43.4990829" lon="11.7028076"><ele>173.0</ele><time>2026-03-22T15:16:47.769Z</time></trkpt><trkpt lat="43.4989884" lon="11.7028282"><ele>173.0</ele><time>2026-03-22T15:16:48.769Z</time></trkpt><trkpt lat="43.4988794" lon="11.702843"><ele>173.0</ele><time>2026-03-22T15:16:49.768Z</time></trkpt><trkpt lat="43.4987428" lon="11.7028556"><ele>173.0</ele><time>2026-03-22T15:16:50.768Z</time></trkpt><trkpt lat="43.4986009" lon="11.7028734"><ele>173.0</ele><time>2026-03-22T15:16:51.768Z</time></trkpt><trkpt lat="43.4984822" lon="11.7029001"><ele>172.8</ele><time>2026-03-22T15:16:52.769Z</time></trkpt><trkpt lat="43.498376" lon="11.702917"><ele>172.60000000000002</ele><time>2026-03-22T15:16:53.769Z</time></trkpt><trkpt lat="43.4982776" lon="11.7029145"><ele>172.39999999999998</ele><time>2026-03-22T15:16:54.768Z</time></trkpt><trkpt lat="43.4981941" lon="11.702885"><ele>172.2</ele><time>2026-03-22T15:16:55.769Z</time></trkpt><trkpt lat="43.4981343" lon="11.7028152"><ele>172.0</ele><time>2026-03-22T15:16:56.768Z</time></trkpt><trkpt lat="43.4980866" lon="11.7027065"><ele>171.75</ele><time>2026-03-22T15:16:57.769Z</time></trkpt><trkpt lat="43.4980413" lon="11.7025584"><ele>171.5</ele><time>2026-03-22T15:16:58.769Z</time></trkpt><trkpt lat="43.4979992" lon="11.7024036"><ele>171.25</ele><time>2026-03-22T15:16:59.768Z</time></trkpt><trkpt lat="43.4979552" lon="11.7022581"><ele>171.0</ele><time>2026-03-22T15:17:00.768Z</time></trkpt><trkpt lat="43.4979118" lon="11.7021033"><ele>171.5</ele><time>2026-03-22T15:17:01.768Z</time></trkpt><trkpt lat="43.4978642" lon="11.7019387"><ele>172.0</ele><time>2026-03-22T15:17:02.769Z</time></trkpt><trkpt lat="43.4978104" lon="11.7017657"><ele>172.5</ele><time>2026-03-22T15:17:03.768Z</time></trkpt><trkpt lat="43.4977542" lon="11.7015777"><ele>173.0</ele><time>2026-03-22T15:17:04.769Z</time></trkpt><trkpt lat="43.4977027" lon="11.7014057"><ele>173.0</ele><time>2026-03-22T15:17:05.768Z</time></trkpt><trkpt lat="43.4976571" lon="11.7012588"><ele>173.0</ele><time>2026-03-22T15:17:06.768Z</time></trkpt><trkpt lat="43.4976136" lon="11.7011141"><ele>173.0</ele><time>2026-03-22T15:17:07.769Z</time></trkpt><trkpt lat="43.4975714" lon="11.7009596"><ele>173.0</ele><time>2026-03-22T15:17:08.768Z</time></trkpt><trkpt lat="43.4975263" lon="11.7008011"><ele>173.0</ele><time>2026-03-22T15:17:09.769Z</time></trkpt><trkpt lat="43.497478" lon="11.700644"><ele>173.0</ele><time>2026-03-22T15:17:10.769Z</time></trkpt><trkpt lat="43.4974278" lon="11.7004811"><ele>173.0</ele><time>2026-03-22T15:17:11.769Z</time></trkpt><trkpt lat="43.4973804" lon="11.7003221"><ele>173.0</ele><time>2026-03-22T15:17:12.769Z</time></trkpt><trkpt lat="43.4973448" lon="11.7001775"><ele>172.83333333333331</ele><time>2026-03-22T15:17:13.768Z</time></trkpt><trkpt lat="43.4973108" lon="11.7000446"><ele>172.66666666666666</ele><time>2026-03-22T15:17:14.768Z</time></trkpt><trkpt lat="43.4972741" lon="11.6999261"><ele>172.5</ele><time>2026-03-22T15:17:15.769Z</time></trkpt><trkpt lat="43.4972418" lon="11.6998159"><ele>172.33333333333334</ele><time>2026-03-22T15:17:16.768Z</time></trkpt><trkpt lat="43.4972124" lon="11.6997131"><ele>172.16666666666669</ele><time>2026-03-22T15:17:17.769Z</time></trkpt><trkpt lat="43.4971827" lon="11.6996219"><ele>172.0</ele><time>2026-03-22T15:17:18.769Z</time></trkpt><trkpt lat="43.4971494" lon="11.6995443"><ele>172.0</ele><time>2026-03-22T15:17:19.769Z</time></trkpt><trkpt lat="43.4971166" lon="11.6994149"><ele>172.0</ele><time>2026-03-22T15:17:21.769Z</time></trkpt><trkpt lat="43.4972197" lon="11.6992774"><ele>172.0</ele><time>2026-03-22T15:17:23.768Z</time></trkpt><trkpt lat="43.4972998" lon="11.699218"><ele>172.0</ele><time>2026-03-22T15:17:24.769Z</time></trkpt><trkpt lat="43.4973831" lon="11.6991631"><ele>172.0</ele><time>2026-03-22T15:17:25.769Z</time></trkpt><trkpt lat="43.4974776" lon="11.699093"><ele>172.0</ele><time>2026-03-22T15:17:26.769Z</time></trkpt><trkpt lat="43.4975857" lon="11.6990061"><ele>172.0</ele><time>2026-03-22T15:17:27.769Z</time></trkpt><trkpt lat="43.4976901" lon="11.6989249"><ele>172.0</ele><time>2026-03-22T15:17:28.768Z</time></trkpt><trkpt lat="43.4977907" lon="11.6988466"><ele>172.0</ele><time>2026-03-22T15:17:29.768Z</time></trkpt><trkpt lat="43.497896" lon="11.6987634"><ele>172.0</ele><time>2026-03-22T15:17:30.768Z</time></trkpt><trkpt lat="43.4979974" lon="11.6986818"><ele>172.0</ele><time>2026-03-22T15:17:31.768Z</time></trkpt><trkpt lat="43.4981061" lon="11.6985891"><ele>172.0</ele><time>2026-03-22T15:17:32.769Z</time></trkpt><trkpt lat="43.4982225" lon="11.6984939"><ele>172.0</ele><time>2026-03-22T15:17:33.768Z</time></trkpt><trkpt lat="43.4983391" lon="11.6983987"><ele>171.75</ele><time>2026-03-22T15:17:34.768Z</time></trkpt><trkpt lat="43.4984487" lon="11.6983122"><ele>171.5</ele><time>2026-03-22T15:17:35.768Z</time></trkpt><trkpt lat="43.4985531" lon="11.6982294"><ele>171.25</ele><time>2026-03-22T15:17:36.769Z</time></trkpt><trkpt lat="43.4986589" lon="11.6981425"><ele>171.0</ele><time>2026-03-22T15:17:37.769Z</time></trkpt><trkpt lat="43.4987624" lon="11.6980573"><ele>171.0</ele><time>2026-03-22T15:17:38.768Z</time></trkpt><trkpt lat="43.4988706" lon="11.6979703"><ele>171.0</ele><time>2026-03-22T15:17:39.769Z</time></trkpt><trkpt lat="43.4989803" lon="11.6978826"><ele>171.0</ele><time>2026-03-22T15:17:40.768Z</time></trkpt><trkpt lat="43.4990852" lon="11.6978014"><ele>171.0</ele><time>2026-03-22T15:17:41.769Z</time></trkpt><trkpt lat="43.4991828" lon="11.6977247"><ele>171.0</ele><time>2026-03-22T15:17:42.768Z</time></trkpt><trkpt lat="43.4992719" lon="11.6976525"><ele>171.0</ele><time>2026-03-22T15:17:43.768Z</time></trkpt><trkpt lat="43.4993537" lon="11.6975838"><ele>171.0</ele><time>2026-03-22T15:17:44.768Z</time></trkpt><trkpt lat="43.4994298" lon="11.6975242"><ele>171.0</ele><time>2026-03-22T15:17:45.769Z</time></trkpt><trkpt lat="43.4994988" lon="11.6974713"><ele>171.0</ele><time>2026-03-22T15:17:46.769Z</time></trkpt><trkpt lat="43.4995578" lon="11.697429"><ele>171.0</ele><time>2026-03-22T15:17:47.769Z</time></trkpt><trkpt lat="43.4996614" lon="11.6973619"><ele>170.60000000000002</ele><time>2026-03-22T15:17:49.769Z</time></trkpt><trkpt lat="43.4997324" lon="11.6972923"><ele>170.2</ele><time>2026-03-22T15:17:51.769Z</time></trkpt><trkpt lat="43.4997117" lon="11.6971727"><ele>169.8</ele><time>2026-03-22T15:17:53.768Z</time></trkpt><trkpt lat="43.4997307" lon="11.6970402"><ele>169.39999999999998</ele><time>2026-03-22T15:17:55.769Z</time></trkpt><trkpt lat="43.4998364" lon="11.6969852"><ele>169.0</ele><time>2026-03-22T15:17:57.769Z</time></trkpt><trkpt lat="43.4999253" lon="11.6969692"><ele>169.0</ele><time>2026-03-22T15:17:58.768Z</time></trkpt><trkpt lat="43.5000149" lon="11.6969321"><ele>169.0</ele><time>2026-03-22T15:17:59.768Z</time></trkpt><trkpt lat="43.5000937" lon="11.6968637"><ele>169.0</ele><time>2026-03-22T15:18:00.769Z</time></trkpt><trkpt lat="43.5001504" lon="11.6967816"><ele>169.0</ele><time>2026-03-22T15:18:01.768Z</time></trkpt><trkpt lat="43.5002013" lon="11.6966702"><ele>169.0</ele><time>2026-03-22T15:18:02.769Z</time></trkpt><trkpt lat="43.5002469" lon="11.6965441"><ele>169.2</ele><time>2026-03-22T15:18:03.769Z</time></trkpt><trkpt lat="43.5002899" lon="11.6964134"><ele>169.39999999999998</ele><time>2026-03-22T15:18:04.767Z</time></trkpt><trkpt lat="43.5003203" lon="11.6962799"><ele>169.6</ele><time>2026-03-22T15:18:05.769Z</time></trkpt><trkpt lat="43.500337" lon="11.6961508"><ele>169.8</ele><time>2026-03-22T15:18:06.769Z</time></trkpt><trkpt lat="43.5003403" lon="11.6960194"><ele>170.0</ele><time>2026-03-22T15:18:07.768Z</time></trkpt><trkpt lat="43.5003444" lon="11.6958703"><ele>169.6</ele><time>2026-03-22T15:18:08.769Z</time></trkpt><trkpt lat="43.5003436" lon="11.6956938"><ele>169.2</ele><time>2026-03-22T15:18:09.768Z</time></trkpt><trkpt lat="43.5003385" lon="11.6955407"><ele>168.8</ele><time>2026-03-22T15:18:10.769Z</time></trkpt><trkpt lat="43.5003314" lon="11.6953957"><ele>168.4</ele><time>2026-03-22T15:18:11.769Z</time></trkpt><trkpt lat="43.5003242" lon="11.6952586"><ele>168.0</ele><time>2026-03-22T15:18:12.768Z</time></trkpt><trkpt lat="43.5003154" lon="11.695119"><ele>168.0</ele><time>2026-03-22T15:18:13.769Z</time></trkpt><trkpt lat="43.5003068" lon="11.6949758"><ele>168.0</ele><time>2026-03-22T15:18:14.768Z</time></trkpt><trkpt lat="43.5002982" lon="11.6948309"><ele>168.0</ele><time>2026-03-22T15:18:15.768Z</time></trkpt><trkpt lat="43.5002866" lon="11.6946822"><ele>168.0</ele><time>2026-03-22T15:18:16.769Z</time></trkpt><trkpt lat="43.500272" lon="11.6945392"><ele>168.0</ele><time>2026-03-22T15:18:17.769Z</time></trkpt><trkpt lat="43.5002568" lon="11.6943998"><ele>168.2</ele><time>2026-03-22T15:18:18.768Z</time></trkpt><trkpt lat="43.5002429" lon="11.6942664"><ele>168.4</ele><time>2026-03-22T15:18:19.769Z</time></trkpt><trkpt lat="43.500229" lon="11.6941454"><ele>168.6</ele><time>2026-03-22T15:18:20.768Z</time></trkpt><trkpt lat="43.5002142" lon="11.6940214"><ele>168.79999999999998</ele><time>2026-03-22T15:18:21.768Z</time></trkpt><trkpt lat="43.5001997" lon="11.6938967"><ele>169.0</ele><time>2026-03-22T15:18:22.769Z</time></trkpt><trkpt lat="43.5001855" lon="11.6937695"><ele>169.0</ele><time>2026-03-22T15:18:23.768Z</time></trkpt><trkpt lat="43.5001692" lon="11.6936381"><ele>169.0</ele><time>2026-03-22T15:18:24.768Z</time></trkpt><trkpt lat="43.500149" lon="11.6935052"><ele>169.0</ele><time>2026-03-22T15:18:25.768Z</time></trkpt><trkpt lat="43.5001275" lon="11.693374"><ele>169.0</ele><time>2026-03-22T15:18:26.768Z</time></trkpt><trkpt lat="43.5001007" lon="11.6932424"><ele>169.0</ele><time>2026-03-22T15:18:27.769Z</time></trkpt><trkpt lat="43.5000741" lon="11.6931121"><ele>169.2</ele><time>2026-03-22T15:18:28.769Z</time></trkpt><trkpt lat="43.5000391" lon="11.6929849"><ele>169.39999999999998</ele><time>2026-03-22T15:18:29.769Z</time></trkpt><trkpt lat="43.5000084" lon="11.692858"><ele>169.6</ele><time>2026-03-22T15:18:30.769Z</time></trkpt><trkpt lat="43.4999752" lon="11.6927268"><ele>169.8</ele><time>2026-03-22T15:18:31.767Z</time></trkpt><trkpt lat="43.49994" lon="11.6925921"><ele>170.0</ele><time>2026-03-22T15:18:32.769Z</time></trkpt><trkpt lat="43.4999038" lon="11.6924525"><ele>170.0</ele><time>2026-03-22T15:18:33.769Z</time></trkpt><trkpt lat="43.4998669" lon="11.6923099"><ele>170.0</ele><time>2026-03-22T15:18:34.769Z</time></trkpt><trkpt lat="43.4998313" lon="11.6921568"><ele>170.0</ele><time>2026-03-22T15:18:35.768Z</time></trkpt><trkpt lat="43.499793" lon="11.691997"><ele>170.0</ele><time>2026-03-22T15:18:36.768Z</time></trkpt><trkpt lat="43.4997633" lon="11.6918364"><ele>170.0</ele><time>2026-03-22T15:18:37.769Z</time></trkpt><trkpt lat="43.4997404" lon="11.6916798"><ele>170.0</ele><time>2026-03-22T15:18:38.769Z</time></trkpt><trkpt lat="43.4997238" lon="11.6915364"><ele>170.0</ele><time>2026-03-22T15:18:39.769Z</time></trkpt><trkpt lat="43.4997072" lon="11.6913973"><ele>170.0</ele><time>2026-03-22T15:18:40.768Z</time></trkpt><trkpt lat="43.4996889" lon="11.6912554"><ele>170.0</ele><time>2026-03-22T15:18:41.768Z</time></trkpt><trkpt lat="43.4996704" lon="11.6911144"><ele>169.8</ele><time>2026-03-22T15:18:42.769Z</time></trkpt><trkpt lat="43.4996533" lon="11.6909715"><ele>169.6</ele><time>2026-03-22T15:18:43.769Z</time></trkpt><trkpt lat="43.4996365" lon="11.6908235"><ele>169.39999999999998</ele><time>2026-03-22T15:18:44.768Z</time></trkpt><trkpt lat="43.4996175" lon="11.6906723"><ele>169.2</ele><time>2026-03-22T15:18:45.768Z</time></trkpt><trkpt lat="43.4995952" lon="11.6905155"><ele>169.0</ele><time>2026-03-22T15:18:46.769Z</time></trkpt><trkpt lat="43.4995725" lon="11.6903475"><ele>168.75</ele><time>2026-03-22T15:18:47.768Z</time></trkpt><trkpt lat="43.4995477" lon="11.6901713"><ele>168.5</ele><time>2026-03-22T15:18:48.768Z</time></trkpt><trkpt lat="43.4995276" lon="11.6899995"><ele>168.25</ele><time>2026-03-22T15:18:49.769Z</time></trkpt><trkpt lat="43.4995117" lon="11.6898345"><ele>168.0</ele><time>2026-03-22T15:18:50.768Z</time></trkpt><trkpt lat="43.4994989" lon="11.6896669"><ele>168.0</ele><time>2026-03-22T15:18:51.768Z</time></trkpt><trkpt lat="43.4994845" lon="11.6894955"><ele>168.0</ele><time>2026-03-22T15:18:52.769Z</time></trkpt><trkpt lat="43.4994702" lon="11.689322"><ele>168.0</ele><time>2026-03-22T15:18:53.768Z</time></trkpt><trkpt lat="43.4994522" lon="11.6891589"><ele>168.0</ele><time>2026-03-22T15:18:54.769Z</time></trkpt><trkpt lat="43.4994308" lon="11.6890101"><ele>168.0</ele><time>2026-03-22T15:18:55.769Z</time></trkpt><trkpt lat="43.499409" lon="11.6888735"><ele>168.0</ele><time>2026-03-22T15:18:56.769Z</time></trkpt><trkpt lat="43.4993946" lon="11.6887316"><ele>168.0</ele><time>2026-03-22T15:18:57.768Z</time></trkpt><trkpt lat="43.4993806" lon="11.688578"><ele>168.0</ele><time>2026-03-22T15:18:58.769Z</time></trkpt><trkpt lat="43.4993645" lon="11.6884168"><ele>168.0</ele><time>2026-03-22T15:18:59.768Z</time></trkpt><trkpt lat="43.4993478" lon="11.6882484"><ele>168.0</ele><time>2026-03-22T15:19:00.769Z</time></trkpt><trkpt lat="43.4993264" lon="11.6880775"><ele>168.0</ele><time>2026-03-22T15:19:01.768Z</time></trkpt><trkpt lat="43.4993037" lon="11.6879077"><ele>168.0</ele><time>2026-03-22T15:19:02.769Z</time></trkpt><trkpt lat="43.4992824" lon="11.6877352"><ele>168.0</ele><time>2026-03-22T15:19:03.769Z</time></trkpt><trkpt lat="43.4992613" lon="11.6875587"><ele>168.0</ele><time>2026-03-22T15:19:04.768Z</time></trkpt><trkpt lat="43.4992396" lon="11.6873817"><ele>168.0</ele><time>2026-03-22T15:19:05.768Z</time></trkpt><trkpt lat="43.4992142" lon="11.6872052"><ele>168.0</ele><time>2026-03-22T15:19:06.769Z</time></trkpt><trkpt lat="43.4991851" lon="11.6870317"><ele>168.0</ele><time>2026-03-22T15:19:07.768Z</time></trkpt><trkpt lat="43.4991585" lon="11.6868609"><ele>167.5</ele><time>2026-03-22T15:19:08.768Z</time></trkpt><trkpt lat="43.4991291" lon="11.6866917"><ele>167.0</ele><time>2026-03-22T15:19:09.768Z</time></trkpt><trkpt lat="43.4990985" lon="11.6865248"><ele>166.5</ele><time>2026-03-22T15:19:10.769Z</time></trkpt><trkpt lat="43.4990727" lon="11.6863717"><ele>166.0</ele><time>2026-03-22T15:19:11.769Z</time></trkpt><trkpt lat="43.4990518" lon="11.6862335"><ele>166.0</ele><time>2026-03-22T15:19:12.768Z</time></trkpt><trkpt lat="43.4990355" lon="11.6861043"><ele>166.0</ele><time>2026-03-22T15:19:13.768Z</time></trkpt><trkpt lat="43.4990179" lon="11.6859815"><ele>166.0</ele><time>2026-03-22T15:19:14.769Z</time></trkpt><trkpt lat="43.4990044" lon="11.6858677"><ele>166.0</ele><time>2026-03-22T15:19:15.768Z</time></trkpt><trkpt lat="43.4989923" lon="11.6857616"><ele>166.0</ele><time>2026-03-22T15:19:16.769Z</time></trkpt><trkpt lat="43.4989803" lon="11.6856509"><ele>166.0</ele><time>2026-03-22T15:19:17.768Z</time></trkpt><trkpt lat="43.4989681" lon="11.6855321"><ele>166.0</ele><time>2026-03-22T15:19:18.768Z</time></trkpt><trkpt lat="43.4989557" lon="11.685422"><ele>166.0</ele><time>2026-03-22T15:19:19.768Z</time></trkpt><trkpt lat="43.49893" lon="11.6853245"><ele>166.0</ele><time>2026-03-22T15:19:20.769Z</time></trkpt><trkpt lat="43.4988816" lon="11.6852339"><ele>166.0</ele><time>2026-03-22T15:19:21.769Z</time></trkpt><trkpt lat="43.4988093" lon="11.6851529"><ele>166.0</ele><time>2026-03-22T15:19:22.768Z</time></trkpt><trkpt lat="43.4987178" lon="11.6850771"><ele>166.0</ele><time>2026-03-22T15:19:23.769Z</time></trkpt><trkpt lat="43.4986163" lon="11.6849952"><ele>166.20000000000002</ele><time>2026-03-22T15:19:24.768Z</time></trkpt><trkpt lat="43.4985218" lon="11.6849133"><ele>166.4</ele><time>2026-03-22T15:19:25.769Z</time></trkpt><trkpt lat="43.4984306" lon="11.6848373"><ele>166.6</ele><time>2026-03-22T15:19:26.768Z</time></trkpt><trkpt lat="43.4983406" lon="11.6847697"><ele>166.8</ele><time>2026-03-22T15:19:27.769Z</time></trkpt><trkpt lat="43.4982453" lon="11.6847024"><ele>167.0</ele><time>2026-03-22T15:19:28.769Z</time></trkpt><trkpt lat="43.4981435" lon="11.6846344"><ele>167.0</ele><time>2026-03-22T15:19:29.769Z</time></trkpt><trkpt lat="43.4980452" lon="11.6845659"><ele>167.0</ele><time>2026-03-22T15:19:30.769Z</time></trkpt><trkpt lat="43.4979604" lon="11.6845033"><ele>167.0</ele><time>2026-03-22T15:19:31.769Z</time></trkpt><trkpt lat="43.4978858" lon="11.6844483"><ele>167.0</ele><time>2026-03-22T15:19:32.769Z</time></trkpt><trkpt lat="43.4978182" lon="11.6843991"><ele>167.0</ele><time>2026-03-22T15:19:33.769Z</time></trkpt><trkpt lat="43.4977614" lon="11.6843545"><ele>167.0</ele><time>2026-03-22T15:19:34.769Z</time></trkpt><trkpt lat="43.4977036" lon="11.684222"><ele>167.6</ele><time>2026-03-22T15:19:36.768Z</time></trkpt><trkpt lat="43.497752" lon="11.6840691"><ele>168.2</ele><time>2026-03-22T15:19:38.769Z</time></trkpt><trkpt lat="43.4977942" lon="11.6839934"><ele>168.8</ele><time>2026-03-22T15:19:39.769Z</time></trkpt><trkpt lat="43.4978483" lon="11.6838943"><ele>169.4</ele><time>2026-03-22T15:19:40.769Z</time></trkpt><trkpt lat="43.4979049" lon="11.6837805"><ele>170.0</ele><time>2026-03-22T15:19:41.769Z</time></trkpt><trkpt lat="43.4979576" lon="11.6836612"><ele>170.4</ele><time>2026-03-22T15:19:42.768Z</time></trkpt><trkpt lat="43.4980066" lon="11.6835382"><ele>170.8</ele><time>2026-03-22T15:19:43.768Z</time></trkpt><trkpt lat="43.4980475" lon="11.6834159"><ele>171.2</ele><time>2026-03-22T15:19:44.768Z</time></trkpt><trkpt lat="43.4980789" lon="11.6832963"><ele>171.6</ele><time>2026-03-22T15:19:45.768Z</time></trkpt><trkpt lat="43.4981094" lon="11.6831777"><ele>172.0</ele><time>2026-03-22T15:19:46.769Z</time></trkpt><trkpt lat="43.4981486" lon="11.6830588"><ele>172.0</ele><time>2026-03-22T15:19:47.769Z</time></trkpt><trkpt lat="43.4981908" lon="11.68294"><ele>172.0</ele><time>2026-03-22T15:19:48.769Z</time></trkpt><trkpt lat="43.4982266" lon="11.682822"><ele>172.0</ele><time>2026-03-22T15:19:49.769Z</time></trkpt><trkpt lat="43.4982579" lon="11.6827084"><ele>172.0</ele><time>2026-03-22T15:19:50.769Z</time></trkpt><trkpt lat="43.4982855" lon="11.6825874"><ele>172.0</ele><time>2026-03-22T15:19:51.769Z</time></trkpt><trkpt lat="43.4983164" lon="11.6824536"><ele>173.0</ele><time>2026-03-22T15:19:52.769Z</time></trkpt><trkpt lat="43.4983196" lon="11.6823319"><ele>174.0</ele><time>2026-03-22T15:19:53.768Z</time></trkpt><trkpt lat="43.4982921" lon="11.6822253"><ele>175.0</ele><time>2026-03-22T15:19:54.768Z</time></trkpt><trkpt lat="43.4982921" lon="11.6821068"><ele>176.0</ele><time>2026-03-22T15:19:55.768Z</time></trkpt><trkpt lat="43.4983097" lon="11.6819689"><ele>177.0</ele><time>2026-03-22T15:19:56.769Z</time></trkpt><trkpt lat="43.49834" lon="11.6818121"><ele>177.33333333333334</ele><time>2026-03-22T15:19:57.769Z</time></trkpt><trkpt lat="43.4983712" lon="11.6816689"><ele>177.66666666666666</ele><time>2026-03-22T15:19:58.769Z</time></trkpt><trkpt lat="43.4983965" lon="11.6815569"><ele>178.0</ele><time>2026-03-22T15:19:59.768Z</time></trkpt><trkpt lat="43.4984074" lon="11.6814483"><ele>178.33333333333331</ele><time>2026-03-22T15:20:00.768Z</time></trkpt><trkpt lat="43.4984053" lon="11.6813233"><ele>178.66666666666666</ele><time>2026-03-22T15:20:01.769Z</time></trkpt><trkpt lat="43.4984148" lon="11.6812087"><ele>179.0</ele><time>2026-03-22T15:20:02.769Z</time></trkpt><trkpt lat="43.4984404" lon="11.6810883"><ele>179.6</ele><time>2026-03-22T15:20:03.769Z</time></trkpt><trkpt lat="43.4984683" lon="11.6809494"><ele>180.2</ele><time>2026-03-22T15:20:04.768Z</time></trkpt><trkpt lat="43.498495" lon="11.680819"><ele>180.79999999999998</ele><time>2026-03-22T15:20:05.769Z</time></trkpt><trkpt lat="43.4985233" lon="11.6806989"><ele>181.39999999999998</ele><time>2026-03-22T15:20:06.769Z</time></trkpt><trkpt lat="43.498552" lon="11.6805683"><ele>182.0</ele><time>2026-03-22T15:20:07.768Z</time></trkpt><trkpt lat="43.498591" lon="11.6804297"><ele>182.0</ele><time>2026-03-22T15:20:08.769Z</time></trkpt><trkpt lat="43.4986288" lon="11.6802822"><ele>182.0</ele><time>2026-03-22T15:20:09.768Z</time></trkpt><trkpt lat="43.4986591" lon="11.6801509"><ele>182.0</ele><time>2026-03-22T15:20:10.769Z</time></trkpt><trkpt lat="43.4986738" lon="11.6800369"><ele>182.0</ele><time>2026-03-22T15:20:11.768Z</time></trkpt><trkpt lat="43.4986907" lon="11.6799336"><ele>182.0</ele><time>2026-03-22T15:20:12.769Z</time></trkpt><trkpt lat="43.4987151" lon="11.679845"><ele>182.0</ele><time>2026-03-22T15:20:13.769Z</time></trkpt><trkpt lat="43.4987318" lon="11.6797587"><ele>182.16666666666666</ele><time>2026-03-22T15:20:14.769Z</time></trkpt><trkpt lat="43.4987238" lon="11.6796479"><ele>182.33333333333331</ele><time>2026-03-22T15:20:15.769Z</time></trkpt><trkpt lat="43.4987015" lon="11.6795148"><ele>182.5</ele><time>2026-03-22T15:20:16.769Z</time></trkpt><trkpt lat="43.4986818" lon="11.6793817"><ele>182.66666666666666</ele><time>2026-03-22T15:20:17.768Z</time></trkpt><trkpt lat="43.4986685" lon="11.6792842"><ele>182.83333333333334</ele><time>2026-03-22T15:20:18.768Z</time></trkpt><trkpt lat="43.4987018" lon="11.6791928"><ele>183.0</ele><time>2026-03-22T15:20:20.768Z</time></trkpt><trkpt lat="43.4987909" lon="11.6790882"><ele>182.5</ele><time>2026-03-22T15:20:22.769Z</time></trkpt><trkpt lat="43.4988379" lon="11.6790225"><ele>182.0</ele><time>2026-03-22T15:20:23.769Z</time></trkpt><trkpt lat="43.4988885" lon="11.6789447"><ele>181.5</ele><time>2026-03-22T15:20:24.769Z</time></trkpt><trkpt lat="43.4989283" lon="11.6788634"><ele>181.0</ele><time>2026-03-22T15:20:25.769Z</time></trkpt><trkpt lat="43.4989956" lon="11.6787304"><ele>180.5</ele><time>2026-03-22T15:20:27.768Z</time></trkpt><trkpt lat="43.4990333" lon="11.6786506"><ele>180.0</ele><time>2026-03-22T15:20:28.769Z</time></trkpt><trkpt lat="43.499056" lon="11.6785524"><ele>180.0</ele><time>2026-03-22T15:20:29.769Z</time></trkpt><trkpt lat="43.499073" lon="11.67846"><ele>180.0</ele><time>2026-03-22T15:20:30.769Z</time></trkpt><trkpt lat="43.4990929" lon="11.6783719"><ele>180.0</ele><time>2026-03-22T15:20:31.769Z</time></trkpt><trkpt lat="43.4991487" lon="11.6782347"><ele>180.0</ele><time>2026-03-22T15:20:33.768Z</time></trkpt><trkpt lat="43.4992112" lon="11.6781626"><ele>180.0</ele><time>2026-03-22T15:20:35.769Z</time></trkpt><trkpt lat="43.4992787" lon="11.6780483"><ele>180.0</ele><time>2026-03-22T15:21:41.769Z</time></trkpt><trkpt lat="43.4993586" lon="11.6779746"><ele>180.0</ele><time>2026-03-22T15:21:42.769Z</time></trkpt><trkpt lat="43.4994241" lon="11.6779187"><ele>180.0</ele><time>2026-03-22T15:21:43.769Z</time></trkpt><trkpt lat="43.4994986" lon="11.6778614"><ele>180.0</ele><time>2026-03-22T15:21:44.768Z</time></trkpt><trkpt lat="43.4995592" lon="11.6778163"><ele>180.0</ele><time>2026-03-22T15:21:45.767Z</time></trkpt><trkpt lat="43.4996203" lon="11.6777714"><ele>180.0</ele><time>2026-03-22T15:21:46.769Z</time></trkpt><trkpt lat="43.4996798" lon="11.6777275"><ele>180.0</ele><time>2026-03-22T15:21:47.769Z</time></trkpt><trkpt lat="43.4997465" lon="11.6776896"><ele>180.0</ele><time>2026-03-22T15:21:48.769Z</time></trkpt><trkpt lat="43.4998049" lon="11.6776505"><ele>179.2</ele><time>2026-03-22T15:21:49.769Z</time></trkpt><trkpt lat="43.4998854" lon="11.6775984"><ele>178.4</ele><time>2026-03-22T15:21:50.768Z</time></trkpt><trkpt lat="43.4999496" lon="11.6775559"><ele>177.60000000000002</ele><time>2026-03-22T15:21:51.769Z</time></trkpt><trkpt lat="43.5000093" lon="11.6775045"><ele>176.8</ele><time>2026-03-22T15:21:52.768Z</time></trkpt><trkpt lat="43.5001095" lon="11.677441"><ele>176.0</ele><time>2026-03-22T15:21:54.769Z</time></trkpt><trkpt lat="43.5002033" lon="11.6773533"><ele>176.0</ele><time>2026-03-22T15:21:56.769Z</time></trkpt><trkpt lat="43.5003005" lon="11.6772507"><ele>176.0</ele><time>2026-03-22T15:21:58.769Z</time></trkpt><trkpt lat="43.5004123" lon="11.6771256"><ele>176.0</ele><time>2026-03-22T15:22:00.768Z</time></trkpt><trkpt lat="43.5004869" lon="11.6770697"><ele>176.0</ele><time>2026-03-22T15:22:01.769Z</time></trkpt><trkpt lat="43.5005453" lon="11.6770156"><ele>176.0</ele><time>2026-03-22T15:22:02.769Z</time></trkpt><trkpt lat="43.5006224" lon="11.67689"><ele>175.4</ele><time>2026-03-22T15:22:04.769Z</time></trkpt><trkpt lat="43.5006458" lon="11.6767281"><ele>174.8</ele><time>2026-03-22T15:22:06.768Z</time></trkpt><trkpt lat="43.5006429" lon="11.6766333"><ele>174.20000000000002</ele><time>2026-03-22T15:22:07.769Z</time></trkpt><trkpt lat="43.5006294" lon="11.6764889"><ele>173.60000000000002</ele><time>2026-03-22T15:22:09.768Z</time></trkpt><trkpt lat="43.5005989" lon="11.6763721"><ele>173.0</ele><time>2026-03-22T15:22:11.768Z</time></trkpt><trkpt lat="43.500551" lon="11.6762714"><ele>173.0</ele><time>2026-03-22T15:22:13.768Z</time></trkpt><trkpt lat="43.5005351" lon="11.6761601"><ele>173.0</ele><time>2026-03-22T15:22:15.769Z</time></trkpt><trkpt lat="43.5005167" lon="11.6760666"><ele>173.0</ele><time>2026-03-22T15:22:17.769Z</time></trkpt><trkpt lat="43.5005139" lon="11.6759286"><ele>173.0</ele><time>2026-03-22T15:22:20.769Z</time></trkpt><trkpt lat="43.5005768" lon="11.6758583"><ele>173.0</ele><time>2026-03-22T15:22:22.769Z</time></trkpt><trkpt lat="43.5006392" lon="11.675767"><ele>173.0</ele><time>2026-03-22T15:26:36.769Z</time></trkpt><trkpt lat="43.5006996" lon="11.6757015"><ele>173.16666666666666</ele><time>2026-03-22T15:26:37.768Z</time></trkpt><trkpt lat="43.5007574" lon="11.6756099"><ele>173.33333333333331</ele><time>2026-03-22T15:26:38.769Z</time></trkpt><trkpt lat="43.5008076" lon="11.6755357"><ele>173.5</ele><time>2026-03-22T15:26:39.769Z</time></trkpt><trkpt lat="43.5008639" lon="11.6754702"><ele>173.66666666666666</ele><time>2026-03-22T15:26:40.769Z</time></trkpt><trkpt lat="43.500918" lon="11.6753999"><ele>173.83333333333334</ele><time>2026-03-22T15:26:41.768Z</time></trkpt><trkpt lat="43.5010196" lon="11.6753125"><ele>174.0</ele><time>2026-03-22T15:26:43.769Z</time></trkpt><trkpt lat="43.5011135" lon="11.6752114"><ele>176.0</ele><time>2026-03-22T15:26:45.768Z</time></trkpt><trkpt lat="43.5011782" lon="11.6750801"><ele>178.0</ele><time>2026-03-22T15:26:47.769Z</time></trkpt><trkpt lat="43.501202" lon="11.6749964"><ele>180.0</ele><time>2026-03-22T15:26:48.768Z</time></trkpt><trkpt lat="43.5012223" lon="11.6749093"><ele>182.0</ele><time>2026-03-22T15:26:49.769Z</time></trkpt><trkpt lat="43.5012306" lon="11.6748126"><ele>184.0</ele><time>2026-03-22T15:26:50.769Z</time></trkpt><trkpt lat="43.5012364" lon="11.6746851"><ele>186.0</ele><time>2026-03-22T15:26:51.769Z</time></trkpt><trkpt lat="43.5012446" lon="11.6745396"><ele>184.0</ele><time>2026-03-22T15:26:52.769Z</time></trkpt><trkpt lat="43.5012511" lon="11.6744184"><ele>182.0</ele><time>2026-03-22T15:26:53.769Z</time></trkpt><trkpt lat="43.5012526" lon="11.6743229"><ele>180.0</ele><time>2026-03-22T15:26:54.769Z</time></trkpt><trkpt lat="43.501259" lon="11.674233"><ele>178.0</ele><time>2026-03-22T15:26:55.767Z</time></trkpt><trkpt lat="43.5012788" lon="11.6741055"><ele>176.0</ele><time>2026-03-22T15:26:57.769Z</time></trkpt><trkpt lat="43.5013001" lon="11.67398"><ele>174.0</ele><time>2026-03-22T15:26:59.769Z</time></trkpt><trkpt lat="43.50134" lon="11.6738871"><ele>174.0</ele><time>2026-03-22T15:27:01.769Z</time></trkpt><trkpt lat="43.5013866" lon="11.6738026"><ele>174.0</ele><time>2026-03-22T15:27:04.769Z</time></trkpt><trkpt lat="43.5014176" lon="11.6737049"><ele>174.0</ele><time>2026-03-22T15:28:46.769Z</time></trkpt><trkpt lat="43.5013334" lon="11.6736264"><ele>174.0</ele><time>2026-03-22T15:28:48.769Z</time></trkpt><trkpt lat="43.5012691" lon="11.6736156"><ele>174.0</ele><time>2026-03-22T15:28:49.768Z</time></trkpt><trkpt lat="43.5012012" lon="11.6736257"><ele>174.0</ele><time>2026-03-22T15:28:50.769Z</time></trkpt><trkpt lat="43.5011435" lon="11.6736658"><ele>177.5</ele><time>2026-03-22T15:28:51.769Z</time></trkpt><trkpt lat="43.5010861" lon="11.6737321"><ele>181.0</ele><time>2026-03-22T15:28:52.769Z</time></trkpt><trkpt lat="43.501041" lon="11.6738243"><ele>184.5</ele><time>2026-03-22T15:28:53.768Z</time></trkpt><trkpt lat="43.5010158" lon="11.6739403"><ele>188.0</ele><time>2026-03-22T15:28:54.768Z</time></trkpt><trkpt lat="43.5010086" lon="11.6740698"><ele>191.5</ele><time>2026-03-22T15:28:55.768Z</time></trkpt><trkpt lat="43.5010169" lon="11.6742187"><ele>195.0</ele><time>2026-03-22T15:28:56.768Z</time></trkpt><trkpt lat="43.5010215" lon="11.6743738"><ele>193.2</ele><time>2026-03-22T15:28:57.769Z</time></trkpt><trkpt lat="43.5010233" lon="11.6745048"><ele>191.4</ele><time>2026-03-22T15:28:58.769Z</time></trkpt><trkpt lat="43.5010145" lon="11.6746278"><ele>189.60000000000002</ele><time>2026-03-22T15:28:59.768Z</time></trkpt><trkpt lat="43.5009884" lon="11.6747502"><ele>187.8</ele><time>2026-03-22T15:29:00.768Z</time></trkpt><trkpt lat="43.5009386" lon="11.6748563"><ele>186.0</ele><time>2026-03-22T15:29:01.768Z</time></trkpt><trkpt lat="43.5008683" lon="11.6749432"><ele>186.0</ele><time>2026-03-22T15:29:02.769Z</time></trkpt><trkpt lat="43.5007826" lon="11.6749966"><ele>186.0</ele><time>2026-03-22T15:29:03.768Z</time></trkpt><trkpt lat="43.5006987" lon="11.6750101"><ele>186.0</ele><time>2026-03-22T15:29:04.769Z</time></trkpt><trkpt lat="43.500615" lon="11.6749878"><ele>186.0</ele><time>2026-03-22T15:29:05.768Z</time></trkpt><trkpt lat="43.5005381" lon="11.674929"><ele>186.0</ele><time>2026-03-22T15:29:06.768Z</time></trkpt><trkpt lat="43.500479" lon="11.6748422"><ele>186.0</ele><time>2026-03-22T15:29:07.768Z</time></trkpt><trkpt lat="43.5004384" lon="11.6747343"><ele>186.0</ele><time>2026-03-22T15:29:08.768Z</time></trkpt><trkpt lat="43.5004198" lon="11.6746133"><ele>186.0</ele><time>2026-03-22T15:29:09.769Z</time></trkpt><trkpt lat="43.5004256" lon="11.6744887"><ele>186.0</ele><time>2026-03-22T15:29:10.768Z</time></trkpt><trkpt lat="43.5004531" lon="11.6743525"><ele>186.0</ele><time>2026-03-22T15:29:11.767Z</time></trkpt><trkpt lat="43.5005053" lon="11.6742077"><ele>186.0</ele><time>2026-03-22T15:29:12.768Z</time></trkpt><trkpt lat="43.5005781" lon="11.6740407"><ele>189.0</ele><time>2026-03-22T15:29:13.768Z</time></trkpt><trkpt lat="43.5006648" lon="11.6738424"><ele>192.0</ele><time>2026-03-22T15:29:14.769Z</time></trkpt><trkpt lat="43.5007302" lon="11.6736534"><ele>195.0</ele><time>2026-03-22T15:29:15.769Z</time></trkpt><trkpt lat="43.5007767" lon="11.6734755"><ele>197.25</ele><time>2026-03-22T15:29:16.769Z</time></trkpt><trkpt lat="43.5008096" lon="11.6732886"><ele>199.5</ele><time>2026-03-22T15:29:17.768Z</time></trkpt><trkpt lat="43.5008436" lon="11.6730804"><ele>201.75</ele><time>2026-03-22T15:29:18.768Z</time></trkpt><trkpt lat="43.500874" lon="11.672887"><ele>204.0</ele><time>2026-03-22T15:29:19.769Z</time></trkpt><trkpt lat="43.5009079" lon="11.672698"><ele>206.75</ele><time>2026-03-22T15:29:20.769Z</time></trkpt><trkpt lat="43.5009396" lon="11.6725084"><ele>209.5</ele><time>2026-03-22T15:29:21.768Z</time></trkpt><trkpt lat="43.5009641" lon="11.6723159"><ele>212.25</ele><time>2026-03-22T15:29:22.768Z</time></trkpt><trkpt lat="43.5009649" lon="11.6721243"><ele>215.0</ele><time>2026-03-22T15:29:23.769Z</time></trkpt><trkpt lat="43.5009399" lon="11.6719292"><ele>215.5</ele><time>2026-03-22T15:29:24.769Z</time></trkpt><trkpt lat="43.5009124" lon="11.6717343"><ele>216.0</ele><time>2026-03-22T15:29:25.769Z</time></trkpt><trkpt lat="43.5009006" lon="11.6715513"><ele>216.5</ele><time>2026-03-22T15:29:26.769Z</time></trkpt><trkpt lat="43.5009151" lon="11.6713846"><ele>217.0</ele><time>2026-03-22T15:29:27.769Z</time></trkpt><trkpt lat="43.5009547" lon="11.6712317"><ele>217.5</ele><time>2026-03-22T15:29:28.769Z</time></trkpt><trkpt lat="43.5010243" lon="11.6711029"><ele>218.0</ele><time>2026-03-22T15:29:29.769Z</time></trkpt><trkpt lat="43.5011162" lon="11.670993"><ele>218.5</ele><time>2026-03-22T15:29:30.769Z</time></trkpt><trkpt lat="43.5012044" lon="11.670889"><ele>219.0</ele><time>2026-03-22T15:29:31.768Z</time></trkpt><trkpt lat="43.5012777" lon="11.67079"><ele>220.79999999999998</ele><time>2026-03-22T15:29:32.769Z</time></trkpt><trkpt lat="43.5013277" lon="11.6706767"><ele>222.59999999999997</ele><time>2026-03-22T15:29:33.769Z</time></trkpt><trkpt lat="43.5013479" lon="11.6705509"><ele>224.4</ele><time>2026-03-22T15:29:34.769Z</time></trkpt><trkpt lat="43.501334" lon="11.6704235"><ele>226.2</ele><time>2026-03-22T15:29:35.768Z</time></trkpt><trkpt lat="43.5012904" lon="11.6703133"><ele>228.0</ele><time>2026-03-22T15:29:36.769Z</time></trkpt><trkpt lat="43.5012175" lon="11.6702295"><ele>228.0</ele><time>2026-03-22T15:29:37.769Z</time></trkpt><trkpt lat="43.5011336" lon="11.6701808"><ele>228.0</ele><time>2026-03-22T15:29:38.768Z</time></trkpt><trkpt lat="43.5010369" lon="11.6701758"><ele>228.0</ele><time>2026-03-22T15:29:39.769Z</time></trkpt><trkpt lat="43.5009362" lon="11.6702088"><ele>228.0</ele><time>2026-03-22T15:29:40.769Z</time></trkpt><trkpt lat="43.5008411" lon="11.6702773"><ele>228.0</ele><time>2026-03-22T15:29:41.768Z</time></trkpt><trkpt lat="43.5007433" lon="11.6703871"><ele>228.75</ele><time>2026-03-22T15:29:42.769Z</time></trkpt><trkpt lat="43.5006374" lon="11.670517"><ele>229.5</ele><time>2026-03-22T15:29:43.768Z</time></trkpt><trkpt lat="43.5005324" lon="11.6706498"><ele>230.25</ele><time>2026-03-22T15:29:44.768Z</time></trkpt><trkpt lat="43.5004344" lon="11.6707808"><ele>231.0</ele><time>2026-03-22T15:29:45.768Z</time></trkpt><trkpt lat="43.5003441" lon="11.6709186"><ele>231.0</ele><time>2026-03-22T15:29:46.768Z</time></trkpt><trkpt lat="43.500264" lon="11.6710662"><ele>231.0</ele><time>2026-03-22T15:29:47.767Z</time></trkpt><trkpt lat="43.5001896" lon="11.6712119"><ele>231.0</ele><time>2026-03-22T15:29:48.768Z</time></trkpt><trkpt lat="43.5001133" lon="11.6713444"><ele>231.0</ele><time>2026-03-22T15:29:49.769Z</time></trkpt><trkpt lat="43.5000168" lon="11.6714329"><ele>230.20000000000002</ele><time>2026-03-22T15:29:50.767Z</time></trkpt><trkpt lat="43.4999137" lon="11.6714765"><ele>229.40000000000003</ele><time>2026-03-22T15:29:51.768Z</time></trkpt><trkpt lat="43.4998087" lon="11.6714753"><ele>228.6</ele><time>2026-03-22T15:29:52.768Z</time></trkpt><trkpt lat="43.4997197" lon="11.6714239"><ele>227.8</ele><time>2026-03-22T15:29:53.769Z</time></trkpt><trkpt lat="43.4996557" lon="11.6713357"><ele>227.0</ele><time>2026-03-22T15:29:54.768Z</time></trkpt><trkpt lat="43.4996213" lon="11.6712261"><ele>227.8</ele><time>2026-03-22T15:29:55.768Z</time></trkpt><trkpt lat="43.4996158" lon="11.6711028"><ele>228.6</ele><time>2026-03-22T15:29:56.768Z</time></trkpt><trkpt lat="43.4996356" lon="11.6709723"><ele>229.40000000000003</ele><time>2026-03-22T15:29:57.767Z</time></trkpt><trkpt lat="43.4996814" lon="11.6708432"><ele>230.20000000000002</ele><time>2026-03-22T15:29:58.768Z</time></trkpt><trkpt lat="43.4997416" lon="11.6707202"><ele>231.0</ele><time>2026-03-22T15:29:59.768Z</time></trkpt><trkpt lat="43.499804" lon="11.6705903"><ele>231.0</ele><time>2026-03-22T15:30:00.768Z</time></trkpt><trkpt lat="43.4998637" lon="11.6704495"><ele>231.0</ele><time>2026-03-22T15:30:01.769Z</time></trkpt><trkpt lat="43.4999212" lon="11.6703001"><ele>231.0</ele><time>2026-03-22T15:30:02.768Z</time></trkpt><trkpt lat="43.4999733" lon="11.6701485"><ele>231.0</ele><time>2026-03-22T15:30:03.768Z</time></trkpt><trkpt lat="43.5000208" lon="11.6699939"><ele>233.25</ele><time>2026-03-22T15:30:04.768Z</time></trkpt><trkpt lat="43.5000655" lon="11.6698382"><ele>235.5</ele><time>2026-03-22T15:30:05.768Z</time></trkpt><trkpt lat="43.5001108" lon="11.6696813"><ele>237.75</ele><time>2026-03-22T15:30:06.768Z</time></trkpt><trkpt lat="43.5001573" lon="11.6695229"><ele>240.0</ele><time>2026-03-22T15:30:07.769Z</time></trkpt><trkpt lat="43.5002004" lon="11.6693589"><ele>241.25</ele><time>2026-03-22T15:30:08.768Z</time></trkpt><trkpt lat="43.5002361" lon="11.6691913"><ele>242.5</ele><time>2026-03-22T15:30:09.769Z</time></trkpt><trkpt lat="43.5002574" lon="11.6690207"><ele>243.75</ele><time>2026-03-22T15:30:10.769Z</time></trkpt><trkpt lat="43.5002623" lon="11.6688448"><ele>245.0</ele><time>2026-03-22T15:30:11.769Z</time></trkpt><trkpt lat="43.5002496" lon="11.6686702"><ele>245.75</ele><time>2026-03-22T15:30:12.768Z</time></trkpt><trkpt lat="43.500216" lon="11.6684952"><ele>246.5</ele><time>2026-03-22T15:30:13.769Z</time></trkpt><trkpt lat="43.5001672" lon="11.6683288"><ele>247.25</ele><time>2026-03-22T15:30:14.769Z</time></trkpt><trkpt lat="43.5000984" lon="11.6681761"><ele>248.0</ele><time>2026-03-22T15:30:15.769Z</time></trkpt><trkpt lat="43.5000156" lon="11.6680445"><ele>248.0</ele><time>2026-03-22T15:30:16.769Z</time></trkpt><trkpt lat="43.4999183" lon="11.6679331"><ele>248.0</ele><time>2026-03-22T15:30:17.768Z</time></trkpt><trkpt lat="43.499812" lon="11.6678373"><ele>248.0</ele><time>2026-03-22T15:30:18.769Z</time></trkpt><trkpt lat="43.4997039" lon="11.6677395"><ele>248.0</ele><time>2026-03-22T15:30:19.768Z</time></trkpt><trkpt lat="43.4995928" lon="11.6676374"><ele>247.75</ele><time>2026-03-22T15:30:20.768Z</time></trkpt><trkpt lat="43.4994902" lon="11.6675327"><ele>247.5</ele><time>2026-03-22T15:30:21.768Z</time></trkpt><trkpt lat="43.4993959" lon="11.6674262"><ele>247.25</ele><time>2026-03-22T15:30:22.768Z</time></trkpt><trkpt lat="43.4993088" lon="11.6673144"><ele>247.0</ele><time>2026-03-22T15:30:23.769Z</time></trkpt><trkpt lat="43.4992223" lon="11.6671929"><ele>247.0</ele><time>2026-03-22T15:30:24.769Z</time></trkpt><trkpt lat="43.4991412" lon="11.6670772"><ele>247.0</ele><time>2026-03-22T15:30:25.768Z</time></trkpt><trkpt lat="43.4990615" lon="11.6669631"><ele>247.0</ele><time>2026-03-22T15:30:26.769Z</time></trkpt><trkpt lat="43.4989726" lon="11.6668414"><ele>247.0</ele><time>2026-03-22T15:30:27.769Z</time></trkpt><trkpt lat="43.4988757" lon="11.6667119"><ele>247.25</ele><time>2026-03-22T15:30:28.769Z</time></trkpt><trkpt lat="43.4987788" lon="11.6665784"><ele>247.5</ele><time>2026-03-22T15:30:29.768Z</time></trkpt><trkpt lat="43.4986848" lon="11.6664417"><ele>247.75</ele><time>2026-03-22T15:30:30.769Z</time></trkpt><trkpt lat="43.4985876" lon="11.6663113"><ele>248.0</ele><time>2026-03-22T15:30:31.768Z</time></trkpt><trkpt lat="43.4984928" lon="11.6661791"><ele>248.5</ele><time>2026-03-22T15:30:32.769Z</time></trkpt><trkpt lat="43.4984013" lon="11.666052"><ele>249.0</ele><time>2026-03-22T15:30:33.768Z</time></trkpt><trkpt lat="43.4983082" lon="11.6659299"><ele>249.5</ele><time>2026-03-22T15:30:34.769Z</time></trkpt><trkpt lat="43.4982228" lon="11.6658092"><ele>250.0</ele><time>2026-03-22T15:30:35.768Z</time></trkpt><trkpt lat="43.4981415" lon="11.6656978"><ele>250.0</ele><time>2026-03-22T15:30:36.769Z</time></trkpt><trkpt lat="43.4980643" lon="11.6655915"><ele>250.0</ele><time>2026-03-22T15:30:37.769Z</time></trkpt><trkpt lat="43.4979905" lon="11.6654919"><ele>250.0</ele><time>2026-03-22T15:30:38.769Z</time></trkpt><trkpt lat="43.4979178" lon="11.6653874"><ele>250.0</ele><time>2026-03-22T15:30:39.768Z</time></trkpt><trkpt lat="43.4978449" lon="11.6652811"><ele>250.0</ele><time>2026-03-22T15:30:40.768Z</time></trkpt><trkpt lat="43.4977725" lon="11.6651676"><ele>249.75</ele><time>2026-03-22T15:30:41.768Z</time></trkpt><trkpt lat="43.4977006" lon="11.6650519"><ele>249.5</ele><time>2026-03-22T15:30:42.769Z</time></trkpt><trkpt lat="43.4976209" lon="11.6649258"><ele>249.25</ele><time>2026-03-22T15:30:43.769Z</time></trkpt><trkpt lat="43.4975409" lon="11.6647975"><ele>249.0</ele><time>2026-03-22T15:30:44.769Z</time></trkpt><trkpt lat="43.4974641" lon="11.6646723"><ele>249.0</ele><time>2026-03-22T15:30:45.768Z</time></trkpt><trkpt lat="43.4973891" lon="11.6645536"><ele>248.99999999999997</ele><time>2026-03-22T15:30:46.769Z</time></trkpt><trkpt lat="43.4973205" lon="11.6644407"><ele>248.99999999999997</ele><time>2026-03-22T15:30:47.769Z</time></trkpt><trkpt lat="43.4972507" lon="11.6643362"><ele>249.0</ele><time>2026-03-22T15:30:48.768Z</time></trkpt><trkpt lat="43.497187" lon="11.6642315"><ele>249.0</ele><time>2026-03-22T15:30:49.769Z</time></trkpt><trkpt lat="43.4971308" lon="11.6641209"><ele>248.25</ele><time>2026-03-22T15:30:50.768Z</time></trkpt><trkpt lat="43.4970836" lon="11.6639901"><ele>247.5</ele><time>2026-03-22T15:30:51.768Z</time></trkpt><trkpt lat="43.4970431" lon="11.6638283"><ele>246.75</ele><time>2026-03-22T15:30:52.768Z</time></trkpt><trkpt lat="43.4970069" lon="11.6636473"><ele>246.0</ele><time>2026-03-22T15:30:53.768Z</time></trkpt><trkpt lat="43.4969724" lon="11.6634795"><ele>246.0</ele><time>2026-03-22T15:30:54.769Z</time></trkpt><trkpt lat="43.4969408" lon="11.6633098"><ele>246.0</ele><time>2026-03-22T15:30:55.769Z</time></trkpt><trkpt lat="43.4969178" lon="11.6631322"><ele>246.0</ele><time>2026-03-22T15:30:56.769Z</time></trkpt><trkpt lat="43.4969112" lon="11.6629587"><ele>246.0</ele><time>2026-03-22T15:30:57.769Z</time></trkpt><trkpt lat="43.4969231" lon="11.6627854"><ele>246.25</ele><time>2026-03-22T15:30:58.769Z</time></trkpt><trkpt lat="43.4969476" lon="11.6626162"><ele>246.5</ele><time>2026-03-22T15:30:59.768Z</time></trkpt><trkpt lat="43.4969731" lon="11.662461"><ele>246.75</ele><time>2026-03-22T15:31:00.768Z</time></trkpt><trkpt lat="43.4969945" lon="11.6623128"><ele>247.0</ele><time>2026-03-22T15:31:01.769Z</time></trkpt><trkpt lat="43.4970177" lon="11.6621569"><ele>247.0</ele><time>2026-03-22T15:31:02.768Z</time></trkpt><trkpt lat="43.4970409" lon="11.6619966"><ele>247.0</ele><time>2026-03-22T15:31:03.768Z</time></trkpt><trkpt lat="43.4970673" lon="11.6618307"><ele>247.0</ele><time>2026-03-22T15:31:04.769Z</time></trkpt><trkpt lat="43.4970911" lon="11.6616557"><ele>247.0</ele><time>2026-03-22T15:31:05.768Z</time></trkpt><trkpt lat="43.4971167" lon="11.6614677"><ele>247.5</ele><time>2026-03-22T15:31:06.768Z</time></trkpt><trkpt lat="43.4971433" lon="11.6612877"><ele>248.0</ele><time>2026-03-22T15:31:07.769Z</time></trkpt><trkpt lat="43.4971712" lon="11.6611226"><ele>248.5</ele><time>2026-03-22T15:31:08.768Z</time></trkpt><trkpt lat="43.4971982" lon="11.6609694"><ele>249.0</ele><time>2026-03-22T15:31:09.769Z</time></trkpt><trkpt lat="43.4972243" lon="11.6608087"><ele>249.25</ele><time>2026-03-22T15:31:10.769Z</time></trkpt><trkpt lat="43.497248" lon="11.6606475"><ele>249.5</ele><time>2026-03-22T15:31:11.769Z</time></trkpt><trkpt lat="43.497264" lon="11.66049"><ele>249.75</ele><time>2026-03-22T15:31:12.768Z</time></trkpt><trkpt lat="43.4972628" lon="11.6603373"><ele>250.0</ele><time>2026-03-22T15:31:13.768Z</time></trkpt><trkpt lat="43.4972366" lon="11.6601966"><ele>250.0</ele><time>2026-03-22T15:31:14.768Z</time></trkpt><trkpt lat="43.4971861" lon="11.6600692"><ele>250.0</ele><time>2026-03-22T15:31:15.769Z</time></trkpt><trkpt lat="43.4971166" lon="11.659948"><ele>250.0</ele><time>2026-03-22T15:31:16.768Z</time></trkpt><trkpt lat="43.4970383" lon="11.6598317"><ele>250.0</ele><time>2026-03-22T15:31:17.769Z</time></trkpt><trkpt lat="43.4969574" lon="11.6597156"><ele>250.0</ele><time>2026-03-22T15:31:18.768Z</time></trkpt><trkpt lat="43.4968721" lon="11.6596053"><ele>250.0</ele><time>2026-03-22T15:31:19.769Z</time></trkpt><trkpt lat="43.4967787" lon="11.659503"><ele>250.0</ele><time>2026-03-22T15:31:20.769Z</time></trkpt><trkpt lat="43.496678" lon="11.6594148"><ele>250.0</ele><time>2026-03-22T15:31:21.768Z</time></trkpt><trkpt lat="43.4965785" lon="11.6593356"><ele>250.0</ele><time>2026-03-22T15:31:22.769Z</time></trkpt><trkpt lat="43.4964804" lon="11.6592618"><ele>249.6</ele><time>2026-03-22T15:31:23.769Z</time></trkpt><trkpt lat="43.4963833" lon="11.6591902"><ele>249.2</ele><time>2026-03-22T15:31:24.767Z</time></trkpt><trkpt lat="43.4962922" lon="11.6591194"><ele>248.8</ele><time>2026-03-22T15:31:25.769Z</time></trkpt><trkpt lat="43.49621" lon="11.6590443"><ele>248.4</ele><time>2026-03-22T15:31:26.769Z</time></trkpt><trkpt lat="43.4961413" lon="11.658968"><ele>248.0</ele><time>2026-03-22T15:31:27.768Z</time></trkpt><trkpt lat="43.4960868" lon="11.6588829"><ele>248.85714285714286</ele><time>2026-03-22T15:31:28.768Z</time></trkpt><trkpt lat="43.4960441" lon="11.6587929"><ele>249.71428571428572</ele><time>2026-03-22T15:31:29.769Z</time></trkpt><trkpt lat="43.4959989" lon="11.6587087"><ele>250.57142857142858</ele><time>2026-03-22T15:31:30.768Z</time></trkpt><trkpt lat="43.4959419" lon="11.6586575"><ele>251.42857142857144</ele><time>2026-03-22T15:31:31.768Z</time></trkpt><trkpt lat="43.4958757" lon="11.6586454"><ele>252.28571428571428</ele><time>2026-03-22T15:31:32.768Z</time></trkpt><trkpt lat="43.4958092" lon="11.6586805"><ele>253.14285714285717</ele><time>2026-03-22T15:31:33.769Z</time></trkpt><trkpt lat="43.4957611" lon="11.6587521"><ele>254.0</ele><time>2026-03-22T15:31:34.768Z</time></trkpt><trkpt lat="43.4957431" lon="11.6588419"><ele>254.0</ele><time>2026-03-22T15:31:35.768Z</time></trkpt><trkpt lat="43.4957442" lon="11.6589438"><ele>253.99999999999997</ele><time>2026-03-22T15:31:36.769Z</time></trkpt><trkpt lat="43.4957445" lon="11.6590663"><ele>253.99999999999997</ele><time>2026-03-22T15:31:37.769Z</time></trkpt><trkpt lat="43.4957245" lon="11.6592043"><ele>254.0</ele><time>2026-03-22T15:31:38.768Z</time></trkpt><trkpt lat="43.4956829" lon="11.659347"><ele>254.0</ele><time>2026-03-22T15:31:39.768Z</time></trkpt><trkpt lat="43.4956274" lon="11.6594929"><ele>254.0</ele><time>2026-03-22T15:31:40.769Z</time></trkpt><trkpt lat="43.4955638" lon="11.6596411"><ele>254.0</ele><time>2026-03-22T15:31:41.768Z</time></trkpt><trkpt lat="43.4954926" lon="11.6598013"><ele>254.0</ele><time>2026-03-22T15:31:42.768Z</time></trkpt><trkpt lat="43.4954141" lon="11.6599661"><ele>254.0</ele><time>2026-03-22T15:31:43.769Z</time></trkpt><trkpt lat="43.4953207" lon="11.6601421"><ele>256.33333333333337</ele><time>2026-03-22T15:31:44.769Z</time></trkpt><trkpt lat="43.4952117" lon="11.6603265"><ele>258.6666666666667</ele><time>2026-03-22T15:31:45.768Z</time></trkpt><trkpt lat="43.4951031" lon="11.6605072"><ele>261.0</ele><time>2026-03-22T15:31:46.767Z</time></trkpt><trkpt lat="43.4949996" lon="11.6606723"><ele>261.0</ele><time>2026-03-22T15:31:47.768Z</time></trkpt><trkpt lat="43.4948992" lon="11.6608258"><ele>261.0</ele><time>2026-03-22T15:31:48.769Z</time></trkpt><trkpt lat="43.4947999" lon="11.6609695"><ele>261.0</ele><time>2026-03-22T15:31:49.769Z</time></trkpt><trkpt lat="43.4946954" lon="11.6611063"><ele>261.0</ele><time>2026-03-22T15:31:50.769Z</time></trkpt><trkpt lat="43.4945874" lon="11.6612382"><ele>261.0</ele><time>2026-03-22T15:31:51.768Z</time></trkpt><trkpt lat="43.494476" lon="11.6613664"><ele>261.0</ele><time>2026-03-22T15:31:52.768Z</time></trkpt><trkpt lat="43.4943599" lon="11.6614914"><ele>261.0</ele><time>2026-03-22T15:31:53.769Z</time></trkpt><trkpt lat="43.4942413" lon="11.6616163"><ele>261.0</ele><time>2026-03-22T15:31:54.769Z</time></trkpt><trkpt lat="43.4941196" lon="11.6617401"><ele>261.0</ele><time>2026-03-22T15:31:55.769Z</time></trkpt><trkpt lat="43.4939979" lon="11.6618606"><ele>261.0</ele><time>2026-03-22T15:31:56.768Z</time></trkpt><trkpt lat="43.4938753" lon="11.6619796"><ele>261.0</ele><time>2026-03-22T15:31:57.768Z</time></trkpt><trkpt lat="43.4937516" lon="11.6621001"><ele>260.6666666666667</ele><time>2026-03-22T15:31:58.769Z</time></trkpt><trkpt lat="43.4936284" lon="11.6622217"><ele>260.33333333333337</ele><time>2026-03-22T15:31:59.769Z</time></trkpt><trkpt lat="43.4935069" lon="11.6623461"><ele>260.0</ele><time>2026-03-22T15:32:00.769Z</time></trkpt><trkpt lat="43.4933837" lon="11.6624647"><ele>260.0</ele><time>2026-03-22T15:32:01.768Z</time></trkpt><trkpt lat="43.4932576" lon="11.6625823"><ele>260.0</ele><time>2026-03-22T15:32:02.769Z</time></trkpt><trkpt lat="43.4931297" lon="11.662703"><ele>260.0</ele><time>2026-03-22T15:32:03.768Z</time></trkpt><trkpt lat="43.4930029" lon="11.6628259"><ele>261.33333333333337</ele><time>2026-03-22T15:32:04.769Z</time></trkpt><trkpt lat="43.4928724" lon="11.6629487"><ele>262.6666666666667</ele><time>2026-03-22T15:32:05.768Z</time></trkpt><trkpt lat="43.4927402" lon="11.663072"><ele>264.0</ele><time>2026-03-22T15:32:06.768Z</time></trkpt><trkpt lat="43.4926017" lon="11.6631972"><ele>264.0</ele><time>2026-03-22T15:32:07.769Z</time></trkpt><trkpt lat="43.4924624" lon="11.6633312"><ele>264.0</ele><time>2026-03-22T15:32:08.768Z</time></trkpt><trkpt lat="43.4923198" lon="11.6634716"><ele>264.0</ele><time>2026-03-22T15:32:09.769Z</time></trkpt><trkpt lat="43.4921868" lon="11.6636056"><ele>264.0</ele><time>2026-03-22T15:32:10.768Z</time></trkpt><trkpt lat="43.4920591" lon="11.6637329"><ele>264.0</ele><time>2026-03-22T15:32:11.768Z</time></trkpt><trkpt lat="43.4919276" lon="11.6638584"><ele>264.0</ele><time>2026-03-22T15:32:12.769Z</time></trkpt><trkpt lat="43.4917887" lon="11.663994"><ele>264.0</ele><time>2026-03-22T15:32:13.768Z</time></trkpt><trkpt lat="43.4916392" lon="11.6641374"><ele>264.0</ele><time>2026-03-22T15:32:14.769Z</time></trkpt><trkpt lat="43.4914959" lon="11.6642721"><ele>264.0</ele><time>2026-03-22T15:32:15.769Z</time></trkpt><trkpt lat="43.4913627" lon="11.6644023"><ele>264.3333333333333</ele><time>2026-03-22T15:32:16.768Z</time></trkpt><trkpt lat="43.4912307" lon="11.6645255"><ele>264.66666666666663</ele><time>2026-03-22T15:32:17.769Z</time></trkpt><trkpt lat="43.4910989" lon="11.6646528"><ele>265.0</ele><time>2026-03-22T15:32:18.769Z</time></trkpt><trkpt lat="43.490964" lon="11.6647821"><ele>265.0</ele><time>2026-03-22T15:32:19.769Z</time></trkpt><trkpt lat="43.490831" lon="11.6649145"><ele>265.0</ele><time>2026-03-22T15:32:20.769Z</time></trkpt><trkpt lat="43.4906954" lon="11.6650495"><ele>265.0</ele><time>2026-03-22T15:32:21.768Z</time></trkpt><trkpt lat="43.4905564" lon="11.6651891"><ele>265.66666666666663</ele><time>2026-03-22T15:32:22.769Z</time></trkpt><trkpt lat="43.4904106" lon="11.6653293"><ele>266.3333333333333</ele><time>2026-03-22T15:32:23.768Z</time></trkpt><trkpt lat="43.4902679" lon="11.6654634"><ele>267.0</ele><time>2026-03-22T15:32:24.768Z</time></trkpt><trkpt lat="43.4901291" lon="11.6655943"><ele>267.0</ele><time>2026-03-22T15:32:25.769Z</time></trkpt><trkpt lat="43.4899958" lon="11.6657222"><ele>267.0</ele><time>2026-03-22T15:32:26.768Z</time></trkpt><trkpt lat="43.489863" lon="11.6658544"><ele>267.0</ele><time>2026-03-22T15:32:27.769Z</time></trkpt><trkpt lat="43.4897297" lon="11.6659855"><ele>266.3333333333333</ele><time>2026-03-22T15:32:28.769Z</time></trkpt><trkpt lat="43.4895944" lon="11.6661136"><ele>265.66666666666663</ele><time>2026-03-22T15:32:29.768Z</time></trkpt><trkpt lat="43.489457" lon="11.6662455"><ele>265.0</ele><time>2026-03-22T15:32:30.768Z</time></trkpt><trkpt lat="43.4893214" lon="11.6663775"><ele>265.0</ele><time>2026-03-22T15:32:31.768Z</time></trkpt><trkpt lat="43.4891844" lon="11.6665065"><ele>265.0</ele><time>2026-03-22T15:32:32.767Z</time></trkpt><trkpt lat="43.4890484" lon="11.6666395"><ele>265.0</ele><time>2026-03-22T15:32:33.769Z</time></trkpt><trkpt lat="43.4889106" lon="11.6667684"><ele>265.0</ele><time>2026-03-22T15:32:34.768Z</time></trkpt><trkpt lat="43.4887729" lon="11.6669038"><ele>265.0</ele><time>2026-03-22T15:32:35.769Z</time></trkpt><trkpt lat="43.4886357" lon="11.6670353"><ele>265.0</ele><time>2026-03-22T15:32:36.768Z</time></trkpt><trkpt lat="43.4884987" lon="11.6671708"><ele>264.0</ele><time>2026-03-22T15:32:37.768Z</time></trkpt><trkpt lat="43.4883587" lon="11.6673002"><ele>263.0</ele><time>2026-03-22T15:32:38.769Z</time></trkpt><trkpt lat="43.4882182" lon="11.6674312"><ele>262.0</ele><time>2026-03-22T15:32:39.769Z</time></trkpt><trkpt lat="43.4880778" lon="11.6675652"><ele>262.0</ele><time>2026-03-22T15:32:40.768Z</time></trkpt><trkpt lat="43.4879407" lon="11.667701"><ele>262.0</ele><time>2026-03-22T15:32:41.769Z</time></trkpt><trkpt lat="43.4878064" lon="11.6678339"><ele>262.0</ele><time>2026-03-22T15:32:42.769Z</time></trkpt><trkpt lat="43.4876751" lon="11.6679703"><ele>261.66666666666663</ele><time>2026-03-22T15:32:43.768Z</time></trkpt><trkpt lat="43.4875463" lon="11.6681095"><ele>261.3333333333333</ele><time>2026-03-22T15:32:44.769Z</time></trkpt><trkpt lat="43.4874217" lon="11.6682554"><ele>261.0</ele><time>2026-03-22T15:32:45.768Z</time></trkpt><trkpt lat="43.4873037" lon="11.668407"><ele>261.0</ele><time>2026-03-22T15:32:46.768Z</time></trkpt><trkpt lat="43.4871922" lon="11.6685664"><ele>261.0</ele><time>2026-03-22T15:32:47.768Z</time></trkpt><trkpt lat="43.4870845" lon="11.668734"><ele>261.0</ele><time>2026-03-22T15:32:48.769Z</time></trkpt><trkpt lat="43.4869828" lon="11.6689067"><ele>261.0</ele><time>2026-03-22T15:32:49.769Z</time></trkpt><trkpt lat="43.4868833" lon="11.6690864"><ele>261.0</ele><time>2026-03-22T15:32:50.768Z</time></trkpt><trkpt lat="43.4867924" lon="11.6692741"><ele>261.0</ele><time>2026-03-22T15:32:51.769Z</time></trkpt><trkpt lat="43.4867038" lon="11.669466"><ele>260.3333333333333</ele><time>2026-03-22T15:32:52.768Z</time></trkpt><trkpt lat="43.486615" lon="11.6696578"><ele>259.66666666666663</ele><time>2026-03-22T15:32:53.768Z</time></trkpt><trkpt lat="43.4865268" lon="11.6698489"><ele>259.0</ele><time>2026-03-22T15:32:54.768Z</time></trkpt><trkpt lat="43.4864414" lon="11.6700389"><ele>259.0</ele><time>2026-03-22T15:32:55.768Z</time></trkpt><trkpt lat="43.4863544" lon="11.6702286"><ele>259.0</ele><time>2026-03-22T15:32:56.768Z</time></trkpt><trkpt lat="43.4862645" lon="11.6704109"><ele>259.0</ele><time>2026-03-22T15:32:57.768Z</time></trkpt><trkpt lat="43.4861748" lon="11.6705976"><ele>262.3333333333333</ele><time>2026-03-22T15:32:58.769Z</time></trkpt><trkpt lat="43.4860907" lon="11.6707858"><ele>265.6666666666667</ele><time>2026-03-22T15:32:59.768Z</time></trkpt><trkpt lat="43.486009" lon="11.6709769"><ele>269.0</ele><time>2026-03-22T15:33:00.769Z</time></trkpt><trkpt lat="43.4859263" lon="11.6711665"><ele>269.0</ele><time>2026-03-22T15:33:01.768Z</time></trkpt><trkpt lat="43.4858453" lon="11.6713478"><ele>269.0</ele><time>2026-03-22T15:33:02.769Z</time></trkpt><trkpt lat="43.4857689" lon="11.671511"><ele>269.0</ele><time>2026-03-22T15:33:03.769Z</time></trkpt><trkpt lat="43.4856982" lon="11.6716595"><ele>269.0</ele><time>2026-03-22T15:33:04.769Z</time></trkpt><trkpt lat="43.4856234" lon="11.6717898"><ele>269.0</ele><time>2026-03-22T15:33:05.769Z</time></trkpt><trkpt lat="43.4855349" lon="11.6718888"><ele>269.0</ele><time>2026-03-22T15:33:06.768Z</time></trkpt><trkpt lat="43.4854276" lon="11.6719529"><ele>269.0</ele><time>2026-03-22T15:33:07.769Z</time></trkpt><trkpt lat="43.4853027" lon="11.6719812"><ele>269.0</ele><time>2026-03-22T15:33:08.768Z</time></trkpt><trkpt lat="43.4851647" lon="11.671976"><ele>270.6666666666667</ele><time>2026-03-22T15:33:09.768Z</time></trkpt><trkpt lat="43.4850135" lon="11.6719549"><ele>272.3333333333333</ele><time>2026-03-22T15:33:10.769Z</time></trkpt><trkpt lat="43.4848595" lon="11.671938"><ele>274.0</ele><time>2026-03-22T15:33:11.769Z</time></trkpt><trkpt lat="43.4847077" lon="11.6719252"><ele>275.75</ele><time>2026-03-22T15:33:12.768Z</time></trkpt><trkpt lat="43.4845576" lon="11.6719213"><ele>277.5</ele><time>2026-03-22T15:33:13.769Z</time></trkpt><trkpt lat="43.4844089" lon="11.6719406"><ele>279.25</ele><time>2026-03-22T15:33:14.769Z</time></trkpt><trkpt lat="43.4842628" lon="11.6719809"><ele>281.0</ele><time>2026-03-22T15:33:15.769Z</time></trkpt><trkpt lat="43.4841173" lon="11.6720341"><ele>281.0</ele><time>2026-03-22T15:33:16.769Z</time></trkpt><trkpt lat="43.4839708" lon="11.6720924"><ele>281.0</ele><time>2026-03-22T15:33:17.768Z</time></trkpt><trkpt lat="43.4838237" lon="11.6721554"><ele>281.0</ele><time>2026-03-22T15:33:18.768Z</time></trkpt><trkpt lat="43.4836749" lon="11.6722191"><ele>284.0</ele><time>2026-03-22T15:33:19.769Z</time></trkpt><trkpt lat="43.4835178" lon="11.6722772"><ele>287.0</ele><time>2026-03-22T15:33:20.768Z</time></trkpt><trkpt lat="43.4833582" lon="11.6723361"><ele>290.0</ele><time>2026-03-22T15:33:21.769Z</time></trkpt><trkpt lat="43.4832006" lon="11.6723935"><ele>290.0</ele><time>2026-03-22T15:33:22.768Z</time></trkpt><trkpt lat="43.4830505" lon="11.6724462"><ele>290.0</ele><time>2026-03-22T15:33:23.768Z</time></trkpt><trkpt lat="43.4829113" lon="11.6724798"><ele>290.0</ele><time>2026-03-22T15:33:24.769Z</time></trkpt><trkpt lat="43.4827811" lon="11.6724759"><ele>290.0</ele><time>2026-03-22T15:33:25.769Z</time></trkpt><trkpt lat="43.4826696" lon="11.6724127"><ele>291.0</ele><time>2026-03-22T15:33:26.769Z</time></trkpt><trkpt lat="43.4825671" lon="11.6723175"><ele>292.0</ele><time>2026-03-22T15:33:27.768Z</time></trkpt><trkpt lat="43.4824558" lon="11.6722001"><ele>293.0</ele><time>2026-03-22T15:33:28.769Z</time></trkpt><trkpt lat="43.482336" lon="11.6720695"><ele>294.0</ele><time>2026-03-22T15:33:29.768Z</time></trkpt><trkpt lat="43.482204" lon="11.671929"><ele>295.6666666666667</ele><time>2026-03-22T15:33:30.769Z</time></trkpt><trkpt lat="43.482062" lon="11.6717853"><ele>297.33333333333337</ele><time>2026-03-22T15:33:31.769Z</time></trkpt><trkpt lat="43.4819286" lon="11.6716424"><ele>299.0</ele><time>2026-03-22T15:33:32.768Z</time></trkpt><trkpt lat="43.4818069" lon="11.6715037"><ele>299.0</ele><time>2026-03-22T15:33:33.769Z</time></trkpt><trkpt lat="43.4816856" lon="11.6713853"><ele>299.0</ele><time>2026-03-22T15:33:34.768Z</time></trkpt><trkpt lat="43.4815632" lon="11.6712949"><ele>299.0</ele><time>2026-03-22T15:33:35.767Z</time></trkpt><trkpt lat="43.4814333" lon="11.671243"><ele>299.0</ele><time>2026-03-22T15:33:36.769Z</time></trkpt><trkpt lat="43.4812998" lon="11.6712263"><ele>299.25</ele><time>2026-03-22T15:33:37.768Z</time></trkpt><trkpt lat="43.4811694" lon="11.6712368"><ele>299.5</ele><time>2026-03-22T15:33:38.769Z</time></trkpt><trkpt lat="43.4810461" lon="11.6712749"><ele>299.75</ele><time>2026-03-22T15:33:39.768Z</time></trkpt><trkpt lat="43.4809351" lon="11.6713445"><ele>300.0</ele><time>2026-03-22T15:33:40.769Z</time></trkpt><trkpt lat="43.4808362" lon="11.6714399"><ele>300.0</ele><time>2026-03-22T15:33:41.769Z</time></trkpt><trkpt lat="43.4807478" lon="11.6715571"><ele>300.0</ele><time>2026-03-22T15:33:42.769Z</time></trkpt><trkpt lat="43.4806665" lon="11.6716927"><ele>300.0</ele><time>2026-03-22T15:33:43.768Z</time></trkpt><trkpt lat="43.4805929" lon="11.6718426"><ele>300.0</ele><time>2026-03-22T15:33:44.767Z</time></trkpt><trkpt lat="43.4805212" lon="11.672007"><ele>300.0</ele><time>2026-03-22T15:33:45.769Z</time></trkpt><trkpt lat="43.4804476" lon="11.6721943"><ele>300.0</ele><time>2026-03-22T15:33:46.768Z</time></trkpt><trkpt lat="43.4803732" lon="11.6723884"><ele>300.0</ele><time>2026-03-22T15:33:47.768Z</time></trkpt><trkpt lat="43.4803014" lon="11.6725754"><ele>300.3333333333333</ele><time>2026-03-22T15:33:48.768Z</time></trkpt><trkpt lat="43.4802319" lon="11.6727614"><ele>300.66666666666663</ele><time>2026-03-22T15:33:49.769Z</time></trkpt><trkpt lat="43.4801656" lon="11.6729503"><ele>301.0</ele><time>2026-03-22T15:33:50.769Z</time></trkpt><trkpt lat="43.4800965" lon="11.6731385"><ele>302.0</ele><time>2026-03-22T15:33:51.769Z</time></trkpt><trkpt lat="43.4800313" lon="11.6733238"><ele>303.0</ele><time>2026-03-22T15:33:52.768Z</time></trkpt><trkpt lat="43.4799651" lon="11.6735019"><ele>304.0</ele><time>2026-03-22T15:33:53.768Z</time></trkpt><trkpt lat="43.4799021" lon="11.6736739"><ele>305.0</ele><time>2026-03-22T15:33:54.769Z</time></trkpt><trkpt lat="43.4798422" lon="11.6738452"><ele>305.25</ele><time>2026-03-22T15:33:55.769Z</time></trkpt><trkpt lat="43.4797789" lon="11.674013"><ele>305.5</ele><time>2026-03-22T15:33:56.769Z</time></trkpt><trkpt lat="43.4797166" lon="11.6741672"><ele>305.75</ele><time>2026-03-22T15:33:57.768Z</time></trkpt><trkpt lat="43.4796541" lon="11.6743087"><ele>306.0</ele><time>2026-03-22T15:33:58.768Z</time></trkpt><trkpt lat="43.4795853" lon="11.674431"><ele>306.6</ele><time>2026-03-22T15:33:59.769Z</time></trkpt><trkpt lat="43.4795078" lon="11.6745357"><ele>307.20000000000005</ele><time>2026-03-22T15:34:00.769Z</time></trkpt><trkpt lat="43.4794219" lon="11.6746243"><ele>307.79999999999995</ele><time>2026-03-22T15:34:01.769Z</time></trkpt><trkpt lat="43.4793231" lon="11.6746963"><ele>308.4</ele><time>2026-03-22T15:34:02.768Z</time></trkpt><trkpt lat="43.4792116" lon="11.6747439"><ele>309.0</ele><time>2026-03-22T15:34:03.769Z</time></trkpt><trkpt lat="43.479097" lon="11.6747624"><ele>309.0</ele><time>2026-03-22T15:34:04.768Z</time></trkpt><trkpt lat="43.4789867" lon="11.6747493"><ele>309.0</ele><time>2026-03-22T15:34:05.768Z</time></trkpt><trkpt lat="43.478881" lon="11.6747214"><ele>309.0</ele><time>2026-03-22T15:34:06.768Z</time></trkpt><trkpt lat="43.4787802" lon="11.6746844"><ele>309.0</ele><time>2026-03-22T15:34:07.768Z</time></trkpt><trkpt lat="43.4786828" lon="11.6746455"><ele>309.0</ele><time>2026-03-22T15:34:08.769Z</time></trkpt><trkpt lat="43.4785897" lon="11.6746074"><ele>307.4</ele><time>2026-03-22T15:34:09.769Z</time></trkpt><trkpt lat="43.4784925" lon="11.6745697"><ele>305.79999999999995</ele><time>2026-03-22T15:34:10.769Z</time></trkpt><trkpt lat="43.4783933" lon="11.6745333"><ele>304.20000000000005</ele><time>2026-03-22T15:34:11.768Z</time></trkpt><trkpt lat="43.4782899" lon="11.6744869"><ele>302.6</ele><time>2026-03-22T15:34:12.768Z</time></trkpt><trkpt lat="43.4781839" lon="11.674443"><ele>301.0</ele><time>2026-03-22T15:34:13.769Z</time></trkpt><trkpt lat="43.4780773" lon="11.6743982"><ele>301.0</ele><time>2026-03-22T15:34:14.768Z</time></trkpt><trkpt lat="43.477971" lon="11.6743494"><ele>301.0</ele><time>2026-03-22T15:34:15.768Z</time></trkpt><trkpt lat="43.4778661" lon="11.6743063"><ele>301.0</ele><time>2026-03-22T15:34:16.769Z</time></trkpt><trkpt lat="43.4777626" lon="11.674262"><ele>301.0</ele><time>2026-03-22T15:34:17.769Z</time></trkpt><trkpt lat="43.4776622" lon="11.6742088"><ele>301.0</ele><time>2026-03-22T15:34:18.768Z</time></trkpt><trkpt lat="43.4775641" lon="11.6741459"><ele>298.25</ele><time>2026-03-22T15:34:19.769Z</time></trkpt><trkpt lat="43.4774584" lon="11.6740665"><ele>295.5</ele><time>2026-03-22T15:34:20.768Z</time></trkpt><trkpt lat="43.4773433" lon="11.6739764"><ele>292.75</ele><time>2026-03-22T15:34:21.768Z</time></trkpt><trkpt lat="43.4772283" lon="11.6738776"><ele>290.0</ele><time>2026-03-22T15:34:22.769Z</time></trkpt><trkpt lat="43.4771087" lon="11.6737666"><ele>288.6666666666667</ele><time>2026-03-22T15:34:23.768Z</time></trkpt><trkpt lat="43.4769885" lon="11.6736458"><ele>287.3333333333333</ele><time>2026-03-22T15:34:24.769Z</time></trkpt><trkpt lat="43.4768614" lon="11.6735285"><ele>286.0</ele><time>2026-03-22T15:34:25.768Z</time></trkpt><trkpt lat="43.4767348" lon="11.673412"><ele>285.66666666666663</ele><time>2026-03-22T15:34:26.769Z</time></trkpt><trkpt lat="43.4766087" lon="11.6732921"><ele>285.3333333333333</ele><time>2026-03-22T15:34:27.769Z</time></trkpt><trkpt lat="43.4764759" lon="11.6731665"><ele>285.0</ele><time>2026-03-22T15:34:28.768Z</time></trkpt><trkpt lat="43.476333" lon="11.6730239"><ele>284.3333333333333</ele><time>2026-03-22T15:34:29.769Z</time></trkpt><trkpt lat="43.4761941" lon="11.6728906"><ele>283.66666666666663</ele><time>2026-03-22T15:34:30.769Z</time></trkpt><trkpt lat="43.4760586" lon="11.6727675"><ele>283.0</ele><time>2026-03-22T15:34:31.768Z</time></trkpt><trkpt lat="43.4759251" lon="11.6726421"><ele>283.0</ele><time>2026-03-22T15:34:32.768Z</time></trkpt><trkpt lat="43.475795" lon="11.6725163"><ele>283.0</ele><time>2026-03-22T15:34:33.769Z</time></trkpt><trkpt lat="43.4756633" lon="11.6723916"><ele>283.0</ele><time>2026-03-22T15:34:34.768Z</time></trkpt><trkpt lat="43.4755362" lon="11.672269"><ele>282.5</ele><time>2026-03-22T15:34:35.768Z</time></trkpt><trkpt lat="43.4754112" lon="11.6721582"><ele>282.0</ele><time>2026-03-22T15:34:36.768Z</time></trkpt><trkpt lat="43.4752829" lon="11.6720794"><ele>281.5</ele><time>2026-03-22T15:34:37.769Z</time></trkpt><trkpt lat="43.4751446" lon="11.6720297"><ele>281.0</ele><time>2026-03-22T15:34:38.768Z</time></trkpt><trkpt lat="43.4750024" lon="11.6720109"><ele>281.0</ele><time>2026-03-22T15:34:39.769Z</time></trkpt><trkpt lat="43.4748625" lon="11.6720217"><ele>281.0</ele><time>2026-03-22T15:34:40.768Z</time></trkpt><trkpt lat="43.4747287" lon="11.672059"><ele>281.0</ele><time>2026-03-22T15:34:41.768Z</time></trkpt><trkpt lat="43.4746071" lon="11.6721298"><ele>281.0</ele><time>2026-03-22T15:34:42.769Z</time></trkpt><trkpt lat="43.4744874" lon="11.6722217"><ele>279.6666666666667</ele><time>2026-03-22T15:34:43.768Z</time></trkpt><trkpt lat="43.4743647" lon="11.672322"><ele>278.3333333333333</ele><time>2026-03-22T15:34:44.769Z</time></trkpt><trkpt lat="43.4742363" lon="11.6724248"><ele>277.0</ele><time>2026-03-22T15:34:45.769Z</time></trkpt><trkpt lat="43.4741003" lon="11.672539"><ele>277.0</ele><time>2026-03-22T15:34:46.769Z</time></trkpt><trkpt lat="43.4739585" lon="11.6726569"><ele>277.0</ele><time>2026-03-22T15:34:47.768Z</time></trkpt><trkpt lat="43.4738153" lon="11.6727794"><ele>277.0</ele><time>2026-03-22T15:34:48.769Z</time></trkpt><trkpt lat="43.4736691" lon="11.6729017"><ele>277.0</ele><time>2026-03-22T15:34:49.769Z</time></trkpt><trkpt lat="43.4735287" lon="11.6730191"><ele>277.0</ele><time>2026-03-22T15:34:50.768Z</time></trkpt><trkpt lat="43.4733959" lon="11.6731313"><ele>277.0</ele><time>2026-03-22T15:34:51.769Z</time></trkpt><trkpt lat="43.4732697" lon="11.673237"><ele>277.0</ele><time>2026-03-22T15:34:52.769Z</time></trkpt><trkpt lat="43.4731493" lon="11.6733346"><ele>277.0</ele><time>2026-03-22T15:34:53.769Z</time></trkpt><trkpt lat="43.4730367" lon="11.6734238"><ele>277.0</ele><time>2026-03-22T15:34:54.767Z</time></trkpt><trkpt lat="43.472935" lon="11.6735095"><ele>277.0</ele><time>2026-03-22T15:34:55.768Z</time></trkpt><trkpt lat="43.4728399" lon="11.6735845"><ele>277.8333333333333</ele><time>2026-03-22T15:34:56.769Z</time></trkpt><trkpt lat="43.4727508" lon="11.6736466"><ele>278.66666666666663</ele><time>2026-03-22T15:34:57.768Z</time></trkpt><trkpt lat="43.472675" lon="11.6737012"><ele>279.5</ele><time>2026-03-22T15:34:58.769Z</time></trkpt><trkpt lat="43.4726173" lon="11.6737615"><ele>280.3333333333333</ele><time>2026-03-22T15:34:59.769Z</time></trkpt><trkpt lat="43.4725736" lon="11.6738248"><ele>281.1666666666667</ele><time>2026-03-22T15:35:00.768Z</time></trkpt><trkpt lat="43.4724857" lon="11.6739394"><ele>282.0</ele><time>2026-03-22T15:35:02.769Z</time></trkpt><trkpt lat="43.4724008" lon="11.674046"><ele>282.0</ele><time>2026-03-22T15:35:04.768Z</time></trkpt><trkpt lat="43.4723382" lon="11.6741976"><ele>282.0</ele><time>2026-03-22T15:35:06.769Z</time></trkpt><trkpt lat="43.4723019" lon="11.6742869"><ele>282.0</ele><time>2026-03-22T15:35:07.768Z</time></trkpt><trkpt lat="43.4722697" lon="11.6743732"><ele>282.0</ele><time>2026-03-22T15:35:08.769Z</time></trkpt><trkpt lat="43.4722324" lon="11.6745279"><ele>282.0</ele><time>2026-03-22T15:35:10.768Z</time></trkpt><trkpt lat="43.4721554" lon="11.6746505"><ele>283.6</ele><time>2026-03-22T15:35:12.767Z</time></trkpt><trkpt lat="43.4720965" lon="11.6747397"><ele>285.2</ele><time>2026-03-22T15:35:14.768Z</time></trkpt><trkpt lat="43.4720665" lon="11.6748607"><ele>286.8</ele><time>2026-03-22T15:35:17.769Z</time></trkpt><trkpt lat="43.4720582" lon="11.6749967"><ele>288.4</ele><time>2026-03-22T15:35:19.769Z</time></trkpt><trkpt lat="43.4720675" lon="11.675126"><ele>290.0</ele><time>2026-03-22T15:35:21.768Z</time></trkpt><trkpt lat="43.4720387" lon="11.6752534"><ele>289.5</ele><time>2026-03-22T15:35:23.768Z</time></trkpt><trkpt lat="43.4720119" lon="11.6753633"><ele>289.0</ele><time>2026-03-22T15:35:25.768Z</time></trkpt><trkpt lat="43.472" lon="11.6754538"><ele>288.5</ele><time>2026-03-22T15:35:52.768Z</time></trkpt><trkpt lat="43.4720268" lon="11.6755521"><ele>288.0</ele><time>2026-03-22T15:35:56.768Z</time></trkpt><trkpt lat="43.47203" lon="11.6757168"><ele>287.5</ele><time>2026-03-22T15:36:00.769Z</time></trkpt><trkpt lat="43.4720266" lon="11.675821"><ele>287.0</ele><time>2026-03-22T15:36:02.768Z</time></trkpt><trkpt lat="43.472027" lon="11.6759156"><ele>287.0</ele><time>2026-03-22T15:36:04.769Z</time></trkpt><trkpt lat="43.4720129" lon="11.6760161"><ele>287.0</ele><time>2026-03-22T15:36:06.768Z</time></trkpt><trkpt lat="43.4719946" lon="11.6761007"><ele>287.0</ele><time>2026-03-22T15:36:09.769Z</time></trkpt><trkpt lat="43.4719748" lon="11.6762068"><ele>287.0</ele><time>2026-03-22T15:37:31.769Z</time></trkpt><trkpt lat="43.4719433" lon="11.6763327"><ele>287.0</ele><time>2026-03-22T15:37:33.768Z</time></trkpt><trkpt lat="43.4719042" lon="11.676458"><ele>287.0</ele><time>2026-03-22T15:37:35.767Z</time></trkpt><trkpt lat="43.4718641" lon="11.6765828"><ele>287.2</ele><time>2026-03-22T15:37:37.767Z</time></trkpt><trkpt lat="43.4718202" lon="11.6767241"><ele>287.4</ele><time>2026-03-22T15:37:39.767Z</time></trkpt><trkpt lat="43.4717637" lon="11.6768629"><ele>287.6</ele><time>2026-03-22T15:37:41.768Z</time></trkpt><trkpt lat="43.4717156" lon="11.6770036"><ele>287.8</ele><time>2026-03-22T15:37:43.767Z</time></trkpt><trkpt lat="43.4716699" lon="11.6771405"><ele>288.0</ele><time>2026-03-22T15:37:45.768Z</time></trkpt><trkpt lat="43.4716204" lon="11.6772771"><ele>289.2</ele><time>2026-03-22T15:37:47.768Z</time></trkpt><trkpt lat="43.4715721" lon="11.6774123"><ele>290.4</ele><time>2026-03-22T15:37:49.768Z</time></trkpt><trkpt lat="43.471519" lon="11.6775179"><ele>291.59999999999997</ele><time>2026-03-22T15:37:51.767Z</time></trkpt><trkpt lat="43.4714466" lon="11.6775892"><ele>292.8</ele><time>2026-03-22T15:37:53.768Z</time></trkpt><trkpt lat="43.4713956" lon="11.6776726"><ele>294.0</ele><time>2026-03-22T15:37:55.767Z</time></trkpt><trkpt lat="43.4713692" lon="11.6778205"><ele>296.59999999999997</ele><time>2026-03-22T15:37:57.767Z</time></trkpt><trkpt lat="43.4713433" lon="11.677973"><ele>299.2</ele><time>2026-03-22T15:37:59.767Z</time></trkpt><trkpt lat="43.4713408" lon="11.6781014"><ele>301.79999999999995</ele><time>2026-03-22T15:38:01.767Z</time></trkpt><trkpt lat="43.4713864" lon="11.678226"><ele>304.4</ele><time>2026-03-22T15:38:03.768Z</time></trkpt><trkpt lat="43.4714376" lon="11.6783676"><ele>307.0</ele><time>2026-03-22T15:38:05.767Z</time></trkpt><trkpt lat="43.4715011" lon="11.6785133"><ele>308.4</ele><time>2026-03-22T15:38:07.766Z</time></trkpt><trkpt lat="43.4715432" lon="11.678656"><ele>309.79999999999995</ele><time>2026-03-22T15:38:09.767Z</time></trkpt><trkpt lat="43.4715485" lon="11.6787836"><ele>311.2</ele><time>2026-03-22T15:38:11.768Z</time></trkpt><trkpt lat="43.47156" lon="11.6789089"><ele>312.59999999999997</ele><time>2026-03-22T15:38:13.767Z</time></trkpt><trkpt lat="43.4715266" lon="11.6790016"><ele>314.0</ele><time>2026-03-22T15:38:15.767Z</time></trkpt><trkpt lat="43.4714275" lon="11.6790228"><ele>314.0</ele><time>2026-03-22T15:38:17.768Z</time></trkpt><trkpt lat="43.471335" lon="11.6790105"><ele>314.0</ele><time>2026-03-22T15:38:19.767Z</time></trkpt><trkpt lat="43.4712601" lon="11.6790378"><ele>314.0</ele><time>2026-03-22T15:38:21.768Z</time></trkpt><trkpt lat="43.4712151" lon="11.6791381"><ele>314.0</ele><time>2026-03-22T15:38:23.767Z</time></trkpt><trkpt lat="43.4711608" lon="11.6792438"><ele>314.0</ele><time>2026-03-22T15:38:25.768Z</time></trkpt><trkpt lat="43.4711123" lon="11.6793657"><ele>316.4</ele><time>2026-03-22T15:38:27.766Z</time></trkpt><trkpt lat="43.4710307" lon="11.6794814"><ele>318.79999999999995</ele><time>2026-03-22T15:38:29.768Z</time></trkpt><trkpt lat="43.470933" lon="11.6795997"><ele>321.20000000000005</ele><time>2026-03-22T15:38:31.767Z</time></trkpt><trkpt lat="43.4708873" lon="11.6796737"><ele>323.6</ele><time>2026-03-22T15:38:32.768Z</time></trkpt><trkpt lat="43.4708424" lon="11.6797445"><ele>326.0</ele><time>2026-03-22T15:38:33.767Z</time></trkpt><trkpt lat="43.4707926" lon="11.6798123"><ele>326.0</ele><time>2026-03-22T15:38:34.768Z</time></trkpt><trkpt lat="43.4707463" lon="11.6798735"><ele>326.0</ele><time>2026-03-22T15:38:35.768Z</time></trkpt><trkpt lat="43.4706717" lon="11.6800012"><ele>326.0</ele><time>2026-03-22T15:38:37.768Z</time></trkpt><trkpt lat="43.4705932" lon="11.6801273"><ele>326.0</ele><time>2026-03-22T15:38:39.766Z</time></trkpt><trkpt lat="43.4705145" lon="11.6802398"><ele>326.0</ele><time>2026-03-22T15:38:41.767Z</time></trkpt><trkpt lat="43.4704592" lon="11.6803667"><ele>327.83333333333337</ele><time>2026-03-22T15:38:43.767Z</time></trkpt><trkpt lat="43.4704048" lon="11.6805126"><ele>329.6666666666667</ele><time>2026-03-22T15:38:45.767Z</time></trkpt><trkpt lat="43.4703654" lon="11.6805853"><ele>331.5</ele><time>2026-03-22T15:38:46.767Z</time></trkpt><trkpt lat="43.4703199" lon="11.6806568"><ele>333.3333333333333</ele><time>2026-03-22T15:38:47.768Z</time></trkpt><trkpt lat="43.4702717" lon="11.6807228"><ele>335.16666666666663</ele><time>2026-03-22T15:38:48.767Z</time></trkpt><trkpt lat="43.4702253" lon="11.6807927"><ele>337.0</ele><time>2026-03-22T15:38:49.768Z</time></trkpt><trkpt lat="43.4701804" lon="11.6808654"><ele>337.00000000000006</ele><time>2026-03-22T15:38:50.767Z</time></trkpt><trkpt lat="43.4701351" lon="11.6809334"><ele>337.0</ele><time>2026-03-22T15:38:51.767Z</time></trkpt><trkpt lat="43.4700871" lon="11.681004"><ele>337.0</ele><time>2026-03-22T15:38:52.767Z</time></trkpt><trkpt lat="43.4700394" lon="11.6810793"><ele>337.0</ele><time>2026-03-22T15:38:53.768Z</time></trkpt><trkpt lat="43.469992" lon="11.6811561"><ele>337.0</ele><time>2026-03-22T15:38:54.768Z</time></trkpt><trkpt lat="43.4699441" lon="11.6812338"><ele>337.00000000000006</ele><time>2026-03-22T15:38:55.768Z</time></trkpt><trkpt lat="43.4698941" lon="11.681315"><ele>337.0</ele><time>2026-03-22T15:38:56.766Z</time></trkpt><trkpt lat="43.4698426" lon="11.681401"><ele>337.16666666666663</ele><time>2026-03-22T15:38:57.767Z</time></trkpt><trkpt lat="43.469787" lon="11.6814955"><ele>337.3333333333333</ele><time>2026-03-22T15:38:58.768Z</time></trkpt><trkpt lat="43.4697289" lon="11.681593"><ele>337.5</ele><time>2026-03-22T15:38:59.767Z</time></trkpt><trkpt lat="43.4696803" lon="11.6816711"><ele>337.6666666666667</ele><time>2026-03-22T15:39:00.768Z</time></trkpt><trkpt lat="43.4696376" lon="11.6817441"><ele>337.83333333333337</ele><time>2026-03-22T15:39:01.767Z</time></trkpt><trkpt lat="43.4695913" lon="11.6818184"><ele>338.0</ele><time>2026-03-22T15:39:02.767Z</time></trkpt><trkpt lat="43.4695386" lon="11.6819037"><ele>340.33333333333337</ele><time>2026-03-22T15:39:03.767Z</time></trkpt><trkpt lat="43.4694798" lon="11.6819872"><ele>342.6666666666667</ele><time>2026-03-22T15:39:04.767Z</time></trkpt><trkpt lat="43.4694232" lon="11.6820723"><ele>345.0</ele><time>2026-03-22T15:39:05.768Z</time></trkpt><trkpt lat="43.4693704" lon="11.6821586"><ele>347.3333333333333</ele><time>2026-03-22T15:39:06.767Z</time></trkpt><trkpt lat="43.4693171" lon="11.6822442"><ele>349.66666666666663</ele><time>2026-03-22T15:39:07.768Z</time></trkpt><trkpt lat="43.4692611" lon="11.6823311"><ele>352.0</ele><time>2026-03-22T15:39:08.768Z</time></trkpt><trkpt lat="43.4692076" lon="11.6824174"><ele>352.0</ele><time>2026-03-22T15:39:09.768Z</time></trkpt><trkpt lat="43.4691492" lon="11.6825076"><ele>352.0</ele><time>2026-03-22T15:39:10.767Z</time></trkpt><trkpt lat="43.4690872" lon="11.6826008"><ele>352.0</ele><time>2026-03-22T15:39:11.767Z</time></trkpt><trkpt lat="43.4690326" lon="11.682682"><ele>352.0</ele><time>2026-03-22T15:39:12.767Z</time></trkpt><trkpt lat="43.46898" lon="11.6827569"><ele>352.0</ele><time>2026-03-22T15:39:13.767Z</time></trkpt><trkpt lat="43.468929" lon="11.6828425"><ele>352.0</ele><time>2026-03-22T15:39:14.767Z</time></trkpt><trkpt lat="43.4688905" lon="11.68294"><ele>351.8333333333333</ele><time>2026-03-22T15:39:15.767Z</time></trkpt><trkpt lat="43.46885" lon="11.6830429"><ele>351.66666666666663</ele><time>2026-03-22T15:39:16.768Z</time></trkpt><trkpt lat="43.4688098" lon="11.6831638"><ele>351.5</ele><time>2026-03-22T15:39:17.767Z</time></trkpt><trkpt lat="43.4687699" lon="11.6832876"><ele>351.3333333333333</ele><time>2026-03-22T15:39:18.768Z</time></trkpt><trkpt lat="43.4687336" lon="11.6833883"><ele>351.1666666666667</ele><time>2026-03-22T15:39:19.767Z</time></trkpt><trkpt lat="43.4687043" lon="11.683473"><ele>351.0</ele><time>2026-03-22T15:39:20.767Z</time></trkpt><trkpt lat="43.4686581" lon="11.6835963"><ele>352.0</ele><time>2026-03-22T15:39:22.767Z</time></trkpt><trkpt lat="43.4686413" lon="11.6837156"><ele>353.0</ele><time>2026-03-22T15:39:42.767Z</time></trkpt><trkpt lat="43.468719" lon="11.6838723"><ele>354.0</ele><time>2026-03-22T15:39:44.767Z</time></trkpt><trkpt lat="43.4687628" lon="11.6839452"><ele>355.0</ele><time>2026-03-22T15:39:45.768Z</time></trkpt><trkpt lat="43.4688101" lon="11.6840266"><ele>356.0</ele><time>2026-03-22T15:39:46.767Z</time></trkpt><trkpt lat="43.4688627" lon="11.6841081"><ele>357.0</ele><time>2026-03-22T15:39:47.768Z</time></trkpt><trkpt lat="43.468907" lon="11.684192"><ele>357.0</ele><time>2026-03-22T15:39:48.767Z</time></trkpt><trkpt lat="43.4689429" lon="11.6842647"><ele>357.0</ele><time>2026-03-22T15:39:49.768Z</time></trkpt><trkpt lat="43.4689849" lon="11.6844038"><ele>357.0</ele><time>2026-03-22T15:39:51.767Z</time></trkpt><trkpt lat="43.4690551" lon="11.6844861"><ele>357.0</ele><time>2026-03-22T15:39:53.767Z</time></trkpt><trkpt lat="43.4691671" lon="11.6844924"><ele>357.0</ele><time>2026-03-22T15:39:55.767Z</time></trkpt><trkpt lat="43.4692349" lon="11.6845097"><ele>357.0</ele><time>2026-03-22T15:39:56.767Z</time></trkpt><trkpt lat="43.4693153" lon="11.684541"><ele>358.20000000000005</ele><time>2026-03-22T15:39:57.767Z</time></trkpt><trkpt lat="43.469409" lon="11.6845809"><ele>359.4</ele><time>2026-03-22T15:39:58.768Z</time></trkpt><trkpt lat="43.4695048" lon="11.6846224"><ele>360.6</ele><time>2026-03-22T15:39:59.767Z</time></trkpt><trkpt lat="43.4696097" lon="11.6846615"><ele>361.79999999999995</ele><time>2026-03-22T15:40:00.768Z</time></trkpt><trkpt lat="43.4697366" lon="11.6847085"><ele>363.0</ele><time>2026-03-22T15:40:01.767Z</time></trkpt><trkpt lat="43.4698673" lon="11.684764"><ele>363.0</ele><time>2026-03-22T15:40:02.768Z</time></trkpt><trkpt lat="43.469982" lon="11.6848126"><ele>363.0</ele><time>2026-03-22T15:40:03.768Z</time></trkpt><trkpt lat="43.4700929" lon="11.6848548"><ele>363.0</ele><time>2026-03-22T15:40:04.766Z</time></trkpt><trkpt lat="43.4702032" lon="11.6848935"><ele>363.0</ele><time>2026-03-22T15:40:05.767Z</time></trkpt><trkpt lat="43.4703142" lon="11.6849348"><ele>363.0</ele><time>2026-03-22T15:40:06.768Z</time></trkpt><trkpt lat="43.4704154" lon="11.6849836"><ele>363.0</ele><time>2026-03-22T15:40:07.767Z</time></trkpt><trkpt lat="43.4704948" lon="11.6850518"><ele>363.0</ele><time>2026-03-22T15:40:08.767Z</time></trkpt><trkpt lat="43.4705558" lon="11.6851404"><ele>363.0</ele><time>2026-03-22T15:40:09.767Z</time></trkpt><trkpt lat="43.4705978" lon="11.6852542"><ele>363.0</ele><time>2026-03-22T15:40:10.767Z</time></trkpt><trkpt lat="43.4706255" lon="11.6853776"><ele>362.79999999999995</ele><time>2026-03-22T15:40:11.767Z</time></trkpt><trkpt lat="43.4706395" lon="11.6854963"><ele>362.6</ele><time>2026-03-22T15:40:12.768Z</time></trkpt><trkpt lat="43.470647" lon="11.6856057"><ele>362.4</ele><time>2026-03-22T15:40:13.768Z</time></trkpt><trkpt lat="43.4706438" lon="11.6857005"><ele>362.20000000000005</ele><time>2026-03-22T15:40:14.768Z</time></trkpt><trkpt lat="43.4706645" lon="11.6858561"><ele>362.0</ele><time>2026-03-22T15:40:16.767Z</time></trkpt><trkpt lat="43.4707512" lon="11.6859353"><ele>362.0</ele><time>2026-03-22T15:40:18.768Z</time></trkpt><trkpt lat="43.4708276" lon="11.6859047"><ele>362.0</ele><time>2026-03-22T15:40:19.768Z</time></trkpt><trkpt lat="43.4709248" lon="11.6858666"><ele>362.0</ele><time>2026-03-22T15:40:20.767Z</time></trkpt><trkpt lat="43.4710215" lon="11.6858348"><ele>362.0</ele><time>2026-03-22T15:40:21.767Z</time></trkpt><trkpt lat="43.4711105" lon="11.6857992"><ele>362.0</ele><time>2026-03-22T15:40:22.768Z</time></trkpt><trkpt lat="43.4712016" lon="11.6857677"><ele>360.1666666666667</ele><time>2026-03-22T15:40:23.768Z</time></trkpt><trkpt lat="43.4712855" lon="11.6857379"><ele>358.33333333333337</ele><time>2026-03-22T15:40:24.768Z</time></trkpt><trkpt lat="43.471371" lon="11.6857247"><ele>356.5</ele><time>2026-03-22T15:40:25.767Z</time></trkpt><trkpt lat="43.4714557" lon="11.6857376"><ele>354.6666666666667</ele><time>2026-03-22T15:40:26.768Z</time></trkpt><trkpt lat="43.4715353" lon="11.6857806"><ele>352.8333333333333</ele><time>2026-03-22T15:40:27.767Z</time></trkpt><trkpt lat="43.4716249" lon="11.685852"><ele>351.0</ele><time>2026-03-22T15:40:28.768Z</time></trkpt><trkpt lat="43.4717064" lon="11.685941"><ele>351.0</ele><time>2026-03-22T15:40:29.767Z</time></trkpt><trkpt lat="43.4717828" lon="11.6860387"><ele>351.0</ele><time>2026-03-22T15:40:30.768Z</time></trkpt><trkpt lat="43.471845" lon="11.6861371"><ele>351.0</ele><time>2026-03-22T15:40:31.767Z</time></trkpt><trkpt lat="43.4718938" lon="11.6862356"><ele>351.0</ele><time>2026-03-22T15:40:32.767Z</time></trkpt><trkpt lat="43.4719303" lon="11.6863289"><ele>351.0</ele><time>2026-03-22T15:40:33.768Z</time></trkpt><trkpt lat="43.4719638" lon="11.6864203"><ele>351.0</ele><time>2026-03-22T15:40:34.767Z</time></trkpt><trkpt lat="43.47199" lon="11.6865146"><ele>350.20000000000005</ele><time>2026-03-22T15:40:35.766Z</time></trkpt><trkpt lat="43.4720161" lon="11.6866235"><ele>349.40000000000003</ele><time>2026-03-22T15:40:36.767Z</time></trkpt><trkpt lat="43.4720426" lon="11.6867472"><ele>348.6</ele><time>2026-03-22T15:40:37.767Z</time></trkpt><trkpt lat="43.4720746" lon="11.6868834"><ele>347.8</ele><time>2026-03-22T15:40:38.768Z</time></trkpt><trkpt lat="43.4721273" lon="11.6870282"><ele>347.0</ele><time>2026-03-22T15:40:39.768Z</time></trkpt><trkpt lat="43.4722067" lon="11.6871791"><ele>344.5</ele><time>2026-03-22T15:40:40.767Z</time></trkpt><trkpt lat="43.4722926" lon="11.6873121"><ele>342.0</ele><time>2026-03-22T15:40:41.767Z</time></trkpt><trkpt lat="43.472372" lon="11.6874463"><ele>339.5</ele><time>2026-03-22T15:40:42.768Z</time></trkpt><trkpt lat="43.4724333" lon="11.6875937"><ele>337.0</ele><time>2026-03-22T15:40:43.768Z</time></trkpt><trkpt lat="43.4724951" lon="11.6877398"><ele>336.75</ele><time>2026-03-22T15:40:44.767Z</time></trkpt><trkpt lat="43.4725735" lon="11.6878878"><ele>336.5</ele><time>2026-03-22T15:40:45.767Z</time></trkpt><trkpt lat="43.4726622" lon="11.6880206"><ele>336.25</ele><time>2026-03-22T15:40:46.767Z</time></trkpt><trkpt lat="43.4727468" lon="11.6881417"><ele>336.0</ele><time>2026-03-22T15:40:47.768Z</time></trkpt><trkpt lat="43.4728175" lon="11.6882686"><ele>336.0</ele><time>2026-03-22T15:40:48.767Z</time></trkpt><trkpt lat="43.4728672" lon="11.6884055"><ele>336.0</ele><time>2026-03-22T15:40:49.768Z</time></trkpt><trkpt lat="43.4729007" lon="11.6885549"><ele>336.0</ele><time>2026-03-22T15:40:50.768Z</time></trkpt><trkpt lat="43.4729309" lon="11.6887128"><ele>336.0</ele><time>2026-03-22T15:40:51.767Z</time></trkpt><trkpt lat="43.4729643" lon="11.6888617"><ele>334.75</ele><time>2026-03-22T15:40:52.767Z</time></trkpt><trkpt lat="43.4730066" lon="11.6890025"><ele>333.5</ele><time>2026-03-22T15:40:53.768Z</time></trkpt><trkpt lat="43.4730683" lon="11.6891263"><ele>332.25</ele><time>2026-03-22T15:40:54.767Z</time></trkpt><trkpt lat="43.4731537" lon="11.6892439"><ele>331.0</ele><time>2026-03-22T15:40:55.767Z</time></trkpt><trkpt lat="43.4732552" lon="11.6893561"><ele>328.75</ele><time>2026-03-22T15:40:56.768Z</time></trkpt><trkpt lat="43.4733759" lon="11.6894762"><ele>326.5</ele><time>2026-03-22T15:40:57.767Z</time></trkpt><trkpt lat="43.4734869" lon="11.6895889"><ele>324.25</ele><time>2026-03-22T15:40:58.767Z</time></trkpt><trkpt lat="43.4735921" lon="11.6897058"><ele>322.0</ele><time>2026-03-22T15:40:59.767Z</time></trkpt><trkpt lat="43.4736875" lon="11.6898261"><ele>322.25</ele><time>2026-03-22T15:41:00.767Z</time></trkpt><trkpt lat="43.4737781" lon="11.6899536"><ele>322.5</ele><time>2026-03-22T15:41:01.767Z</time></trkpt><trkpt lat="43.4738676" lon="11.6900922"><ele>322.75</ele><time>2026-03-22T15:41:02.768Z</time></trkpt><trkpt lat="43.4739586" lon="11.6902397"><ele>323.0</ele><time>2026-03-22T15:41:03.767Z</time></trkpt><trkpt lat="43.4740427" lon="11.6903868"><ele>322.59999999999997</ele><time>2026-03-22T15:41:04.768Z</time></trkpt><trkpt lat="43.4741215" lon="11.6905292"><ele>322.2</ele><time>2026-03-22T15:41:05.767Z</time></trkpt><trkpt lat="43.474175" lon="11.6906682"><ele>321.8</ele><time>2026-03-22T15:41:06.768Z</time></trkpt><trkpt lat="43.4742238" lon="11.6907993"><ele>321.4</ele><time>2026-03-22T15:41:07.767Z</time></trkpt><trkpt lat="43.4742814" lon="11.6909039"><ele>321.0</ele><time>2026-03-22T15:41:08.768Z</time></trkpt><trkpt lat="43.4743545" lon="11.6909865"><ele>321.0</ele><time>2026-03-22T15:41:09.766Z</time></trkpt><trkpt lat="43.4744406" lon="11.6910459"><ele>321.0</ele><time>2026-03-22T15:41:10.768Z</time></trkpt><trkpt lat="43.474538" lon="11.6911036"><ele>321.0</ele><time>2026-03-22T15:41:11.767Z</time></trkpt><trkpt lat="43.4746406" lon="11.691157"><ele>321.0</ele><time>2026-03-22T15:41:12.768Z</time></trkpt><trkpt lat="43.4747506" lon="11.6912088"><ele>321.0</ele><time>2026-03-22T15:41:13.767Z</time></trkpt><trkpt lat="43.4748582" lon="11.6912827"><ele>318.0</ele><time>2026-03-22T15:41:14.768Z</time></trkpt><trkpt lat="43.4749591" lon="11.6913841"><ele>315.0</ele><time>2026-03-22T15:41:15.768Z</time></trkpt><trkpt lat="43.47505" lon="11.69151"><ele>312.0</ele><time>2026-03-22T15:41:16.768Z</time></trkpt><trkpt lat="43.475125" lon="11.6916556"><ele>309.0</ele><time>2026-03-22T15:41:17.767Z</time></trkpt><trkpt lat="43.4751916" lon="11.691795"><ele>309.0</ele><time>2026-03-22T15:41:18.768Z</time></trkpt><trkpt lat="43.4752715" lon="11.6919145"><ele>309.0</ele><time>2026-03-22T15:41:19.768Z</time></trkpt><trkpt lat="43.4753679" lon="11.6920097"><ele>309.0</ele><time>2026-03-22T15:41:20.767Z</time></trkpt><trkpt lat="43.4754746" lon="11.6920779"><ele>309.0</ele><time>2026-03-22T15:41:21.767Z</time></trkpt><trkpt lat="43.4755973" lon="11.6921375"><ele>306.75</ele><time>2026-03-22T15:41:22.768Z</time></trkpt><trkpt lat="43.4757313" lon="11.6922014"><ele>304.5</ele><time>2026-03-22T15:41:23.768Z</time></trkpt><trkpt lat="43.4758641" lon="11.6922658"><ele>302.25</ele><time>2026-03-22T15:41:24.767Z</time></trkpt><trkpt lat="43.4759959" lon="11.6923308"><ele>300.0</ele><time>2026-03-22T15:41:25.768Z</time></trkpt><trkpt lat="43.4761256" lon="11.6923972"><ele>300.0</ele><time>2026-03-22T15:41:26.767Z</time></trkpt><trkpt lat="43.4762533" lon="11.6924588"><ele>300.0</ele><time>2026-03-22T15:41:27.767Z</time></trkpt><trkpt lat="43.4763769" lon="11.692514"><ele>300.0</ele><time>2026-03-22T15:41:28.768Z</time></trkpt><trkpt lat="43.4764975" lon="11.6925668"><ele>300.0</ele><time>2026-03-22T15:41:29.767Z</time></trkpt><trkpt lat="43.4766132" lon="11.6926217"><ele>298.25</ele><time>2026-03-22T15:41:30.767Z</time></trkpt><trkpt lat="43.4767246" lon="11.6926791"><ele>296.5</ele><time>2026-03-22T15:41:31.767Z</time></trkpt><trkpt lat="43.4768318" lon="11.6927377"><ele>294.75</ele><time>2026-03-22T15:41:32.767Z</time></trkpt><trkpt lat="43.4769361" lon="11.6928028"><ele>293.0</ele><time>2026-03-22T15:41:33.768Z</time></trkpt><trkpt lat="43.477037" lon="11.6928757"><ele>290.0</ele><time>2026-03-22T15:41:34.767Z</time></trkpt><trkpt lat="43.4771364" lon="11.6929553"><ele>287.0</ele><time>2026-03-22T15:41:35.768Z</time></trkpt><trkpt lat="43.477234" lon="11.6930347"><ele>284.0</ele><time>2026-03-22T15:41:36.767Z</time></trkpt><trkpt lat="43.4773324" lon="11.6931195"><ele>281.0</ele><time>2026-03-22T15:41:37.768Z</time></trkpt><trkpt lat="43.477431" lon="11.6932145"><ele>281.0</ele><time>2026-03-22T15:41:38.768Z</time></trkpt><trkpt lat="43.4775284" lon="11.693318"><ele>281.0</ele><time>2026-03-22T15:41:39.768Z</time></trkpt><trkpt lat="43.4776282" lon="11.6934281"><ele>281.0</ele><time>2026-03-22T15:41:40.767Z</time></trkpt><trkpt lat="43.4777254" lon="11.693544"><ele>281.0</ele><time>2026-03-22T15:41:41.767Z</time></trkpt><trkpt lat="43.4778216" lon="11.6936723"><ele>279.0</ele><time>2026-03-22T15:41:42.766Z</time></trkpt><trkpt lat="43.4779184" lon="11.6937997"><ele>277.0</ele><time>2026-03-22T15:41:43.768Z</time></trkpt><trkpt lat="43.4780162" lon="11.6939305"><ele>275.0</ele><time>2026-03-22T15:41:44.767Z</time></trkpt><trkpt lat="43.4781156" lon="11.6940618"><ele>273.0</ele><time>2026-03-22T15:41:45.768Z</time></trkpt><trkpt lat="43.4782237" lon="11.6941891"><ele>271.5</ele><time>2026-03-22T15:41:46.768Z</time></trkpt><trkpt lat="43.4783384" lon="11.6943077"><ele>270.0</ele><time>2026-03-22T15:41:47.768Z</time></trkpt><trkpt lat="43.4784404" lon="11.6944316"><ele>268.5</ele><time>2026-03-22T15:41:48.767Z</time></trkpt><trkpt lat="43.4785235" lon="11.6945721"><ele>267.0</ele><time>2026-03-22T15:41:49.767Z</time></trkpt><trkpt lat="43.4785878" lon="11.6947296"><ele>265.5</ele><time>2026-03-22T15:41:50.768Z</time></trkpt><trkpt lat="43.478631" lon="11.6948933"><ele>264.0</ele><time>2026-03-22T15:41:51.768Z</time></trkpt><trkpt lat="43.4786686" lon="11.6950568"><ele>262.5</ele><time>2026-03-22T15:41:52.768Z</time></trkpt><trkpt lat="43.4787181" lon="11.6952132"><ele>261.0</ele><time>2026-03-22T15:41:53.767Z</time></trkpt><trkpt lat="43.4787908" lon="11.6953504"><ele>259.25</ele><time>2026-03-22T15:41:54.768Z</time></trkpt><trkpt lat="43.4788795" lon="11.6954567"><ele>257.5</ele><time>2026-03-22T15:41:55.768Z</time></trkpt><trkpt lat="43.4789776" lon="11.6955398"><ele>255.75</ele><time>2026-03-22T15:41:56.767Z</time></trkpt><trkpt lat="43.479085" lon="11.6956022"><ele>254.0</ele><time>2026-03-22T15:41:57.768Z</time></trkpt><trkpt lat="43.4792027" lon="11.6956347"><ele>254.0</ele><time>2026-03-22T15:41:58.767Z</time></trkpt><trkpt lat="43.4793267" lon="11.6956425"><ele>254.0</ele><time>2026-03-22T15:41:59.767Z</time></trkpt><trkpt lat="43.4794568" lon="11.6956352"><ele>254.0</ele><time>2026-03-22T15:42:00.768Z</time></trkpt><trkpt lat="43.4795944" lon="11.695637"><ele>254.0</ele><time>2026-03-22T15:42:01.768Z</time></trkpt><trkpt lat="43.479734" lon="11.6956432"><ele>254.0</ele><time>2026-03-22T15:42:02.768Z</time></trkpt><trkpt lat="43.4798634" lon="11.6956435"><ele>254.0</ele><time>2026-03-22T15:42:03.768Z</time></trkpt><trkpt lat="43.4799888" lon="11.695628"><ele>254.0</ele><time>2026-03-22T15:42:04.767Z</time></trkpt><trkpt lat="43.4801065" lon="11.6955981"><ele>254.0</ele><time>2026-03-22T15:42:05.767Z</time></trkpt><trkpt lat="43.480217" lon="11.6955509"><ele>254.0</ele><time>2026-03-22T15:42:06.768Z</time></trkpt><trkpt lat="43.4803218" lon="11.6954795"><ele>254.0</ele><time>2026-03-22T15:42:07.768Z</time></trkpt><trkpt lat="43.4804342" lon="11.6953874"><ele>254.0</ele><time>2026-03-22T15:42:08.768Z</time></trkpt><trkpt lat="43.480544" lon="11.6952957"><ele>254.0</ele><time>2026-03-22T15:42:09.767Z</time></trkpt><trkpt lat="43.4806488" lon="11.6952088"><ele>254.6</ele><time>2026-03-22T15:42:10.768Z</time></trkpt><trkpt lat="43.4807503" lon="11.6951274"><ele>255.2</ele><time>2026-03-22T15:42:11.767Z</time></trkpt><trkpt lat="43.4808485" lon="11.6950548"><ele>255.79999999999998</ele><time>2026-03-22T15:42:12.768Z</time></trkpt><trkpt lat="43.4809459" lon="11.695"><ele>256.4</ele><time>2026-03-22T15:42:13.768Z</time></trkpt><trkpt lat="43.4810364" lon="11.6949643"><ele>257.0</ele><time>2026-03-22T15:42:14.767Z</time></trkpt><trkpt lat="43.4811159" lon="11.6949478"><ele>257.0</ele><time>2026-03-22T15:42:15.766Z</time></trkpt><trkpt lat="43.4811829" lon="11.6949546"><ele>257.0</ele><time>2026-03-22T15:42:16.768Z</time></trkpt><trkpt lat="43.4812499" lon="11.6950163"><ele>257.0</ele><time>2026-03-22T15:42:18.768Z</time></trkpt><trkpt lat="43.4812814" lon="11.6950955"><ele>257.0</ele><time>2026-03-22T15:42:50.767Z</time></trkpt><trkpt lat="43.4812784" lon="11.6951839"><ele>257.0</ele><time>2026-03-22T15:42:51.768Z</time></trkpt><trkpt lat="43.4812671" lon="11.695299"><ele>257.0</ele><time>2026-03-22T15:42:52.768Z</time></trkpt><trkpt lat="43.4812527" lon="11.6954435"><ele>257.2</ele><time>2026-03-22T15:42:53.767Z</time></trkpt><trkpt lat="43.4812383" lon="11.6955829"><ele>257.4</ele><time>2026-03-22T15:42:54.767Z</time></trkpt><trkpt lat="43.4812269" lon="11.6957215"><ele>257.6</ele><time>2026-03-22T15:42:55.767Z</time></trkpt><trkpt lat="43.481214" lon="11.695884"><ele>257.8</ele><time>2026-03-22T15:42:56.768Z</time></trkpt><trkpt lat="43.4811986" lon="11.6960517"><ele>258.0</ele><time>2026-03-22T15:42:57.767Z</time></trkpt><trkpt lat="43.4811803" lon="11.6962028"><ele>258.6</ele><time>2026-03-22T15:42:58.768Z</time></trkpt><trkpt lat="43.4811654" lon="11.6963363"><ele>259.20000000000005</ele><time>2026-03-22T15:42:59.768Z</time></trkpt><trkpt lat="43.4811526" lon="11.6964581"><ele>259.8</ele><time>2026-03-22T15:43:00.768Z</time></trkpt><trkpt lat="43.4811409" lon="11.6965783"><ele>260.40000000000003</ele><time>2026-03-22T15:43:01.768Z</time></trkpt><trkpt lat="43.481122" lon="11.6967043"><ele>261.0</ele><time>2026-03-22T15:43:02.766Z</time></trkpt><trkpt lat="43.4810942" lon="11.696835"><ele>261.5</ele><time>2026-03-22T15:43:03.768Z</time></trkpt><trkpt lat="43.4810538" lon="11.6969691"><ele>262.0</ele><time>2026-03-22T15:43:04.768Z</time></trkpt><trkpt lat="43.4810003" lon="11.6971068"><ele>262.5</ele><time>2026-03-22T15:43:05.768Z</time></trkpt><trkpt lat="43.4809322" lon="11.697254"><ele>263.0</ele><time>2026-03-22T15:43:06.767Z</time></trkpt><trkpt lat="43.480857" lon="11.6974006"><ele>263.0</ele><time>2026-03-22T15:43:07.768Z</time></trkpt><trkpt lat="43.4807864" lon="11.6975332"><ele>263.0</ele><time>2026-03-22T15:43:08.767Z</time></trkpt><trkpt lat="43.4807222" lon="11.6976648"><ele>263.0</ele><time>2026-03-22T15:43:09.767Z</time></trkpt><trkpt lat="43.4806561" lon="11.6977996"><ele>263.0</ele><time>2026-03-22T15:43:10.767Z</time></trkpt><trkpt lat="43.4805908" lon="11.6979387"><ele>262.0</ele><time>2026-03-22T15:43:11.768Z</time></trkpt><trkpt lat="43.4805216" lon="11.6980762"><ele>261.0</ele><time>2026-03-22T15:43:12.768Z</time></trkpt><trkpt lat="43.4804483" lon="11.6982195"><ele>260.0</ele><time>2026-03-22T15:43:13.767Z</time></trkpt><trkpt lat="43.4803699" lon="11.6983684"><ele>259.0</ele><time>2026-03-22T15:43:14.768Z</time></trkpt><trkpt lat="43.4802883" lon="11.6985227"><ele>257.75</ele><time>2026-03-22T15:43:15.767Z</time></trkpt><trkpt lat="43.4802047" lon="11.6986797"><ele>256.5</ele><time>2026-03-22T15:43:16.768Z</time></trkpt><trkpt lat="43.4801214" lon="11.6988276"><ele>255.25</ele><time>2026-03-22T15:43:17.767Z</time></trkpt><trkpt lat="43.4800339" lon="11.6989635"><ele>254.0</ele><time>2026-03-22T15:43:18.768Z</time></trkpt><trkpt lat="43.4799444" lon="11.6990908"><ele>254.0</ele><time>2026-03-22T15:43:19.768Z</time></trkpt><trkpt lat="43.4798473" lon="11.6992133"><ele>254.0</ele><time>2026-03-22T15:43:20.768Z</time></trkpt><trkpt lat="43.4797433" lon="11.6993322"><ele>254.0</ele><time>2026-03-22T15:43:21.768Z</time></trkpt><trkpt lat="43.4796416" lon="11.6994509"><ele>254.0</ele><time>2026-03-22T15:43:22.766Z</time></trkpt><trkpt lat="43.4795441" lon="11.6995695"><ele>252.25</ele><time>2026-03-22T15:43:23.767Z</time></trkpt><trkpt lat="43.4794472" lon="11.6996854"><ele>250.5</ele><time>2026-03-22T15:43:24.768Z</time></trkpt><trkpt lat="43.4793517" lon="11.6998009"><ele>248.75</ele><time>2026-03-22T15:43:25.766Z</time></trkpt><trkpt lat="43.4792591" lon="11.6999266"><ele>247.0</ele><time>2026-03-22T15:43:26.767Z</time></trkpt><trkpt lat="43.4791818" lon="11.7000554"><ele>247.0</ele><time>2026-03-22T15:43:27.768Z</time></trkpt><trkpt lat="43.4791269" lon="11.7001936"><ele>247.0</ele><time>2026-03-22T15:43:28.767Z</time></trkpt><trkpt lat="43.4790979" lon="11.7003384"><ele>247.0</ele><time>2026-03-22T15:43:29.767Z</time></trkpt><trkpt lat="43.4790953" lon="11.7004836"><ele>247.0</ele><time>2026-03-22T15:43:30.767Z</time></trkpt><trkpt lat="43.479118" lon="11.700623"><ele>247.0</ele><time>2026-03-22T15:43:31.768Z</time></trkpt><trkpt lat="43.479172" lon="11.7007496"><ele>246.5</ele><time>2026-03-22T15:43:32.768Z</time></trkpt><trkpt lat="43.4792474" lon="11.7008542"><ele>246.0</ele><time>2026-03-22T15:43:33.767Z</time></trkpt><trkpt lat="43.4793382" lon="11.7009372"><ele>245.5</ele><time>2026-03-22T15:43:34.768Z</time></trkpt><trkpt lat="43.4794461" lon="11.7010025"><ele>245.0</ele><time>2026-03-22T15:43:35.766Z</time></trkpt><trkpt lat="43.4795629" lon="11.7010514"><ele>244.75</ele><time>2026-03-22T15:43:36.768Z</time></trkpt><trkpt lat="43.4796878" lon="11.7010828"><ele>244.5</ele><time>2026-03-22T15:43:37.768Z</time></trkpt><trkpt lat="43.4798152" lon="11.701084"><ele>244.25</ele><time>2026-03-22T15:43:38.768Z</time></trkpt><trkpt lat="43.479942" lon="11.7010627"><ele>244.0</ele><time>2026-03-22T15:43:39.767Z</time></trkpt><trkpt lat="43.4800663" lon="11.7010217"><ele>244.0</ele><time>2026-03-22T15:43:40.768Z</time></trkpt><trkpt lat="43.4801919" lon="11.7009772"><ele>244.0</ele><time>2026-03-22T15:43:41.767Z</time></trkpt><trkpt lat="43.4803156" lon="11.7009439"><ele>244.0</ele><time>2026-03-22T15:43:42.767Z</time></trkpt><trkpt lat="43.4804347" lon="11.7009261"><ele>244.0</ele><time>2026-03-22T15:43:43.768Z</time></trkpt><trkpt lat="43.4805458" lon="11.7009471"><ele>245.0</ele><time>2026-03-22T15:43:44.768Z</time></trkpt><trkpt lat="43.4806424" lon="11.7010045"><ele>246.0</ele><time>2026-03-22T15:43:45.767Z</time></trkpt><trkpt lat="43.4807426" lon="11.7011007"><ele>247.0</ele><time>2026-03-22T15:43:46.767Z</time></trkpt><trkpt lat="43.4808465" lon="11.7012185"><ele>248.0</ele><time>2026-03-22T15:43:47.767Z</time></trkpt><trkpt lat="43.4809499" lon="11.7013445"><ele>250.33333333333334</ele><time>2026-03-22T15:43:48.767Z</time></trkpt><trkpt lat="43.4810566" lon="11.7014844"><ele>252.66666666666669</ele><time>2026-03-22T15:43:49.768Z</time></trkpt><trkpt lat="43.4811571" lon="11.7016475"><ele>255.0</ele><time>2026-03-22T15:43:50.768Z</time></trkpt><trkpt lat="43.4812447" lon="11.701824"><ele>254.33333333333331</ele><time>2026-03-22T15:43:51.768Z</time></trkpt><trkpt lat="43.4813266" lon="11.7020076"><ele>253.66666666666666</ele><time>2026-03-22T15:43:52.766Z</time></trkpt><trkpt lat="43.4814019" lon="11.7021943"><ele>253.0</ele><time>2026-03-22T15:43:53.768Z</time></trkpt><trkpt lat="43.4814723" lon="11.7023898"><ele>253.0</ele><time>2026-03-22T15:43:54.767Z</time></trkpt><trkpt lat="43.4815345" lon="11.702601"><ele>253.0</ele><time>2026-03-22T15:43:55.768Z</time></trkpt><trkpt lat="43.4815851" lon="11.7028172"><ele>253.0</ele><time>2026-03-22T15:43:56.767Z</time></trkpt><trkpt lat="43.4816261" lon="11.7030208"><ele>254.25</ele><time>2026-03-22T15:43:57.768Z</time></trkpt><trkpt lat="43.4816616" lon="11.7032107"><ele>255.5</ele><time>2026-03-22T15:43:58.767Z</time></trkpt><trkpt lat="43.4816965" lon="11.703399"><ele>256.75</ele><time>2026-03-22T15:43:59.768Z</time></trkpt><trkpt lat="43.4817279" lon="11.7035909"><ele>258.0</ele><time>2026-03-22T15:44:00.767Z</time></trkpt><trkpt lat="43.4817538" lon="11.7037898"><ele>259.5</ele><time>2026-03-22T15:44:01.767Z</time></trkpt><trkpt lat="43.4817717" lon="11.7039901"><ele>261.0</ele><time>2026-03-22T15:44:02.768Z</time></trkpt><trkpt lat="43.4817858" lon="11.7041905"><ele>262.5</ele><time>2026-03-22T15:44:03.767Z</time></trkpt><trkpt lat="43.481803" lon="11.7043948"><ele>264.0</ele><time>2026-03-22T15:44:04.767Z</time></trkpt><trkpt lat="43.4818207" lon="11.7046005"><ele>265.25</ele><time>2026-03-22T15:44:05.768Z</time></trkpt><trkpt lat="43.4818362" lon="11.7048049"><ele>266.5</ele><time>2026-03-22T15:44:06.767Z</time></trkpt><trkpt lat="43.481853" lon="11.7050096"><ele>267.75</ele><time>2026-03-22T15:44:07.767Z</time></trkpt><trkpt lat="43.4818666" lon="11.7052134"><ele>269.0</ele><time>2026-03-22T15:44:08.768Z</time></trkpt><trkpt lat="43.481871" lon="11.7054296"><ele>269.0</ele><time>2026-03-22T15:44:09.767Z</time></trkpt><trkpt lat="43.4818702" lon="11.705651"><ele>269.0</ele><time>2026-03-22T15:44:10.768Z</time></trkpt><trkpt lat="43.4818673" lon="11.7058748"><ele>269.0</ele><time>2026-03-22T15:44:11.767Z</time></trkpt><trkpt lat="43.4818616" lon="11.7061038"><ele>269.0</ele><time>2026-03-22T15:44:12.767Z</time></trkpt><trkpt lat="43.481857" lon="11.7063269"><ele>269.0</ele><time>2026-03-22T15:44:13.767Z</time></trkpt><trkpt lat="43.4818501" lon="11.7065383"><ele>269.0</ele><time>2026-03-22T15:44:14.768Z</time></trkpt><trkpt lat="43.4818447" lon="11.7067387"><ele>268.75</ele><time>2026-03-22T15:44:15.768Z</time></trkpt><trkpt lat="43.4818419" lon="11.706941"><ele>268.5</ele><time>2026-03-22T15:44:16.768Z</time></trkpt><trkpt lat="43.481843" lon="11.7071431"><ele>268.25</ele><time>2026-03-22T15:44:17.767Z</time></trkpt><trkpt lat="43.4818413" lon="11.7073353"><ele>268.0</ele><time>2026-03-22T15:44:18.767Z</time></trkpt><trkpt lat="43.4818373" lon="11.7075166"><ele>268.0</ele><time>2026-03-22T15:44:19.767Z</time></trkpt><trkpt lat="43.4818243" lon="11.7076866"><ele>268.0</ele><time>2026-03-22T15:44:20.768Z</time></trkpt><trkpt lat="43.4817893" lon="11.7078441"><ele>268.0</ele><time>2026-03-22T15:44:21.767Z</time></trkpt><trkpt lat="43.48173" lon="11.7079858"><ele>268.0</ele><time>2026-03-22T15:44:22.768Z</time></trkpt><trkpt lat="43.481648" lon="11.7080976"><ele>267.25</ele><time>2026-03-22T15:44:23.767Z</time></trkpt><trkpt lat="43.4815504" lon="11.7081732"><ele>266.5</ele><time>2026-03-22T15:44:24.767Z</time></trkpt><trkpt lat="43.4814325" lon="11.7082273"><ele>265.75</ele><time>2026-03-22T15:44:25.767Z</time></trkpt><trkpt lat="43.4812978" lon="11.7082654"><ele>265.0</ele><time>2026-03-22T15:44:26.768Z</time></trkpt><trkpt lat="43.4811503" lon="11.7082974"><ele>265.0</ele><time>2026-03-22T15:44:27.767Z</time></trkpt><trkpt lat="43.4810061" lon="11.7083294"><ele>265.0</ele><time>2026-03-22T15:44:28.768Z</time></trkpt><trkpt lat="43.48087" lon="11.7083676"><ele>265.0</ele><time>2026-03-22T15:44:29.767Z</time></trkpt><trkpt lat="43.4807443" lon="11.7084306"><ele>265.0</ele><time>2026-03-22T15:44:30.767Z</time></trkpt><trkpt lat="43.4806257" lon="11.7085191"><ele>263.25</ele><time>2026-03-22T15:44:31.767Z</time></trkpt><trkpt lat="43.4805204" lon="11.708624"><ele>261.5</ele><time>2026-03-22T15:44:32.768Z</time></trkpt><trkpt lat="43.4804337" lon="11.708745"><ele>259.75</ele><time>2026-03-22T15:44:33.768Z</time></trkpt><trkpt lat="43.4803653" lon="11.7088872"><ele>258.0</ele><time>2026-03-22T15:44:34.767Z</time></trkpt><trkpt lat="43.4803179" lon="11.7090468"><ele>261.0</ele><time>2026-03-22T15:44:35.766Z</time></trkpt><trkpt lat="43.4802876" lon="11.7092288"><ele>264.0</ele><time>2026-03-22T15:44:36.768Z</time></trkpt><trkpt lat="43.4802641" lon="11.7094249"><ele>267.0</ele><time>2026-03-22T15:44:37.767Z</time></trkpt><trkpt lat="43.4802395" lon="11.7096225"><ele>270.0</ele><time>2026-03-22T15:44:38.767Z</time></trkpt><trkpt lat="43.4802095" lon="11.7098263"><ele>270.0</ele><time>2026-03-22T15:44:39.768Z</time></trkpt><trkpt lat="43.4801709" lon="11.7100294"><ele>270.0</ele><time>2026-03-22T15:44:40.767Z</time></trkpt><trkpt lat="43.480138" lon="11.7102217"><ele>270.0</ele><time>2026-03-22T15:44:41.767Z</time></trkpt><trkpt lat="43.4801044" lon="11.710417"><ele>270.0</ele><time>2026-03-22T15:44:42.767Z</time></trkpt><trkpt lat="43.4800677" lon="11.7106125"><ele>269.0</ele><time>2026-03-22T15:44:43.768Z</time></trkpt><trkpt lat="43.4800287" lon="11.7108066"><ele>268.0</ele><time>2026-03-22T15:44:44.768Z</time></trkpt><trkpt lat="43.4799904" lon="11.711001"><ele>267.0</ele><time>2026-03-22T15:44:45.767Z</time></trkpt><trkpt lat="43.479949" lon="11.7111934"><ele>266.0</ele><time>2026-03-22T15:44:46.768Z</time></trkpt><trkpt lat="43.4799076" lon="11.7113858"><ele>265.5</ele><time>2026-03-22T15:44:47.767Z</time></trkpt><trkpt lat="43.4798668" lon="11.7115734"><ele>265.0</ele><time>2026-03-22T15:44:48.767Z</time></trkpt><trkpt lat="43.4798272" lon="11.71175"><ele>264.5</ele><time>2026-03-22T15:44:49.768Z</time></trkpt><trkpt lat="43.4797906" lon="11.7119206"><ele>264.0</ele><time>2026-03-22T15:44:50.767Z</time></trkpt><trkpt lat="43.4797558" lon="11.7120835"><ele>263.5</ele><time>2026-03-22T15:44:51.767Z</time></trkpt><trkpt lat="43.4797264" lon="11.7122439"><ele>263.0</ele><time>2026-03-22T15:44:52.767Z</time></trkpt><trkpt lat="43.4796975" lon="11.7124038"><ele>262.5</ele><time>2026-03-22T15:44:53.767Z</time></trkpt><trkpt lat="43.4796722" lon="11.712563"><ele>262.0</ele><time>2026-03-22T15:44:54.767Z</time></trkpt><trkpt lat="43.4796511" lon="11.7127259"><ele>261.25</ele><time>2026-03-22T15:44:55.768Z</time></trkpt><trkpt lat="43.4796354" lon="11.71289"><ele>260.5</ele><time>2026-03-22T15:44:56.767Z</time></trkpt><trkpt lat="43.4796218" lon="11.7130589"><ele>259.75</ele><time>2026-03-22T15:44:57.767Z</time></trkpt><trkpt lat="43.4796052" lon="11.7132267"><ele>259.0</ele><time>2026-03-22T15:44:58.767Z</time></trkpt><trkpt lat="43.4795913" lon="11.7134"><ele>257.25</ele><time>2026-03-22T15:44:59.767Z</time></trkpt><trkpt lat="43.4795775" lon="11.7135762"><ele>255.5</ele><time>2026-03-22T15:45:00.768Z</time></trkpt><trkpt lat="43.4795631" lon="11.7137508"><ele>253.75</ele><time>2026-03-22T15:45:01.768Z</time></trkpt><trkpt lat="43.47955" lon="11.7139259"><ele>252.0</ele><time>2026-03-22T15:45:02.768Z</time></trkpt><trkpt lat="43.4795389" lon="11.7141003"><ele>252.0</ele><time>2026-03-22T15:45:03.768Z</time></trkpt><trkpt lat="43.4795267" lon="11.7142709"><ele>252.0</ele><time>2026-03-22T15:45:04.768Z</time></trkpt><trkpt lat="43.4795112" lon="11.714435"><ele>252.0</ele><time>2026-03-22T15:45:05.768Z</time></trkpt><trkpt lat="43.4794962" lon="11.7145977"><ele>252.0</ele><time>2026-03-22T15:45:06.766Z</time></trkpt><trkpt lat="43.4794813" lon="11.7147545"><ele>252.0</ele><time>2026-03-22T15:45:07.767Z</time></trkpt><trkpt lat="43.4794799" lon="11.7149046"><ele>252.0</ele><time>2026-03-22T15:45:08.768Z</time></trkpt><trkpt lat="43.4795114" lon="11.7150336"><ele>252.0</ele><time>2026-03-22T15:45:09.767Z</time></trkpt><trkpt lat="43.4795685" lon="11.7151401"><ele>252.0</ele><time>2026-03-22T15:45:10.768Z</time></trkpt><trkpt lat="43.4796443" lon="11.7152349"><ele>252.0</ele><time>2026-03-22T15:45:11.768Z</time></trkpt><trkpt lat="43.47972" lon="11.7153275"><ele>253.75</ele><time>2026-03-22T15:45:12.768Z</time></trkpt><trkpt lat="43.4798111" lon="11.7154391"><ele>255.5</ele><time>2026-03-22T15:45:13.768Z</time></trkpt><trkpt lat="43.4799129" lon="11.7155592"><ele>257.25</ele><time>2026-03-22T15:45:14.768Z</time></trkpt><trkpt lat="43.4800186" lon="11.7156838"><ele>259.0</ele><time>2026-03-22T15:45:15.767Z</time></trkpt><trkpt lat="43.4801237" lon="11.7158053"><ele>259.0</ele><time>2026-03-22T15:45:16.768Z</time></trkpt><trkpt lat="43.4802239" lon="11.7159219"><ele>259.0</ele><time>2026-03-22T15:45:17.767Z</time></trkpt><trkpt lat="43.4803185" lon="11.7160364"><ele>259.0</ele><time>2026-03-22T15:45:18.767Z</time></trkpt><trkpt lat="43.4804172" lon="11.7161491"><ele>259.0</ele><time>2026-03-22T15:45:19.768Z</time></trkpt><trkpt lat="43.4805172" lon="11.7162677"><ele>259.0</ele><time>2026-03-22T15:45:20.767Z</time></trkpt><trkpt lat="43.4806155" lon="11.71639"><ele>259.0</ele><time>2026-03-22T15:45:21.767Z</time></trkpt><trkpt lat="43.4807188" lon="11.7165117"><ele>259.0</ele><time>2026-03-22T15:45:22.767Z</time></trkpt><trkpt lat="43.4808279" lon="11.7166378"><ele>259.0</ele><time>2026-03-22T15:45:23.768Z</time></trkpt><trkpt lat="43.4809378" lon="11.716764"><ele>259.0</ele><time>2026-03-22T15:45:24.767Z</time></trkpt><trkpt lat="43.481044" lon="11.7168929"><ele>259.0</ele><time>2026-03-22T15:45:25.768Z</time></trkpt><trkpt lat="43.4811463" lon="11.717017"><ele>259.0</ele><time>2026-03-22T15:45:26.767Z</time></trkpt><trkpt lat="43.4812455" lon="11.7171364"><ele>259.0</ele><time>2026-03-22T15:45:27.768Z</time></trkpt><trkpt lat="43.4813482" lon="11.7172553"><ele>259.5</ele><time>2026-03-22T15:45:28.767Z</time></trkpt><trkpt lat="43.4814497" lon="11.7173652"><ele>260.0</ele><time>2026-03-22T15:45:29.767Z</time></trkpt><trkpt lat="43.4815467" lon="11.7174753"><ele>260.5</ele><time>2026-03-22T15:45:30.768Z</time></trkpt><trkpt lat="43.4816379" lon="11.7175834"><ele>261.0</ele><time>2026-03-22T15:45:31.767Z</time></trkpt><trkpt lat="43.4817241" lon="11.7177001"><ele>262.75</ele><time>2026-03-22T15:45:32.767Z</time></trkpt><trkpt lat="43.4817954" lon="11.7178278"><ele>264.5</ele><time>2026-03-22T15:45:33.768Z</time></trkpt><trkpt lat="43.4818406" lon="11.717979"><ele>266.25</ele><time>2026-03-22T15:45:34.767Z</time></trkpt><trkpt lat="43.481873" lon="11.7181429"><ele>268.0</ele><time>2026-03-22T15:45:35.767Z</time></trkpt><trkpt lat="43.4819011" lon="11.7183098"><ele>268.0</ele><time>2026-03-22T15:45:36.768Z</time></trkpt><trkpt lat="43.4819145" lon="11.7184642"><ele>268.0</ele><time>2026-03-22T15:45:37.768Z</time></trkpt><trkpt lat="43.4818913" lon="11.7185981"><ele>268.0</ele><time>2026-03-22T15:45:38.768Z</time></trkpt><trkpt lat="43.4818396" lon="11.718703"><ele>268.0</ele><time>2026-03-22T15:45:39.767Z</time></trkpt><trkpt lat="43.4817667" lon="11.7187941"><ele>268.0</ele><time>2026-03-22T15:45:40.768Z</time></trkpt><trkpt lat="43.4816688" lon="11.7188971"><ele>268.25</ele><time>2026-03-22T15:45:41.767Z</time></trkpt><trkpt lat="43.4815581" lon="11.7190098"><ele>268.5</ele><time>2026-03-22T15:45:42.768Z</time></trkpt><trkpt lat="43.4814471" lon="11.7191147"><ele>268.75</ele><time>2026-03-22T15:45:43.767Z</time></trkpt><trkpt lat="43.4813423" lon="11.7191997"><ele>269.0</ele><time>2026-03-22T15:45:44.767Z</time></trkpt><trkpt lat="43.4812347" lon="11.7192779"><ele>268.25</ele><time>2026-03-22T15:45:45.768Z</time></trkpt><trkpt lat="43.4811003" lon="11.7193555"><ele>267.5</ele><time>2026-03-22T15:45:46.767Z</time></trkpt><trkpt lat="43.4809573" lon="11.7194081"><ele>266.75</ele><time>2026-03-22T15:45:47.766Z</time></trkpt><trkpt lat="43.4808231" lon="11.7194565"><ele>266.0</ele><time>2026-03-22T15:45:48.768Z</time></trkpt><trkpt lat="43.4806958" lon="11.7195138"><ele>266.0</ele><time>2026-03-22T15:45:49.768Z</time></trkpt><trkpt lat="43.4805787" lon="11.7195827"><ele>266.0</ele><time>2026-03-22T15:45:50.767Z</time></trkpt><trkpt lat="43.4804702" lon="11.7196763"><ele>266.0</ele><time>2026-03-22T15:45:51.767Z</time></trkpt><trkpt lat="43.4803696" lon="11.7198013"><ele>266.0</ele><time>2026-03-22T15:45:52.768Z</time></trkpt><trkpt lat="43.4802689" lon="11.7199425"><ele>266.0</ele><time>2026-03-22T15:45:53.767Z</time></trkpt><trkpt lat="43.4801699" lon="11.7200864"><ele>266.0</ele><time>2026-03-22T15:45:54.767Z</time></trkpt><trkpt lat="43.4800786" lon="11.7202268"><ele>266.0</ele><time>2026-03-22T15:45:55.768Z</time></trkpt><trkpt lat="43.4799997" lon="11.7203651"><ele>266.0</ele><time>2026-03-22T15:45:56.767Z</time></trkpt><trkpt lat="43.479927" lon="11.7204991"><ele>266.0</ele><time>2026-03-22T15:45:57.767Z</time></trkpt><trkpt lat="43.4798615" lon="11.7206179"><ele>266.0</ele><time>2026-03-22T15:45:58.767Z</time></trkpt><trkpt lat="43.4797929" lon="11.7207135"><ele>266.0</ele><time>2026-03-22T15:45:59.767Z</time></trkpt><trkpt lat="43.479709" lon="11.7207715"><ele>266.0</ele><time>2026-03-22T15:46:00.767Z</time></trkpt><trkpt lat="43.4796096" lon="11.7208153"><ele>266.0</ele><time>2026-03-22T15:46:01.767Z</time></trkpt><trkpt lat="43.4795113" lon="11.7208369"><ele>268.2</ele><time>2026-03-22T15:46:02.767Z</time></trkpt><trkpt lat="43.4794308" lon="11.7208073"><ele>270.40000000000003</ele><time>2026-03-22T15:46:03.767Z</time></trkpt><trkpt lat="43.4793748" lon="11.7207495"><ele>272.6</ele><time>2026-03-22T15:46:04.768Z</time></trkpt><trkpt lat="43.4793349" lon="11.720662"><ele>274.8</ele><time>2026-03-22T15:46:05.767Z</time></trkpt><trkpt lat="43.4792899" lon="11.7205323"><ele>277.0</ele><time>2026-03-22T15:46:06.768Z</time></trkpt><trkpt lat="43.4792353" lon="11.7203801"><ele>277.0</ele><time>2026-03-22T15:46:07.768Z</time></trkpt><trkpt lat="43.4791654" lon="11.7202363"><ele>277.0</ele><time>2026-03-22T15:46:08.768Z</time></trkpt><trkpt lat="43.479078" lon="11.7200972"><ele>277.0</ele><time>2026-03-22T15:46:09.768Z</time></trkpt><trkpt lat="43.4789832" lon="11.7199821"><ele>277.0</ele><time>2026-03-22T15:46:10.768Z</time></trkpt><trkpt lat="43.4788764" lon="11.7198871"><ele>279.0</ele><time>2026-03-22T15:46:11.769Z</time></trkpt><trkpt lat="43.4787576" lon="11.7198078"><ele>281.0</ele><time>2026-03-22T15:46:12.768Z</time></trkpt><trkpt lat="43.4786522" lon="11.7197463"><ele>283.0</ele><time>2026-03-22T15:46:13.769Z</time></trkpt><trkpt lat="43.4785414" lon="11.7196622"><ele>285.0</ele><time>2026-03-22T15:46:14.769Z</time></trkpt><trkpt lat="43.4784439" lon="11.7195531"><ele>285.0</ele><time>2026-03-22T15:46:15.769Z</time></trkpt><trkpt lat="43.478364" lon="11.7194433"><ele>285.0</ele><time>2026-03-22T15:46:16.769Z</time></trkpt><trkpt lat="43.4782973" lon="11.7193423"><ele>285.0</ele><time>2026-03-22T15:46:17.769Z</time></trkpt><trkpt lat="43.4782392" lon="11.7192536"><ele>285.0</ele><time>2026-03-22T15:46:18.769Z</time></trkpt><trkpt lat="43.4781807" lon="11.719185"><ele>285.0</ele><time>2026-03-22T15:46:19.769Z</time></trkpt><trkpt lat="43.4781175" lon="11.7191557"><ele>285.0</ele><time>2026-03-22T15:46:20.769Z</time></trkpt><trkpt lat="43.4780207" lon="11.7192317"><ele>285.4</ele><time>2026-03-22T15:46:22.769Z</time></trkpt><trkpt lat="43.4779785" lon="11.7193264"><ele>285.8</ele><time>2026-03-22T15:46:23.769Z</time></trkpt><trkpt lat="43.4779276" lon="11.7194432"><ele>286.2</ele><time>2026-03-22T15:46:24.768Z</time></trkpt><trkpt lat="43.4778663" lon="11.7195653"><ele>286.6</ele><time>2026-03-22T15:46:25.769Z</time></trkpt><trkpt lat="43.4778045" lon="11.7196821"><ele>287.0</ele><time>2026-03-22T15:46:26.769Z</time></trkpt><trkpt lat="43.477731" lon="11.71979"><ele>289.5</ele><time>2026-03-22T15:46:27.768Z</time></trkpt><trkpt lat="43.4776463" lon="11.7198885"><ele>292.0</ele><time>2026-03-22T15:46:28.769Z</time></trkpt><trkpt lat="43.477543" lon="11.7199676"><ele>294.5</ele><time>2026-03-22T15:46:29.769Z</time></trkpt><trkpt lat="43.47743" lon="11.7200422"><ele>297.0</ele><time>2026-03-22T15:46:30.768Z</time></trkpt><trkpt lat="43.4773151" lon="11.720128"><ele>297.0</ele><time>2026-03-22T15:46:31.768Z</time></trkpt><trkpt lat="43.477189" lon="11.7202319"><ele>297.0</ele><time>2026-03-22T15:46:32.768Z</time></trkpt><trkpt lat="43.4770929" lon="11.7203341"><ele>297.0</ele><time>2026-03-22T15:46:33.768Z</time></trkpt><trkpt lat="43.4770104" lon="11.7204302"><ele>297.0</ele><time>2026-03-22T15:46:34.768Z</time></trkpt><trkpt lat="43.4769181" lon="11.7205053"><ele>298.5</ele><time>2026-03-22T15:46:35.768Z</time></trkpt><trkpt lat="43.4768176" lon="11.7205513"><ele>300.0</ele><time>2026-03-22T15:46:36.769Z</time></trkpt><trkpt lat="43.4766997" lon="11.7205843"><ele>301.5</ele><time>2026-03-22T15:46:37.769Z</time></trkpt><trkpt lat="43.4765762" lon="11.7206053"><ele>303.0</ele><time>2026-03-22T15:46:38.769Z</time></trkpt><trkpt lat="43.4764515" lon="11.720626"><ele>303.0</ele><time>2026-03-22T15:46:39.768Z</time></trkpt><trkpt lat="43.4763343" lon="11.7206506"><ele>303.0</ele><time>2026-03-22T15:46:40.768Z</time></trkpt><trkpt lat="43.476222" lon="11.7206706"><ele>303.0</ele><time>2026-03-22T15:46:41.769Z</time></trkpt><trkpt lat="43.476115" lon="11.7206904"><ele>303.0</ele><time>2026-03-22T15:46:42.768Z</time></trkpt><trkpt lat="43.4760118" lon="11.7207176"><ele>303.0</ele><time>2026-03-22T15:46:43.768Z</time></trkpt><trkpt lat="43.4759131" lon="11.7207553"><ele>303.75</ele><time>2026-03-22T15:46:44.769Z</time></trkpt><trkpt lat="43.475807" lon="11.7208165"><ele>304.5</ele><time>2026-03-22T15:46:45.768Z</time></trkpt><trkpt lat="43.4756933" lon="11.7208949"><ele>305.25</ele><time>2026-03-22T15:46:46.769Z</time></trkpt><trkpt lat="43.4755894" lon="11.720968"><ele>306.0</ele><time>2026-03-22T15:46:47.769Z</time></trkpt><trkpt lat="43.4754704" lon="11.7210471"><ele>306.0</ele><time>2026-03-22T15:46:48.768Z</time></trkpt><trkpt lat="43.4753581" lon="11.721119"><ele>306.0</ele><time>2026-03-22T15:46:49.768Z</time></trkpt><trkpt lat="43.4752447" lon="11.7211821"><ele>306.0</ele><time>2026-03-22T15:46:50.769Z</time></trkpt><trkpt lat="43.4751377" lon="11.7212443"><ele>306.0</ele><time>2026-03-22T15:46:51.768Z</time></trkpt><trkpt lat="43.4750365" lon="11.7213193"><ele>306.0</ele><time>2026-03-22T15:46:52.769Z</time></trkpt><trkpt lat="43.4749427" lon="11.7214164"><ele>306.0</ele><time>2026-03-22T15:46:53.769Z</time></trkpt><trkpt lat="43.474855" lon="11.7215284"><ele>306.0</ele><time>2026-03-22T15:46:54.768Z</time></trkpt><trkpt lat="43.4747644" lon="11.7216327"><ele>306.0</ele><time>2026-03-22T15:46:55.768Z</time></trkpt><trkpt lat="43.4746681" lon="11.7217275"><ele>306.25</ele><time>2026-03-22T15:46:56.769Z</time></trkpt><trkpt lat="43.4745609" lon="11.7218353"><ele>306.5</ele><time>2026-03-22T15:46:57.768Z</time></trkpt><trkpt lat="43.4744684" lon="11.7219375"><ele>306.75</ele><time>2026-03-22T15:46:58.769Z</time></trkpt><trkpt lat="43.4743775" lon="11.7220257"><ele>307.0</ele><time>2026-03-22T15:46:59.768Z</time></trkpt><trkpt lat="43.4742785" lon="11.7221306"><ele>308.25</ele><time>2026-03-22T15:47:00.769Z</time></trkpt><trkpt lat="43.4741867" lon="11.7222414"><ele>309.5</ele><time>2026-03-22T15:47:01.768Z</time></trkpt><trkpt lat="43.4741054" lon="11.7223568"><ele>310.75</ele><time>2026-03-22T15:47:02.768Z</time></trkpt><trkpt lat="43.4740283" lon="11.7224833"><ele>312.0</ele><time>2026-03-22T15:47:03.768Z</time></trkpt><trkpt lat="43.4739557" lon="11.7226107"><ele>312.0</ele><time>2026-03-22T15:47:04.769Z</time></trkpt><trkpt lat="43.4738909" lon="11.7227244"><ele>312.0</ele><time>2026-03-22T15:47:05.769Z</time></trkpt><trkpt lat="43.473821" lon="11.7228258"><ele>312.0</ele><time>2026-03-22T15:47:06.768Z</time></trkpt><trkpt lat="43.4737382" lon="11.7229278"><ele>312.0</ele><time>2026-03-22T15:47:07.768Z</time></trkpt><trkpt lat="43.4736474" lon="11.723032"><ele>312.0</ele><time>2026-03-22T15:47:08.768Z</time></trkpt><trkpt lat="43.4735458" lon="11.7231331"><ele>312.25</ele><time>2026-03-22T15:47:09.769Z</time></trkpt><trkpt lat="43.4734259" lon="11.7232337"><ele>312.5</ele><time>2026-03-22T15:47:10.769Z</time></trkpt><trkpt lat="43.473313" lon="11.7233181"><ele>312.75</ele><time>2026-03-22T15:47:11.768Z</time></trkpt><trkpt lat="43.4732109" lon="11.7234001"><ele>313.0</ele><time>2026-03-22T15:47:12.768Z</time></trkpt><trkpt lat="43.4731073" lon="11.7234865"><ele>313.5</ele><time>2026-03-22T15:47:13.769Z</time></trkpt><trkpt lat="43.4729971" lon="11.7235702"><ele>314.0</ele><time>2026-03-22T15:47:14.769Z</time></trkpt><trkpt lat="43.4728867" lon="11.7236493"><ele>314.5</ele><time>2026-03-22T15:47:15.768Z</time></trkpt><trkpt lat="43.4727831" lon="11.7237248"><ele>315.0</ele><time>2026-03-22T15:47:16.768Z</time></trkpt><trkpt lat="43.4726944" lon="11.7237994"><ele>317.2</ele><time>2026-03-22T15:47:17.769Z</time></trkpt><trkpt lat="43.4726266" lon="11.7238891"><ele>319.4</ele><time>2026-03-22T15:47:18.768Z</time></trkpt><trkpt lat="43.4725727" lon="11.7240153"><ele>321.6</ele><time>2026-03-22T15:47:19.768Z</time></trkpt><trkpt lat="43.4725095" lon="11.7241444"><ele>323.8</ele><time>2026-03-22T15:47:20.767Z</time></trkpt><trkpt lat="43.4724448" lon="11.7242705"><ele>326.0</ele><time>2026-03-22T15:47:21.769Z</time></trkpt><trkpt lat="43.4723805" lon="11.7244028"><ele>329.25</ele><time>2026-03-22T15:47:22.768Z</time></trkpt><trkpt lat="43.4723128" lon="11.7245341"><ele>332.5</ele><time>2026-03-22T15:47:23.768Z</time></trkpt><trkpt lat="43.4722402" lon="11.7246599"><ele>335.75</ele><time>2026-03-22T15:47:24.768Z</time></trkpt><trkpt lat="43.472164" lon="11.724769"><ele>339.0</ele><time>2026-03-22T15:47:25.769Z</time></trkpt><trkpt lat="43.4720835" lon="11.7248684"><ele>339.0</ele><time>2026-03-22T15:47:26.769Z</time></trkpt><trkpt lat="43.4720053" lon="11.7249707"><ele>339.0</ele><time>2026-03-22T15:47:27.768Z</time></trkpt><trkpt lat="43.471935" lon="11.7250835"><ele>339.0</ele><time>2026-03-22T15:47:28.769Z</time></trkpt><trkpt lat="43.4718774" lon="11.7252106"><ele>339.0</ele><time>2026-03-22T15:47:29.769Z</time></trkpt><trkpt lat="43.4718311" lon="11.7253584"><ele>339.0</ele><time>2026-03-22T15:47:30.769Z</time></trkpt><trkpt lat="43.47179" lon="11.7255167"><ele>341.75</ele><time>2026-03-22T15:47:31.769Z</time></trkpt><trkpt lat="43.471751" lon="11.7256829"><ele>344.5</ele><time>2026-03-22T15:47:32.769Z</time></trkpt><trkpt lat="43.4717169" lon="11.7258418"><ele>347.25</ele><time>2026-03-22T15:47:33.769Z</time></trkpt><trkpt lat="43.4716657" lon="11.7259868"><ele>350.0</ele><time>2026-03-22T15:47:34.768Z</time></trkpt><trkpt lat="43.4715961" lon="11.726119"><ele>350.6</ele><time>2026-03-22T15:47:35.768Z</time></trkpt><trkpt lat="43.4715159" lon="11.7262463"><ele>351.2</ele><time>2026-03-22T15:47:36.769Z</time></trkpt><trkpt lat="43.4714445" lon="11.7263502"><ele>351.79999999999995</ele><time>2026-03-22T15:47:37.769Z</time></trkpt><trkpt lat="43.4713729" lon="11.7264274"><ele>352.4</ele><time>2026-03-22T15:47:38.768Z</time></trkpt><trkpt lat="43.4712911" lon="11.7264843"><ele>353.0</ele><time>2026-03-22T15:47:39.769Z</time></trkpt><trkpt lat="43.47121" lon="11.7265108"><ele>356.0</ele><time>2026-03-22T15:47:40.769Z</time></trkpt><trkpt lat="43.4711267" lon="11.7265061"><ele>359.0</ele><time>2026-03-22T15:47:41.769Z</time></trkpt><trkpt lat="43.4710328" lon="11.7264896"><ele>362.0</ele><time>2026-03-22T15:47:42.768Z</time></trkpt><trkpt lat="43.4709586" lon="11.7264823"><ele>365.0</ele><time>2026-03-22T15:47:43.767Z</time></trkpt><trkpt lat="43.4708532" lon="11.7264996"><ele>368.0</ele><time>2026-03-22T15:47:45.768Z</time></trkpt><trkpt lat="43.4708166" lon="11.7265907"><ele>371.0</ele><time>2026-03-22T15:47:47.768Z</time></trkpt><trkpt lat="43.4708616" lon="11.7266887"><ele>371.0</ele><time>2026-03-22T15:47:49.768Z</time></trkpt><trkpt lat="43.4709243" lon="11.726806"><ele>371.0</ele><time>2026-03-22T15:47:51.769Z</time></trkpt><trkpt lat="43.4709622" lon="11.7268762"><ele>371.0</ele><time>2026-03-22T15:47:54.768Z</time></trkpt><trkpt lat="43.4710176" lon="11.7269954"><ele>371.0</ele><time>2026-03-22T15:48:28.768Z</time></trkpt><trkpt lat="43.4710583" lon="11.7270746"><ele>371.0</ele><time>2026-03-22T15:48:29.768Z</time></trkpt><trkpt lat="43.4711037" lon="11.7271597"><ele>371.0</ele><time>2026-03-22T15:48:30.768Z</time></trkpt><trkpt lat="43.4711589" lon="11.727267"><ele>369.4</ele><time>2026-03-22T15:48:31.768Z</time></trkpt><trkpt lat="43.4712141" lon="11.7273788"><ele>367.8</ele><time>2026-03-22T15:48:32.768Z</time></trkpt><trkpt lat="43.4712678" lon="11.7274833"><ele>366.2</ele><time>2026-03-22T15:48:33.768Z</time></trkpt><trkpt lat="43.4713213" lon="11.7275887"><ele>364.59999999999997</ele><time>2026-03-22T15:48:34.768Z</time></trkpt><trkpt lat="43.4713716" lon="11.7277019"><ele>363.0</ele><time>2026-03-22T15:48:35.768Z</time></trkpt><trkpt lat="43.471441" lon="11.7278184"><ele>367.2</ele><time>2026-03-22T15:48:36.769Z</time></trkpt><trkpt lat="43.4715045" lon="11.7279415"><ele>371.4</ele><time>2026-03-22T15:48:37.769Z</time></trkpt><trkpt lat="43.4715689" lon="11.7280652"><ele>375.59999999999997</ele><time>2026-03-22T15:48:38.768Z</time></trkpt><trkpt lat="43.4716323" lon="11.7281892"><ele>379.79999999999995</ele><time>2026-03-22T15:48:39.769Z</time></trkpt><trkpt lat="43.4716943" lon="11.7283126"><ele>384.0</ele><time>2026-03-22T15:48:40.768Z</time></trkpt><trkpt lat="43.4717582" lon="11.7284438"><ele>384.0</ele><time>2026-03-22T15:48:41.769Z</time></trkpt><trkpt lat="43.471822" lon="11.7285572"><ele>384.0</ele><time>2026-03-22T15:48:42.769Z</time></trkpt><trkpt lat="43.4718731" lon="11.7286601"><ele>384.0</ele><time>2026-03-22T15:48:43.769Z</time></trkpt><trkpt lat="43.4719164" lon="11.7287783"><ele>384.0</ele><time>2026-03-22T15:48:44.769Z</time></trkpt><trkpt lat="43.4719493" lon="11.7289081"><ele>384.0</ele><time>2026-03-22T15:48:45.768Z</time></trkpt><trkpt lat="43.4719623" lon="11.7290447"><ele>383.6</ele><time>2026-03-22T15:48:46.769Z</time></trkpt><trkpt lat="43.4719641" lon="11.7291844"><ele>383.2</ele><time>2026-03-22T15:48:47.769Z</time></trkpt><trkpt lat="43.4719485" lon="11.7293254"><ele>382.8</ele><time>2026-03-22T15:48:48.769Z</time></trkpt><trkpt lat="43.4719166" lon="11.7294636"><ele>382.40000000000003</ele><time>2026-03-22T15:48:49.769Z</time></trkpt><trkpt lat="43.4718724" lon="11.7295872"><ele>382.0</ele><time>2026-03-22T15:48:50.768Z</time></trkpt><trkpt lat="43.4718187" lon="11.72968"><ele>382.0</ele><time>2026-03-22T15:48:51.768Z</time></trkpt><trkpt lat="43.4717413" lon="11.7297576"><ele>382.0</ele><time>2026-03-22T15:48:52.769Z</time></trkpt><trkpt lat="43.4716589" lon="11.7298241"><ele>382.0</ele><time>2026-03-22T15:48:53.769Z</time></trkpt><trkpt lat="43.4715632" lon="11.7298759"><ele>382.0</ele><time>2026-03-22T15:48:54.769Z</time></trkpt><trkpt lat="43.4714633" lon="11.7299001"><ele>382.0</ele><time>2026-03-22T15:48:55.769Z</time></trkpt><trkpt lat="43.4713548" lon="11.7299052"><ele>384.20000000000005</ele><time>2026-03-22T15:48:56.769Z</time></trkpt><trkpt lat="43.471242" lon="11.7298892"><ele>386.4</ele><time>2026-03-22T15:48:57.768Z</time></trkpt><trkpt lat="43.4711338" lon="11.7298676"><ele>388.6</ele><time>2026-03-22T15:48:58.768Z</time></trkpt><trkpt lat="43.4710352" lon="11.729846"><ele>390.79999999999995</ele><time>2026-03-22T15:48:59.768Z</time></trkpt><trkpt lat="43.4709337" lon="11.7298266"><ele>393.0</ele><time>2026-03-22T15:49:00.769Z</time></trkpt><trkpt lat="43.4708338" lon="11.7298036"><ele>393.0</ele><time>2026-03-22T15:49:01.768Z</time></trkpt><trkpt lat="43.4707303" lon="11.7297719"><ele>393.0</ele><time>2026-03-22T15:49:02.769Z</time></trkpt><trkpt lat="43.4706252" lon="11.7297435"><ele>393.0</ele><time>2026-03-22T15:49:03.768Z</time></trkpt><trkpt lat="43.4705171" lon="11.729728"><ele>393.0</ele><time>2026-03-22T15:49:04.768Z</time></trkpt><trkpt lat="43.4704092" lon="11.729716"><ele>393.0</ele><time>2026-03-22T15:49:05.768Z</time></trkpt><trkpt lat="43.4703061" lon="11.729716"><ele>395.2</ele><time>2026-03-22T15:49:06.768Z</time></trkpt><trkpt lat="43.4702012" lon="11.7297333"><ele>397.4</ele><time>2026-03-22T15:49:07.769Z</time></trkpt><trkpt lat="43.4700917" lon="11.7297744"><ele>399.59999999999997</ele><time>2026-03-22T15:49:08.768Z</time></trkpt><trkpt lat="43.4699826" lon="11.7298017"><ele>401.79999999999995</ele><time>2026-03-22T15:49:09.768Z</time></trkpt><trkpt lat="43.4698732" lon="11.72983"><ele>404.0</ele><time>2026-03-22T15:49:10.768Z</time></trkpt><trkpt lat="43.4697648" lon="11.7298543"><ele>404.0</ele><time>2026-03-22T15:49:11.769Z</time></trkpt><trkpt lat="43.4696602" lon="11.7298737"><ele>404.0</ele><time>2026-03-22T15:49:12.769Z</time></trkpt><trkpt lat="43.4695568" lon="11.7298747"><ele>404.0</ele><time>2026-03-22T15:49:13.769Z</time></trkpt><trkpt lat="43.4694521" lon="11.7298517"><ele>404.0</ele><time>2026-03-22T15:49:14.768Z</time></trkpt><trkpt lat="43.4693488" lon="11.7298166"><ele>404.0</ele><time>2026-03-22T15:49:15.767Z</time></trkpt><trkpt lat="43.469246" lon="11.7297797"><ele>406.2</ele><time>2026-03-22T15:49:16.769Z</time></trkpt><trkpt lat="43.4691453" lon="11.7297475"><ele>408.4</ele><time>2026-03-22T15:49:17.769Z</time></trkpt><trkpt lat="43.4690434" lon="11.7297161"><ele>410.6</ele><time>2026-03-22T15:49:18.769Z</time></trkpt><trkpt lat="43.4689404" lon="11.7296889"><ele>412.8</ele><time>2026-03-22T15:49:19.769Z</time></trkpt><trkpt lat="43.4688419" lon="11.7296735"><ele>415.0</ele><time>2026-03-22T15:49:20.768Z</time></trkpt><trkpt lat="43.4687423" lon="11.7296724"><ele>416.8</ele><time>2026-03-22T15:49:21.769Z</time></trkpt><trkpt lat="43.4686393" lon="11.7296654"><ele>418.6</ele><time>2026-03-22T15:49:22.769Z</time></trkpt><trkpt lat="43.4685319" lon="11.7296512"><ele>420.4</ele><time>2026-03-22T15:49:23.768Z</time></trkpt><trkpt lat="43.4684236" lon="11.7296302"><ele>422.2</ele><time>2026-03-22T15:49:24.768Z</time></trkpt><trkpt lat="43.4683198" lon="11.729612"><ele>424.0</ele><time>2026-03-22T15:49:25.769Z</time></trkpt><trkpt lat="43.468226" lon="11.7296147"><ele>424.0</ele><time>2026-03-22T15:49:26.768Z</time></trkpt><trkpt lat="43.4681319" lon="11.7296432"><ele>424.0</ele><time>2026-03-22T15:49:27.769Z</time></trkpt><trkpt lat="43.46803" lon="11.7296879"><ele>424.0</ele><time>2026-03-22T15:49:28.768Z</time></trkpt><trkpt lat="43.4679353" lon="11.7297274"><ele>424.0</ele><time>2026-03-22T15:49:29.767Z</time></trkpt><trkpt lat="43.4678496" lon="11.7297353"><ele>424.0</ele><time>2026-03-22T15:49:30.768Z</time></trkpt><trkpt lat="43.4677648" lon="11.7296945"><ele>423.79999999999995</ele><time>2026-03-22T15:49:31.768Z</time></trkpt><trkpt lat="43.4676813" lon="11.7296215"><ele>423.59999999999997</ele><time>2026-03-22T15:49:32.768Z</time></trkpt><trkpt lat="43.4676072" lon="11.7295375"><ele>423.4</ele><time>2026-03-22T15:49:33.768Z</time></trkpt><trkpt lat="43.467528" lon="11.7294612"><ele>423.2</ele><time>2026-03-22T15:49:34.769Z</time></trkpt><trkpt lat="43.4674337" lon="11.7294198"><ele>423.0</ele><time>2026-03-22T15:49:35.768Z</time></trkpt><trkpt lat="43.4673351" lon="11.7294182"><ele>423.0</ele><time>2026-03-22T15:49:36.769Z</time></trkpt><trkpt lat="43.4672215" lon="11.729425"><ele>423.0</ele><time>2026-03-22T15:49:37.769Z</time></trkpt><trkpt lat="43.4670938" lon="11.7294165"><ele>423.0</ele><time>2026-03-22T15:49:38.768Z</time></trkpt><trkpt lat="43.4669671" lon="11.7294056"><ele>423.0</ele><time>2026-03-22T15:49:39.769Z</time></trkpt><trkpt lat="43.466835" lon="11.7293962"><ele>424.0</ele><time>2026-03-22T15:49:40.768Z</time></trkpt><trkpt lat="43.4666997" lon="11.7293855"><ele>425.0</ele><time>2026-03-22T15:49:41.768Z</time></trkpt><trkpt lat="43.4665682" lon="11.7293756"><ele>426.0</ele><time>2026-03-22T15:49:42.768Z</time></trkpt><trkpt lat="43.4664366" lon="11.729367"><ele>427.0</ele><time>2026-03-22T15:49:43.769Z</time></trkpt><trkpt lat="43.4663064" lon="11.7293571"><ele>425.75</ele><time>2026-03-22T15:49:44.768Z</time></trkpt><trkpt lat="43.4661769" lon="11.7293501"><ele>424.5</ele><time>2026-03-22T15:49:45.769Z</time></trkpt><trkpt lat="43.4660419" lon="11.7293442"><ele>423.25</ele><time>2026-03-22T15:49:46.769Z</time></trkpt><trkpt lat="43.4659007" lon="11.7293381"><ele>422.0</ele><time>2026-03-22T15:49:47.769Z</time></trkpt><trkpt lat="43.4657592" lon="11.7293305"><ele>422.0</ele><time>2026-03-22T15:49:48.768Z</time></trkpt><trkpt lat="43.4656245" lon="11.7293225"><ele>422.0</ele><time>2026-03-22T15:49:49.769Z</time></trkpt><trkpt lat="43.465492" lon="11.7293137"><ele>422.0</ele><time>2026-03-22T15:49:50.769Z</time></trkpt><trkpt lat="43.4653591" lon="11.7293032"><ele>422.0</ele><time>2026-03-22T15:49:51.769Z</time></trkpt><trkpt lat="43.4652312" lon="11.7292925"><ele>422.5</ele><time>2026-03-22T15:49:52.768Z</time></trkpt><trkpt lat="43.4651033" lon="11.7292817"><ele>423.0</ele><time>2026-03-22T15:49:53.769Z</time></trkpt><trkpt lat="43.4649737" lon="11.7292722"><ele>423.5</ele><time>2026-03-22T15:49:54.769Z</time></trkpt><trkpt lat="43.4648458" lon="11.7292651"><ele>424.0</ele><time>2026-03-22T15:49:55.769Z</time></trkpt><trkpt lat="43.4647164" lon="11.7292598"><ele>425.5</ele><time>2026-03-22T15:49:56.768Z</time></trkpt><trkpt lat="43.4645882" lon="11.729251"><ele>427.0</ele><time>2026-03-22T15:49:57.769Z</time></trkpt><trkpt lat="43.4644584" lon="11.7292414"><ele>428.5</ele><time>2026-03-22T15:49:58.769Z</time></trkpt><trkpt lat="43.4643269" lon="11.7292324"><ele>430.0</ele><time>2026-03-22T15:49:59.768Z</time></trkpt><trkpt lat="43.4641942" lon="11.7292257"><ele>430.0</ele><time>2026-03-22T15:50:00.769Z</time></trkpt><trkpt lat="43.4640608" lon="11.7292187"><ele>430.0</ele><time>2026-03-22T15:50:01.769Z</time></trkpt><trkpt lat="43.4639264" lon="11.7292133"><ele>430.0</ele><time>2026-03-22T15:50:02.768Z</time></trkpt><trkpt lat="43.4637939" lon="11.7292115"><ele>430.0</ele><time>2026-03-22T15:50:03.768Z</time></trkpt><trkpt lat="43.4636552" lon="11.729207"><ele>431.75</ele><time>2026-03-22T15:50:04.768Z</time></trkpt><trkpt lat="43.4635249" lon="11.7292025"><ele>433.5</ele><time>2026-03-22T15:50:05.769Z</time></trkpt><trkpt lat="43.4634044" lon="11.7291981"><ele>435.25</ele><time>2026-03-22T15:50:06.768Z</time></trkpt><trkpt lat="43.4632703" lon="11.7291861"><ele>437.0</ele><time>2026-03-22T15:50:07.769Z</time></trkpt><trkpt lat="43.4631448" lon="11.7291726"><ele>437.0</ele><time>2026-03-22T15:50:08.768Z</time></trkpt><trkpt lat="43.4630245" lon="11.7291608"><ele>437.0</ele><time>2026-03-22T15:50:09.769Z</time></trkpt><trkpt lat="43.4628907" lon="11.7291427"><ele>437.0</ele><time>2026-03-22T15:50:10.768Z</time></trkpt><trkpt lat="43.4627457" lon="11.7291184"><ele>437.0</ele><time>2026-03-22T15:50:11.768Z</time></trkpt><trkpt lat="43.4626029" lon="11.7290929"><ele>439.0</ele><time>2026-03-22T15:50:12.769Z</time></trkpt><trkpt lat="43.4624666" lon="11.7290666"><ele>441.0</ele><time>2026-03-22T15:50:13.768Z</time></trkpt><trkpt lat="43.4623261" lon="11.729039"><ele>443.0</ele><time>2026-03-22T15:50:14.768Z</time></trkpt><trkpt lat="43.4621852" lon="11.7290111"><ele>445.0</ele><time>2026-03-22T15:50:15.769Z</time></trkpt><trkpt lat="43.462051" lon="11.7289829"><ele>446.25</ele><time>2026-03-22T15:50:16.769Z</time></trkpt><trkpt lat="43.4619271" lon="11.7289628"><ele>447.5</ele><time>2026-03-22T15:50:17.769Z</time></trkpt><trkpt lat="43.4617848" lon="11.728955"><ele>448.75</ele><time>2026-03-22T15:50:18.768Z</time></trkpt><trkpt lat="43.461646" lon="11.7289456"><ele>450.0</ele><time>2026-03-22T15:50:19.769Z</time></trkpt><trkpt lat="43.4615223" lon="11.7289377"><ele>450.0</ele><time>2026-03-22T15:50:20.768Z</time></trkpt><trkpt lat="43.4614049" lon="11.7289282"><ele>450.0</ele><time>2026-03-22T15:50:21.767Z</time></trkpt><trkpt lat="43.4612987" lon="11.7289181"><ele>450.0</ele><time>2026-03-22T15:50:22.767Z</time></trkpt><trkpt lat="43.4611882" lon="11.7289146"><ele>450.0</ele><time>2026-03-22T15:50:23.769Z</time></trkpt><trkpt lat="43.4610817" lon="11.7289161"><ele>450.0</ele><time>2026-03-22T15:50:24.769Z</time></trkpt><trkpt lat="43.4609931" lon="11.7289288"><ele>450.4</ele><time>2026-03-22T15:50:25.769Z</time></trkpt><trkpt lat="43.460899" lon="11.7289599"><ele>450.8</ele><time>2026-03-22T15:50:26.769Z</time></trkpt><trkpt lat="43.4608043" lon="11.7290055"><ele>451.20000000000005</ele><time>2026-03-22T15:50:27.769Z</time></trkpt><trkpt lat="43.4607042" lon="11.7290584"><ele>451.6</ele><time>2026-03-22T15:50:28.768Z</time></trkpt><trkpt lat="43.4605964" lon="11.7291018"><ele>452.0</ele><time>2026-03-22T15:50:29.769Z</time></trkpt><trkpt lat="43.4605035" lon="11.7291812"><ele>451.25</ele><time>2026-03-22T15:50:30.769Z</time></trkpt><trkpt lat="43.4604025" lon="11.7292567"><ele>450.5</ele><time>2026-03-22T15:50:31.768Z</time></trkpt><trkpt lat="43.4602967" lon="11.7293354"><ele>449.75</ele><time>2026-03-22T15:50:32.768Z</time></trkpt><trkpt lat="43.4601892" lon="11.729414"><ele>449.0</ele><time>2026-03-22T15:50:33.769Z</time></trkpt><trkpt lat="43.4600814" lon="11.7294814"><ele>453.0</ele><time>2026-03-22T15:50:34.769Z</time></trkpt><trkpt lat="43.4599676" lon="11.7295382"><ele>457.0</ele><time>2026-03-22T15:50:35.769Z</time></trkpt><trkpt lat="43.4598489" lon="11.7295772"><ele>461.0</ele><time>2026-03-22T15:50:36.768Z</time></trkpt><trkpt lat="43.4597269" lon="11.7295985"><ele>465.0</ele><time>2026-03-22T15:50:37.769Z</time></trkpt><trkpt lat="43.4596081" lon="11.7296172"><ele>465.3333333333333</ele><time>2026-03-22T15:50:38.768Z</time></trkpt><trkpt lat="43.4594995" lon="11.7296403"><ele>465.66666666666663</ele><time>2026-03-22T15:50:39.767Z</time></trkpt><trkpt lat="43.4594071" lon="11.7296604"><ele>466.0</ele><time>2026-03-22T15:50:40.769Z</time></trkpt><trkpt lat="43.4593264" lon="11.7296694"><ele>466.3333333333333</ele><time>2026-03-22T15:50:41.768Z</time></trkpt><trkpt lat="43.4592517" lon="11.729667"><ele>466.66666666666663</ele><time>2026-03-22T15:50:42.768Z</time></trkpt><trkpt lat="43.4591729" lon="11.7296561"><ele>467.0</ele><time>2026-03-22T15:50:43.768Z</time></trkpt><trkpt lat="43.4590832" lon="11.7296272"><ele>467.0</ele><time>2026-03-22T15:50:44.769Z</time></trkpt><trkpt lat="43.4589824" lon="11.7295812"><ele>467.00000000000006</ele><time>2026-03-22T15:50:45.769Z</time></trkpt><trkpt lat="43.4588775" lon="11.7295282"><ele>467.00000000000006</ele><time>2026-03-22T15:50:46.769Z</time></trkpt><trkpt lat="43.4587743" lon="11.7294775"><ele>467.0</ele><time>2026-03-22T15:50:47.768Z</time></trkpt><trkpt lat="43.4586744" lon="11.729432"><ele>467.0</ele><time>2026-03-22T15:50:48.768Z</time></trkpt><trkpt lat="43.4585765" lon="11.7293931"><ele>467.20000000000005</ele><time>2026-03-22T15:50:49.768Z</time></trkpt><trkpt lat="43.458479" lon="11.7293662"><ele>467.40000000000003</ele><time>2026-03-22T15:50:50.769Z</time></trkpt><trkpt lat="43.4583815" lon="11.7293476"><ele>467.59999999999997</ele><time>2026-03-22T15:50:51.769Z</time></trkpt><trkpt lat="43.4582838" lon="11.7293273"><ele>467.79999999999995</ele><time>2026-03-22T15:50:52.769Z</time></trkpt><trkpt lat="43.4581842" lon="11.7292964"><ele>468.0</ele><time>2026-03-22T15:50:53.768Z</time></trkpt><trkpt lat="43.4580865" lon="11.7292517"><ele>468.0</ele><time>2026-03-22T15:50:54.769Z</time></trkpt><trkpt lat="43.4579921" lon="11.7291937"><ele>467.99999999999994</ele><time>2026-03-22T15:50:55.768Z</time></trkpt><trkpt lat="43.4578986" lon="11.729116"><ele>467.99999999999994</ele><time>2026-03-22T15:50:56.769Z</time></trkpt><trkpt lat="43.4578155" lon="11.7290174"><ele>468.0</ele><time>2026-03-22T15:50:57.768Z</time></trkpt><trkpt lat="43.4577445" lon="11.7288998"><ele>468.0</ele><time>2026-03-22T15:50:58.768Z</time></trkpt><trkpt lat="43.4576651" lon="11.7287956"><ele>469.0</ele><time>2026-03-22T15:50:59.768Z</time></trkpt><trkpt lat="43.4575705" lon="11.7287151"><ele>470.0</ele><time>2026-03-22T15:51:00.769Z</time></trkpt><trkpt lat="43.4574662" lon="11.7286498"><ele>471.0</ele><time>2026-03-22T15:51:01.769Z</time></trkpt><trkpt lat="43.457358" lon="11.7285875"><ele>472.0</ele><time>2026-03-22T15:51:02.768Z</time></trkpt><trkpt lat="43.457248" lon="11.7285284"><ele>472.75</ele><time>2026-03-22T15:51:03.768Z</time></trkpt><trkpt lat="43.4571361" lon="11.7284837"><ele>473.5</ele><time>2026-03-22T15:51:04.769Z</time></trkpt><trkpt lat="43.4570185" lon="11.728457"><ele>474.25</ele><time>2026-03-22T15:51:05.769Z</time></trkpt><trkpt lat="43.4568999" lon="11.7284446"><ele>475.0</ele><time>2026-03-22T15:51:06.768Z</time></trkpt><trkpt lat="43.456782" lon="11.7284423"><ele>477.25</ele><time>2026-03-22T15:51:07.768Z</time></trkpt><trkpt lat="43.4566639" lon="11.7284351"><ele>479.5</ele><time>2026-03-22T15:51:08.769Z</time></trkpt><trkpt lat="43.4565469" lon="11.7284213"><ele>481.75</ele><time>2026-03-22T15:51:09.768Z</time></trkpt><trkpt lat="43.4564325" lon="11.7284039"><ele>484.0</ele><time>2026-03-22T15:51:10.769Z</time></trkpt><trkpt lat="43.4563201" lon="11.7283837"><ele>485.4</ele><time>2026-03-22T15:51:11.769Z</time></trkpt><trkpt lat="43.4562044" lon="11.7283677"><ele>486.79999999999995</ele><time>2026-03-22T15:51:12.768Z</time></trkpt><trkpt lat="43.4560906" lon="11.7283562"><ele>488.20000000000005</ele><time>2026-03-22T15:51:13.769Z</time></trkpt><trkpt lat="43.455991" lon="11.7283589"><ele>489.6</ele><time>2026-03-22T15:51:14.769Z</time></trkpt><trkpt lat="43.455911" lon="11.728385"><ele>491.0</ele><time>2026-03-22T15:51:15.769Z</time></trkpt><trkpt lat="43.4558448" lon="11.7284315"><ele>491.0</ele><time>2026-03-22T15:51:16.769Z</time></trkpt><trkpt lat="43.4557728" lon="11.7284985"><ele>491.0</ele><time>2026-03-22T15:51:17.768Z</time></trkpt><trkpt lat="43.4556896" lon="11.7285861"><ele>491.0</ele><time>2026-03-22T15:51:18.769Z</time></trkpt><trkpt lat="43.4555979" lon="11.7286767"><ele>491.0</ele><time>2026-03-22T15:51:19.769Z</time></trkpt><trkpt lat="43.4554982" lon="11.7287658"><ele>491.0</ele><time>2026-03-22T15:51:20.768Z</time></trkpt><trkpt lat="43.4553918" lon="11.7288532"><ele>494.0</ele><time>2026-03-22T15:51:21.768Z</time></trkpt><trkpt lat="43.4552822" lon="11.7289352"><ele>497.0</ele><time>2026-03-22T15:51:22.769Z</time></trkpt><trkpt lat="43.4551775" lon="11.7290008"><ele>500.0</ele><time>2026-03-22T15:51:23.768Z</time></trkpt><trkpt lat="43.4550746" lon="11.7290533"><ele>503.0</ele><time>2026-03-22T15:51:24.768Z</time></trkpt><trkpt lat="43.4549624" lon="11.7291077"><ele>503.0</ele><time>2026-03-22T15:51:25.768Z</time></trkpt><trkpt lat="43.4548353" lon="11.7291542"><ele>503.0</ele><time>2026-03-22T15:51:26.768Z</time></trkpt><trkpt lat="43.4547178" lon="11.729174"><ele>503.0</ele><time>2026-03-22T15:51:27.769Z</time></trkpt><trkpt lat="43.4546054" lon="11.7291836"><ele>503.0</ele><time>2026-03-22T15:51:28.768Z</time></trkpt><trkpt lat="43.4544957" lon="11.7292062"><ele>503.4</ele><time>2026-03-22T15:51:29.768Z</time></trkpt><trkpt lat="43.454394" lon="11.7292372"><ele>503.79999999999995</ele><time>2026-03-22T15:51:30.768Z</time></trkpt><trkpt lat="43.4542937" lon="11.7292775"><ele>504.2</ele><time>2026-03-22T15:51:31.769Z</time></trkpt><trkpt lat="43.4541844" lon="11.7293249"><ele>504.6</ele><time>2026-03-22T15:51:32.768Z</time></trkpt><trkpt lat="43.4540698" lon="11.7293767"><ele>505.0</ele><time>2026-03-22T15:51:33.769Z</time></trkpt><trkpt lat="43.4539507" lon="11.7294364"><ele>505.25</ele><time>2026-03-22T15:51:34.769Z</time></trkpt><trkpt lat="43.4538416" lon="11.7294931"><ele>505.5</ele><time>2026-03-22T15:51:35.768Z</time></trkpt><trkpt lat="43.453738" lon="11.7295477"><ele>505.75</ele><time>2026-03-22T15:51:36.769Z</time></trkpt><trkpt lat="43.4536286" lon="11.7295975"><ele>506.0</ele><time>2026-03-22T15:51:37.768Z</time></trkpt><trkpt lat="43.4535179" lon="11.7296455"><ele>508.0</ele><time>2026-03-22T15:51:38.768Z</time></trkpt><trkpt lat="43.4534017" lon="11.7296889"><ele>510.0</ele><time>2026-03-22T15:51:39.769Z</time></trkpt><trkpt lat="43.4532855" lon="11.7297265"><ele>512.0</ele><time>2026-03-22T15:51:40.769Z</time></trkpt><trkpt lat="43.4531767" lon="11.7297599"><ele>514.0</ele><time>2026-03-22T15:51:41.769Z</time></trkpt><trkpt lat="43.4530634" lon="11.7297889"><ele>515.0</ele><time>2026-03-22T15:51:42.769Z</time></trkpt><trkpt lat="43.4529423" lon="11.7298209"><ele>516.0</ele><time>2026-03-22T15:51:43.768Z</time></trkpt><trkpt lat="43.4528286" lon="11.7298562"><ele>517.0</ele><time>2026-03-22T15:51:44.768Z</time></trkpt><trkpt lat="43.4527168" lon="11.7298966"><ele>518.0</ele><time>2026-03-22T15:51:45.768Z</time></trkpt><trkpt lat="43.4525963" lon="11.729941"><ele>518.0</ele><time>2026-03-22T15:51:46.769Z</time></trkpt><trkpt lat="43.4524712" lon="11.7299887"><ele>518.0</ele><time>2026-03-22T15:51:47.768Z</time></trkpt><trkpt lat="43.4523455" lon="11.7300406"><ele>518.0</ele><time>2026-03-22T15:51:48.769Z</time></trkpt><trkpt lat="43.452221" lon="11.7300986"><ele>518.0</ele><time>2026-03-22T15:51:49.768Z</time></trkpt><trkpt lat="43.4521022" lon="11.7301555"><ele>518.75</ele><time>2026-03-22T15:51:50.768Z</time></trkpt><trkpt lat="43.4519903" lon="11.7302065"><ele>519.5</ele><time>2026-03-22T15:51:51.769Z</time></trkpt><trkpt lat="43.451874" lon="11.7302578"><ele>520.25</ele><time>2026-03-22T15:51:52.769Z</time></trkpt><trkpt lat="43.4517508" lon="11.7303116"><ele>521.0</ele><time>2026-03-22T15:51:53.769Z</time></trkpt><trkpt lat="43.45163" lon="11.7303604"><ele>521.0</ele><time>2026-03-22T15:51:54.769Z</time></trkpt><trkpt lat="43.4515189" lon="11.7303892"><ele>521.0</ele><time>2026-03-22T15:51:55.768Z</time></trkpt><trkpt lat="43.4514086" lon="11.7304174"><ele>521.0</ele><time>2026-03-22T15:51:56.768Z</time></trkpt><trkpt lat="43.4512966" lon="11.7304451"><ele>521.0</ele><time>2026-03-22T15:51:57.768Z</time></trkpt><trkpt lat="43.4511862" lon="11.7304794"><ele>523.75</ele><time>2026-03-22T15:51:58.769Z</time></trkpt><trkpt lat="43.451075" lon="11.73052"><ele>526.5</ele><time>2026-03-22T15:51:59.768Z</time></trkpt><trkpt lat="43.4509617" lon="11.7305584"><ele>529.25</ele><time>2026-03-22T15:52:00.768Z</time></trkpt><trkpt lat="43.4508478" lon="11.7305811"><ele>532.0</ele><time>2026-03-22T15:52:01.769Z</time></trkpt><trkpt lat="43.4507243" lon="11.7305768"><ele>532.0</ele><time>2026-03-22T15:52:02.769Z</time></trkpt><trkpt lat="43.450608" lon="11.7305764"><ele>532.0</ele><time>2026-03-22T15:52:03.769Z</time></trkpt><trkpt lat="43.4505035" lon="11.7305828"><ele>532.0</ele><time>2026-03-22T15:52:04.768Z</time></trkpt><trkpt lat="43.4504127" lon="11.7305841"><ele>532.0</ele><time>2026-03-22T15:52:05.769Z</time></trkpt><trkpt lat="43.4503307" lon="11.7305916"><ele>532.0</ele><time>2026-03-22T15:52:06.768Z</time></trkpt><trkpt lat="43.4502448" lon="11.7305718"><ele>532.6666666666667</ele><time>2026-03-22T15:52:07.769Z</time></trkpt><trkpt lat="43.4501754" lon="11.7305038"><ele>533.3333333333334</ele><time>2026-03-22T15:52:08.768Z</time></trkpt><trkpt lat="43.4501152" lon="11.7304695"><ele>534.0</ele><time>2026-03-22T15:52:09.768Z</time></trkpt><trkpt lat="43.4500479" lon="11.7304451"><ele>534.6666666666666</ele><time>2026-03-22T15:52:10.769Z</time></trkpt><trkpt lat="43.449968" lon="11.7304674"><ele>535.3333333333333</ele><time>2026-03-22T15:52:11.768Z</time></trkpt><trkpt lat="43.4498911" lon="11.7304663"><ele>536.0</ele><time>2026-03-22T15:52:12.769Z</time></trkpt><trkpt lat="43.4498183" lon="11.7304473"><ele>536.0</ele><time>2026-03-22T15:52:13.768Z</time></trkpt><trkpt lat="43.4497542" lon="11.7304061"><ele>536.0</ele><time>2026-03-22T15:52:14.768Z</time></trkpt><trkpt lat="43.4496962" lon="11.7303469"><ele>536.0</ele><time>2026-03-22T15:52:15.769Z</time></trkpt><trkpt lat="43.4496381" lon="11.7302775"><ele>536.0</ele><time>2026-03-22T15:52:16.768Z</time></trkpt><trkpt lat="43.4495762" lon="11.7301956"><ele>536.0</ele><time>2026-03-22T15:52:17.768Z</time></trkpt><trkpt lat="43.449513" lon="11.730109"><ele>536.0</ele><time>2026-03-22T15:52:18.768Z</time></trkpt><trkpt lat="43.4494444" lon="11.7300169"><ele>534.0</ele><time>2026-03-22T15:52:19.768Z</time></trkpt><trkpt lat="43.4493781" lon="11.7299138"><ele>532.0</ele><time>2026-03-22T15:52:20.769Z</time></trkpt><trkpt lat="43.4493156" lon="11.729826"><ele>530.0</ele><time>2026-03-22T15:52:21.768Z</time></trkpt><trkpt lat="43.4492545" lon="11.7297474"><ele>528.0</ele><time>2026-03-22T15:52:22.769Z</time></trkpt><trkpt lat="43.4491968" lon="11.7296595"><ele>526.0</ele><time>2026-03-22T15:52:23.768Z</time></trkpt><trkpt lat="43.4491338" lon="11.729572"><ele>524.0</ele><time>2026-03-22T15:52:24.768Z</time></trkpt><trkpt lat="43.4490671" lon="11.7294886"><ele>524.0</ele><time>2026-03-22T15:52:25.769Z</time></trkpt><trkpt lat="43.448995" lon="11.7293998"><ele>524.0</ele><time>2026-03-22T15:52:26.768Z</time></trkpt><trkpt lat="43.44892" lon="11.7293107"><ele>524.0</ele><time>2026-03-22T15:52:27.768Z</time></trkpt><trkpt lat="43.4488443" lon="11.7292156"><ele>524.0</ele><time>2026-03-22T15:52:28.769Z</time></trkpt><trkpt lat="43.448768" lon="11.729119"><ele>524.0</ele><time>2026-03-22T15:52:29.769Z</time></trkpt><trkpt lat="43.448687" lon="11.7290149"><ele>522.2</ele><time>2026-03-22T15:52:30.768Z</time></trkpt><trkpt lat="43.4486056" lon="11.7289036"><ele>520.4</ele><time>2026-03-22T15:52:31.768Z</time></trkpt><trkpt lat="43.4485304" lon="11.7288024"><ele>518.6</ele><time>2026-03-22T15:52:32.769Z</time></trkpt><trkpt lat="43.4484596" lon="11.728708"><ele>516.8</ele><time>2026-03-22T15:52:33.769Z</time></trkpt><trkpt lat="43.4483849" lon="11.7286102"><ele>515.0</ele><time>2026-03-22T15:52:34.768Z</time></trkpt><trkpt lat="43.4483102" lon="11.7285064"><ele>515.0</ele><time>2026-03-22T15:52:35.768Z</time></trkpt><trkpt lat="43.4482423" lon="11.7284093"><ele>515.0</ele><time>2026-03-22T15:52:36.769Z</time></trkpt><trkpt lat="43.4481742" lon="11.7283179"><ele>515.0</ele><time>2026-03-22T15:52:37.769Z</time></trkpt><trkpt lat="43.4481054" lon="11.7282351"><ele>515.0</ele><time>2026-03-22T15:52:38.768Z</time></trkpt><trkpt lat="43.4480503" lon="11.7281721"><ele>515.0</ele><time>2026-03-22T15:52:39.769Z</time></trkpt><trkpt lat="43.4479651" lon="11.7280704"><ele>514.8333333333333</ele><time>2026-03-22T15:52:41.769Z</time></trkpt><trkpt lat="43.4479025" lon="11.7280177"><ele>514.6666666666666</ele><time>2026-03-22T15:56:45.769Z</time></trkpt><trkpt lat="43.447859" lon="11.7281169"><ele>514.5</ele><time>2026-03-22T15:56:48.768Z</time></trkpt><trkpt lat="43.4478128" lon="11.7281967"><ele>514.3333333333334</ele><time>2026-03-22T15:56:50.769Z</time></trkpt><trkpt lat="43.4477522" lon="11.7282665"><ele>514.1666666666667</ele><time>2026-03-22T15:56:57.768Z</time></trkpt><trkpt lat="43.4476848" lon="11.7283651"><ele>514.0</ele><time>2026-03-22T15:57:08.768Z</time></trkpt><trkpt lat="43.4476055" lon="11.7284436"><ele>514.0</ele><time>2026-03-22T15:57:10.768Z</time></trkpt><trkpt lat="43.4475137" lon="11.72848"><ele>514.0</ele><time>2026-03-22T15:57:12.769Z</time></trkpt><trkpt lat="43.4474278" lon="11.7285139"><ele>514.0</ele><time>2026-03-22T15:57:14.769Z</time></trkpt><trkpt lat="43.4473372" lon="11.7285424"><ele>514.0</ele><time>2026-03-22T15:57:16.769Z</time></trkpt><trkpt lat="43.4472552" lon="11.7285637"><ele>514.0</ele><time>2026-03-22T15:57:18.769Z</time></trkpt><trkpt lat="43.4471795" lon="11.7286165"><ele>514.0</ele><time>2026-03-22T15:57:20.768Z</time></trkpt><trkpt lat="43.4471052" lon="11.7286632"><ele>511.50000000000006</ele><time>2026-03-22T15:57:22.769Z</time></trkpt><trkpt lat="43.4470364" lon="11.7287217"><ele>509.0</ele><time>2026-03-22T15:57:24.768Z</time></trkpt><trkpt lat="43.4469791" lon="11.7287993"><ele>506.5</ele><time>2026-03-22T15:57:26.769Z</time></trkpt><trkpt lat="43.446942" lon="11.7289031"><ele>504.0</ele><time>2026-03-22T15:57:28.768Z</time></trkpt><trkpt lat="43.4469102" lon="11.7290251"><ele>501.50000000000006</ele><time>2026-03-22T15:57:30.769Z</time></trkpt><trkpt lat="43.4468768" lon="11.7291487"><ele>499.0</ele><time>2026-03-22T15:57:32.768Z</time></trkpt><trkpt lat="43.4467975" lon="11.7292022"><ele>499.0</ele><time>2026-03-22T15:57:34.768Z</time></trkpt><trkpt lat="43.4467045" lon="11.7292517"><ele>499.0</ele><time>2026-03-22T15:57:36.768Z</time></trkpt><trkpt lat="43.4466155" lon="11.7293017"><ele>499.0</ele><time>2026-03-22T15:57:38.769Z</time></trkpt><trkpt lat="43.4465354" lon="11.729372"><ele>499.0</ele><time>2026-03-22T15:57:40.769Z</time></trkpt><trkpt lat="43.4464638" lon="11.7294555"><ele>499.0</ele><time>2026-03-22T15:57:42.769Z</time></trkpt><trkpt lat="43.4463808" lon="11.7295409"><ele>495.79999999999995</ele><time>2026-03-22T15:57:44.769Z</time></trkpt><trkpt lat="43.4462917" lon="11.7295988"><ele>492.59999999999997</ele><time>2026-03-22T15:57:46.768Z</time></trkpt><trkpt lat="43.4462095" lon="11.7296675"><ele>489.4</ele><time>2026-03-22T15:57:48.769Z</time></trkpt><trkpt lat="43.4461353" lon="11.7297489"><ele>486.2</ele><time>2026-03-22T15:57:50.769Z</time></trkpt><trkpt lat="43.446071" lon="11.7298444"><ele>483.0</ele><time>2026-03-22T15:57:52.768Z</time></trkpt><trkpt lat="43.4460249" lon="11.7299469"><ele>483.0</ele><time>2026-03-22T15:57:54.768Z</time></trkpt><trkpt lat="43.4459989" lon="11.7300729"><ele>482.99999999999994</ele><time>2026-03-22T15:57:56.768Z</time></trkpt><trkpt lat="43.4460247" lon="11.7301904"><ele>482.99999999999994</ele><time>2026-03-22T15:57:58.769Z</time></trkpt><trkpt lat="43.4460515" lon="11.7303273"><ele>483.0</ele><time>2026-03-22T15:58:00.769Z</time></trkpt><trkpt lat="43.4460879" lon="11.7304556"><ele>483.0</ele><time>2026-03-22T15:58:02.769Z</time></trkpt><trkpt lat="43.4460998" lon="11.7305762"><ele>481.6666666666667</ele><time>2026-03-22T15:58:04.768Z</time></trkpt><trkpt lat="43.4460621" lon="11.7306705"><ele>480.33333333333337</ele><time>2026-03-22T15:58:06.768Z</time></trkpt><trkpt lat="43.4459841" lon="11.7307289"><ele>479.0</ele><time>2026-03-22T15:58:08.769Z</time></trkpt><trkpt lat="43.4459004" lon="11.730766"><ele>477.6666666666667</ele><time>2026-03-22T15:58:10.768Z</time></trkpt><trkpt lat="43.445806" lon="11.7308129"><ele>476.33333333333337</ele><time>2026-03-22T15:58:12.768Z</time></trkpt><trkpt lat="43.4457156" lon="11.7308087"><ele>475.0</ele><time>2026-03-22T15:58:14.769Z</time></trkpt><trkpt lat="43.4456271" lon="11.7308037"><ele>475.00000000000006</ele><time>2026-03-22T15:58:16.769Z</time></trkpt><trkpt lat="43.4455472" lon="11.7308118"><ele>475.0</ele><time>2026-03-22T15:58:18.768Z</time></trkpt><trkpt lat="43.4454525" lon="11.7308115"><ele>475.0</ele><time>2026-03-22T15:58:20.768Z</time></trkpt><trkpt lat="43.445363" lon="11.7308212"><ele>475.0</ele><time>2026-03-22T15:58:22.769Z</time></trkpt><trkpt lat="43.4452785" lon="11.7308608"><ele>475.00000000000006</ele><time>2026-03-22T15:58:24.769Z</time></trkpt><trkpt lat="43.445191" lon="11.7308928"><ele>475.0</ele><time>2026-03-22T15:58:26.769Z</time></trkpt><trkpt lat="43.4451053" lon="11.7308907"><ele>472.33333333333337</ele><time>2026-03-22T15:58:28.769Z</time></trkpt><trkpt lat="43.4450318" lon="11.7308603"><ele>469.6666666666667</ele><time>2026-03-22T15:58:30.767Z</time></trkpt><trkpt lat="43.4449607" lon="11.7308306"><ele>467.0</ele><time>2026-03-22T15:58:32.768Z</time></trkpt><trkpt lat="43.444861" lon="11.7307911"><ele>464.33333333333337</ele><time>2026-03-22T15:58:34.769Z</time></trkpt><trkpt lat="43.4447822" lon="11.730781"><ele>461.6666666666667</ele><time>2026-03-22T15:58:36.768Z</time></trkpt><trkpt lat="43.444691" lon="11.7307782"><ele>459.0</ele><time>2026-03-22T15:58:38.768Z</time></trkpt><trkpt lat="43.4445941" lon="11.7307785"><ele>456.79999999999995</ele><time>2026-03-22T15:58:40.769Z</time></trkpt><trkpt lat="43.4444977" lon="11.7307961"><ele>454.59999999999997</ele><time>2026-03-22T15:58:42.769Z</time></trkpt><trkpt lat="43.4444031" lon="11.7308228"><ele>452.4</ele><time>2026-03-22T15:58:44.768Z</time></trkpt><trkpt lat="43.4442859" lon="11.7308751"><ele>450.2</ele><time>2026-03-22T15:58:46.769Z</time></trkpt><trkpt lat="43.4442218" lon="11.7308983"><ele>448.0</ele><time>2026-03-22T15:58:47.769Z</time></trkpt><trkpt lat="43.4441131" lon="11.7309257"><ele>448.0</ele><time>2026-03-22T15:58:49.768Z</time></trkpt><trkpt lat="43.4440154" lon="11.7309897"><ele>447.99999999999994</ele><time>2026-03-22T15:58:51.768Z</time></trkpt><trkpt lat="43.44395" lon="11.7310238"><ele>447.99999999999994</ele><time>2026-03-22T15:58:53.768Z</time></trkpt><trkpt lat="43.4438436" lon="11.7310813"><ele>448.0</ele><time>2026-03-22T15:59:15.768Z</time></trkpt><trkpt lat="43.4437667" lon="11.7311247"><ele>448.0</ele><time>2026-03-22T15:59:17.767Z</time></trkpt><trkpt lat="43.4436787" lon="11.7311723"><ele>446.00000000000006</ele><time>2026-03-22T15:59:19.769Z</time></trkpt><trkpt lat="43.4436" lon="11.7312094"><ele>444.0</ele><time>2026-03-22T15:59:21.769Z</time></trkpt><trkpt lat="43.4435277" lon="11.731255"><ele>442.0</ele><time>2026-03-22T15:59:23.768Z</time></trkpt><trkpt lat="43.4434375" lon="11.7313083"><ele>440.0</ele><time>2026-03-22T15:59:25.769Z</time></trkpt><trkpt lat="43.4433552" lon="11.7313604"><ele>438.00000000000006</ele><time>2026-03-22T15:59:27.768Z</time></trkpt><trkpt lat="43.4432656" lon="11.7314134"><ele>436.0</ele><time>2026-03-22T15:59:29.769Z</time></trkpt><trkpt lat="43.443179" lon="11.7314661"><ele>436.0</ele><time>2026-03-22T15:59:31.769Z</time></trkpt><trkpt lat="43.4431011" lon="11.7315162"><ele>436.0</ele><time>2026-03-22T15:59:33.769Z</time></trkpt><trkpt lat="43.4430081" lon="11.7315628"><ele>436.0</ele><time>2026-03-22T15:59:35.768Z</time></trkpt><trkpt lat="43.4429203" lon="11.7315952"><ele>436.0</ele><time>2026-03-22T15:59:37.768Z</time></trkpt><trkpt lat="43.4428301" lon="11.7316222"><ele>436.0</ele><time>2026-03-22T15:59:39.768Z</time></trkpt><trkpt lat="43.442742" lon="11.7316346"><ele>435.4</ele><time>2026-03-22T15:59:41.769Z</time></trkpt><trkpt lat="43.4426529" lon="11.7316496"><ele>434.8</ele><time>2026-03-22T15:59:43.769Z</time></trkpt><trkpt lat="43.4425635" lon="11.7316841"><ele>434.19999999999993</ele><time>2026-03-22T15:59:45.768Z</time></trkpt><trkpt lat="43.4424814" lon="11.7317515"><ele>433.59999999999997</ele><time>2026-03-22T15:59:47.768Z</time></trkpt><trkpt lat="43.4424154" lon="11.7318499"><ele>433.0</ele><time>2026-03-22T15:59:49.767Z</time></trkpt><trkpt lat="43.4423629" lon="11.7319888"><ele>431.79999999999995</ele><time>2026-03-22T15:59:51.769Z</time></trkpt><trkpt lat="43.4423127" lon="11.7321258"><ele>430.59999999999997</ele><time>2026-03-22T15:59:53.769Z</time></trkpt><trkpt lat="43.4422625" lon="11.7322746"><ele>429.40000000000003</ele><time>2026-03-22T15:59:55.769Z</time></trkpt><trkpt lat="43.442213" lon="11.7324153"><ele>428.20000000000005</ele><time>2026-03-22T15:59:57.768Z</time></trkpt><trkpt lat="43.44217" lon="11.7325335"><ele>427.0</ele><time>2026-03-22T15:59:59.768Z</time></trkpt><trkpt lat="43.4421386" lon="11.7326489"><ele>424.20000000000005</ele><time>2026-03-22T16:00:01.769Z</time></trkpt><trkpt lat="43.4421312" lon="11.7327656"><ele>421.40000000000003</ele><time>2026-03-22T16:00:03.768Z</time></trkpt><trkpt lat="43.4421027" lon="11.7328878"><ele>418.6</ele><time>2026-03-22T16:00:05.769Z</time></trkpt><trkpt lat="43.4420803" lon="11.7330099"><ele>415.79999999999995</ele><time>2026-03-22T16:00:07.768Z</time></trkpt><trkpt lat="43.442083" lon="11.733142"><ele>413.0</ele><time>2026-03-22T16:00:09.769Z</time></trkpt><trkpt lat="43.4420892" lon="11.7332854"><ele>412.99999999999994</ele><time>2026-03-22T16:00:11.769Z</time></trkpt><trkpt lat="43.4420938" lon="11.7334116"><ele>413.0</ele><time>2026-03-22T16:00:13.768Z</time></trkpt><trkpt lat="43.4420934" lon="11.733532"><ele>413.0</ele><time>2026-03-22T16:00:15.768Z</time></trkpt><trkpt lat="43.4420932" lon="11.7336376"><ele>413.0</ele><time>2026-03-22T16:00:17.768Z</time></trkpt><trkpt lat="43.4420854" lon="11.7337588"><ele>412.99999999999994</ele><time>2026-03-22T16:00:20.767Z</time></trkpt><trkpt lat="43.4420728" lon="11.7338608"><ele>413.0</ele><time>2026-03-22T16:00:23.767Z</time></trkpt><trkpt lat="43.4420449" lon="11.733958"><ele>412.16666666666663</ele><time>2026-03-22T16:00:26.767Z</time></trkpt><trkpt lat="43.4419881" lon="11.734064"><ele>411.3333333333333</ele><time>2026-03-22T16:00:29.768Z</time></trkpt><trkpt lat="43.4419318" lon="11.7341495"><ele>410.5</ele><time>2026-03-22T16:00:32.767Z</time></trkpt><trkpt lat="43.4418788" lon="11.7342543"><ele>409.66666666666663</ele><time>2026-03-22T16:00:35.767Z</time></trkpt><trkpt lat="43.4418253" lon="11.7343193"><ele>408.8333333333333</ele><time>2026-03-22T16:00:37.768Z</time></trkpt><trkpt lat="43.4417889" lon="11.7343915"><ele>408.0</ele><time>2026-03-22T16:00:39.768Z</time></trkpt><trkpt lat="43.4417571" lon="11.7344712"><ele>406.8333333333333</ele><time>2026-03-22T16:00:41.768Z</time></trkpt><trkpt lat="43.4417463" lon="11.7345594"><ele>405.66666666666663</ele><time>2026-03-22T16:00:43.768Z</time></trkpt><trkpt lat="43.4417327" lon="11.734669"><ele>404.5</ele><time>2026-03-22T16:00:45.767Z</time></trkpt><trkpt lat="43.4417241" lon="11.7347633"><ele>403.3333333333333</ele><time>2026-03-22T16:00:47.767Z</time></trkpt><trkpt lat="43.441727" lon="11.7348785"><ele>402.16666666666663</ele><time>2026-03-22T16:00:50.768Z</time></trkpt><trkpt lat="43.4417315" lon="11.7349957"><ele>401.0</ele><time>2026-03-22T16:00:53.768Z</time></trkpt><trkpt lat="43.4417082" lon="11.7351026"><ele>400.99999999999994</ele><time>2026-03-22T16:00:56.768Z</time></trkpt><trkpt lat="43.4416377" lon="11.7351371"><ele>401.0</ele><time>2026-03-22T16:01:14.767Z</time></trkpt><trkpt lat="43.441566" lon="11.7351781"><ele>401.0</ele><time>2026-03-22T16:01:16.767Z</time></trkpt><trkpt lat="43.4414995" lon="11.7352856"><ele>401.0</ele><time>2026-03-22T16:01:18.768Z</time></trkpt><trkpt lat="43.4414426" lon="11.7354003"><ele>400.99999999999994</ele><time>2026-03-22T16:01:20.768Z</time></trkpt><trkpt lat="43.4414321" lon="11.7355073"><ele>401.0</ele><time>2026-03-22T16:01:22.767Z</time></trkpt><trkpt lat="43.441416" lon="11.7356208"><ele>399.8333333333333</ele><time>2026-03-22T16:01:24.767Z</time></trkpt><trkpt lat="43.4414018" lon="11.7357368"><ele>398.66666666666663</ele><time>2026-03-22T16:01:26.767Z</time></trkpt><trkpt lat="43.4413729" lon="11.7358223"><ele>397.5</ele><time>2026-03-22T16:01:28.768Z</time></trkpt><trkpt lat="43.4413417" lon="11.7359021"><ele>396.33333333333337</ele><time>2026-03-22T16:01:31.768Z</time></trkpt><trkpt lat="43.4412631" lon="11.7359509"><ele>395.1666666666667</ele><time>2026-03-22T16:01:44.767Z</time></trkpt><trkpt lat="43.4412131" lon="11.7360315"><ele>394.0</ele><time>2026-03-22T16:02:07.768Z</time></trkpt><trkpt lat="43.4411432" lon="11.7361518"><ele>392.79999999999995</ele><time>2026-03-22T16:02:09.768Z</time></trkpt><trkpt lat="43.4410807" lon="11.7362768"><ele>391.59999999999997</ele><time>2026-03-22T16:02:11.767Z</time></trkpt><trkpt lat="43.4410365" lon="11.7364017"><ele>390.4</ele><time>2026-03-22T16:02:13.768Z</time></trkpt><trkpt lat="43.4409969" lon="11.7365243"><ele>389.2</ele><time>2026-03-22T16:02:15.767Z</time></trkpt><trkpt lat="43.4409689" lon="11.7366507"><ele>388.0</ele><time>2026-03-22T16:02:17.768Z</time></trkpt><trkpt lat="43.4409357" lon="11.736792"><ele>388.2</ele><time>2026-03-22T16:02:19.768Z</time></trkpt><trkpt lat="43.4408997" lon="11.7368885"><ele>388.4</ele><time>2026-03-22T16:02:21.767Z</time></trkpt><trkpt lat="43.4408676" lon="11.737002"><ele>388.59999999999997</ele><time>2026-03-22T16:02:23.768Z</time></trkpt><trkpt lat="43.4408278" lon="11.737125"><ele>388.79999999999995</ele><time>2026-03-22T16:02:25.768Z</time></trkpt><trkpt lat="43.4407737" lon="11.7372447"><ele>389.0</ele><time>2026-03-22T16:02:27.768Z</time></trkpt><trkpt lat="43.4407331" lon="11.7373594"><ele>389.0</ele><time>2026-03-22T16:02:29.767Z</time></trkpt><trkpt lat="43.4407117" lon="11.7374939"><ele>389.0</ele><time>2026-03-22T16:02:31.767Z</time></trkpt><trkpt lat="43.4406699" lon="11.7376062"><ele>389.0</ele><time>2026-03-22T16:02:33.767Z</time></trkpt><trkpt lat="43.4406231" lon="11.7377196"><ele>389.0</ele><time>2026-03-22T16:02:35.768Z</time></trkpt><trkpt lat="43.4405982" lon="11.7378425"><ele>389.0</ele><time>2026-03-22T16:02:37.767Z</time></trkpt><trkpt lat="43.4405648" lon="11.7379572"><ele>388.2857142857143</ele><time>2026-03-22T16:02:39.768Z</time></trkpt><trkpt lat="43.4405459" lon="11.738076"><ele>387.57142857142856</ele><time>2026-03-22T16:02:41.767Z</time></trkpt><trkpt lat="43.4405164" lon="11.7381945"><ele>386.85714285714283</ele><time>2026-03-22T16:02:43.767Z</time></trkpt><trkpt lat="43.4404872" lon="11.7382742"><ele>386.1428571428571</ele><time>2026-03-22T16:02:45.767Z</time></trkpt><trkpt lat="43.4404713" lon="11.7383609"><ele>385.42857142857144</ele><time>2026-03-22T16:02:47.767Z</time></trkpt><trkpt lat="43.4404725" lon="11.7384488"><ele>384.71428571428567</ele><time>2026-03-22T16:02:52.768Z</time></trkpt><trkpt lat="43.4404777" lon="11.7385495"><ele>384.0</ele><time>2026-03-22T16:02:57.768Z</time></trkpt><trkpt lat="43.440495" lon="11.7386406"><ele>382.8333333333333</ele><time>2026-03-22T16:02:59.767Z</time></trkpt><trkpt lat="43.4405393" lon="11.7387218"><ele>381.6666666666667</ele><time>2026-03-22T16:03:47.768Z</time></trkpt><trkpt lat="43.4405819" lon="11.7388026"><ele>380.5</ele><time>2026-03-22T16:03:49.767Z</time></trkpt><trkpt lat="43.4405876" lon="11.7388912"><ele>379.33333333333337</ele><time>2026-03-22T16:03:51.768Z</time></trkpt><trkpt lat="43.440594" lon="11.7390221"><ele>378.1666666666667</ele><time>2026-03-22T16:03:53.768Z</time></trkpt><trkpt lat="43.4406111" lon="11.7391646"><ele>377.0</ele><time>2026-03-22T16:03:55.767Z</time></trkpt><trkpt lat="43.44064" lon="11.7393046"><ele>377.0</ele><time>2026-03-22T16:03:57.766Z</time></trkpt><trkpt lat="43.4406944" lon="11.7394142"><ele>377.0</ele><time>2026-03-22T16:03:59.768Z</time></trkpt><trkpt lat="43.440729" lon="11.7395353"><ele>377.0</ele><time>2026-03-22T16:04:01.767Z</time></trkpt><trkpt lat="43.4407539" lon="11.7396891"><ele>377.0</ele><time>2026-03-22T16:04:03.768Z</time></trkpt><trkpt lat="43.4407475" lon="11.7398554"><ele>377.0</ele><time>2026-03-22T16:04:05.768Z</time></trkpt><trkpt lat="43.4407375" lon="11.7399921"><ele>377.0</ele><time>2026-03-22T16:04:07.767Z</time></trkpt><trkpt lat="43.4407107" lon="11.7400984"><ele>377.0</ele><time>2026-03-22T16:04:09.766Z</time></trkpt><trkpt lat="43.4406526" lon="11.7401378"><ele>377.0</ele><time>2026-03-22T16:04:14.768Z</time></trkpt><trkpt lat="43.4405667" lon="11.7401729"><ele>377.0</ele><time>2026-03-22T16:04:17.767Z</time></trkpt><trkpt lat="43.4404923" lon="11.7400997"><ele>377.0</ele><time>2026-03-22T16:04:20.768Z</time></trkpt><trkpt lat="43.4404726" lon="11.7400067"><ele>377.0</ele><time>2026-03-22T16:04:22.768Z</time></trkpt><trkpt lat="43.4403998" lon="11.7399541"><ele>375.5</ele><time>2026-03-22T16:04:25.768Z</time></trkpt><trkpt lat="43.4403381" lon="11.7400294"><ele>374.0</ele><time>2026-03-22T16:04:27.767Z</time></trkpt><trkpt lat="43.4402969" lon="11.7401119"><ele>372.5</ele><time>2026-03-22T16:04:29.768Z</time></trkpt><trkpt lat="43.440237" lon="11.7401582"><ele>371.0</ele><time>2026-03-22T16:04:31.768Z</time></trkpt><trkpt lat="43.4401625" lon="11.7401639"><ele>369.5</ele><time>2026-03-22T16:04:33.768Z</time></trkpt><trkpt lat="43.4400901" lon="11.7401452"><ele>368.0</ele><time>2026-03-22T16:04:35.767Z</time></trkpt><trkpt lat="43.4400001" lon="11.7401078"><ele>368.0</ele><time>2026-03-22T16:04:38.767Z</time></trkpt><trkpt lat="43.4399103" lon="11.7400869"><ele>368.0</ele><time>2026-03-22T16:04:40.767Z</time></trkpt><trkpt lat="43.4398147" lon="11.7400477"><ele>368.0</ele><time>2026-03-22T16:04:42.766Z</time></trkpt><trkpt lat="43.4397116" lon="11.7400057"><ele>368.0</ele><time>2026-03-22T16:04:44.767Z</time></trkpt><trkpt lat="43.4396117" lon="11.7399622"><ele>368.0</ele><time>2026-03-22T16:04:46.768Z</time></trkpt><trkpt lat="43.439518" lon="11.7399307"><ele>364.83333333333337</ele><time>2026-03-22T16:04:48.768Z</time></trkpt><trkpt lat="43.439442" lon="11.7399306"><ele>361.6666666666667</ele><time>2026-03-22T16:04:50.768Z</time></trkpt><trkpt lat="43.4393544" lon="11.7399676"><ele>358.5</ele><time>2026-03-22T16:04:53.768Z</time></trkpt><trkpt lat="43.4392708" lon="11.7399629"><ele>355.3333333333333</ele><time>2026-03-22T16:04:56.767Z</time></trkpt><trkpt lat="43.4392006" lon="11.7399418"><ele>352.16666666666663</ele><time>2026-03-22T16:04:58.768Z</time></trkpt><trkpt lat="43.4391332" lon="11.7399049"><ele>349.0</ele><time>2026-03-22T16:05:00.766Z</time></trkpt><trkpt lat="43.4390792" lon="11.7398477"><ele>349.0</ele><time>2026-03-22T16:05:02.767Z</time></trkpt><trkpt lat="43.439001" lon="11.7398182"><ele>349.0</ele><time>2026-03-22T16:05:05.767Z</time></trkpt><trkpt lat="43.438961" lon="11.7399159"><ele>349.0</ele><time>2026-03-22T16:05:08.767Z</time></trkpt><trkpt lat="43.4389638" lon="11.7400084"><ele>349.0</ele><time>2026-03-22T16:05:10.768Z</time></trkpt><trkpt lat="43.4389546" lon="11.7401392"><ele>349.0</ele><time>2026-03-22T16:05:13.767Z</time></trkpt><trkpt lat="43.4389234" lon="11.7402305"><ele>349.0</ele><time>2026-03-22T16:05:15.767Z</time></trkpt><trkpt lat="43.4388985" lon="11.7403341"><ele>347.79999999999995</ele><time>2026-03-22T16:05:17.767Z</time></trkpt><trkpt lat="43.4388982" lon="11.7404331"><ele>346.59999999999997</ele><time>2026-03-22T16:05:19.768Z</time></trkpt><trkpt lat="43.4389408" lon="11.7405317"><ele>345.4</ele><time>2026-03-22T16:05:21.767Z</time></trkpt><trkpt lat="43.4389869" lon="11.7406488"><ele>344.2</ele><time>2026-03-22T16:05:23.768Z</time></trkpt><trkpt lat="43.4390278" lon="11.7407753"><ele>343.0</ele><time>2026-03-22T16:05:25.768Z</time></trkpt><trkpt lat="43.4390794" lon="11.7409102"><ele>341.79999999999995</ele><time>2026-03-22T16:05:27.768Z</time></trkpt><trkpt lat="43.439114" lon="11.7410543"><ele>340.6</ele><time>2026-03-22T16:05:29.766Z</time></trkpt><trkpt lat="43.4391472" lon="11.7411817"><ele>339.4</ele><time>2026-03-22T16:05:31.767Z</time></trkpt><trkpt lat="43.4391846" lon="11.7412834"><ele>338.20000000000005</ele><time>2026-03-22T16:05:33.767Z</time></trkpt><trkpt lat="43.4392302" lon="11.7413833"><ele>337.0</ele><time>2026-03-22T16:05:35.768Z</time></trkpt><trkpt lat="43.4392835" lon="11.7415111"><ele>337.0</ele><time>2026-03-22T16:05:37.767Z</time></trkpt><trkpt lat="43.4393422" lon="11.7416388"><ele>337.0</ele><time>2026-03-22T16:05:39.766Z</time></trkpt><trkpt lat="43.4393832" lon="11.7417357"><ele>337.0</ele><time>2026-03-22T16:05:41.767Z</time></trkpt><trkpt lat="43.4394248" lon="11.7418156"><ele>337.0</ele><time>2026-03-22T16:05:43.767Z</time></trkpt><trkpt lat="43.4394804" lon="11.7418977"><ele>337.0</ele><time>2026-03-22T16:05:45.768Z</time></trkpt><trkpt lat="43.4395332" lon="11.7420128"><ele>337.0</ele><time>2026-03-22T16:05:47.767Z</time></trkpt><trkpt lat="43.4395578" lon="11.7421026"><ele>337.14285714285717</ele><time>2026-03-22T16:05:49.767Z</time></trkpt><trkpt lat="43.4395782" lon="11.7421849"><ele>337.2857142857143</ele><time>2026-03-22T16:05:51.768Z</time></trkpt><trkpt lat="43.4395976" lon="11.7422817"><ele>337.42857142857144</ele><time>2026-03-22T16:05:53.767Z</time></trkpt><trkpt lat="43.439617" lon="11.7423881"><ele>337.57142857142856</ele><time>2026-03-22T16:05:55.766Z</time></trkpt><trkpt lat="43.4396305" lon="11.7424942"><ele>337.7142857142857</ele><time>2026-03-22T16:05:57.768Z</time></trkpt><trkpt lat="43.4396429" lon="11.7425878"><ele>337.8571428571429</ele><time>2026-03-22T16:05:59.767Z</time></trkpt><trkpt lat="43.4396832" lon="11.7426715"><ele>338.0</ele><time>2026-03-22T16:06:02.767Z</time></trkpt><trkpt lat="43.4397183" lon="11.7427595"><ele>338.0</ele><time>2026-03-22T16:17:35.767Z</time></trkpt><trkpt lat="43.4397954" lon="11.7428202"><ele>338.0</ele><time>2026-03-22T16:17:37.767Z</time></trkpt><trkpt lat="43.4398685" lon="11.7428754"><ele>338.0</ele><time>2026-03-22T16:17:39.767Z</time></trkpt><trkpt lat="43.4399498" lon="11.7429408"><ele>338.0</ele><time>2026-03-22T16:17:41.767Z</time></trkpt><trkpt lat="43.4400352" lon="11.7430266"><ele>338.0</ele><time>2026-03-22T16:17:43.767Z</time></trkpt><trkpt lat="43.4401259" lon="11.7431007"><ele>338.0</ele><time>2026-03-22T16:17:45.767Z</time></trkpt><trkpt lat="43.4402376" lon="11.7431715"><ele>338.0</ele><time>2026-03-22T16:17:47.766Z</time></trkpt><trkpt lat="43.4403549" lon="11.7432302"><ele>338.0</ele><time>2026-03-22T16:17:49.766Z</time></trkpt><trkpt lat="43.4404763" lon="11.7432661"><ele>338.0</ele><time>2026-03-22T16:17:51.766Z</time></trkpt><trkpt lat="43.4405712" lon="11.7432522"><ele>337.79999999999995</ele><time>2026-03-22T16:17:53.767Z</time></trkpt><trkpt lat="43.4406874" lon="11.7432568"><ele>337.6</ele><time>2026-03-22T16:17:55.766Z</time></trkpt><trkpt lat="43.4407515" lon="11.7432757"><ele>337.4</ele><time>2026-03-22T16:17:56.767Z</time></trkpt><trkpt lat="43.4408132" lon="11.7432951"><ele>337.20000000000005</ele><time>2026-03-22T16:17:57.767Z</time></trkpt><trkpt lat="43.4409258" lon="11.7433297"><ele>337.0</ele><time>2026-03-22T16:17:59.767Z</time></trkpt><trkpt lat="43.4410127" lon="11.7433707"><ele>337.0</ele><time>2026-03-22T16:18:01.766Z</time></trkpt><trkpt lat="43.4410747" lon="11.7434457"><ele>337.0</ele><time>2026-03-22T16:18:03.766Z</time></trkpt><trkpt lat="43.4411426" lon="11.7435149"><ele>337.0</ele><time>2026-03-22T16:18:05.767Z</time></trkpt><trkpt lat="43.4412197" lon="11.7435565"><ele>337.0</ele><time>2026-03-22T16:18:07.765Z</time></trkpt><trkpt lat="43.441274" lon="11.7436133"><ele>337.0</ele><time>2026-03-22T16:18:09.767Z</time></trkpt><trkpt lat="43.4413219" lon="11.7436958"><ele>337.0</ele><time>2026-03-22T16:18:11.767Z</time></trkpt><trkpt lat="43.4413573" lon="11.7438112"><ele>335.16666666666663</ele><time>2026-03-22T16:18:13.767Z</time></trkpt><trkpt lat="43.441402" lon="11.7439382"><ele>333.3333333333333</ele><time>2026-03-22T16:18:15.766Z</time></trkpt><trkpt lat="43.4414134" lon="11.7440295"><ele>331.5</ele><time>2026-03-22T16:18:16.765Z</time></trkpt><trkpt lat="43.441421" lon="11.744116"><ele>329.6666666666667</ele><time>2026-03-22T16:18:17.766Z</time></trkpt><trkpt lat="43.4414776" lon="11.7442581"><ele>327.83333333333337</ele><time>2026-03-22T16:18:19.766Z</time></trkpt><trkpt lat="43.4415228" lon="11.7443293"><ele>326.0</ele><time>2026-03-22T16:18:20.765Z</time></trkpt><trkpt lat="43.4415718" lon="11.7443964"><ele>326.0</ele><time>2026-03-22T16:18:21.766Z</time></trkpt><trkpt lat="43.4416248" lon="11.7444499"><ele>326.0</ele><time>2026-03-22T16:18:22.765Z</time></trkpt><trkpt lat="43.4416796" lon="11.7445048"><ele>326.0</ele><time>2026-03-22T16:18:23.765Z</time></trkpt><trkpt lat="43.4417397" lon="11.7445612"><ele>326.0</ele><time>2026-03-22T16:18:24.766Z</time></trkpt><trkpt lat="43.4418341" lon="11.7446698"><ele>326.0</ele><time>2026-03-22T16:18:26.765Z</time></trkpt><trkpt lat="43.4418827" lon="11.7447333"><ele>326.0</ele><time>2026-03-22T16:18:27.766Z</time></trkpt><trkpt lat="43.4419684" lon="11.7448501"><ele>326.0</ele><time>2026-03-22T16:18:29.765Z</time></trkpt><trkpt lat="43.4420496" lon="11.7449548"><ele>326.0</ele><time>2026-03-22T16:18:31.765Z</time></trkpt><trkpt lat="43.4421145" lon="11.745025"><ele>326.0</ele><time>2026-03-22T16:18:33.766Z</time></trkpt><trkpt lat="43.4421872" lon="11.7450545"><ele>326.0</ele><time>2026-03-22T16:18:35.765Z</time></trkpt><trkpt lat="43.4422663" lon="11.7450591"><ele>326.0</ele><time>2026-03-22T16:18:37.765Z</time></trkpt><trkpt lat="43.4423534" lon="11.7450775"><ele>326.0</ele><time>2026-03-22T16:18:39.765Z</time></trkpt><trkpt lat="43.4424347" lon="11.7451741"><ele>326.6666666666667</ele><time>2026-03-22T16:18:41.765Z</time></trkpt><trkpt lat="43.4425196" lon="11.7452995"><ele>327.33333333333337</ele><time>2026-03-22T16:18:43.764Z</time></trkpt><trkpt lat="43.4425671" lon="11.7453584"><ele>328.0</ele><time>2026-03-22T16:18:44.766Z</time></trkpt><trkpt lat="43.442627" lon="11.7454305"><ele>328.6666666666667</ele><time>2026-03-22T16:18:45.765Z</time></trkpt><trkpt lat="43.4426798" lon="11.7454851"><ele>329.3333333333333</ele><time>2026-03-22T16:18:46.766Z</time></trkpt><trkpt lat="43.4427307" lon="11.745541"><ele>330.0</ele><time>2026-03-22T16:18:47.766Z</time></trkpt><trkpt lat="43.4427814" lon="11.7455939"><ele>330.0</ele><time>2026-03-22T16:18:48.766Z</time></trkpt><trkpt lat="43.4428385" lon="11.7456487"><ele>330.0</ele><time>2026-03-22T16:18:49.765Z</time></trkpt><trkpt lat="43.4429354" lon="11.7457502"><ele>330.0</ele><time>2026-03-22T16:18:51.766Z</time></trkpt><trkpt lat="43.4430237" lon="11.7458458"><ele>330.0</ele><time>2026-03-22T16:18:53.766Z</time></trkpt><trkpt lat="43.4430977" lon="11.7458899"><ele>330.0</ele><time>2026-03-22T16:18:55.765Z</time></trkpt><trkpt lat="43.4431696" lon="11.7459112"><ele>330.8333333333333</ele><time>2026-03-22T16:18:57.765Z</time></trkpt><trkpt lat="43.4432656" lon="11.7458777"><ele>331.6666666666667</ele><time>2026-03-22T16:18:59.765Z</time></trkpt><trkpt lat="43.4433406" lon="11.7459166"><ele>332.5</ele><time>2026-03-22T16:19:01.765Z</time></trkpt><trkpt lat="43.4434056" lon="11.7459988"><ele>333.33333333333337</ele><time>2026-03-22T16:19:03.766Z</time></trkpt><trkpt lat="43.4435036" lon="11.7460839"><ele>334.1666666666667</ele><time>2026-03-22T16:19:05.766Z</time></trkpt><trkpt lat="43.4435585" lon="11.7461294"><ele>335.0</ele><time>2026-03-22T16:19:06.765Z</time></trkpt><trkpt lat="43.4436617" lon="11.7462297"><ele>335.0</ele><time>2026-03-22T16:19:08.765Z</time></trkpt><trkpt lat="43.4437546" lon="11.7463436"><ele>335.0</ele><time>2026-03-22T16:19:10.765Z</time></trkpt><trkpt lat="43.4438565" lon="11.7464215"><ele>335.0</ele><time>2026-03-22T16:19:12.766Z</time></trkpt><trkpt lat="43.4439408" lon="11.7464992"><ele>335.0</ele><time>2026-03-22T16:19:14.765Z</time></trkpt><trkpt lat="43.4440057" lon="11.7465814"><ele>335.0</ele><time>2026-03-22T16:19:16.765Z</time></trkpt><trkpt lat="43.4440503" lon="11.7466946"><ele>336.0</ele><time>2026-03-22T16:19:18.765Z</time></trkpt><trkpt lat="43.4440894" lon="11.7467801"><ele>337.0</ele><time>2026-03-22T16:19:19.765Z</time></trkpt><trkpt lat="43.4441563" lon="11.7468557"><ele>338.0</ele><time>2026-03-22T16:19:21.766Z</time></trkpt><trkpt lat="43.4442502" lon="11.7469542"><ele>339.0</ele><time>2026-03-22T16:19:23.765Z</time></trkpt><trkpt lat="43.4443042" lon="11.747005"><ele>340.0</ele><time>2026-03-22T16:19:24.766Z</time></trkpt><trkpt lat="43.4443975" lon="11.7470849"><ele>340.0</ele><time>2026-03-22T16:19:26.766Z</time></trkpt><trkpt lat="43.4444868" lon="11.7471682"><ele>340.0</ele><time>2026-03-22T16:19:28.765Z</time></trkpt><trkpt lat="43.4445967" lon="11.7472385"><ele>340.0</ele><time>2026-03-22T16:19:30.765Z</time></trkpt><trkpt lat="43.4446861" lon="11.747292"><ele>340.0</ele><time>2026-03-22T16:19:32.766Z</time></trkpt><trkpt lat="43.444764" lon="11.7473328"><ele>340.0</ele><time>2026-03-22T16:19:34.766Z</time></trkpt><trkpt lat="43.4448396" lon="11.7473651"><ele>337.16666666666663</ele><time>2026-03-22T16:19:36.766Z</time></trkpt><trkpt lat="43.4449161" lon="11.7473938"><ele>334.3333333333333</ele><time>2026-03-22T16:19:38.766Z</time></trkpt><trkpt lat="43.444986" lon="11.7474173"><ele>331.5</ele><time>2026-03-22T16:19:40.766Z</time></trkpt><trkpt lat="43.4450608" lon="11.7474465"><ele>328.6666666666667</ele><time>2026-03-22T16:19:43.765Z</time></trkpt><trkpt lat="43.4451322" lon="11.747482"><ele>325.83333333333337</ele><time>2026-03-22T16:19:45.815Z</time></trkpt><trkpt lat="43.4452079" lon="11.7475262"><ele>323.0</ele><time>2026-03-22T16:19:47.765Z</time></trkpt><trkpt lat="43.4452951" lon="11.7475472"><ele>323.0</ele><time>2026-03-22T16:19:49.765Z</time></trkpt><trkpt lat="43.4453842" lon="11.7475777"><ele>323.0</ele><time>2026-03-22T16:19:51.766Z</time></trkpt><trkpt lat="43.445464" lon="11.7475947"><ele>323.0</ele><time>2026-03-22T16:19:53.765Z</time></trkpt><trkpt lat="43.4455368" lon="11.7475981"><ele>323.0</ele><time>2026-03-22T16:19:55.764Z</time></trkpt><trkpt lat="43.4456077" lon="11.7476218"><ele>323.0</ele><time>2026-03-22T16:19:57.766Z</time></trkpt><trkpt lat="43.4456799" lon="11.7476892"><ele>323.0</ele><time>2026-03-22T16:19:59.765Z</time></trkpt><trkpt lat="43.445695" lon="11.7478223"><ele>321.4</ele><time>2026-03-22T16:20:01.766Z</time></trkpt><trkpt lat="43.4457163" lon="11.7479707"><ele>319.79999999999995</ele><time>2026-03-22T16:20:03.765Z</time></trkpt><trkpt lat="43.4457753" lon="11.7480901"><ele>318.2</ele><time>2026-03-22T16:20:05.766Z</time></trkpt><trkpt lat="43.4458188" lon="11.7481846"><ele>316.6</ele><time>2026-03-22T16:20:06.765Z</time></trkpt><trkpt lat="43.445884" lon="11.7483227"><ele>315.0</ele><time>2026-03-22T16:20:08.765Z</time></trkpt><trkpt lat="43.4459475" lon="11.7484513"><ele>316.0</ele><time>2026-03-22T16:20:10.766Z</time></trkpt><trkpt lat="43.4460173" lon="11.7485429"><ele>317.0</ele><time>2026-03-22T16:20:12.766Z</time></trkpt><trkpt lat="43.4460754" lon="11.7486852"><ele>318.0</ele><time>2026-03-22T16:20:14.765Z</time></trkpt><trkpt lat="43.4461051" lon="11.7487823"><ele>319.0</ele><time>2026-03-22T16:20:15.765Z</time></trkpt><trkpt lat="43.4461395" lon="11.7488842"><ele>320.0</ele><time>2026-03-22T16:20:16.766Z</time></trkpt><trkpt lat="43.4461834" lon="11.7489925"><ele>320.0</ele><time>2026-03-22T16:20:17.766Z</time></trkpt><trkpt lat="43.4462187" lon="11.7490943"><ele>320.0</ele><time>2026-03-22T16:20:18.766Z</time></trkpt><trkpt lat="43.4462411" lon="11.7491835"><ele>320.0</ele><time>2026-03-22T16:20:19.766Z</time></trkpt><trkpt lat="43.446287" lon="11.7493396"><ele>320.0</ele><time>2026-03-22T16:20:21.765Z</time></trkpt><trkpt lat="43.4463225" lon="11.7494358"><ele>320.0</ele><time>2026-03-22T16:20:22.766Z</time></trkpt><trkpt lat="43.4463549" lon="11.7495458"><ele>320.0</ele><time>2026-03-22T16:20:23.766Z</time></trkpt><trkpt lat="43.4463854" lon="11.7496427"><ele>317.57142857142856</ele><time>2026-03-22T16:20:24.766Z</time></trkpt><trkpt lat="43.4464117" lon="11.7497314"><ele>315.14285714285717</ele><time>2026-03-22T16:20:25.765Z</time></trkpt><trkpt lat="43.4464396" lon="11.7498382"><ele>312.7142857142857</ele><time>2026-03-22T16:20:26.765Z</time></trkpt><trkpt lat="43.4464614" lon="11.7499397"><ele>310.2857142857143</ele><time>2026-03-22T16:20:27.766Z</time></trkpt><trkpt lat="43.4464779" lon="11.7500253"><ele>307.85714285714283</ele><time>2026-03-22T16:20:28.765Z</time></trkpt><trkpt lat="43.4464912" lon="11.7501195"><ele>305.42857142857144</ele><time>2026-03-22T16:20:29.765Z</time></trkpt><trkpt lat="43.4464957" lon="11.7502263"><ele>303.0</ele><time>2026-03-22T16:20:30.766Z</time></trkpt><trkpt lat="43.446491" lon="11.7503232"><ele>302.3333333333333</ele><time>2026-03-22T16:20:31.766Z</time></trkpt><trkpt lat="43.4464873" lon="11.7504679"><ele>301.6666666666667</ele><time>2026-03-22T16:20:33.765Z</time></trkpt><trkpt lat="43.4464872" lon="11.7505693"><ele>301.0</ele><time>2026-03-22T16:20:35.765Z</time></trkpt><trkpt lat="43.4465079" lon="11.7506542"><ele>300.33333333333337</ele><time>2026-03-22T16:20:38.766Z</time></trkpt><trkpt lat="43.4465717" lon="11.7507383"><ele>299.6666666666667</ele><time>2026-03-22T16:21:41.764Z</time></trkpt><trkpt lat="43.4466448" lon="11.7508453"><ele>299.0</ele><time>2026-03-22T16:21:43.765Z</time></trkpt><trkpt lat="43.4467388" lon="11.7509165"><ele>299.0</ele><time>2026-03-22T16:21:45.765Z</time></trkpt><trkpt lat="43.44683" lon="11.7509014"><ele>299.0</ele><time>2026-03-22T16:21:47.766Z</time></trkpt><trkpt lat="43.4468753" lon="11.7508368"><ele>299.0</ele><time>2026-03-22T16:21:49.766Z</time></trkpt><trkpt lat="43.4469431" lon="11.7507666"><ele>299.0</ele><time>2026-03-22T16:21:51.766Z</time></trkpt><trkpt lat="43.4470351" lon="11.7507653"><ele>299.0</ele><time>2026-03-22T16:21:53.765Z</time></trkpt><trkpt lat="43.4471067" lon="11.7508292"><ele>299.0</ele><time>2026-03-22T16:21:55.766Z</time></trkpt><trkpt lat="43.4472163" lon="11.7509157"><ele>299.0</ele><time>2026-03-22T16:21:57.765Z</time></trkpt><trkpt lat="43.4472722" lon="11.7509703"><ele>299.0</ele><time>2026-03-22T16:21:58.765Z</time></trkpt><trkpt lat="43.4473578" lon="11.7510606"><ele>299.0</ele><time>2026-03-22T16:22:00.766Z</time></trkpt><trkpt lat="43.4474043" lon="11.7511316"><ele>299.0</ele><time>2026-03-22T16:22:01.765Z</time></trkpt><trkpt lat="43.4474548" lon="11.7511992"><ele>299.0</ele><time>2026-03-22T16:22:02.765Z</time></trkpt><trkpt lat="43.4475311" lon="11.7512985"><ele>299.0</ele><time>2026-03-22T16:22:04.765Z</time></trkpt><trkpt lat="43.4475992" lon="11.7514151"><ele>299.0</ele><time>2026-03-22T16:22:06.765Z</time></trkpt><trkpt lat="43.4476554" lon="11.751511"><ele>299.0</ele><time>2026-03-22T16:22:08.766Z</time></trkpt><trkpt lat="43.44768" lon="11.7516087"><ele>299.0</ele><time>2026-03-22T16:22:10.765Z</time></trkpt><trkpt lat="43.447708" lon="11.7516969"><ele>299.0</ele><time>2026-03-22T16:22:12.766Z</time></trkpt><trkpt lat="43.447724" lon="11.7517946"><ele>299.0</ele><time>2026-03-22T16:22:14.766Z</time></trkpt><trkpt lat="43.4477262" lon="11.7519033"><ele>299.0</ele><time>2026-03-22T16:22:17.766Z</time></trkpt><trkpt lat="43.4477512" lon="11.7520149"><ele>299.2</ele><time>2026-03-22T16:22:31.766Z</time></trkpt><trkpt lat="43.4478026" lon="11.75214"><ele>299.4</ele><time>2026-03-22T16:22:33.766Z</time></trkpt><trkpt lat="43.4478709" lon="11.752256"><ele>299.6</ele><time>2026-03-22T16:22:35.765Z</time></trkpt><trkpt lat="43.4479208" lon="11.7523142"><ele>299.8</ele><time>2026-03-22T16:22:36.766Z</time></trkpt><trkpt lat="43.4480199" lon="11.7524189"><ele>300.0</ele><time>2026-03-22T16:22:38.765Z</time></trkpt><trkpt lat="43.448076" lon="11.7524816"><ele>300.0</ele><time>2026-03-22T16:22:39.765Z</time></trkpt><trkpt lat="43.4481314" lon="11.7525382"><ele>300.0</ele><time>2026-03-22T16:22:40.766Z</time></trkpt><trkpt lat="43.4481891" lon="11.7525934"><ele>300.0</ele><time>2026-03-22T16:22:41.765Z</time></trkpt><trkpt lat="43.44824" lon="11.7526495"><ele>300.0</ele><time>2026-03-22T16:22:42.765Z</time></trkpt><trkpt lat="43.448333" lon="11.7527552"><ele>300.0</ele><time>2026-03-22T16:22:44.765Z</time></trkpt><trkpt lat="43.4484028" lon="11.7528268"><ele>300.0</ele><time>2026-03-22T16:22:46.766Z</time></trkpt><trkpt lat="43.4484579" lon="11.7528988"><ele>300.0</ele><time>2026-03-22T16:23:03.766Z</time></trkpt><trkpt lat="43.448495" lon="11.7529877"><ele>300.0</ele><time>2026-03-22T16:23:05.766Z</time></trkpt><trkpt lat="43.448513" lon="11.7530752"><ele>300.0</ele><time>2026-03-22T16:23:07.766Z</time></trkpt><trkpt lat="43.4485948" lon="11.7531503"><ele>300.0</ele><time>2026-03-22T16:23:09.765Z</time></trkpt><trkpt lat="43.4486618" lon="11.753233"><ele>300.0</ele><time>2026-03-22T16:23:11.765Z</time></trkpt><trkpt lat="43.4487314" lon="11.7533103"><ele>300.0</ele><time>2026-03-22T16:23:13.764Z</time></trkpt><trkpt lat="43.448809" lon="11.7534075"><ele>300.0</ele><time>2026-03-22T16:23:15.766Z</time></trkpt><trkpt lat="43.4488599" lon="11.7534687"><ele>300.0</ele><time>2026-03-22T16:23:16.765Z</time></trkpt><trkpt lat="43.4489082" lon="11.7535355"><ele>300.0</ele><time>2026-03-22T16:23:17.766Z</time></trkpt><trkpt lat="43.448953" lon="11.7536023"><ele>300.0</ele><time>2026-03-22T16:23:18.766Z</time></trkpt><trkpt lat="43.4490397" lon="11.7537094"><ele>300.0</ele><time>2026-03-22T16:23:20.764Z</time></trkpt><trkpt lat="43.4491255" lon="11.7537795"><ele>300.0</ele><time>2026-03-22T16:23:22.766Z</time></trkpt><trkpt lat="43.4491766" lon="11.7538575"><ele>299.6666666666667</ele><time>2026-03-22T16:23:24.765Z</time></trkpt><trkpt lat="43.449158" lon="11.7539518"><ele>299.3333333333333</ele><time>2026-03-22T16:23:54.765Z</time></trkpt><trkpt lat="43.4490986" lon="11.7540379"><ele>299.0</ele><time>2026-03-22T16:23:57.766Z</time></trkpt><trkpt lat="43.4490783" lon="11.7541597"><ele>298.66666666666663</ele><time>2026-03-22T16:24:00.766Z</time></trkpt><trkpt lat="43.4490758" lon="11.7542574"><ele>298.3333333333333</ele><time>2026-03-22T16:24:15.765Z</time></trkpt><trkpt lat="43.4490618" lon="11.7543665"><ele>298.0</ele><time>2026-03-22T16:24:17.766Z</time></trkpt><trkpt lat="43.4490382" lon="11.754492"><ele>297.0</ele><time>2026-03-22T16:24:19.766Z</time></trkpt><trkpt lat="43.4490322" lon="11.7546434"><ele>296.0</ele><time>2026-03-22T16:24:21.765Z</time></trkpt><trkpt lat="43.4490474" lon="11.7548098"><ele>295.0</ele><time>2026-03-22T16:24:23.766Z</time></trkpt><trkpt lat="43.4490607" lon="11.7548986"><ele>294.0</ele><time>2026-03-22T16:24:24.766Z</time></trkpt><trkpt lat="43.4490769" lon="11.7549939"><ele>293.0</ele><time>2026-03-22T16:24:25.766Z</time></trkpt><trkpt lat="43.4491025" lon="11.7551571"><ele>293.5</ele><time>2026-03-22T16:24:27.765Z</time></trkpt><trkpt lat="43.4491277" lon="11.7553217"><ele>294.0</ele><time>2026-03-22T16:24:29.766Z</time></trkpt><trkpt lat="43.4491449" lon="11.7554817"><ele>294.5</ele><time>2026-03-22T16:24:31.765Z</time></trkpt><trkpt lat="43.4491298" lon="11.7556375"><ele>295.0</ele><time>2026-03-22T16:24:33.765Z</time></trkpt><trkpt lat="43.4490746" lon="11.755757"><ele>295.0</ele><time>2026-03-22T16:24:35.765Z</time></trkpt><trkpt lat="43.4490191" lon="11.7558834"><ele>295.0</ele><time>2026-03-22T16:24:37.765Z</time></trkpt><trkpt lat="43.4490077" lon="11.7560328"><ele>295.0</ele><time>2026-03-22T16:24:39.765Z</time></trkpt><trkpt lat="43.4490279" lon="11.7561155"><ele>295.0</ele><time>2026-03-22T16:24:40.766Z</time></trkpt><trkpt lat="43.4490602" lon="11.7561959"><ele>295.0</ele><time>2026-03-22T16:24:41.766Z</time></trkpt><trkpt lat="43.4491242" lon="11.7563232"><ele>296.0</ele><time>2026-03-22T16:24:43.766Z</time></trkpt><trkpt lat="43.4491511" lon="11.7564275"><ele>297.0</ele><time>2026-03-22T16:24:46.766Z</time></trkpt><trkpt lat="43.4491297" lon="11.7565241"><ele>298.0</ele><time>2026-03-22T16:24:59.766Z</time></trkpt><trkpt lat="43.4490642" lon="11.7566644"><ele>299.0</ele><time>2026-03-22T16:25:01.766Z</time></trkpt><trkpt lat="43.4490121" lon="11.7567426"><ele>300.0</ele><time>2026-03-22T16:25:02.766Z</time></trkpt><trkpt lat="43.4489505" lon="11.7568231"><ele>301.0</ele><time>2026-03-22T16:25:03.766Z</time></trkpt><trkpt lat="43.4488896" lon="11.7568899"><ele>302.66666666666663</ele><time>2026-03-22T16:25:04.766Z</time></trkpt><trkpt lat="43.4488311" lon="11.7569469"><ele>304.3333333333333</ele><time>2026-03-22T16:25:05.765Z</time></trkpt><trkpt lat="43.4487921" lon="11.7570156"><ele>306.0</ele><time>2026-03-22T16:25:06.766Z</time></trkpt><trkpt lat="43.4487523" lon="11.7570896"><ele>307.6666666666667</ele><time>2026-03-22T16:25:07.766Z</time></trkpt><trkpt lat="43.4487085" lon="11.7571753"><ele>309.33333333333337</ele><time>2026-03-22T16:25:08.765Z</time></trkpt><trkpt lat="43.4486674" lon="11.7573001"><ele>311.0</ele><time>2026-03-22T16:25:09.766Z</time></trkpt><trkpt lat="43.4486322" lon="11.7574138"><ele>307.83333333333337</ele><time>2026-03-22T16:25:10.766Z</time></trkpt><trkpt lat="43.4485975" lon="11.7575242"><ele>304.6666666666667</ele><time>2026-03-22T16:25:11.765Z</time></trkpt><trkpt lat="43.448551" lon="11.7576106"><ele>301.5</ele><time>2026-03-22T16:25:12.765Z</time></trkpt><trkpt lat="43.448505" lon="11.757695"><ele>298.3333333333333</ele><time>2026-03-22T16:25:13.765Z</time></trkpt><trkpt lat="43.4484769" lon="11.7577822"><ele>295.16666666666663</ele><time>2026-03-22T16:25:14.765Z</time></trkpt><trkpt lat="43.4484425" lon="11.7578743"><ele>292.0</ele><time>2026-03-22T16:25:15.765Z</time></trkpt><trkpt lat="43.4484317" lon="11.7580051"><ele>292.0</ele><time>2026-03-22T16:25:16.766Z</time></trkpt><trkpt lat="43.4484218" lon="11.7581295"><ele>292.0</ele><time>2026-03-22T16:25:17.765Z</time></trkpt><trkpt lat="43.4484174" lon="11.7582431"><ele>292.0</ele><time>2026-03-22T16:25:18.765Z</time></trkpt><trkpt lat="43.4484113" lon="11.7583412"><ele>292.0</ele><time>2026-03-22T16:25:19.766Z</time></trkpt><trkpt lat="43.4484064" lon="11.758446"><ele>292.0</ele><time>2026-03-22T16:25:20.766Z</time></trkpt><trkpt lat="43.4484014" lon="11.7585736"><ele>292.0</ele><time>2026-03-22T16:25:21.765Z</time></trkpt><trkpt lat="43.4483858" lon="11.7586903"><ele>292.5</ele><time>2026-03-22T16:25:22.766Z</time></trkpt><trkpt lat="43.4483675" lon="11.7587942"><ele>293.0</ele><time>2026-03-22T16:25:23.764Z</time></trkpt><trkpt lat="43.4483464" lon="11.7588842"><ele>293.5</ele><time>2026-03-22T16:25:24.766Z</time></trkpt><trkpt lat="43.4483301" lon="11.7589843"><ele>294.0</ele><time>2026-03-22T16:25:25.765Z</time></trkpt><trkpt lat="43.44833" lon="11.7590942"><ele>294.5</ele><time>2026-03-22T16:25:26.766Z</time></trkpt><trkpt lat="43.4483277" lon="11.7592073"><ele>295.0</ele><time>2026-03-22T16:25:27.766Z</time></trkpt><trkpt lat="43.4483191" lon="11.7593143"><ele>295.0</ele><time>2026-03-22T16:25:28.765Z</time></trkpt><trkpt lat="43.4483047" lon="11.7594237"><ele>295.0</ele><time>2026-03-22T16:25:29.765Z</time></trkpt><trkpt lat="43.4482869" lon="11.7595401"><ele>295.0</ele><time>2026-03-22T16:25:30.765Z</time></trkpt><trkpt lat="43.448266" lon="11.7596566"><ele>295.0</ele><time>2026-03-22T16:25:31.766Z</time></trkpt><trkpt lat="43.4482462" lon="11.7597618"><ele>295.0</ele><time>2026-03-22T16:25:32.766Z</time></trkpt><trkpt lat="43.4482276" lon="11.7598654"><ele>295.0</ele><time>2026-03-22T16:25:33.766Z</time></trkpt><trkpt lat="43.4482135" lon="11.759971"><ele>295.0</ele><time>2026-03-22T16:25:34.764Z</time></trkpt><trkpt lat="43.4481946" lon="11.7600538"><ele>295.0</ele><time>2026-03-22T16:25:35.764Z</time></trkpt><trkpt lat="43.4481541" lon="11.7602099"><ele>295.0</ele><time>2026-03-22T16:25:37.766Z</time></trkpt><trkpt lat="43.4481346" lon="11.7602941"><ele>295.0</ele><time>2026-03-22T16:25:38.766Z</time></trkpt><trkpt lat="43.4481023" lon="11.7604626"><ele>295.0</ele><time>2026-03-22T16:25:40.766Z</time></trkpt><trkpt lat="43.4480817" lon="11.7605537"><ele>295.0</ele><time>2026-03-22T16:25:41.765Z</time></trkpt><trkpt lat="43.44806" lon="11.7606484"><ele>294.5</ele><time>2026-03-22T16:25:42.765Z</time></trkpt><trkpt lat="43.4480399" lon="11.7607445"><ele>294.0</ele><time>2026-03-22T16:25:43.765Z</time></trkpt><trkpt lat="43.4480123" lon="11.7608413"><ele>293.5</ele><time>2026-03-22T16:25:44.766Z</time></trkpt><trkpt lat="43.4479865" lon="11.7609498"><ele>293.0</ele><time>2026-03-22T16:25:45.765Z</time></trkpt><trkpt lat="43.447963" lon="11.7610717"><ele>292.5</ele><time>2026-03-22T16:25:46.765Z</time></trkpt><trkpt lat="43.4479438" lon="11.7611839"><ele>292.0</ele><time>2026-03-22T16:25:47.765Z</time></trkpt><trkpt lat="43.447934" lon="11.7612745"><ele>291.7142857142857</ele><time>2026-03-22T16:25:48.765Z</time></trkpt><trkpt lat="43.4479188" lon="11.7613617"><ele>291.42857142857144</ele><time>2026-03-22T16:25:49.766Z</time></trkpt><trkpt lat="43.447905" lon="11.7614598"><ele>291.14285714285717</ele><time>2026-03-22T16:25:50.766Z</time></trkpt><trkpt lat="43.4478868" lon="11.7615571"><ele>290.8571428571429</ele><time>2026-03-22T16:25:51.765Z</time></trkpt><trkpt lat="43.4478615" lon="11.7616504"><ele>290.5714285714286</ele><time>2026-03-22T16:25:52.765Z</time></trkpt><trkpt lat="43.4478325" lon="11.761734"><ele>290.2857142857143</ele><time>2026-03-22T16:25:53.766Z</time></trkpt><trkpt lat="43.4478039" lon="11.7618198"><ele>290.0</ele><time>2026-03-22T16:25:54.766Z</time></trkpt><trkpt lat="43.4477766" lon="11.7619171"><ele>289.6666666666667</ele><time>2026-03-22T16:25:55.766Z</time></trkpt><trkpt lat="43.4477542" lon="11.762024"><ele>289.33333333333337</ele><time>2026-03-22T16:25:56.766Z</time></trkpt><trkpt lat="43.4477296" lon="11.7621319"><ele>289.0</ele><time>2026-03-22T16:25:57.766Z</time></trkpt><trkpt lat="43.4477113" lon="11.7622496"><ele>288.6666666666667</ele><time>2026-03-22T16:25:58.766Z</time></trkpt><trkpt lat="43.4476911" lon="11.7623614"><ele>288.3333333333333</ele><time>2026-03-22T16:25:59.766Z</time></trkpt><trkpt lat="43.447668" lon="11.7624624"><ele>288.0</ele><time>2026-03-22T16:26:00.766Z</time></trkpt><trkpt lat="43.4476464" lon="11.7625699"><ele>288.0</ele><time>2026-03-22T16:26:01.766Z</time></trkpt><trkpt lat="43.4476248" lon="11.7626827"><ele>288.0</ele><time>2026-03-22T16:26:02.766Z</time></trkpt><trkpt lat="43.4476074" lon="11.7627926"><ele>288.0</ele><time>2026-03-22T16:26:03.766Z</time></trkpt><trkpt lat="43.4475862" lon="11.7628907"><ele>288.0</ele><time>2026-03-22T16:26:04.766Z</time></trkpt><trkpt lat="43.4475673" lon="11.7629975"><ele>288.0</ele><time>2026-03-22T16:26:05.765Z</time></trkpt><trkpt lat="43.4475506" lon="11.7631046"><ele>288.0</ele><time>2026-03-22T16:26:06.766Z</time></trkpt><trkpt lat="43.4475347" lon="11.7632076"><ele>287.1666666666667</ele><time>2026-03-22T16:26:07.765Z</time></trkpt><trkpt lat="43.4475129" lon="11.7633192"><ele>286.3333333333333</ele><time>2026-03-22T16:26:08.766Z</time></trkpt><trkpt lat="43.4474917" lon="11.7634338"><ele>285.5</ele><time>2026-03-22T16:26:09.766Z</time></trkpt><trkpt lat="43.4474644" lon="11.7635446"><ele>284.66666666666663</ele><time>2026-03-22T16:26:10.766Z</time></trkpt><trkpt lat="43.4474361" lon="11.7636503"><ele>283.8333333333333</ele><time>2026-03-22T16:26:11.765Z</time></trkpt><trkpt lat="43.447406" lon="11.76376"><ele>283.0</ele><time>2026-03-22T16:26:12.766Z</time></trkpt><trkpt lat="43.4473752" lon="11.7638708"><ele>282.66666666666663</ele><time>2026-03-22T16:26:13.766Z</time></trkpt><trkpt lat="43.4473438" lon="11.763971"><ele>282.3333333333333</ele><time>2026-03-22T16:26:14.766Z</time></trkpt><trkpt lat="43.4473047" lon="11.7640599"><ele>282.0</ele><time>2026-03-22T16:26:15.765Z</time></trkpt><trkpt lat="43.4472572" lon="11.7641496"><ele>281.6666666666667</ele><time>2026-03-22T16:26:16.766Z</time></trkpt><trkpt lat="43.4472055" lon="11.7642453"><ele>281.33333333333337</ele><time>2026-03-22T16:26:17.766Z</time></trkpt><trkpt lat="43.4471518" lon="11.764347"><ele>281.0</ele><time>2026-03-22T16:26:18.766Z</time></trkpt><trkpt lat="43.447099" lon="11.7644558"><ele>281.83333333333337</ele><time>2026-03-22T16:26:19.766Z</time></trkpt><trkpt lat="43.447049" lon="11.7645623"><ele>282.6666666666667</ele><time>2026-03-22T16:26:20.766Z</time></trkpt><trkpt lat="43.4470055" lon="11.7646569"><ele>283.5</ele><time>2026-03-22T16:26:21.765Z</time></trkpt><trkpt lat="43.4469655" lon="11.76474"><ele>284.3333333333333</ele><time>2026-03-22T16:26:22.766Z</time></trkpt><trkpt lat="43.4469281" lon="11.7648232"><ele>285.16666666666663</ele><time>2026-03-22T16:26:23.765Z</time></trkpt><trkpt lat="43.4468903" lon="11.7649203"><ele>286.0</ele><time>2026-03-22T16:26:24.765Z</time></trkpt><trkpt lat="43.4468495" lon="11.7650318"><ele>286.0</ele><time>2026-03-22T16:26:25.766Z</time></trkpt><trkpt lat="43.4468067" lon="11.7651463"><ele>286.0</ele><time>2026-03-22T16:26:26.766Z</time></trkpt><trkpt lat="43.4467722" lon="11.7652612"><ele>286.0</ele><time>2026-03-22T16:26:27.765Z</time></trkpt><trkpt lat="43.4467524" lon="11.7653673"><ele>286.0</ele><time>2026-03-22T16:26:28.765Z</time></trkpt><trkpt lat="43.4467411" lon="11.765467"><ele>286.0</ele><time>2026-03-22T16:26:29.765Z</time></trkpt><trkpt lat="43.446729" lon="11.7655742"><ele>286.0</ele><time>2026-03-22T16:26:30.765Z</time></trkpt><trkpt lat="43.4467198" lon="11.7656872"><ele>285.0</ele><time>2026-03-22T16:26:31.766Z</time></trkpt><trkpt lat="43.4466983" lon="11.7657857"><ele>284.0</ele><time>2026-03-22T16:26:32.766Z</time></trkpt><trkpt lat="43.4466724" lon="11.7658923"><ele>283.0</ele><time>2026-03-22T16:26:33.765Z</time></trkpt><trkpt lat="43.4466517" lon="11.7660004"><ele>282.0</ele><time>2026-03-22T16:26:34.765Z</time></trkpt><trkpt lat="43.4466351" lon="11.7660981"><ele>281.0</ele><time>2026-03-22T16:26:35.765Z</time></trkpt><trkpt lat="43.4466039" lon="11.7662013"><ele>280.0</ele><time>2026-03-22T16:26:36.765Z</time></trkpt><trkpt lat="43.4465544" lon="11.7663159"><ele>280.0</ele><time>2026-03-22T16:26:37.765Z</time></trkpt><trkpt lat="43.446502" lon="11.7664269"><ele>280.0</ele><time>2026-03-22T16:26:38.766Z</time></trkpt><trkpt lat="43.4464499" lon="11.7665265"><ele>280.0</ele><time>2026-03-22T16:26:39.765Z</time></trkpt><trkpt lat="43.4463939" lon="11.766635"><ele>280.0</ele><time>2026-03-22T16:26:40.766Z</time></trkpt><trkpt lat="43.4463373" lon="11.76675"><ele>280.0</ele><time>2026-03-22T16:26:41.766Z</time></trkpt><trkpt lat="43.4462839" lon="11.7668636"><ele>278.8333333333333</ele><time>2026-03-22T16:26:42.766Z</time></trkpt><trkpt lat="43.4462294" lon="11.7669692"><ele>277.66666666666663</ele><time>2026-03-22T16:26:43.765Z</time></trkpt><trkpt lat="43.4461806" lon="11.7670594"><ele>276.5</ele><time>2026-03-22T16:26:44.766Z</time></trkpt><trkpt lat="43.4461352" lon="11.7671333"><ele>275.3333333333333</ele><time>2026-03-22T16:26:45.765Z</time></trkpt><trkpt lat="43.4460915" lon="11.7672028"><ele>274.1666666666667</ele><time>2026-03-22T16:26:46.766Z</time></trkpt><trkpt lat="43.4460091" lon="11.7673123"><ele>273.0</ele><time>2026-03-22T16:26:48.765Z</time></trkpt><trkpt lat="43.4459208" lon="11.767392"><ele>273.0</ele><time>2026-03-22T16:26:50.766Z</time></trkpt><trkpt lat="43.4459237" lon="11.7674847"><ele>273.0</ele><time>2026-03-22T16:26:53.766Z</time></trkpt><trkpt lat="43.4459737" lon="11.7675413"><ele>273.0</ele><time>2026-03-22T16:27:32.765Z</time></trkpt><trkpt lat="43.4460251" lon="11.7676045"><ele>273.0</ele><time>2026-03-22T16:27:43.765Z</time></trkpt><trkpt lat="43.4461251" lon="11.7677141"><ele>273.0</ele><time>2026-03-22T16:27:50.765Z</time></trkpt><trkpt lat="43.4461727" lon="11.7678063"><ele>273.0</ele><time>2026-03-22T16:27:51.765Z</time></trkpt><trkpt lat="43.4462222" lon="11.7678824"><ele>273.5</ele><time>2026-03-22T16:27:53.765Z</time></trkpt><trkpt lat="43.4461937" lon="11.7679826"><ele>274.0</ele><time>2026-03-22T16:28:48.765Z</time></trkpt><trkpt lat="43.446113" lon="11.7681066"><ele>274.5</ele><time>2026-03-22T16:28:50.766Z</time></trkpt><trkpt lat="43.4460664" lon="11.7681769"><ele>275.0</ele><time>2026-03-22T16:28:51.765Z</time></trkpt><trkpt lat="43.446012" lon="11.7682545"><ele>275.5</ele><time>2026-03-22T16:28:52.765Z</time></trkpt><trkpt lat="43.445957" lon="11.7683353"><ele>276.0</ele><time>2026-03-22T16:28:53.766Z</time></trkpt><trkpt lat="43.4459114" lon="11.768416"><ele>276.0</ele><time>2026-03-22T16:28:54.766Z</time></trkpt><trkpt lat="43.4458688" lon="11.7685039"><ele>276.0</ele><time>2026-03-22T16:28:55.765Z</time></trkpt><trkpt lat="43.4458266" lon="11.7685892"><ele>276.0</ele><time>2026-03-22T16:28:56.766Z</time></trkpt><trkpt lat="43.4457836" lon="11.7686684"><ele>276.0</ele><time>2026-03-22T16:28:57.766Z</time></trkpt><trkpt lat="43.4456929" lon="11.7687918"><ele>276.0</ele><time>2026-03-22T16:28:59.765Z</time></trkpt><trkpt lat="43.4456394" lon="11.7688498"><ele>276.0</ele><time>2026-03-22T16:29:00.765Z</time></trkpt><trkpt lat="43.4456055" lon="11.7689254"><ele>276.8</ele><time>2026-03-22T16:29:01.766Z</time></trkpt><trkpt lat="43.4455562" lon="11.7690286"><ele>277.6</ele><time>2026-03-22T16:29:03.765Z</time></trkpt><trkpt lat="43.4455065" lon="11.7691346"><ele>278.4</ele><time>2026-03-22T16:30:08.764Z</time></trkpt><trkpt lat="43.44546" lon="11.7692455"><ele>279.2</ele><time>2026-03-22T16:30:10.764Z</time></trkpt><trkpt lat="43.4454559" lon="11.7693845"><ele>280.0</ele><time>2026-03-22T16:30:11.765Z</time></trkpt><trkpt lat="43.4454328" lon="11.7695126"><ele>278.0</ele><time>2026-03-22T16:30:12.764Z</time></trkpt><trkpt lat="43.4454061" lon="11.7696322"><ele>276.0</ele><time>2026-03-22T16:30:13.765Z</time></trkpt><trkpt lat="43.4453764" lon="11.7697394"><ele>274.0</ele><time>2026-03-22T16:30:14.765Z</time></trkpt><trkpt lat="43.445324" lon="11.7698556"><ele>272.0</ele><time>2026-03-22T16:30:15.765Z</time></trkpt><trkpt lat="43.4452654" lon="11.7699915"><ele>270.0</ele><time>2026-03-22T16:30:16.765Z</time></trkpt><trkpt lat="43.4452264" lon="11.7701203"><ele>271.5</ele><time>2026-03-22T16:30:17.763Z</time></trkpt><trkpt lat="43.4451772" lon="11.7702608"><ele>273.0</ele><time>2026-03-22T16:30:18.764Z</time></trkpt><trkpt lat="43.4451165" lon="11.7704015"><ele>274.5</ele><time>2026-03-22T16:30:19.764Z</time></trkpt><trkpt lat="43.4450586" lon="11.7705397"><ele>276.0</ele><time>2026-03-22T16:30:20.764Z</time></trkpt><trkpt lat="43.4450047" lon="11.7706797"><ele>276.0</ele><time>2026-03-22T16:30:21.765Z</time></trkpt><trkpt lat="43.4449463" lon="11.7708183"><ele>276.0</ele><time>2026-03-22T16:30:22.765Z</time></trkpt><trkpt lat="43.4448875" lon="11.7709597"><ele>276.0</ele><time>2026-03-22T16:30:23.764Z</time></trkpt><trkpt lat="43.4448237" lon="11.7711209"><ele>276.0</ele><time>2026-03-22T16:30:24.764Z</time></trkpt><trkpt lat="43.4447612" lon="11.7712629"><ele>276.6</ele><time>2026-03-22T16:30:25.764Z</time></trkpt><trkpt lat="43.4447043" lon="11.7713937"><ele>277.20000000000005</ele><time>2026-03-22T16:30:26.764Z</time></trkpt><trkpt lat="43.4446554" lon="11.7715187"><ele>277.79999999999995</ele><time>2026-03-22T16:30:27.765Z</time></trkpt><trkpt lat="43.4445998" lon="11.7716499"><ele>278.4</ele><time>2026-03-22T16:30:28.764Z</time></trkpt><trkpt lat="43.4445495" lon="11.7717852"><ele>279.0</ele><time>2026-03-22T16:30:29.764Z</time></trkpt><trkpt lat="43.4445018" lon="11.7719359"><ele>276.75</ele><time>2026-03-22T16:30:30.764Z</time></trkpt><trkpt lat="43.4444563" lon="11.7721043"><ele>274.5</ele><time>2026-03-22T16:30:31.764Z</time></trkpt><trkpt lat="43.4444159" lon="11.7722674"><ele>272.25</ele><time>2026-03-22T16:30:32.764Z</time></trkpt><trkpt lat="43.4443775" lon="11.7724168"><ele>270.0</ele><time>2026-03-22T16:30:33.764Z</time></trkpt><trkpt lat="43.4443417" lon="11.772555"><ele>270.0</ele><time>2026-03-22T16:30:34.764Z</time></trkpt><trkpt lat="43.4443054" lon="11.7726774"><ele>270.0</ele><time>2026-03-22T16:30:35.765Z</time></trkpt><trkpt lat="43.4442686" lon="11.7727945"><ele>270.0</ele><time>2026-03-22T16:30:36.764Z</time></trkpt><trkpt lat="43.4442356" lon="11.7728823"><ele>270.0</ele><time>2026-03-22T16:30:37.764Z</time></trkpt><trkpt lat="43.444154" lon="11.7729803"><ele>270.0</ele><time>2026-03-22T16:30:39.765Z</time></trkpt><trkpt lat="43.4440438" lon="11.7729912"><ele>269.6</ele><time>2026-03-22T16:30:41.764Z</time></trkpt><trkpt lat="43.4439416" lon="11.7729408"><ele>269.2</ele><time>2026-03-22T16:30:43.764Z</time></trkpt><trkpt lat="43.4438475" lon="11.772914"><ele>268.8</ele><time>2026-03-22T16:30:45.764Z</time></trkpt><trkpt lat="43.4437554" lon="11.7729995"><ele>268.4</ele><time>2026-03-22T16:30:47.764Z</time></trkpt><trkpt lat="43.4437205" lon="11.7730908"><ele>268.0</ele><time>2026-03-22T16:30:48.765Z</time></trkpt><trkpt lat="43.4436687" lon="11.7732804"><ele>268.0</ele><time>2026-03-22T16:30:50.765Z</time></trkpt><trkpt lat="43.4436391" lon="11.7734126"><ele>268.0</ele><time>2026-03-22T16:30:51.764Z</time></trkpt><trkpt lat="43.4436102" lon="11.7735524"><ele>268.0</ele><time>2026-03-22T16:30:52.765Z</time></trkpt><trkpt lat="43.443582" lon="11.7737134"><ele>268.0</ele><time>2026-03-22T16:30:53.765Z</time></trkpt><trkpt lat="43.4435555" lon="11.7738645"><ele>268.0</ele><time>2026-03-22T16:30:54.764Z</time></trkpt><trkpt lat="43.4435476" lon="11.7740123"><ele>267.8</ele><time>2026-03-22T16:30:55.765Z</time></trkpt><trkpt lat="43.44354" lon="11.7741361"><ele>267.6</ele><time>2026-03-22T16:30:56.765Z</time></trkpt><trkpt lat="43.4435279" lon="11.7742521"><ele>267.4</ele><time>2026-03-22T16:30:57.764Z</time></trkpt><trkpt lat="43.4435254" lon="11.7743473"><ele>267.2</ele><time>2026-03-22T16:30:58.764Z</time></trkpt><trkpt lat="43.4435625" lon="11.7744789"><ele>267.0</ele><time>2026-03-22T16:31:00.765Z</time></trkpt><trkpt lat="43.4436709" lon="11.7745479"><ele>266.6</ele><time>2026-03-22T16:31:02.765Z</time></trkpt><trkpt lat="43.4437322" lon="11.7745868"><ele>266.2</ele><time>2026-03-22T16:31:03.765Z</time></trkpt><trkpt lat="43.4437895" lon="11.7746634"><ele>265.8</ele><time>2026-03-22T16:31:04.765Z</time></trkpt><trkpt lat="43.443859" lon="11.7747891"><ele>265.4</ele><time>2026-03-22T16:31:05.764Z</time></trkpt><trkpt lat="43.4439328" lon="11.7749249"><ele>265.0</ele><time>2026-03-22T16:31:06.764Z</time></trkpt><trkpt lat="43.4439752" lon="11.7750358"><ele>265.5</ele><time>2026-03-22T16:31:07.764Z</time></trkpt><trkpt lat="43.4439904" lon="11.7751512"><ele>266.0</ele><time>2026-03-22T16:31:09.765Z</time></trkpt><trkpt lat="43.4439759" lon="11.7752573"><ele>266.5</ele><time>2026-03-22T16:31:11.765Z</time></trkpt><trkpt lat="43.4439685" lon="11.7753692"><ele>267.0</ele><time>2026-03-22T16:31:14.764Z</time></trkpt><trkpt lat="43.4439657" lon="11.7754799"><ele>267.5</ele><time>2026-03-22T16:31:18.765Z</time></trkpt><trkpt lat="43.4439653" lon="11.7755764"><ele>268.0</ele><time>2026-03-22T16:31:20.765Z</time></trkpt><trkpt lat="43.4439578" lon="11.7756793"><ele>268.0</ele><time>2026-03-22T16:31:23.765Z</time></trkpt><trkpt lat="43.4439574" lon="11.775779"><ele>268.0</ele><time>2026-03-22T16:31:26.764Z</time></trkpt><trkpt lat="43.4439765" lon="11.7758851"><ele>268.0</ele><time>2026-03-22T16:32:02.765Z</time></trkpt><trkpt lat="43.4439728" lon="11.7760696"><ele>268.0</ele><time>2026-03-22T16:32:04.764Z</time></trkpt><trkpt lat="43.4439666" lon="11.7761948"><ele>268.0</ele><time>2026-03-22T16:32:05.765Z</time></trkpt><trkpt lat="43.4439587" lon="11.7763036"><ele>268.2</ele><time>2026-03-22T16:32:06.764Z</time></trkpt><trkpt lat="43.4439531" lon="11.7764002"><ele>268.4</ele><time>2026-03-22T16:32:07.765Z</time></trkpt><trkpt lat="43.4439397" lon="11.7765797"><ele>268.59999999999997</ele><time>2026-03-22T16:32:09.765Z</time></trkpt><trkpt lat="43.4439238" lon="11.776688"><ele>268.8</ele><time>2026-03-22T16:32:10.765Z</time></trkpt><trkpt lat="43.4439024" lon="11.7768101"><ele>269.0</ele><time>2026-03-22T16:32:11.765Z</time></trkpt><trkpt lat="43.4438791" lon="11.7769397"><ele>269.2</ele><time>2026-03-22T16:32:12.765Z</time></trkpt><trkpt lat="43.443848" lon="11.777075"><ele>269.4</ele><time>2026-03-22T16:32:13.765Z</time></trkpt><trkpt lat="43.4438118" lon="11.7772128"><ele>269.6</ele><time>2026-03-22T16:32:14.764Z</time></trkpt><trkpt lat="43.4437692" lon="11.7773489"><ele>269.8</ele><time>2026-03-22T16:32:15.764Z</time></trkpt><trkpt lat="43.443727" lon="11.7774843"><ele>270.0</ele><time>2026-03-22T16:32:16.765Z</time></trkpt><trkpt lat="43.4436864" lon="11.7776153"><ele>271.0</ele><time>2026-03-22T16:32:17.765Z</time></trkpt><trkpt lat="43.4436497" lon="11.7777354"><ele>272.0</ele><time>2026-03-22T16:32:18.765Z</time></trkpt><trkpt lat="43.4436087" lon="11.7778481"><ele>273.0</ele><time>2026-03-22T16:32:19.765Z</time></trkpt><trkpt lat="43.4435678" lon="11.7779603"><ele>274.0</ele><time>2026-03-22T16:32:20.765Z</time></trkpt><trkpt lat="43.4435291" lon="11.7780784"><ele>275.0</ele><time>2026-03-22T16:32:21.765Z</time></trkpt><trkpt lat="43.4434884" lon="11.7781999"><ele>275.0</ele><time>2026-03-22T16:32:22.764Z</time></trkpt><trkpt lat="43.4434482" lon="11.7783253"><ele>275.0</ele><time>2026-03-22T16:32:23.765Z</time></trkpt><trkpt lat="43.4434105" lon="11.7784512"><ele>275.0</ele><time>2026-03-22T16:32:24.764Z</time></trkpt><trkpt lat="43.4433747" lon="11.778567"><ele>275.0</ele><time>2026-03-22T16:32:25.764Z</time></trkpt><trkpt lat="43.4433415" lon="11.7786724"><ele>275.0</ele><time>2026-03-22T16:32:26.765Z</time></trkpt><trkpt lat="43.4433103" lon="11.7787583"><ele>275.0</ele><time>2026-03-22T16:32:27.765Z</time></trkpt><trkpt lat="43.4432234" lon="11.7788579"><ele>274.8</ele><time>2026-03-22T16:32:29.764Z</time></trkpt><trkpt lat="43.4430959" lon="11.7788378"><ele>274.6</ele><time>2026-03-22T16:32:31.765Z</time></trkpt><trkpt lat="43.4430037" lon="11.7788343"><ele>274.4</ele><time>2026-03-22T16:32:32.765Z</time></trkpt><trkpt lat="43.4429039" lon="11.7788625"><ele>274.2</ele><time>2026-03-22T16:32:33.764Z</time></trkpt><trkpt lat="43.4427976" lon="11.7789159"><ele>274.0</ele><time>2026-03-22T16:32:34.765Z</time></trkpt><trkpt lat="43.442691" lon="11.7789786"><ele>274.0</ele><time>2026-03-22T16:32:35.765Z</time></trkpt><trkpt lat="43.442591" lon="11.7790551"><ele>274.0</ele><time>2026-03-22T16:32:36.765Z</time></trkpt><trkpt lat="43.4425031" lon="11.7791547"><ele>274.0</ele><time>2026-03-22T16:32:37.765Z</time></trkpt><trkpt lat="43.4424254" lon="11.7792543"><ele>274.0</ele><time>2026-03-22T16:32:38.765Z</time></trkpt><trkpt lat="43.4423919" lon="11.7794121"><ele>274.75</ele><time>2026-03-22T16:32:39.764Z</time></trkpt><trkpt lat="43.4423359" lon="11.7795649"><ele>275.5</ele><time>2026-03-22T16:32:40.765Z</time></trkpt><trkpt lat="43.4422812" lon="11.7797203"><ele>276.25</ele><time>2026-03-22T16:32:41.764Z</time></trkpt><trkpt lat="43.4422338" lon="11.779862"><ele>277.0</ele><time>2026-03-22T16:32:42.764Z</time></trkpt><trkpt lat="43.4421903" lon="11.779991"><ele>277.0</ele><time>2026-03-22T16:32:43.764Z</time></trkpt><trkpt lat="43.4421509" lon="11.7801151"><ele>277.0</ele><time>2026-03-22T16:32:44.764Z</time></trkpt><trkpt lat="43.4421121" lon="11.7802279"><ele>277.0</ele><time>2026-03-22T16:32:45.765Z</time></trkpt><trkpt lat="43.4420715" lon="11.7803406"><ele>277.0</ele><time>2026-03-22T16:32:46.764Z</time></trkpt><trkpt lat="43.4420305" lon="11.7804597"><ele>277.0</ele><time>2026-03-22T16:32:47.765Z</time></trkpt><trkpt lat="43.4419886" lon="11.7805882"><ele>276.0</ele><time>2026-03-22T16:32:48.764Z</time></trkpt><trkpt lat="43.4419498" lon="11.7807106"><ele>275.0</ele><time>2026-03-22T16:32:49.765Z</time></trkpt><trkpt lat="43.4419304" lon="11.7808256"><ele>274.0</ele><time>2026-03-22T16:32:50.765Z</time></trkpt><trkpt lat="43.441926" lon="11.7809295"><ele>273.0</ele><time>2026-03-22T16:32:51.764Z</time></trkpt><trkpt lat="43.4419472" lon="11.7810267"><ele>272.0</ele><time>2026-03-22T16:32:52.765Z</time></trkpt><trkpt lat="43.4419918" lon="11.7811108"><ele>271.0</ele><time>2026-03-22T16:32:53.764Z</time></trkpt><trkpt lat="43.4420556" lon="11.7811863"><ele>272.6</ele><time>2026-03-22T16:32:54.765Z</time></trkpt><trkpt lat="43.4421463" lon="11.7812503"><ele>274.20000000000005</ele><time>2026-03-22T16:32:55.765Z</time></trkpt><trkpt lat="43.4422313" lon="11.7812963"><ele>275.79999999999995</ele><time>2026-03-22T16:32:56.764Z</time></trkpt><trkpt lat="43.4422984" lon="11.781336"><ele>277.4</ele><time>2026-03-22T16:32:57.764Z</time></trkpt><trkpt lat="43.4423838" lon="11.7814018"><ele>279.0</ele><time>2026-03-22T16:32:59.765Z</time></trkpt><trkpt lat="43.4423732" lon="11.7815527"><ele>279.0</ele><time>2026-03-22T16:33:02.764Z</time></trkpt><trkpt lat="43.4423409" lon="11.7816382"><ele>279.0</ele><time>2026-03-22T16:33:03.764Z</time></trkpt><trkpt lat="43.4423012" lon="11.7817195"><ele>279.0</ele><time>2026-03-22T16:33:04.764Z</time></trkpt><trkpt lat="43.4422428" lon="11.7817938"><ele>279.0</ele><time>2026-03-22T16:33:05.765Z</time></trkpt><trkpt lat="43.4421738" lon="11.7818534"><ele>279.0</ele><time>2026-03-22T16:33:06.764Z</time></trkpt><trkpt lat="43.442106" lon="11.781914"><ele>279.0</ele><time>2026-03-22T16:33:07.763Z</time></trkpt><trkpt lat="43.4420445" lon="11.7819627"><ele>277.6666666666667</ele><time>2026-03-22T16:33:08.764Z</time></trkpt><trkpt lat="43.4419694" lon="11.7820208"><ele>276.3333333333333</ele><time>2026-03-22T16:33:10.765Z</time></trkpt><trkpt lat="43.4419169" lon="11.7820844"><ele>275.0</ele><time>2026-03-22T16:33:19.764Z</time></trkpt><trkpt lat="43.4419283" lon="11.7821823"><ele>273.66666666666663</ele><time>2026-03-22T16:33:21.765Z</time></trkpt><trkpt lat="43.4419383" lon="11.7822686"><ele>272.3333333333333</ele><time>2026-03-22T16:33:22.764Z</time></trkpt><trkpt lat="43.4419672" lon="11.7823868"><ele>271.0</ele><time>2026-03-22T16:33:23.765Z</time></trkpt><trkpt lat="43.4420056" lon="11.7825601"><ele>272.25</ele><time>2026-03-22T16:33:24.765Z</time></trkpt><trkpt lat="43.4420466" lon="11.7827607"><ele>273.5</ele><time>2026-03-22T16:33:25.765Z</time></trkpt><trkpt lat="43.4421014" lon="11.7829288"><ele>274.75</ele><time>2026-03-22T16:33:26.765Z</time></trkpt><trkpt lat="43.4421681" lon="11.7830851"><ele>276.0</ele><time>2026-03-22T16:33:27.764Z</time></trkpt><trkpt lat="43.4422553" lon="11.7832247"><ele>277.0</ele><time>2026-03-22T16:33:28.763Z</time></trkpt><trkpt lat="43.4423709" lon="11.783357"><ele>278.0</ele><time>2026-03-22T16:33:29.764Z</time></trkpt><trkpt lat="43.4424773" lon="11.7834608"><ele>279.0</ele><time>2026-03-22T16:33:30.764Z</time></trkpt><trkpt lat="43.4425616" lon="11.7835708"><ele>280.0</ele><time>2026-03-22T16:33:31.765Z</time></trkpt><trkpt lat="43.4426292" lon="11.7836757"><ele>279.8333333333333</ele><time>2026-03-22T16:33:32.765Z</time></trkpt><trkpt lat="43.4426858" lon="11.7837708"><ele>279.66666666666663</ele><time>2026-03-22T16:33:33.764Z</time></trkpt><trkpt lat="43.4427254" lon="11.7838505"><ele>279.5</ele><time>2026-03-22T16:33:34.765Z</time></trkpt><trkpt lat="43.4427709" lon="11.7839544"><ele>279.3333333333333</ele><time>2026-03-22T16:33:36.763Z</time></trkpt><trkpt lat="43.4428215" lon="11.7840659"><ele>279.1666666666667</ele><time>2026-03-22T16:33:38.764Z</time></trkpt><trkpt lat="43.4428382" lon="11.7841856"><ele>279.0</ele><time>2026-03-22T16:33:39.765Z</time></trkpt><trkpt lat="43.4428837" lon="11.7843513"><ele>279.0</ele><time>2026-03-22T16:33:40.765Z</time></trkpt><trkpt lat="43.4429358" lon="11.7845204"><ele>279.0</ele><time>2026-03-22T16:33:41.765Z</time></trkpt><trkpt lat="43.4429844" lon="11.7847076"><ele>279.0</ele><time>2026-03-22T16:33:42.764Z</time></trkpt><trkpt lat="43.4430147" lon="11.7849033"><ele>279.0</ele><time>2026-03-22T16:33:43.765Z</time></trkpt><trkpt lat="43.4430236" lon="11.7851059"><ele>276.3333333333333</ele><time>2026-03-22T16:33:44.764Z</time></trkpt><trkpt lat="43.4430284" lon="11.7853126"><ele>273.66666666666663</ele><time>2026-03-22T16:33:45.764Z</time></trkpt><trkpt lat="43.4430471" lon="11.78553"><ele>271.0</ele><time>2026-03-22T16:33:46.764Z</time></trkpt><trkpt lat="43.4430881" lon="11.7857458"><ele>271.0</ele><time>2026-03-22T16:33:47.764Z</time></trkpt><trkpt lat="43.4431502" lon="11.785952"><ele>271.0</ele><time>2026-03-22T16:33:48.765Z</time></trkpt><trkpt lat="43.4432326" lon="11.7861545"><ele>271.0</ele><time>2026-03-22T16:33:49.763Z</time></trkpt><trkpt lat="43.4433276" lon="11.7863525"><ele>270.0</ele><time>2026-03-22T16:33:50.765Z</time></trkpt><trkpt lat="43.4434392" lon="11.7865413"><ele>269.0</ele><time>2026-03-22T16:33:51.765Z</time></trkpt><trkpt lat="43.4435622" lon="11.7867142"><ele>268.0</ele><time>2026-03-22T16:33:52.764Z</time></trkpt><trkpt lat="43.443698" lon="11.7868626"><ele>266.66666666666663</ele><time>2026-03-22T16:33:53.765Z</time></trkpt><trkpt lat="43.4438499" lon="11.7870071"><ele>265.3333333333333</ele><time>2026-03-22T16:33:54.765Z</time></trkpt><trkpt lat="43.44399" lon="11.787159"><ele>264.0</ele><time>2026-03-22T16:33:55.764Z</time></trkpt><trkpt lat="43.444118" lon="11.7873139"><ele>264.0</ele><time>2026-03-22T16:33:56.765Z</time></trkpt><trkpt lat="43.4442446" lon="11.7874782"><ele>264.0</ele><time>2026-03-22T16:33:57.765Z</time></trkpt><trkpt lat="43.4443639" lon="11.787658"><ele>264.0</ele><time>2026-03-22T16:33:58.764Z</time></trkpt><trkpt lat="43.4444777" lon="11.787853"><ele>264.0</ele><time>2026-03-22T16:33:59.764Z</time></trkpt><trkpt lat="43.4445812" lon="11.7880618"><ele>264.0</ele><time>2026-03-22T16:34:00.764Z</time></trkpt><trkpt lat="43.4446775" lon="11.7882829"><ele>264.0</ele><time>2026-03-22T16:34:01.764Z</time></trkpt><trkpt lat="43.4447675" lon="11.7885111"><ele>264.0</ele><time>2026-03-22T16:34:02.764Z</time></trkpt><trkpt lat="43.4448513" lon="11.7887426"><ele>264.0</ele><time>2026-03-22T16:34:03.764Z</time></trkpt><trkpt lat="43.4449298" lon="11.7889762"><ele>264.0</ele><time>2026-03-22T16:34:04.764Z</time></trkpt><trkpt lat="43.4450046" lon="11.7892121"><ele>263.3333333333333</ele><time>2026-03-22T16:34:05.765Z</time></trkpt><trkpt lat="43.4450676" lon="11.7894551"><ele>262.66666666666663</ele><time>2026-03-22T16:34:06.765Z</time></trkpt><trkpt lat="43.4451116" lon="11.7897062"><ele>262.0</ele><time>2026-03-22T16:34:07.765Z</time></trkpt><trkpt lat="43.4451421" lon="11.7899586"><ele>260.66666666666663</ele><time>2026-03-22T16:34:08.764Z</time></trkpt><trkpt lat="43.4451744" lon="11.7902092"><ele>259.3333333333333</ele><time>2026-03-22T16:34:09.765Z</time></trkpt><trkpt lat="43.4452125" lon="11.790456"><ele>258.0</ele><time>2026-03-22T16:34:10.765Z</time></trkpt><trkpt lat="43.4452597" lon="11.7906907"><ele>258.0</ele><time>2026-03-22T16:34:11.765Z</time></trkpt><trkpt lat="43.4453195" lon="11.7909114"><ele>258.0</ele><time>2026-03-22T16:34:12.764Z</time></trkpt><trkpt lat="43.4453843" lon="11.7911205"><ele>258.0</ele><time>2026-03-22T16:34:13.764Z</time></trkpt><trkpt lat="43.4454668" lon="11.7913199"><ele>257.6666666666667</ele><time>2026-03-22T16:34:14.764Z</time></trkpt><trkpt lat="43.4455695" lon="11.7914992"><ele>257.33333333333337</ele><time>2026-03-22T16:34:15.765Z</time></trkpt><trkpt lat="43.4456939" lon="11.7916643"><ele>257.0</ele><time>2026-03-22T16:34:16.764Z</time></trkpt><trkpt lat="43.4458348" lon="11.7918054"><ele>256.0</ele><time>2026-03-22T16:34:17.765Z</time></trkpt><trkpt lat="43.4459857" lon="11.791941"><ele>255.0</ele><time>2026-03-22T16:34:18.764Z</time></trkpt><trkpt lat="43.4461307" lon="11.7920684"><ele>254.0</ele><time>2026-03-22T16:34:19.765Z</time></trkpt><trkpt lat="43.4462641" lon="11.7921908"><ele>254.25</ele><time>2026-03-22T16:34:20.765Z</time></trkpt><trkpt lat="43.4463832" lon="11.7923203"><ele>254.5</ele><time>2026-03-22T16:34:21.764Z</time></trkpt><trkpt lat="43.4464808" lon="11.7924633"><ele>254.75</ele><time>2026-03-22T16:34:22.765Z</time></trkpt><trkpt lat="43.446558" lon="11.7926295"><ele>255.0</ele><time>2026-03-22T16:34:23.765Z</time></trkpt><trkpt lat="43.4466144" lon="11.7928213"><ele>255.0</ele><time>2026-03-22T16:34:24.764Z</time></trkpt><trkpt lat="43.4466539" lon="11.7930473"><ele>255.0</ele><time>2026-03-22T16:34:25.765Z</time></trkpt><trkpt lat="43.4466852" lon="11.7932935"><ele>255.0</ele><time>2026-03-22T16:34:26.765Z</time></trkpt><trkpt lat="43.4467174" lon="11.7935424"><ele>255.0</ele><time>2026-03-22T16:34:27.764Z</time></trkpt><trkpt lat="43.4467479" lon="11.7938018"><ele>255.0</ele><time>2026-03-22T16:34:28.763Z</time></trkpt><trkpt lat="43.4467766" lon="11.7940534"><ele>255.0</ele><time>2026-03-22T16:34:29.765Z</time></trkpt><trkpt lat="43.4468009" lon="11.7942953"><ele>254.33333333333331</ele><time>2026-03-22T16:34:30.765Z</time></trkpt><trkpt lat="43.4468291" lon="11.7945291"><ele>253.66666666666666</ele><time>2026-03-22T16:34:31.765Z</time></trkpt><trkpt lat="43.4468683" lon="11.7947637"><ele>253.0</ele><time>2026-03-22T16:34:32.764Z</time></trkpt><trkpt lat="43.4469213" lon="11.7949909"><ele>253.0</ele><time>2026-03-22T16:34:33.764Z</time></trkpt><trkpt lat="43.4469888" lon="11.7952086"><ele>253.0</ele><time>2026-03-22T16:34:34.764Z</time></trkpt><trkpt lat="43.4470666" lon="11.7954164"><ele>253.0</ele><time>2026-03-22T16:34:35.764Z</time></trkpt><trkpt lat="43.4471549" lon="11.7956067"><ele>253.33333333333331</ele><time>2026-03-22T16:34:36.764Z</time></trkpt><trkpt lat="43.4472529" lon="11.7957819"><ele>253.66666666666669</ele><time>2026-03-22T16:34:37.765Z</time></trkpt><trkpt lat="43.4473545" lon="11.7959554"><ele>254.0</ele><time>2026-03-22T16:34:38.765Z</time></trkpt><trkpt lat="43.4474553" lon="11.7961218"><ele>253.5</ele><time>2026-03-22T16:34:39.765Z</time></trkpt><trkpt lat="43.4475502" lon="11.7962719"><ele>253.0</ele><time>2026-03-22T16:34:40.764Z</time></trkpt><trkpt lat="43.4476343" lon="11.7964019"><ele>252.5</ele><time>2026-03-22T16:34:41.765Z</time></trkpt><trkpt lat="43.4477071" lon="11.7965176"><ele>252.0</ele><time>2026-03-22T16:34:42.765Z</time></trkpt><trkpt lat="43.4477567" lon="11.7966143"><ele>252.0</ele><time>2026-03-22T16:34:43.765Z</time></trkpt><trkpt lat="43.4477887" lon="11.7967005"><ele>252.0</ele><time>2026-03-22T16:34:44.765Z</time></trkpt><trkpt lat="43.4478056" lon="11.7967903"><ele>252.0</ele><time>2026-03-22T16:34:45.765Z</time></trkpt><trkpt lat="43.4478146" lon="11.796878"><ele>252.0</ele><time>2026-03-22T16:34:46.764Z</time></trkpt><trkpt lat="43.4478461" lon="11.796955"><ele>252.0</ele><time>2026-03-22T16:34:47.764Z</time></trkpt><trkpt lat="43.4478965" lon="11.79701"><ele>252.0</ele><time>2026-03-22T16:34:48.764Z</time></trkpt><trkpt lat="43.4479671" lon="11.7970521"><ele>252.0</ele><time>2026-03-22T16:34:49.763Z</time></trkpt><trkpt lat="43.4480543" lon="11.7970977"><ele>251.39999999999998</ele><time>2026-03-22T16:34:50.764Z</time></trkpt><trkpt lat="43.4481474" lon="11.7971623"><ele>250.79999999999998</ele><time>2026-03-22T16:34:51.764Z</time></trkpt><trkpt lat="43.4482424" lon="11.7972394"><ele>250.2</ele><time>2026-03-22T16:34:52.764Z</time></trkpt><trkpt lat="43.4483321" lon="11.7973116"><ele>249.6</ele><time>2026-03-22T16:34:53.764Z</time></trkpt><trkpt lat="43.4484286" lon="11.7973893"><ele>249.0</ele><time>2026-03-22T16:34:54.765Z</time></trkpt><trkpt lat="43.4485311" lon="11.7974761"><ele>249.0</ele><time>2026-03-22T16:34:55.764Z</time></trkpt><trkpt lat="43.4486312" lon="11.797579"><ele>249.0</ele><time>2026-03-22T16:34:56.764Z</time></trkpt><trkpt lat="43.4487255" lon="11.7977015"><ele>249.0</ele><time>2026-03-22T16:34:57.764Z</time></trkpt><trkpt lat="43.4488086" lon="11.7978563"><ele>249.0</ele><time>2026-03-22T16:34:58.765Z</time></trkpt><trkpt lat="43.4488797" lon="11.7980303"><ele>248.66666666666669</ele><time>2026-03-22T16:34:59.765Z</time></trkpt><trkpt lat="43.4489488" lon="11.798212"><ele>248.33333333333334</ele><time>2026-03-22T16:35:00.764Z</time></trkpt><trkpt lat="43.4490161" lon="11.7983977"><ele>248.0</ele><time>2026-03-22T16:35:01.764Z</time></trkpt><trkpt lat="43.4490929" lon="11.7985888"><ele>248.0</ele><time>2026-03-22T16:35:02.765Z</time></trkpt><trkpt lat="43.4491764" lon="11.7987726"><ele>248.0</ele><time>2026-03-22T16:35:03.765Z</time></trkpt><trkpt lat="43.4492709" lon="11.7989498"><ele>248.0</ele><time>2026-03-22T16:35:04.765Z</time></trkpt><trkpt lat="43.4493739" lon="11.7991107"><ele>248.0</ele><time>2026-03-22T16:35:05.765Z</time></trkpt><trkpt lat="43.4494919" lon="11.7992628"><ele>248.0</ele><time>2026-03-22T16:35:06.765Z</time></trkpt><trkpt lat="43.4496207" lon="11.7994038"><ele>248.0</ele><time>2026-03-22T16:35:07.765Z</time></trkpt><trkpt lat="43.4497463" lon="11.7995437"><ele>248.5</ele><time>2026-03-22T16:35:08.765Z</time></trkpt><trkpt lat="43.4498651" lon="11.7996797"><ele>249.0</ele><time>2026-03-22T16:35:09.764Z</time></trkpt><trkpt lat="43.4499723" lon="11.7998207"><ele>249.5</ele><time>2026-03-22T16:35:10.764Z</time></trkpt><trkpt lat="43.4500648" lon="11.7999699"><ele>250.0</ele><time>2026-03-22T16:35:11.764Z</time></trkpt><trkpt lat="43.450144" lon="11.8001327"><ele>250.25</ele><time>2026-03-22T16:35:12.765Z</time></trkpt><trkpt lat="43.4502161" lon="11.8002874"><ele>250.5</ele><time>2026-03-22T16:35:13.764Z</time></trkpt><trkpt lat="43.4502852" lon="11.8004338"><ele>250.75</ele><time>2026-03-22T16:35:14.765Z</time></trkpt><trkpt lat="43.4503497" lon="11.8005757"><ele>251.0</ele><time>2026-03-22T16:35:15.764Z</time></trkpt><trkpt lat="43.4504154" lon="11.8007235"><ele>250.75</ele><time>2026-03-22T16:35:16.764Z</time></trkpt><trkpt lat="43.4504796" lon="11.8008718"><ele>250.5</ele><time>2026-03-22T16:35:17.765Z</time></trkpt><trkpt lat="43.4505389" lon="11.8010228"><ele>250.25</ele><time>2026-03-22T16:35:18.764Z</time></trkpt><trkpt lat="43.4505985" lon="11.8011727"><ele>250.0</ele><time>2026-03-22T16:35:19.765Z</time></trkpt><trkpt lat="43.4506553" lon="11.8013127"><ele>250.0</ele><time>2026-03-22T16:35:20.764Z</time></trkpt><trkpt lat="43.4507074" lon="11.8014498"><ele>250.0</ele><time>2026-03-22T16:35:21.765Z</time></trkpt><trkpt lat="43.4507618" lon="11.8015874"><ele>250.0</ele><time>2026-03-22T16:35:22.764Z</time></trkpt><trkpt lat="43.4508192" lon="11.8017341"><ele>250.0</ele><time>2026-03-22T16:35:23.765Z</time></trkpt><trkpt lat="43.4508791" lon="11.8018803"><ele>250.25</ele><time>2026-03-22T16:35:24.764Z</time></trkpt><trkpt lat="43.4509361" lon="11.8020337"><ele>250.5</ele><time>2026-03-22T16:35:25.765Z</time></trkpt><trkpt lat="43.4509939" lon="11.8021912"><ele>250.75</ele><time>2026-03-22T16:35:26.764Z</time></trkpt><trkpt lat="43.4510484" lon="11.8023578"><ele>251.0</ele><time>2026-03-22T16:35:27.764Z</time></trkpt><trkpt lat="43.4510918" lon="11.8025392"><ele>250.5</ele><time>2026-03-22T16:35:28.765Z</time></trkpt><trkpt lat="43.4511285" lon="11.8027304"><ele>250.0</ele><time>2026-03-22T16:35:29.764Z</time></trkpt><trkpt lat="43.4511603" lon="11.8029263"><ele>249.5</ele><time>2026-03-22T16:35:30.765Z</time></trkpt><trkpt lat="43.4511865" lon="11.8031162"><ele>249.0</ele><time>2026-03-22T16:35:31.764Z</time></trkpt><trkpt lat="43.4512157" lon="11.8033055"><ele>249.0</ele><time>2026-03-22T16:35:32.765Z</time></trkpt><trkpt lat="43.4512462" lon="11.8034962"><ele>249.0</ele><time>2026-03-22T16:35:33.765Z</time></trkpt><trkpt lat="43.4512914" lon="11.8036898"><ele>249.0</ele><time>2026-03-22T16:35:34.764Z</time></trkpt><trkpt lat="43.4513521" lon="11.8038762"><ele>249.0</ele><time>2026-03-22T16:35:35.765Z</time></trkpt><trkpt lat="43.45143" lon="11.8040558"><ele>249.0</ele><time>2026-03-22T16:35:36.764Z</time></trkpt><trkpt lat="43.4515194" lon="11.8042241"><ele>249.0</ele><time>2026-03-22T16:35:37.764Z</time></trkpt><trkpt lat="43.4516049" lon="11.8043873"><ele>249.0</ele><time>2026-03-22T16:35:38.765Z</time></trkpt><trkpt lat="43.4516841" lon="11.8045419"><ele>249.0</ele><time>2026-03-22T16:35:39.765Z</time></trkpt><trkpt lat="43.4517622" lon="11.8046887"><ele>248.75</ele><time>2026-03-22T16:35:40.764Z</time></trkpt><trkpt lat="43.4518397" lon="11.8048288"><ele>248.5</ele><time>2026-03-22T16:35:41.764Z</time></trkpt><trkpt lat="43.4519246" lon="11.8049708"><ele>248.25</ele><time>2026-03-22T16:35:42.765Z</time></trkpt><trkpt lat="43.4520148" lon="11.8051081"><ele>248.0</ele><time>2026-03-22T16:35:43.764Z</time></trkpt><trkpt lat="43.4521146" lon="11.8052473"><ele>248.25</ele><time>2026-03-22T16:35:44.764Z</time></trkpt><trkpt lat="43.452214" lon="11.8053891"><ele>248.5</ele><time>2026-03-22T16:35:45.764Z</time></trkpt><trkpt lat="43.4523116" lon="11.8055261"><ele>248.75</ele><time>2026-03-22T16:35:46.765Z</time></trkpt><trkpt lat="43.4524113" lon="11.8056491"><ele>249.0</ele><time>2026-03-22T16:35:47.764Z</time></trkpt><trkpt lat="43.4525223" lon="11.8057552"><ele>249.0</ele><time>2026-03-22T16:35:48.765Z</time></trkpt><trkpt lat="43.4526465" lon="11.8058283"><ele>249.0</ele><time>2026-03-22T16:35:49.765Z</time></trkpt><trkpt lat="43.4527786" lon="11.8058815"><ele>249.0</ele><time>2026-03-22T16:35:50.764Z</time></trkpt><trkpt lat="43.452911" lon="11.8059105"><ele>249.0</ele><time>2026-03-22T16:35:51.764Z</time></trkpt><trkpt lat="43.4530502" lon="11.8059255"><ele>249.25</ele><time>2026-03-22T16:35:52.765Z</time></trkpt><trkpt lat="43.4531899" lon="11.8059439"><ele>249.5</ele><time>2026-03-22T16:35:53.765Z</time></trkpt><trkpt lat="43.4533336" lon="11.8059594"><ele>249.75</ele><time>2026-03-22T16:35:54.764Z</time></trkpt><trkpt lat="43.4534775" lon="11.8059843"><ele>250.0</ele><time>2026-03-22T16:35:55.764Z</time></trkpt><trkpt lat="43.4536182" lon="11.8060229"><ele>249.25</ele><time>2026-03-22T16:35:56.765Z</time></trkpt><trkpt lat="43.4537501" lon="11.8060569"><ele>248.5</ele><time>2026-03-22T16:35:57.765Z</time></trkpt><trkpt lat="43.4538726" lon="11.8060877"><ele>247.75</ele><time>2026-03-22T16:35:58.764Z</time></trkpt><trkpt lat="43.4539879" lon="11.8061158"><ele>247.0</ele><time>2026-03-22T16:35:59.765Z</time></trkpt><trkpt lat="43.4540913" lon="11.8061397"><ele>246.99999999999997</ele><time>2026-03-22T16:36:00.764Z</time></trkpt><trkpt lat="43.454171" lon="11.8061591"><ele>247.0</ele><time>2026-03-22T16:36:01.764Z</time></trkpt><trkpt lat="43.4542346" lon="11.8061696"><ele>247.0</ele><time>2026-03-22T16:36:02.764Z</time></trkpt><trkpt lat="43.4543141" lon="11.8061581"><ele>247.0</ele><time>2026-03-22T16:36:04.765Z</time></trkpt><trkpt lat="43.454351" lon="11.806072"><ele>246.99999999999997</ele><time>2026-03-22T16:36:06.765Z</time></trkpt><trkpt lat="43.454383" lon="11.8059264"><ele>247.0</ele><time>2026-03-22T16:36:08.765Z</time></trkpt><trkpt lat="43.4544057" lon="11.8058393"><ele>248.0</ele><time>2026-03-22T16:36:09.764Z</time></trkpt><trkpt lat="43.4544381" lon="11.805736"><ele>249.0</ele><time>2026-03-22T16:36:10.765Z</time></trkpt><trkpt lat="43.4544786" lon="11.8056093"><ele>250.0</ele><time>2026-03-22T16:36:11.763Z</time></trkpt><trkpt lat="43.4545395" lon="11.8054395"><ele>251.0</ele><time>2026-03-22T16:36:12.764Z</time></trkpt><trkpt lat="43.4546091" lon="11.8052448"><ele>252.5</ele><time>2026-03-22T16:36:13.764Z</time></trkpt><trkpt lat="43.4546761" lon="11.8050538"><ele>254.0</ele><time>2026-03-22T16:36:14.764Z</time></trkpt><trkpt lat="43.4547324" lon="11.804893"><ele>255.5</ele><time>2026-03-22T16:36:15.765Z</time></trkpt><trkpt lat="43.4547883" lon="11.8047623"><ele>257.0</ele><time>2026-03-22T16:36:16.764Z</time></trkpt><trkpt lat="43.4548362" lon="11.8046523"><ele>257.0</ele><time>2026-03-22T16:36:17.765Z</time></trkpt><trkpt lat="43.4548959" lon="11.8045781"><ele>257.0</ele><time>2026-03-22T16:36:18.764Z</time></trkpt><trkpt lat="43.454969" lon="11.8045167"><ele>257.0</ele><time>2026-03-22T16:36:19.764Z</time></trkpt><trkpt lat="43.455068" lon="11.8044852"><ele>257.0</ele><time>2026-03-22T16:36:20.764Z</time></trkpt><trkpt lat="43.4551891" lon="11.8044662"><ele>257.0</ele><time>2026-03-22T16:36:21.764Z</time></trkpt><trkpt lat="43.4553342" lon="11.8044529"><ele>257.6666666666667</ele><time>2026-03-22T16:36:22.765Z</time></trkpt><trkpt lat="43.4554859" lon="11.8044374"><ele>258.3333333333333</ele><time>2026-03-22T16:36:23.765Z</time></trkpt><trkpt lat="43.4556573" lon="11.8044193"><ele>259.0</ele><time>2026-03-22T16:36:24.764Z</time></trkpt><trkpt lat="43.4558239" lon="11.8044027"><ele>259.0</ele><time>2026-03-22T16:36:25.764Z</time></trkpt><trkpt lat="43.4559723" lon="11.8043951"><ele>259.0</ele><time>2026-03-22T16:36:26.764Z</time></trkpt><trkpt lat="43.4561073" lon="11.8043974"><ele>259.0</ele><time>2026-03-22T16:36:27.764Z</time></trkpt></trkseg></trk></gpx>